GEFSNGP_prec_meanprecacc_006.txt.gz
Total_Precipitation_Accumulation
0.00 0.00 0.00 0.00 0.00 0.00 0.00 0.00 0.00 0.00 0.01 0.01 0.01 0.02 0.00 0.00 0.00 0.00 0.00 0.00 0.00 0.00 0.00 0.00 0.00 0.00 0.00 0.00 0.00 0.00 0.00 0.01 0.01 0.01 0.01 0.02 0.03 0.03 0.02 0.01 0.01 0.01 0.01 0.01
0.00 0.00 0.00 0.00 0.00 0.00 0.00 0.00 0.00 0.00 0.01 0.00 0.00 0.01 0.00 0.00 0.00 0.00 0.00 0.00 0.00 0.00 0.00 0.00 0.00 0.00 0.00 0.00 0.00 0.00 0.01 0.01 0.01 0.01 0.01 0.02 0.02 0.01 0.01 0.00 0.00 0.01 0.01 0.01
0.00 0.00 0.00 0.00 0.00 0.00 0.00 0.00 0.00 0.01 0.01 0.00 0.00 0.00 0.00 0.00 0.00 0.00 0.00 0.00 0.00 0.00 0.00 0.00 0.00 0.00 0.00 0.00 0.00 0.00 0.01 0.01 0.01 0.00 0.01 0.01 0.00 0.00 0.00 0.01 0.01 0.01 0.01 0.00
0.01 0.01 0.01 0.00 0.00 0.00 0.00 0.00 0.00 0.00 0.00 0.00 0.00 0.00 0.00 0.00 0.00 0.00 0.00 0.00 0.00 0.00 0.00 0.00 0.00 0.00 0.00 0.00 0.00 0.00 0.00 0.00 0.00 0.00 0.00 0.00 0.00 0.01 0.01 0.01 0.01 0.01 0.01 0.00
0.03 0.04 0.02 0.01 0.00 0.00 0.00 0.00 0.00 0.00 0.00 0.00 0.00 0.00 0.00 0.00 0.00 0.00 0.00 0.00 0.00 0.00 0.00 0.00 0.00 0.00 0.00 0.00 0.00 0.00 0.00 0.00 0.00 0.00 0.00 0.00 0.01 0.01 0.01 0.01 0.01 0.01 0.01 0.01
0.08 0.09 0.07 0.04 0.01 0.00 0.00 0.00 0.00 0.00 0.00 0.00 0.00 0.00 0.00 0.00 0.00 0.00 0.00 0.00 0.00 0.00 0.00 0.00 0.00 0.00 0.00 0.00 0.00 0.00 0.00 0.00 0.00 0.00 0.00 0.00 0.01 0.01 0.01 0.01 0.01 0.00 0.00 0.01
0.14 0.14 0.08 0.03 0.01 0.01 0.01 0.01 0.00 0.00 0.00 0.00 0.00 0.00 0.00 0.00 0.00 0.00 0.00 0.00 0.00 0.00 0.00 0.00 0.00 0.00 0.00 0.00 0.00 0.00 0.00 0.00 0.00 0.00 0.00 0.00 0.00 0.01 0.01 0.00 0.00 0.00 0.00 0.01
0.11 0.13 0.13 0.02 0.00 0.01 0.01 0.00 0.00 0.00 0.00 0.00 0.00 0.00 0.00 0.00 0.00 0.00 0.00 0.00 0.00 0.00 0.00 0.00 0.00 0.00 0.00 0.00 0.00 0.00 0.00 0.00 0.00 0.00 0.00 0.00 0.00 0.00 0.00 0.00 0.00 0.00 0.00 0.00
0.10 0.10 0.06 0.02 0.00 0.00 0.00 0.00 0.00 0.00 0.00 0.00 0.00 0.00 0.00 0.00 0.00 0.00 0.00 0.00 0.00 0.00 0.00 0.00 0.00 0.00 0.00 0.00 0.00 0.00 0.00 0.00 0.00 0.00 0.00 0.00 0.00 0.00 0.00 0.00 0.00 0.00 0.00 0.00
0.07 0.06 0.04 0.02 0.01 0.00 0.00 0.00 0.00 0.00 0.00 0.00 0.00 0.00 0.00 0.00 0.00 0.00 0.00 0.00 0.00 0.00 0.00 0.00 0.00 0.00 0.00 0.00 0.00 0.00 0.00 0.00 0.00 0.00 0.00 0.00 0.00 0.00 0.00 0.00 0.00 0.00 0.00 0.00
0.05 0.03 0.03 0.02 0.00 0.00 0.00 0.00 0.00 0.00 0.00 0.00 0.00 0.00 0.00 0.00 0.00 0.00 0.00 0.00 0.00 0.00 0.00 0.00 0.00 0.00 0.00 0.00 0.00 0.00 0.00 0.00 0.00 0.00 0.00 0.00 0.00 0.00 0.00 0.00 0.00 0.00 0.00 0.00
0.05 0.01 0.01 0.00 0.00 0.00 0.00 0.00 0.00 0.00 0.00 0.00 0.00 0.00 0.00 0.00 0.00 0.00 0.00 0.00 0.00 0.00 0.00 0.00 0.00 0.00 0.00 0.00 0.00 0.00 0.00 0.00 0.00 0.00 0.00 0.00 0.00 0.00 0.00 0.00 0.00 0.00 0.00 0.00
0.01 0.00 0.00 0.00 0.00 0.00 0.00 0.00 0.00 0.00 0.00 0.00 0.00 0.00 0.00 0.00 0.00 0.00 0.00 0.00 0.00 0.00 0.00 0.00 0.00 0.00 0.00 0.00 0.00 0.00 0.00 0.00 0.00 0.00 0.00 0.00 0.00 0.00 0.00 0.00 0.00 0.00 0.00 0.00
0.00 0.00 0.00 0.00 0.00 0.00 0.00 0.00 0.00 0.00 0.00 0.00 0.00 0.00 0.00 0.00 0.00 0.00 0.00 0.00 0.00 0.00 0.00 0.00 0.00 0.00 0.00 0.00 0.00 0.00 0.00 0.00 0.00 0.00 0.00 0.00 0.00 0.00 0.00 0.00 0.00 0.00 0.00 0.00
0.00 0.00 0.00 0.00 0.00 0.00 0.00 0.00 0.00 0.00 0.00 0.00 0.00 0.00 0.00 0.00 0.00 0.00 0.00 0.00 0.00 0.00 0.00 0.00 0.00 0.00 0.00 0.00 0.00 0.00 0.00 0.00 0.00 0.00 0.00 0.00 0.00 0.00 0.00 0.00 0.00 0.00 0.00 0.00
0.00 0.00 0.00 0.00 0.00 0.00 0.00 0.00 0.00 0.00 0.00 0.00 0.00 0.00 0.00 0.00 0.00 0.00 0.00 0.00 0.00 0.00 0.00 0.00 0.00 0.00 0.00 0.00 0.00 0.00 0.00 0.00 0.00 0.00 0.00 0.00 0.00 0.00 0.00 0.00 0.00 0.00 0.00 0.00
0.00 0.00 0.00 0.00 0.00 0.00 0.00 0.00 0.00 0.00 0.00 0.00 0.00 0.00 0.00 0.00 0.00 0.00 0.00 0.00 0.00 0.00 0.00 0.00 0.00 0.00 0.00 0.00 0.00 0.00 0.00 0.00 0.00 0.00 0.00 0.00 0.00 0.00 0.00 0.00 0.00 0.00 0.00 0.00
0.00 0.00 0.00 0.00 0.00 0.00 0.00 0.00 0.00 0.00 0.00 0.00 0.00 0.00 0.00 0.00 0.00 0.00 0.00 0.00 0.00 0.00 0.00 0.00 0.00 0.00 0.00 0.00 0.00 0.00 0.00 0.00 0.00 0.00 0.00 0.00 0.00 0.00 0.00 0.00 0.00 0.00 0.00 0.00
0.00 0.00 0.00 0.00 0.00 0.00 0.00 0.00 0.00 0.00 0.00 0.00 0.00 0.00 0.00 0.00 0.00 0.00 0.00 0.00 0.00 0.00 0.00 0.00 0.00 0.00 0.00 0.00 0.00 0.00 0.00 0.00 0.00 0.00 0.00 0.00 0.00 0.00 0.00 0.00 0.00 0.00 0.00 0.00
0.00 0.00 0.00 0.00 0.00 0.00 0.00 0.00 0.00 0.00 0.00 0.00 0.00 0.00 0.00 0.00 0.00 0.00 0.00 0.00 0.00 0.00 0.00 0.00 0.00 0.00 0.00 0.00 0.00 0.00 0.00 0.00 0.00 0.00 0.00 0.00 0.00 0.00 0.00 0.00 0.00 0.00 0.00 0.01
0.00 0.00 0.00 0.00 0.00 0.00 0.00 0.00 0.00 0.00 0.00 0.00 0.00 0.00 0.00 0.00 0.00 0.00 0.00 0.00 0.00 0.00 0.00 0.00 0.00 0.00 0.00 0.00 0.00 0.00 0.00 0.00 0.00 0.00 0.00 0.00 0.00 0.00 0.00 0.00 0.00 0.00 0.00 0.01
0.00 0.00 0.00 0.00 0.00 0.00 0.00 0.01 0.00 0.00 0.00 0.00 0.00 0.00 0.00 0.00 0.00 0.00 0.00 0.00 0.00 0.00 0.00 0.00 0.00 0.00 0.00 0.00 0.00 0.00 0.00 0.00 0.00 0.00 0.00 0.00 0.00 0.00 0.00 0.00 0.00 0.00 0.00 0.01
0.01 0.01 0.01 0.01 0.00 0.00 0.01 0.01 0.00 0.00 0.00 0.00 0.00 0.00 0.00 0.00 0.00 0.00 0.00 0.00 0.00 0.00 0.00 0.00 0.00 0.00 0.00 0.00 0.00 0.00 0.00 0.00 0.00 0.00 0.00 0.00 0.00 0.00 0.00 0.00 0.00 0.00 0.00 0.00
0.02 0.02 0.02 0.01 0.00 0.01 0.01 0.00 0.00 0.00 0.00 0.00 0.00 0.00 0.00 0.00 0.00 0.00 0.00 0.00 0.00 0.00 0.00 0.00 0.00 0.00 0.00 0.00 0.00 0.00 0.00 0.00 0.00 0.00 0.00 0.00 0.00 0.00 0.00 0.00 0.00 0.00 0.00 0.00
0.03 0.02 0.01 0.01 0.01 0.01 0.00 0.00 0.00 0.00 0.00 0.00 0.00 0.00 0.00 0.00 0.00 0.00 0.00 0.00 0.00 0.00 0.00 0.00 0.00 0.00 0.00 0.00 0.00 0.00 0.00 0.00 0.00 0.00 0.00 0.00 0.00 0.00 0.00 0.00 0.00 0.00 0.00 0.00
0.03 0.03 0.02 0.01 0.01 0.00 0.00 0.00 0.00 0.00 0.00 0.00 0.00 0.00 0.00 0.00 0.00 0.00 0.00 0.00 0.00 0.00 0.00 0.00 0.00 0.00 0.00 0.00 0.00 0.00 0.00 0.00 0.00 0.00 0.00 0.00 0.00 0.00 0.00 0.00 0.00 0.00 0.00 0.00
0.03 0.04 0.03 0.01 0.01 0.00 0.00 0.00 0.00 0.00 0.00 0.00 0.00 0.00 0.00 0.00 0.00 0.00 0.00 0.00 0.00 0.00 0.00 0.00 0.00 0.00 0.00 0.00 0.00 0.00 0.00 0.00 0.00 0.00 0.00 0.00 0.00 0.00 0.00 0.00 0.00 0.00 0.00 0.00

GEFSNGP_prec_meanprecacc_012.txt.gz
Total_Precipitation_Accumulation
0.00 0.00 0.00 0.01 0.01 0.01 0.02 0.02 0.02 0.02 0.06 0.11 0.21 0.27 0.23 0.16 0.10 0.07 0.04 0.03 0.01 0.00 0.00 0.00 0.00 0.00 0.00 0.00 0.00 0.00 0.00 0.01 0.01 0.01 0.01 0.02 0.03 0.03 0.02 0.01 0.01 0.01 0.01 0.01
0.00 0.00 0.00 0.00 0.01 0.01 0.01 0.02 0.02 0.04 0.09 0.14 0.19 0.20 0.18 0.14 0.11 0.10 0.07 0.03 0.01 0.00 0.00 0.00 0.00 0.00 0.00 0.00 0.00 0.00 0.01 0.01 0.01 0.01 0.01 0.02 0.02 0.01 0.01 0.01 0.01 0.01 0.01 0.01
0.00 0.00 0.00 0.00 0.00 0.00 0.01 0.01 0.01 0.04 0.09 0.09 0.12 0.13 0.13 0.11 0.10 0.09 0.05 0.01 0.00 0.00 0.00 0.00 0.00 0.00 0.00 0.00 0.00 0.00 0.01 0.01 0.01 0.00 0.01 0.01 0.00 0.00 0.01 0.01 0.01 0.01 0.01 0.01
0.01 0.01 0.01 0.00 0.00 0.00 0.01 0.02 0.01 0.01 0.02 0.03 0.04 0.05 0.06 0.06 0.05 0.03 0.01 0.00 0.00 0.00 0.00 0.00 0.00 0.00 0.00 0.00 0.00 0.00 0.00 0.00 0.00 0.00 0.00 0.00 0.00 0.01 0.01 0.01 0.01 0.01 0.01 0.01
0.06 0.06 0.03 0.01 0.00 0.00 0.01 0.01 0.01 0.02 0.02 0.02 0.02 0.03 0.03 0.02 0.02 0.01 0.00 0.00 0.00 0.00 0.00 0.00 0.00 0.00 0.00 0.00 0.00 0.00 0.00 0.00 0.00 0.00 0.00 0.00 0.01 0.01 0.01 0.01 0.01 0.01 0.01 0.01
0.12 0.14 0.11 0.04 0.02 0.01 0.01 0.03 0.02 0.02 0.02 0.02 0.02 0.04 0.03 0.02 0.01 0.00 0.00 0.00 0.00 0.00 0.00 0.00 0.00 0.00 0.00 0.00 0.00 0.00 0.00 0.00 0.00 0.00 0.00 0.01 0.01 0.01 0.01 0.01 0.01 0.00 0.01 0.01
0.17 0.21 0.18 0.09 0.06 0.04 0.06 0.06 0.07 0.05 0.04 0.05 0.06 0.05 0.03 0.01 0.00 0.00 0.00 0.00 0.00 0.00 0.00 0.00 0.00 0.00 0.00 0.00 0.00 0.00 0.00 0.00 0.00 0.00 0.00 0.00 0.00 0.01 0.01 0.01 0.00 0.00 0.00 0.01
0.17 0.23 0.26 0.10 0.08 0.10 0.11 0.09 0.11 0.08 0.07 0.06 0.05 0.03 0.01 0.00 0.00 0.00 0.00 0.00 0.00 0.00 0.00 0.00 0.00 0.00 0.00 0.01 0.00 0.00 0.00 0.00 0.00 0.00 0.00 0.00 0.00 0.00 0.00 0.00 0.00 0.00 0.00 0.00
0.20 0.22 0.15 0.09 0.07 0.06 0.08 0.10 0.09 0.08 0.07 0.04 0.02 0.01 0.00 0.00 0.00 0.00 0.00 0.00 0.00 0.00 0.00 0.00 0.00 0.00 0.00 0.00 0.00 0.00 0.00 0.00 0.00 0.00 0.00 0.00 0.00 0.00 0.00 0.00 0.00 0.00 0.00 0.00
0.24 0.21 0.16 0.11 0.07 0.05 0.05 0.07 0.08 0.08 0.06 0.03 0.01 0.00 0.00 0.00 0.00 0.00 0.00 0.00 0.00 0.00 0.00 0.00 0.00 0.00 0.00 0.00 0.00 0.00 0.00 0.00 0.00 0.00 0.00 0.00 0.00 0.00 0.00 0.00 0.00 0.00 0.00 0.00
0.40 0.32 0.23 0.10 0.06 0.05 0.04 0.05 0.05 0.03 0.01 0.00 0.00 0.00 0.00 0.00 0.00 0.00 0.00 0.00 0.00 0.00 0.00 0.00 0.00 0.00 0.00 0.00 0.00 0.00 0.00 0.00 0.00 0.00 0.00 0.00 0.00 0.00 0.00 0.00 0.00 0.00 0.00 0.00
0.60 0.38 0.23 0.08 0.03 0.02 0.02 0.01 0.01 0.00 0.00 0.00 0.00 0.00 0.00 0.00 0.00 0.00 0.00 0.00 0.00 0.00 0.00 0.00 0.00 0.00 0.00 0.00 0.00 0.00 0.00 0.00 0.00 0.00 0.00 0.00 0.00 0.00 0.00 0.00 0.00 0.00 0.00 0.00
0.41 0.23 0.11 0.04 0.01 0.00 0.00 0.00 0.00 0.00 0.00 0.00 0.00 0.00 0.00 0.00 0.00 0.00 0.00 0.00 0.00 0.00 0.00 0.00 0.00 0.00 0.00 0.00 0.00 0.00 0.00 0.00 0.00 0.00 0.00 0.00 0.00 0.00 0.00 0.00 0.00 0.00 0.00 0.00
0.15 0.08 0.04 0.01 0.00 0.00 0.00 0.00 0.00 0.00 0.00 0.00 0.00 0.00 0.00 0.00 0.00 0.00 0.00 0.00 0.00 0.00 0.00 0.00 0.00 0.00 0.00 0.00 0.00 0.00 0.00 0.00 0.00 0.00 0.00 0.00 0.00 0.00 0.00 0.00 0.01 0.00 0.00 0.00
0.03 0.01 0.00 0.00 0.00 0.00 0.00 0.00 0.00 0.00 0.00 0.00 0.00 0.00 0.00 0.00 0.00 0.00 0.00 0.00 0.00 0.00 0.00 0.00 0.00 0.00 0.00 0.00 0.00 0.00 0.00 0.00 0.00 0.00 0.00 0.00 0.00 0.00 0.00 0.00 0.00 0.00 0.00 0.00
0.01 0.00 0.00 0.00 0.00 0.00 0.00 0.00 0.00 0.00 0.00 0.00 0.00 0.00 0.00 0.00 0.00 0.00 0.00 0.00 0.00 0.00 0.00 0.00 0.00 0.00 0.00 0.00 0.00 0.00 0.00 0.00 0.00 0.00 0.00 0.00 0.00 0.00 0.00 0.00 0.00 0.01 0.01 0.01
0.00 0.00 0.00 0.00 0.00 0.00 0.00 0.00 0.00 0.00 0.00 0.00 0.00 0.00 0.00 0.00 0.00 0.00 0.00 0.00 0.00 0.00 0.00 0.00 0.00 0.00 0.00 0.00 0.00 0.00 0.00 0.00 0.00 0.00 0.00 0.00 0.00 0.00 0.00 0.00 0.01 0.01 0.01 0.02
0.00 0.00 0.00 0.00 0.00 0.00 0.00 0.00 0.00 0.00 0.00 0.00 0.00 0.00 0.00 0.00 0.00 0.00 0.00 0.00 0.00 0.00 0.00 0.00 0.00 0.00 0.00 0.00 0.00 0.00 0.00 0.00 0.00 0.00 0.00 0.00 0.00 0.00 0.00 0.00 0.00 0.01 0.01 0.02
0.00 0.00 0.00 0.00 0.00 0.00 0.00 0.00 0.00 0.00 0.00 0.00 0.00 0.00 0.00 0.00 0.00 0.00 0.00 0.00 0.00 0.00 0.00 0.00 0.00 0.00 0.00 0.00 0.00 0.00 0.00 0.00 0.00 0.00 0.00 0.00 0.00 0.00 0.00 0.00 0.00 0.01 0.01 0.02
0.00 0.00 0.00 0.00 0.00 0.00 0.00 0.00 0.00 0.00 0.00 0.00 0.00 0.00 0.00 0.00 0.00 0.00 0.00 0.00 0.00 0.00 0.00 0.00 0.00 0.00 0.00 0.00 0.00 0.00 0.00 0.00 0.00 0.00 0.00 0.00 0.00 0.00 0.00 0.00 0.00 0.00 0.01 0.02
0.00 0.00 0.00 0.00 0.00 0.00 0.00 0.00 0.00 0.00 0.00 0.00 0.00 0.00 0.00 0.00 0.00 0.00 0.00 0.00 0.00 0.00 0.00 0.00 0.00 0.00 0.00 0.00 0.00 0.00 0.00 0.00 0.00 0.00 0.00 0.00 0.00 0.00 0.00 0.00 0.00 0.00 0.01 0.01
0.00 0.00 0.00 0.00 0.00 0.00 0.00 0.01 0.00 0.00 0.00 0.00 0.00 0.00 0.00 0.00 0.00 0.00 0.00 0.00 0.00 0.00 0.00 0.00 0.00 0.00 0.00 0.00 0.00 0.00 0.00 0.00 0.00 0.00 0.00 0.00 0.00 0.00 0.00 0.00 0.00 0.00 0.00 0.01
0.01 0.01 0.01 0.01 0.00 0.00 0.01 0.01 0.00 0.00 0.00 0.00 0.00 0.00 0.00 0.00 0.00 0.00 0.00 0.00 0.00 0.00 0.00 0.00 0.00 0.00 0.00 0.00 0.00 0.00 0.00 0.00 0.00 0.00 0.00 0.00 0.00 0.00 0.00 0.00 0.00 0.00 0.00 0.00
0.03 0.02 0.02 0.01 0.00 0.01 0.01 0.00 0.00 0.00 0.00 0.00 0.00 0.00 0.00 0.00 0.00 0.00 0.00 0.00 0.00 0.00 0.00 0.00 0.00 0.00 0.00 0.00 0.00 0.00 0.00 0.00 0.00 0.00 0.00 0.00 0.00 0.00 0.00 0.00 0.00 0.00 0.00 0.00
0.04 0.03 0.01 0.01 0.01 0.01 0.01 0.00 0.00 0.00 0.00 0.00 0.00 0.00 0.00 0.00 0.00 0.00 0.00 0.00 0.00 0.00 0.00 0.00 0.00 0.00 0.00 0.00 0.00 0.00 0.00 0.00 0.00 0.00 0.00 0.00 0.00 0.00 0.00 0.00 0.00 0.00 0.00 0.00
0.04 0.04 0.02 0.02 0.01 0.00 0.00 0.00 0.00 0.00 0.00 0.00 0.00 0.00 0.00 0.00 0.00 0.00 0.00 0.00 0.00 0.00 0.00 0.00 0.00 0.00 0.00 0.00 0.00 0.00 0.00 0.00 0.00 0.00 0.00 0.00 0.00 0.00 0.00 0.00 0.00 0.00 0.00 0.00
0.04 0.04 0.03 0.02 0.01 0.00 0.00 0.00 0.00 0.00 0.00 0.00 0.00 0.00 0.00 0.00 0.00 0.00 0.00 0.00 0.00 0.00 0.00 0.00 0.00 0.00 0.00 0.00 0.00 0.00 0.00 0.00 0.00 0.00 0.00 0.00 0.00 0.00 0.00 0.00 0.00 0.00 0.00 0.00

GEFSNGP_prec_meanprecacc_018.txt.gz
Total_Precipitation_Accumulation
0.00 0.00 0.00 0.01 0.01 0.01 0.02 0.03 0.02 0.02 0.06 0.11 0.21 0.29 0.26 0.20 0.15 0.13 0.12 0.12 0.13 0.14 0.11 0.08 0.05 0.02 0.01 0.00 0.00 0.00 0.00 0.01 0.01 0.01 0.01 0.02 0.03 0.03 0.02 0.01 0.01 0.01 0.01 0.01
0.00 0.00 0.00 0.00 0.01 0.01 0.01 0.02 0.03 0.04 0.09 0.14 0.20 0.21 0.21 0.18 0.17 0.19 0.22 0.23 0.20 0.14 0.08 0.05 0.02 0.01 0.00 0.00 0.00 0.00 0.01 0.01 0.01 0.01 0.01 0.02 0.02 0.01 0.01 0.01 0.01 0.01 0.01 0.01
0.00 0.00 0.00 0.00 0.00 0.00 0.01 0.01 0.01 0.04 0.09 0.09 0.12 0.13 0.14 0.13 0.15 0.21 0.24 0.20 0.13 0.07 0.03 0.01 0.00 0.00 0.00 0.00 0.00 0.00 0.01 0.01 0.01 0.00 0.01 0.01 0.00 0.00 0.01 0.01 0.01 0.01 0.01 0.01
0.01 0.01 0.01 0.00 0.00 0.00 0.01 0.02 0.01 0.01 0.02 0.03 0.04 0.07 0.09 0.10 0.13 0.15 0.15 0.11 0.06 0.04 0.02 0.01 0.00 0.00 0.00 0.00 0.00 0.00 0.00 0.00 0.00 0.00 0.00 0.00 0.00 0.01 0.01 0.01 0.01 0.01 0.01 0.01
0.06 0.06 0.03 0.01 0.00 0.00 0.01 0.01 0.01 0.02 0.02 0.02 0.03 0.06 0.06 0.07 0.09 0.11 0.12 0.09 0.06 0.04 0.02 0.01 0.00 0.00 0.00 0.00 0.00 0.00 0.00 0.00 0.00 0.00 0.00 0.00 0.01 0.01 0.01 0.01 0.01 0.01 0.01 0.01
0.12 0.14 0.11 0.04 0.02 0.01 0.01 0.03 0.02 0.02 0.02 0.02 0.04 0.06 0.06 0.06 0.07 0.07 0.07 0.08 0.07 0.05 0.02 0.01 0.00 0.00 0.00 0.00 0.00 0.00 0.00 0.00 0.00 0.00 0.00 0.01 0.01 0.01 0.01 0.01 0.01 0.00 0.01 0.01
0.17 0.21 0.18 0.09 0.06 0.04 0.06 0.06 0.07 0.05 0.05 0.08 0.10 0.11 0.09 0.06 0.05 0.06 0.07 0.09 0.08 0.05 0.01 0.00 0.00 0.00 0.00 0.00 0.00 0.00 0.00 0.00 0.00 0.00 0.00 0.00 0.00 0.01 0.01 0.01 0.00 0.00 0.00 0.01
0.17 0.23 0.26 0.10 0.08 0.10 0.11 0.09 0.11 0.09 0.09 0.10 0.12 0.11 0.08 0.06 0.06 0.08 0.10 0.10 0.06 0.02 0.00 0.00 0.00 0.00 0.00 0.01 0.00 0.00 0.00 0.00 0.00 0.00 0.00 0.00 0.00 0.00 0.00 0.00 0.00 0.00 0.00 0.00
0.21 0.22 0.15 0.09 0.07 0.07 0.09 0.11 0.11 0.11 0.11 0.12 0.16 0.17 0.14 0.12 0.13 0.13 0.11 0.07 0.03 0.01 0.00 0.00 0.00 0.00 0.00 0.00 0.00 0.00 0.00 0.00 0.00 0.00 0.00 0.00 0.00 0.00 0.00 0.00 0.00 0.00 0.00 0.00
0.24 0.21 0.16 0.11 0.08 0.06 0.07 0.11 0.13 0.15 0.17 0.21 0.26 0.24 0.19 0.14 0.09 0.05 0.02 0.01 0.00 0.00 0.00 0.00 0.00 0.00 0.00 0.00 0.00 0.00 0.00 0.00 0.00 0.00 0.00 0.00 0.00 0.00 0.00 0.00 0.00 0.00 0.00 0.01
0.42 0.35 0.26 0.13 0.09 0.11 0.12 0.16 0.22 0.26 0.25 0.24 0.20 0.13 0.07 0.04 0.01 0.00 0.00 0.00 0.00 0.00 0.00 0.00 0.00 0.00 0.00 0.00 0.00 0.00 0.00 0.00 0.00 0.00 0.00 0.00 0.00 0.00 0.00 0.00 0.00 0.00 0.01 0.01
0.68 0.47 0.35 0.24 0.20 0.25 0.27 0.25 0.25 0.23 0.17 0.10 0.05 0.02 0.00 0.00 0.00 0.00 0.00 0.00 0.00 0.00 0.00 0.00 0.00 0.00 0.00 0.00 0.00 0.00 0.00 0.00 0.00 0.00 0.00 0.00 0.00 0.00 0.00 0.00 0.00 0.00 0.01 0.02
0.60 0.45 0.38 0.36 0.34 0.34 0.28 0.19 0.13 0.10 0.06 0.02 0.01 0.00 0.00 0.00 0.00 0.00 0.00 0.00 0.00 0.00 0.00 0.00 0.00 0.00 0.00 0.00 0.00 0.00 0.00 0.00 0.00 0.00 0.00 0.00 0.00 0.00 0.00 0.00 0.00 0.00 0.01 0.01
0.38 0.34 0.34 0.26 0.17 0.12 0.06 0.03 0.02 0.02 0.01 0.00 0.00 0.00 0.00 0.00 0.00 0.00 0.00 0.00 0.00 0.00 0.00 0.00 0.00 0.00 0.00 0.00 0.00 0.00 0.00 0.00 0.00 0.00 0.00 0.00 0.00 0.00 0.00 0.00 0.01 0.01 0.00 0.01
0.19 0.14 0.09 0.04 0.01 0.00 0.00 0.00 0.00 0.00 0.00 0.00 0.00 0.00 0.00 0.00 0.00 0.00 0.00 0.00 0.00 0.00 0.00 0.00 0.00 0.00 0.00 0.00 0.00 0.00 0.00 0.00 0.00 0.00 0.00 0.00 0.00 0.00 0.00 0.00 0.01 0.01 0.01 0.01
0.06 0.03 0.01 0.00 0.00 0.00 0.00 0.00 0.00 0.00 0.00 0.00 0.00 0.00 0.00 0.00 0.00 0.00 0.00 0.00 0.00 0.00 0.00 0.00 0.00 0.00 0.00 0.00 0.00 0.00 0.00 0.00 0.00 0.00 0.00 0.00 0.00 0.00 0.00 0.00 0.01 0.02 0.02 0.02
0.02 0.01 0.00 0.00 0.00 0.00 0.00 0.00 0.00 0.00 0.00 0.00 0.00 0.00 0.00 0.00 0.00 0.00 0.00 0.00 0.00 0.00 0.00 0.00 0.00 0.00 0.00 0.00 0.00 0.00 0.00 0.00 0.00 0.00 0.00 0.00 0.00 0.00 0.00 0.00 0.01 0.01 0.02 0.03
0.01 0.01 0.00 0.00 0.00 0.00 0.00 0.00 0.00 0.00 0.00 0.00 0.00 0.00 0.00 0.00 0.00 0.00 0.00 0.00 0.00 0.00 0.00 0.00 0.00 0.00 0.00 0.00 0.00 0.00 0.00 0.00 0.00 0.00 0.00 0.00 0.00 0.00 0.00 0.00 0.01 0.01 0.02 0.03
0.01 0.01 0.00 0.00 0.00 0.00 0.00 0.00 0.00 0.00 0.00 0.00 0.00 0.00 0.00 0.00 0.00 0.00 0.00 0.00 0.00 0.00 0.00 0.00 0.00 0.00 0.00 0.00 0.00 0.00 0.00 0.00 0.00 0.00 0.00 0.00 0.00 0.00 0.00 0.00 0.00 0.01 0.02 0.03
0.01 0.01 0.01 0.00 0.00 0.00 0.00 0.00 0.00 0.00 0.00 0.00 0.00 0.00 0.00 0.00 0.00 0.00 0.00 0.00 0.00 0.00 0.00 0.00 0.00 0.00 0.00 0.00 0.00 0.00 0.00 0.00 0.00 0.00 0.00 0.00 0.00 0.00 0.00 0.00 0.00 0.00 0.01 0.02
0.01 0.02 0.01 0.00 0.00 0.00 0.00 0.00 0.00 0.00 0.00 0.00 0.00 0.00 0.00 0.00 0.00 0.00 0.00 0.00 0.00 0.00 0.00 0.00 0.00 0.00 0.00 0.00 0.00 0.00 0.00 0.00 0.00 0.00 0.00 0.00 0.00 0.00 0.00 0.00 0.00 0.00 0.01 0.02
0.01 0.02 0.01 0.01 0.00 0.00 0.00 0.01 0.00 0.00 0.00 0.00 0.00 0.00 0.00 0.00 0.00 0.00 0.00 0.00 0.00 0.00 0.00 0.00 0.00 0.00 0.00 0.00 0.00 0.00 0.00 0.00 0.00 0.00 0.00 0.00 0.00 0.00 0.00 0.00 0.00 0.00 0.00 0.01
0.02 0.02 0.02 0.01 0.00 0.00 0.01 0.01 0.00 0.00 0.00 0.00 0.00 0.00 0.00 0.00 0.00 0.00 0.00 0.00 0.00 0.00 0.00 0.00 0.00 0.00 0.00 0.00 0.00 0.00 0.00 0.00 0.00 0.00 0.00 0.00 0.00 0.00 0.00 0.00 0.00 0.00 0.00 0.00
0.03 0.03 0.02 0.01 0.01 0.01 0.01 0.00 0.00 0.00 0.00 0.00 0.00 0.00 0.00 0.00 0.00 0.00 0.00 0.00 0.00 0.00 0.00 0.00 0.00 0.00 0.00 0.00 0.00 0.00 0.00 0.00 0.00 0.00 0.00 0.00 0.00 0.00 0.00 0.00 0.00 0.00 0.00 0.00
0.04 0.03 0.02 0.01 0.01 0.01 0.01 0.00 0.00 0.00 0.00 0.00 0.00 0.00 0.00 0.00 0.00 0.00 0.00 0.00 0.00 0.00 0.00 0.00 0.00 0.00 0.00 0.00 0.00 0.00 0.00 0.00 0.00 0.00 0.00 0.00 0.00 0.00 0.00 0.00 0.00 0.00 0.00 0.00
0.04 0.04 0.02 0.02 0.01 0.00 0.00 0.00 0.00 0.00 0.00 0.00 0.00 0.00 0.00 0.00 0.00 0.00 0.00 0.00 0.00 0.00 0.00 0.00 0.00 0.00 0.00 0.00 0.00 0.00 0.00 0.00 0.00 0.00 0.00 0.00 0.00 0.00 0.00 0.00 0.00 0.00 0.00 0.00
0.04 0.04 0.03 0.02 0.01 0.00 0.00 0.00 0.00 0.00 0.00 0.00 0.00 0.00 0.00 0.00 0.00 0.00 0.00 0.00 0.00 0.00 0.00 0.00 0.00 0.00 0.00 0.00 0.00 0.00 0.00 0.00 0.00 0.00 0.00 0.00 0.00 0.00 0.00 0.00 0.00 0.00 0.00 0.00

GEFSNGP_prec_meanprecacc_024.txt.gz
Total_Precipitation_Accumulation
0.00 0.00 0.00 0.01 0.01 0.01 0.02 0.03 0.02 0.02 0.06 0.11 0.21 0.29 0.26 0.20 0.15 0.13 0.12 0.13 0.16 0.17 0.15 0.12 0.10 0.07 0.05 0.03 0.02 0.01 0.00 0.01 0.01 0.01 0.01 0.02 0.03 0.03 0.02 0.02 0.01 0.01 0.01 0.01
0.00 0.00 0.00 0.00 0.01 0.01 0.01 0.02 0.03 0.04 0.09 0.14 0.20 0.21 0.21 0.18 0.17 0.20 0.24 0.27 0.27 0.22 0.16 0.11 0.09 0.08 0.05 0.04 0.02 0.01 0.01 0.01 0.01 0.01 0.01 0.02 0.02 0.01 0.01 0.01 0.01 0.01 0.01 0.01
0.00 0.00 0.00 0.00 0.00 0.00 0.01 0.01 0.01 0.04 0.09 0.09 0.12 0.13 0.14 0.14 0.16 0.22 0.28 0.27 0.21 0.16 0.12 0.11 0.11 0.09 0.07 0.04 0.02 0.01 0.01 0.01 0.01 0.00 0.01 0.01 0.00 0.00 0.01 0.01 0.01 0.01 0.01 0.01
0.01 0.01 0.01 0.00 0.00 0.00 0.01 0.02 0.01 0.01 0.02 0.03 0.04 0.07 0.09 0.10 0.14 0.17 0.19 0.16 0.14 0.12 0.13 0.14 0.14 0.11 0.07 0.04 0.02 0.01 0.01 0.00 0.00 0.00 0.00 0.00 0.00 0.01 0.01 0.01 0.01 0.01 0.01 0.01
0.06 0.06 0.03 0.01 0.00 0.00 0.01 0.01 0.01 0.02 0.02 0.02 0.03 0.06 0.06 0.07 0.10 0.13 0.15 0.14 0.14 0.16 0.19 0.19 0.16 0.10 0.05 0.03 0.01 0.00 0.00 0.00 0.00 0.00 0.00 0.00 0.01 0.01 0.01 0.01 0.01 0.01 0.01 0.01
0.12 0.14 0.11 0.04 0.02 0.01 0.01 0.03 0.02 0.02 0.02 0.02 0.04 0.07 0.06 0.06 0.07 0.08 0.09 0.13 0.19 0.24 0.25 0.21 0.14 0.08 0.05 0.02 0.01 0.00 0.00 0.00 0.00 0.00 0.00 0.01 0.01 0.01 0.01 0.01 0.01 0.00 0.01 0.01
0.17 0.21 0.18 0.09 0.06 0.04 0.06 0.06 0.07 0.05 0.05 0.08 0.10 0.11 0.10 0.06 0.06 0.07 0.12 0.20 0.26 0.27 0.24 0.17 0.09 0.04 0.02 0.01 0.01 0.00 0.00 0.00 0.00 0.00 0.00 0.00 0.00 0.01 0.01 0.01 0.00 0.00 0.01 0.01
0.17 0.23 0.26 0.10 0.08 0.10 0.11 0.10 0.11 0.10 0.09 0.10 0.12 0.11 0.08 0.07 0.08 0.12 0.19 0.26 0.27 0.25 0.18 0.11 0.05 0.02 0.01 0.01 0.00 0.00 0.00 0.00 0.00 0.00 0.00 0.00 0.00 0.00 0.00 0.00 0.00 0.00 0.00 0.01
0.21 0.23 0.16 0.09 0.07 0.07 0.09 0.12 0.12 0.12 0.11 0.13 0.17 0.18 0.16 0.16 0.19 0.23 0.28 0.28 0.24 0.18 0.12 0.06 0.02 0.01 0.01 0.01 0.00 0.00 0.00 0.00 0.00 0.00 0.00 0.00 0.00 0.00 0.00 0.00 0.00 0.00 0.00 0.01
0.25 0.22 0.17 0.12 0.09 0.07 0.08 0.11 0.14 0.16 0.18 0.22 0.27 0.27 0.25 0.24 0.25 0.26 0.23 0.17 0.11 0.06 0.03 0.02 0.01 0.00 0.00 0.00 0.00 0.00 0.00 0.00 0.00 0.00 0.00 0.00 0.00 0.00 0.00 0.00 0.00 0.01 0.01 0.02
0.43 0.37 0.29 0.17 0.12 0.13 0.15 0.18 0.25 0.29 0.28 0.29 0.26 0.23 0.21 0.21 0.18 0.14 0.08 0.04 0.02 0.02 0.01 0.00 0.00 0.00 0.00 0.00 0.00 0.00 0.00 0.00 0.00 0.00 0.00 0.00 0.00 0.00 0.00 0.01 0.01 0.01 0.02 0.03
0.73 0.51 0.41 0.32 0.29 0.32 0.32 0.31 0.31 0.28 0.23 0.18 0.13 0.10 0.09 0.08 0.07 0.04 0.02 0.01 0.01 0.01 0.00 0.00 0.00 0.00 0.00 0.00 0.00 0.00 0.00 0.00 0.00 0.00 0.00 0.00 0.00 0.00 0.00 0.00 0.00 0.01 0.02 0.03
0.67 0.52 0.46 0.46 0.45 0.44 0.37 0.26 0.20 0.15 0.10 0.08 0.05 0.03 0.02 0.01 0.01 0.01 0.01 0.01 0.01 0.00 0.00 0.00 0.00 0.00 0.00 0.00 0.00 0.00 0.00 0.00 0.00 0.00 0.00 0.00 0.00 0.00 0.01 0.01 0.01 0.01 0.01 0.02
0.46 0.44 0.44 0.34 0.24 0.17 0.11 0.07 0.05 0.05 0.03 0.02 0.02 0.01 0.01 0.00 0.01 0.01 0.01 0.00 0.00 0.00 0.00 0.00 0.00 0.00 0.00 0.00 0.00 0.00 0.00 0.00 0.00 0.00 0.00 0.00 0.00 0.01 0.01 0.02 0.02 0.02 0.01 0.01
0.26 0.20 0.14 0.07 0.03 0.02 0.01 0.01 0.01 0.01 0.01 0.00 0.01 0.01 0.01 0.01 0.01 0.01 0.00 0.00 0.00 0.00 0.00 0.00 0.00 0.00 0.00 0.00 0.00 0.00 0.00 0.00 0.00 0.00 0.00 0.00 0.00 0.01 0.01 0.01 0.02 0.02 0.02 0.01
0.08 0.04 0.02 0.01 0.01 0.01 0.01 0.00 0.00 0.00 0.00 0.00 0.01 0.01 0.01 0.01 0.00 0.00 0.00 0.00 0.00 0.00 0.00 0.00 0.00 0.00 0.00 0.00 0.00 0.00 0.00 0.00 0.00 0.00 0.00 0.00 0.00 0.00 0.01 0.01 0.02 0.03 0.03 0.03
0.03 0.02 0.01 0.00 0.00 0.00 0.00 0.00 0.00 0.00 0.00 0.00 0.00 0.00 0.00 0.00 0.00 0.00 0.00 0.00 0.00 0.00 0.00 0.00 0.00 0.00 0.00 0.00 0.00 0.00 0.00 0.00 0.00 0.00 0.00 0.00 0.00 0.00 0.01 0.01 0.02 0.02 0.03 0.04
0.02 0.01 0.00 0.00 0.00 0.00 0.00 0.00 0.00 0.00 0.00 0.00 0.00 0.00 0.00 0.00 0.00 0.00 0.00 0.00 0.00 0.00 0.00 0.00 0.00 0.00 0.00 0.00 0.00 0.00 0.00 0.00 0.00 0.00 0.00 0.00 0.00 0.00 0.00 0.01 0.01 0.02 0.02 0.03
0.01 0.01 0.00 0.00 0.00 0.00 0.00 0.00 0.00 0.00 0.00 0.00 0.00 0.00 0.00 0.00 0.00 0.00 0.00 0.00 0.00 0.00 0.00 0.00 0.00 0.00 0.00 0.00 0.00 0.00 0.00 0.00 0.00 0.00 0.00 0.00 0.00 0.00 0.00 0.00 0.01 0.01 0.02 0.03
0.01 0.01 0.01 0.00 0.00 0.00 0.00 0.00 0.00 0.00 0.00 0.00 0.00 0.00 0.00 0.00 0.00 0.00 0.00 0.00 0.00 0.00 0.00 0.00 0.00 0.00 0.00 0.00 0.00 0.00 0.00 0.00 0.00 0.00 0.00 0.00 0.00 0.00 0.00 0.00 0.00 0.00 0.01 0.02
0.02 0.02 0.02 0.00 0.00 0.00 0.00 0.00 0.00 0.00 0.00 0.00 0.00 0.00 0.00 0.00 0.00 0.00 0.00 0.00 0.00 0.00 0.00 0.00 0.00 0.00 0.00 0.00 0.00 0.00 0.00 0.00 0.00 0.00 0.00 0.00 0.00 0.00 0.00 0.00 0.00 0.00 0.01 0.02
0.03 0.03 0.02 0.01 0.00 0.00 0.00 0.01 0.00 0.00 0.00 0.00 0.00 0.00 0.00 0.00 0.00 0.00 0.00 0.00 0.00 0.00 0.00 0.00 0.00 0.00 0.00 0.00 0.00 0.00 0.00 0.00 0.00 0.00 0.00 0.00 0.00 0.00 0.00 0.00 0.00 0.00 0.00 0.01
0.05 0.04 0.03 0.02 0.01 0.01 0.01 0.01 0.00 0.00 0.00 0.00 0.00 0.00 0.00 0.00 0.00 0.00 0.00 0.00 0.00 0.00 0.00 0.00 0.00 0.00 0.00 0.00 0.00 0.00 0.00 0.00 0.00 0.00 0.00 0.00 0.00 0.00 0.00 0.00 0.00 0.00 0.00 0.00
0.07 0.05 0.04 0.02 0.01 0.01 0.01 0.01 0.00 0.00 0.00 0.00 0.00 0.00 0.00 0.00 0.00 0.00 0.00 0.00 0.00 0.00 0.00 0.00 0.00 0.00 0.00 0.00 0.00 0.00 0.00 0.00 0.00 0.00 0.00 0.00 0.00 0.00 0.00 0.00 0.00 0.00 0.00 0.00
0.08 0.06 0.03 0.02 0.02 0.02 0.01 0.00 0.00 0.00 0.00 0.00 0.00 0.00 0.00 0.00 0.00 0.00 0.00 0.00 0.00 0.00 0.00 0.00 0.00 0.00 0.00 0.00 0.00 0.00 0.00 0.00 0.00 0.00 0.00 0.00 0.00 0.00 0.00 0.00 0.00 0.00 0.00 0.00
0.08 0.07 0.05 0.04 0.03 0.01 0.00 0.00 0.00 0.00 0.00 0.00 0.00 0.00 0.00 0.00 0.00 0.00 0.00 0.00 0.00 0.00 0.00 0.00 0.00 0.00 0.00 0.00 0.00 0.00 0.00 0.00 0.00 0.00 0.00 0.00 0.00 0.00 0.00 0.00 0.00 0.00 0.00 0.00
0.08 0.08 0.07 0.04 0.02 0.00 0.00 0.00 0.00 0.00 0.00 0.00 0.00 0.00 0.00 0.00 0.00 0.00 0.00 0.00 0.00 0.00 0.00 0.00 0.00 0.00 0.00 0.00 0.00 0.00 0.00 0.00 0.00 0.00 0.00 0.00 0.00 0.00 0.00 0.00 0.00 0.00 0.00 0.00

GEFSNGP_prec_meanprecacc_030.txt.gz
Total_Precipitation_Accumulation
0.00 0.00 0.00 0.01 0.01 0.01 0.02 0.03 0.02 0.02 0.06 0.11 0.22 0.30 0.28 0.25 0.22 0.23 0.21 0.19 0.20 0.20 0.18 0.15 0.12 0.11 0.10 0.10 0.08 0.06 0.04 0.03 0.03 0.02 0.02 0.03 0.04 0.04 0.03 0.03 0.03 0.03 0.03 0.03
0.00 0.00 0.00 0.00 0.01 0.01 0.01 0.02 0.03 0.04 0.09 0.14 0.21 0.22 0.23 0.21 0.20 0.25 0.32 0.35 0.34 0.26 0.20 0.14 0.13 0.13 0.13 0.12 0.09 0.07 0.05 0.04 0.03 0.02 0.02 0.03 0.03 0.03 0.03 0.04 0.03 0.03 0.02 0.01
0.00 0.00 0.00 0.00 0.00 0.00 0.01 0.01 0.01 0.04 0.09 0.09 0.12 0.13 0.15 0.15 0.17 0.27 0.36 0.36 0.29 0.21 0.16 0.16 0.18 0.19 0.18 0.16 0.13 0.11 0.08 0.05 0.04 0.03 0.03 0.03 0.02 0.02 0.03 0.02 0.02 0.02 0.01 0.01
0.01 0.01 0.01 0.00 0.00 0.00 0.01 0.02 0.01 0.01 0.02 0.03 0.04 0.07 0.09 0.11 0.16 0.21 0.25 0.23 0.20 0.17 0.19 0.22 0.25 0.24 0.22 0.18 0.14 0.10 0.09 0.06 0.04 0.03 0.03 0.02 0.02 0.02 0.02 0.02 0.02 0.02 0.02 0.01
0.06 0.06 0.03 0.01 0.00 0.00 0.01 0.01 0.01 0.02 0.02 0.02 0.03 0.07 0.08 0.08 0.10 0.15 0.18 0.18 0.18 0.22 0.28 0.32 0.30 0.26 0.21 0.17 0.12 0.09 0.07 0.05 0.03 0.02 0.02 0.02 0.02 0.02 0.02 0.02 0.02 0.01 0.01 0.01
0.12 0.15 0.11 0.06 0.02 0.01 0.01 0.04 0.03 0.02 0.02 0.03 0.04 0.09 0.10 0.08 0.07 0.08 0.11 0.15 0.24 0.32 0.36 0.35 0.30 0.23 0.18 0.12 0.08 0.06 0.03 0.02 0.01 0.01 0.01 0.01 0.01 0.02 0.02 0.02 0.01 0.01 0.01 0.02
0.18 0.23 0.20 0.11 0.06 0.04 0.07 0.09 0.08 0.06 0.05 0.08 0.12 0.14 0.12 0.07 0.06 0.08 0.13 0.23 0.30 0.34 0.34 0.28 0.20 0.14 0.10 0.07 0.05 0.03 0.02 0.01 0.01 0.01 0.00 0.01 0.01 0.01 0.02 0.01 0.01 0.01 0.02 0.02
0.21 0.28 0.32 0.12 0.08 0.10 0.12 0.10 0.11 0.10 0.10 0.12 0.14 0.13 0.09 0.08 0.09 0.13 0.22 0.30 0.33 0.32 0.28 0.20 0.12 0.08 0.06 0.05 0.03 0.01 0.01 0.01 0.01 0.01 0.00 0.00 0.01 0.01 0.01 0.01 0.01 0.01 0.01 0.02
0.28 0.30 0.21 0.11 0.08 0.07 0.10 0.12 0.12 0.12 0.12 0.15 0.19 0.19 0.17 0.18 0.21 0.26 0.31 0.33 0.30 0.25 0.18 0.11 0.06 0.04 0.03 0.02 0.01 0.01 0.01 0.01 0.01 0.00 0.00 0.00 0.00 0.00 0.01 0.01 0.01 0.01 0.01 0.02
0.27 0.25 0.20 0.14 0.09 0.07 0.08 0.12 0.15 0.17 0.21 0.25 0.30 0.30 0.28 0.27 0.28 0.30 0.28 0.22 0.16 0.10 0.07 0.04 0.02 0.01 0.01 0.00 0.00 0.00 0.01 0.01 0.01 0.01 0.00 0.00 0.00 0.00 0.01 0.01 0.01 0.02 0.02 0.03
0.48 0.41 0.32 0.19 0.14 0.14 0.16 0.19 0.26 0.31 0.32 0.34 0.31 0.27 0.24 0.24 0.22 0.18 0.12 0.08 0.05 0.04 0.03 0.02 0.01 0.00 0.00 0.00 0.00 0.00 0.00 0.00 0.01 0.01 0.01 0.01 0.00 0.00 0.01 0.01 0.01 0.02 0.03 0.04
0.79 0.57 0.46 0.36 0.31 0.34 0.34 0.33 0.33 0.32 0.29 0.24 0.19 0.14 0.13 0.12 0.10 0.08 0.06 0.04 0.04 0.03 0.01 0.01 0.00 0.00 0.00 0.00 0.00 0.00 0.01 0.01 0.01 0.00 0.00 0.00 0.01 0.01 0.01 0.00 0.00 0.01 0.02 0.04
0.70 0.55 0.49 0.50 0.47 0.46 0.41 0.29 0.23 0.19 0.14 0.13 0.10 0.06 0.05 0.04 0.04 0.04 0.03 0.02 0.02 0.01 0.00 0.00 0.00 0.00 0.00 0.00 0.00 0.00 0.00 0.00 0.00 0.00 0.00 0.00 0.01 0.02 0.03 0.03 0.01 0.01 0.01 0.02
0.49 0.46 0.48 0.38 0.27 0.21 0.13 0.09 0.08 0.08 0.06 0.05 0.04 0.03 0.02 0.02 0.02 0.02 0.01 0.01 0.00 0.00 0.00 0.00 0.00 0.00 0.00 0.00 0.00 0.00 0.00 0.00 0.00 0.00 0.00 0.00 0.01 0.02 0.03 0.04 0.05 0.05 0.03 0.01
0.28 0.23 0.17 0.10 0.06 0.05 0.04 0.03 0.03 0.03 0.02 0.02 0.02 0.02 0.02 0.02 0.02 0.01 0.00 0.00 0.00 0.00 0.00 0.00 0.00 0.00 0.00 0.00 0.00 0.00 0.00 0.00 0.00 0.00 0.00 0.00 0.01 0.01 0.02 0.03 0.04 0.05 0.04 0.02
0.10 0.06 0.04 0.03 0.03 0.03 0.02 0.02 0.02 0.02 0.02 0.02 0.02 0.02 0.02 0.01 0.01 0.00 0.00 0.00 0.00 0.00 0.00 0.00 0.00 0.00 0.00 0.00 0.00 0.00 0.00 0.00 0.00 0.00 0.00 0.00 0.01 0.01 0.02 0.03 0.04 0.05 0.04 0.03
0.04 0.03 0.02 0.02 0.02 0.02 0.01 0.01 0.01 0.01 0.02 0.02 0.02 0.01 0.00 0.00 0.00 0.00 0.00 0.00 0.00 0.00 0.00 0.00 0.00 0.00 0.00 0.00 0.00 0.00 0.00 0.00 0.00 0.00 0.00 0.00 0.00 0.01 0.01 0.02 0.03 0.04 0.04 0.04
0.02 0.01 0.01 0.01 0.01 0.01 0.00 0.00 0.00 0.01 0.01 0.01 0.00 0.00 0.00 0.00 0.00 0.00 0.00 0.00 0.00 0.00 0.00 0.00 0.00 0.00 0.00 0.00 0.00 0.00 0.00 0.00 0.00 0.00 0.00 0.00 0.00 0.00 0.00 0.01 0.02 0.02 0.03 0.04
0.01 0.01 0.01 0.00 0.00 0.00 0.00 0.00 0.00 0.00 0.00 0.00 0.00 0.00 0.00 0.00 0.00 0.00 0.00 0.00 0.00 0.00 0.00 0.00 0.00 0.00 0.00 0.00 0.00 0.00 0.00 0.00 0.00 0.00 0.00 0.00 0.00 0.00 0.00 0.00 0.01 0.01 0.02 0.03
0.01 0.01 0.01 0.00 0.00 0.00 0.00 0.00 0.00 0.00 0.00 0.00 0.00 0.00 0.00 0.00 0.00 0.00 0.00 0.00 0.00 0.00 0.00 0.00 0.00 0.00 0.00 0.00 0.00 0.00 0.00 0.00 0.00 0.00 0.00 0.00 0.00 0.00 0.00 0.00 0.00 0.00 0.01 0.03
0.02 0.02 0.02 0.00 0.00 0.00 0.00 0.00 0.01 0.01 0.00 0.00 0.00 0.00 0.00 0.00 0.00 0.00 0.00 0.00 0.00 0.00 0.00 0.00 0.00 0.00 0.00 0.00 0.00 0.00 0.00 0.00 0.00 0.00 0.00 0.00 0.00 0.00 0.00 0.00 0.00 0.00 0.01 0.02
0.03 0.04 0.02 0.01 0.00 0.00 0.00 0.01 0.00 0.00 0.00 0.00 0.00 0.00 0.00 0.00 0.00 0.00 0.00 0.00 0.00 0.00 0.00 0.00 0.00 0.00 0.00 0.00 0.00 0.00 0.00 0.00 0.00 0.00 0.00 0.00 0.00 0.00 0.00 0.00 0.00 0.00 0.00 0.01
0.06 0.04 0.03 0.02 0.01 0.01 0.01 0.01 0.00 0.00 0.00 0.00 0.00 0.00 0.00 0.00 0.00 0.00 0.00 0.00 0.00 0.00 0.00 0.00 0.00 0.00 0.00 0.00 0.00 0.00 0.00 0.00 0.00 0.00 0.00 0.00 0.00 0.00 0.00 0.00 0.00 0.00 0.00 0.00
0.09 0.07 0.05 0.03 0.02 0.01 0.01 0.01 0.00 0.00 0.00 0.00 0.00 0.00 0.00 0.00 0.00 0.00 0.00 0.00 0.00 0.00 0.00 0.00 0.00 0.00 0.00 0.00 0.00 0.00 0.00 0.00 0.00 0.00 0.00 0.00 0.00 0.00 0.00 0.00 0.00 0.00 0.00 0.00
0.13 0.09 0.05 0.04 0.04 0.03 0.02 0.01 0.00 0.00 0.00 0.00 0.00 0.00 0.00 0.00 0.00 0.00 0.00 0.00 0.00 0.00 0.00 0.00 0.00 0.00 0.00 0.00 0.00 0.00 0.00 0.00 0.00 0.00 0.00 0.00 0.00 0.00 0.00 0.00 0.00 0.00 0.00 0.00
0.17 0.14 0.10 0.08 0.05 0.02 0.00 0.00 0.00 0.00 0.00 0.00 0.00 0.00 0.00 0.00 0.00 0.00 0.00 0.00 0.00 0.00 0.00 0.00 0.00 0.00 0.00 0.00 0.00 0.00 0.00 0.00 0.00 0.00 0.00 0.00 0.00 0.00 0.00 0.00 0.00 0.00 0.00 0.00
0.19 0.16 0.12 0.08 0.04 0.01 0.00 0.00 0.00 0.00 0.00 0.00 0.00 0.00 0.00 0.00 0.00 0.00 0.00 0.00 0.00 0.00 0.00 0.00 0.00 0.00 0.00 0.00 0.00 0.00 0.00 0.00 0.00 0.00 0.00 0.00 0.00 0.00 0.00 0.00 0.00 0.00 0.00 0.00

GEFSNGP_prec_meanprecacc_036.txt.gz
Total_Precipitation_Accumulation
0.00 0.00 0.00 0.01 0.01 0.02 0.02 0.03 0.03 0.03 0.08 0.13 0.23 0.31 0.30 0.27 0.26 0.30 0.31 0.29 0.29 0.26 0.23 0.18 0.14 0.12 0.11 0.10 0.09 0.07 0.05 0.04 0.04 0.04 0.04 0.05 0.06 0.06 0.06 0.06 0.05 0.05 0.05 0.05
0.00 0.00 0.00 0.01 0.01 0.01 0.02 0.03 0.03 0.05 0.11 0.16 0.22 0.24 0.24 0.23 0.23 0.28 0.39 0.43 0.41 0.32 0.23 0.17 0.15 0.15 0.14 0.13 0.11 0.09 0.08 0.08 0.07 0.06 0.06 0.07 0.07 0.07 0.07 0.07 0.06 0.04 0.03 0.02
0.00 0.00 0.00 0.00 0.00 0.00 0.01 0.01 0.01 0.05 0.10 0.10 0.12 0.14 0.15 0.16 0.19 0.28 0.38 0.39 0.32 0.24 0.18 0.18 0.20 0.21 0.21 0.20 0.18 0.16 0.14 0.12 0.10 0.09 0.09 0.09 0.07 0.06 0.05 0.04 0.03 0.02 0.02 0.01
0.01 0.01 0.01 0.00 0.00 0.01 0.01 0.02 0.02 0.02 0.02 0.03 0.04 0.07 0.09 0.11 0.16 0.21 0.25 0.24 0.21 0.19 0.20 0.24 0.28 0.28 0.27 0.24 0.21 0.18 0.17 0.15 0.13 0.11 0.10 0.08 0.06 0.05 0.03 0.02 0.02 0.02 0.02 0.01
0.06 0.06 0.03 0.01 0.01 0.01 0.01 0.02 0.02 0.02 0.02 0.02 0.03 0.07 0.09 0.08 0.11 0.15 0.18 0.19 0.19 0.23 0.29 0.34 0.34 0.31 0.27 0.25 0.22 0.20 0.17 0.13 0.10 0.07 0.06 0.05 0.04 0.03 0.02 0.02 0.02 0.01 0.01 0.02
0.13 0.15 0.12 0.07 0.02 0.01 0.02 0.06 0.03 0.02 0.02 0.03 0.04 0.09 0.10 0.08 0.08 0.09 0.11 0.16 0.24 0.33 0.38 0.39 0.35 0.28 0.24 0.20 0.16 0.13 0.09 0.06 0.04 0.03 0.02 0.02 0.02 0.02 0.02 0.02 0.01 0.01 0.01 0.02
0.22 0.26 0.23 0.12 0.06 0.04 0.09 0.11 0.09 0.06 0.06 0.08 0.12 0.15 0.12 0.07 0.06 0.08 0.14 0.24 0.31 0.35 0.36 0.31 0.23 0.17 0.14 0.11 0.08 0.05 0.03 0.02 0.01 0.01 0.01 0.01 0.01 0.01 0.02 0.01 0.01 0.01 0.02 0.02
0.25 0.32 0.36 0.14 0.09 0.12 0.14 0.11 0.12 0.10 0.10 0.12 0.15 0.13 0.10 0.08 0.10 0.14 0.23 0.31 0.34 0.34 0.29 0.21 0.14 0.09 0.08 0.06 0.03 0.02 0.01 0.01 0.01 0.01 0.00 0.00 0.01 0.01 0.01 0.01 0.01 0.01 0.01 0.02
0.34 0.35 0.24 0.11 0.08 0.08 0.10 0.12 0.12 0.12 0.13 0.16 0.19 0.20 0.18 0.19 0.22 0.27 0.33 0.35 0.31 0.25 0.19 0.12 0.07 0.05 0.04 0.02 0.01 0.01 0.01 0.01 0.01 0.01 0.00 0.00 0.00 0.00 0.01 0.01 0.01 0.01 0.02 0.02
0.30 0.29 0.22 0.15 0.10 0.07 0.08 0.12 0.15 0.18 0.21 0.26 0.31 0.31 0.30 0.29 0.31 0.31 0.30 0.24 0.17 0.11 0.07 0.04 0.03 0.02 0.01 0.01 0.00 0.01 0.01 0.01 0.01 0.01 0.01 0.00 0.00 0.00 0.01 0.01 0.01 0.02 0.02 0.03
0.51 0.44 0.33 0.20 0.14 0.15 0.16 0.19 0.26 0.32 0.33 0.35 0.34 0.31 0.28 0.27 0.24 0.20 0.14 0.09 0.06 0.05 0.03 0.02 0.01 0.01 0.00 0.00 0.01 0.01 0.01 0.01 0.01 0.01 0.01 0.01 0.00 0.00 0.01 0.01 0.01 0.02 0.03 0.04
0.81 0.58 0.46 0.36 0.32 0.34 0.34 0.33 0.34 0.32 0.30 0.28 0.24 0.19 0.16 0.14 0.12 0.09 0.07 0.05 0.04 0.03 0.01 0.01 0.00 0.00 0.00 0.00 0.00 0.01 0.01 0.01 0.01 0.00 0.00 0.00 0.01 0.01 0.01 0.00 0.00 0.01 0.02 0.04
0.70 0.55 0.50 0.50 0.48 0.47 0.41 0.30 0.24 0.20 0.16 0.16 0.14 0.10 0.08 0.06 0.05 0.04 0.04 0.03 0.02 0.01 0.00 0.00 0.00 0.00 0.00 0.00 0.00 0.00 0.00 0.01 0.00 0.00 0.00 0.00 0.01 0.02 0.04 0.03 0.02 0.01 0.01 0.02
0.49 0.46 0.48 0.39 0.28 0.21 0.14 0.09 0.09 0.11 0.09 0.07 0.06 0.05 0.04 0.03 0.03 0.02 0.02 0.01 0.00 0.00 0.00 0.00 0.00 0.00 0.00 0.00 0.00 0.00 0.00 0.00 0.00 0.00 0.00 0.01 0.01 0.02 0.03 0.05 0.06 0.06 0.03 0.02
0.28 0.23 0.17 0.11 0.07 0.06 0.05 0.04 0.04 0.06 0.05 0.04 0.03 0.03 0.02 0.02 0.02 0.01 0.01 0.00 0.00 0.00 0.00 0.00 0.00 0.00 0.00 0.00 0.00 0.00 0.00 0.00 0.00 0.00 0.00 0.00 0.01 0.02 0.03 0.04 0.05 0.05 0.04 0.02
0.10 0.07 0.05 0.04 0.04 0.04 0.04 0.03 0.03 0.03 0.03 0.03 0.03 0.03 0.02 0.01 0.01 0.00 0.00 0.00 0.00 0.00 0.00 0.00 0.00 0.00 0.00 0.00 0.00 0.00 0.00 0.00 0.00 0.00 0.00 0.00 0.01 0.01 0.02 0.04 0.04 0.05 0.04 0.03
0.04 0.03 0.02 0.02 0.02 0.02 0.02 0.02 0.01 0.02 0.02 0.03 0.02 0.01 0.01 0.00 0.00 0.00 0.00 0.00 0.00 0.00 0.00 0.00 0.00 0.00 0.00 0.00 0.00 0.01 0.01 0.00 0.00 0.00 0.00 0.00 0.00 0.01 0.01 0.02 0.03 0.04 0.04 0.05
0.02 0.01 0.01 0.01 0.01 0.01 0.01 0.01 0.01 0.01 0.01 0.01 0.00 0.00 0.00 0.00 0.00 0.00 0.00 0.00 0.00 0.00 0.00 0.00 0.00 0.00 0.00 0.00 0.00 0.00 0.01 0.01 0.00 0.00 0.00 0.00 0.00 0.00 0.00 0.01 0.02 0.02 0.03 0.04
0.01 0.01 0.01 0.00 0.00 0.00 0.00 0.00 0.00 0.00 0.00 0.00 0.00 0.00 0.00 0.00 0.00 0.00 0.00 0.00 0.00 0.00 0.00 0.00 0.00 0.00 0.00 0.00 0.00 0.00 0.00 0.01 0.00 0.00 0.00 0.00 0.00 0.00 0.00 0.00 0.01 0.01 0.02 0.03
0.01 0.01 0.01 0.00 0.00 0.00 0.00 0.00 0.00 0.00 0.00 0.00 0.00 0.00 0.00 0.00 0.00 0.00 0.00 0.00 0.00 0.00 0.00 0.00 0.00 0.00 0.00 0.00 0.00 0.00 0.00 0.00 0.00 0.00 0.00 0.00 0.00 0.00 0.00 0.00 0.00 0.00 0.01 0.03
0.02 0.02 0.02 0.00 0.00 0.00 0.00 0.00 0.01 0.01 0.00 0.00 0.00 0.00 0.00 0.00 0.00 0.00 0.00 0.00 0.00 0.00 0.00 0.00 0.00 0.00 0.00 0.00 0.00 0.00 0.00 0.00 0.00 0.00 0.00 0.00 0.00 0.00 0.00 0.00 0.00 0.00 0.01 0.02
0.03 0.04 0.02 0.01 0.00 0.00 0.00 0.01 0.00 0.00 0.00 0.00 0.00 0.00 0.00 0.00 0.00 0.00 0.00 0.00 0.00 0.00 0.00 0.00 0.00 0.00 0.00 0.00 0.00 0.00 0.00 0.00 0.00 0.00 0.00 0.00 0.00 0.00 0.00 0.00 0.00 0.00 0.00 0.01
0.06 0.04 0.03 0.02 0.01 0.01 0.01 0.01 0.00 0.00 0.00 0.00 0.00 0.00 0.00 0.00 0.00 0.00 0.00 0.00 0.00 0.00 0.00 0.00 0.00 0.00 0.00 0.00 0.00 0.00 0.00 0.00 0.00 0.00 0.00 0.00 0.00 0.00 0.00 0.00 0.00 0.00 0.00 0.00
0.09 0.07 0.05 0.03 0.02 0.01 0.01 0.01 0.00 0.00 0.00 0.00 0.00 0.00 0.00 0.00 0.00 0.00 0.00 0.00 0.00 0.00 0.00 0.00 0.00 0.00 0.00 0.00 0.00 0.00 0.00 0.00 0.00 0.00 0.00 0.00 0.00 0.00 0.00 0.00 0.00 0.00 0.00 0.00
0.13 0.10 0.06 0.04 0.04 0.03 0.02 0.01 0.00 0.00 0.00 0.00 0.00 0.00 0.00 0.00 0.00 0.00 0.00 0.00 0.00 0.00 0.00 0.00 0.00 0.00 0.00 0.00 0.00 0.00 0.00 0.00 0.00 0.00 0.00 0.00 0.00 0.00 0.00 0.00 0.00 0.00 0.00 0.00
0.18 0.15 0.11 0.09 0.05 0.02 0.00 0.00 0.00 0.00 0.00 0.00 0.00 0.00 0.00 0.00 0.00 0.00 0.00 0.00 0.00 0.00 0.00 0.00 0.00 0.00 0.00 0.00 0.00 0.00 0.00 0.00 0.00 0.00 0.00 0.00 0.00 0.00 0.00 0.00 0.00 0.00 0.00 0.00
0.22 0.18 0.14 0.09 0.04 0.01 0.00 0.00 0.00 0.00 0.00 0.00 0.00 0.00 0.00 0.00 0.00 0.00 0.00 0.00 0.00 0.00 0.00 0.00 0.00 0.00 0.00 0.00 0.00 0.00 0.00 0.00 0.00 0.00 0.00 0.00 0.00 0.00 0.00 0.00 0.00 0.00 0.00 0.00

GEFSNGP_prec_meanprecacc_042.txt.gz
Total_Precipitation_Accumulation
0.00 0.00 0.00 0.01 0.01 0.02 0.02 0.03 0.03 0.03 0.09 0.14 0.25 0.35 0.34 0.30 0.28 0.31 0.31 0.30 0.29 0.27 0.23 0.18 0.14 0.12 0.11 0.10 0.09 0.07 0.06 0.05 0.06 0.05 0.06 0.07 0.08 0.09 0.09 0.09 0.08 0.07 0.07 0.06
0.00 0.00 0.00 0.01 0.01 0.01 0.02 0.03 0.03 0.06 0.12 0.19 0.25 0.27 0.27 0.25 0.24 0.29 0.39 0.44 0.42 0.32 0.24 0.17 0.15 0.15 0.14 0.13 0.11 0.09 0.09 0.10 0.10 0.10 0.11 0.12 0.12 0.12 0.11 0.10 0.08 0.06 0.04 0.02
0.00 0.00 0.00 0.00 0.01 0.01 0.02 0.03 0.03 0.06 0.12 0.13 0.15 0.16 0.17 0.18 0.21 0.29 0.39 0.39 0.33 0.24 0.19 0.18 0.20 0.21 0.21 0.21 0.19 0.18 0.18 0.17 0.15 0.15 0.15 0.14 0.12 0.10 0.08 0.06 0.04 0.03 0.02 0.01
0.02 0.02 0.02 0.01 0.01 0.01 0.02 0.03 0.03 0.03 0.03 0.04 0.06 0.09 0.11 0.12 0.17 0.22 0.25 0.24 0.21 0.19 0.21 0.25 0.28 0.29 0.28 0.26 0.23 0.21 0.21 0.20 0.18 0.16 0.15 0.12 0.09 0.07 0.05 0.03 0.03 0.02 0.02 0.01
0.06 0.06 0.03 0.02 0.01 0.01 0.02 0.03 0.03 0.03 0.03 0.02 0.03 0.07 0.09 0.08 0.11 0.15 0.18 0.19 0.19 0.23 0.30 0.35 0.35 0.32 0.29 0.28 0.25 0.23 0.21 0.17 0.13 0.10 0.07 0.06 0.04 0.03 0.02 0.02 0.02 0.01 0.01 0.02
0.13 0.16 0.13 0.08 0.02 0.01 0.02 0.07 0.04 0.03 0.03 0.03 0.04 0.10 0.11 0.08 0.08 0.09 0.11 0.16 0.25 0.34 0.39 0.40 0.36 0.30 0.27 0.24 0.20 0.16 0.11 0.07 0.05 0.03 0.02 0.02 0.02 0.02 0.02 0.02 0.01 0.01 0.01 0.02
0.22 0.27 0.24 0.12 0.07 0.05 0.10 0.12 0.09 0.06 0.06 0.08 0.12 0.15 0.12 0.07 0.07 0.08 0.14 0.24 0.32 0.36 0.37 0.33 0.25 0.19 0.16 0.13 0.10 0.06 0.04 0.02 0.01 0.01 0.01 0.01 0.01 0.01 0.02 0.01 0.01 0.01 0.02 0.02
0.26 0.32 0.37 0.15 0.09 0.13 0.15 0.12 0.12 0.10 0.10 0.12 0.15 0.13 0.10 0.09 0.10 0.14 0.23 0.32 0.35 0.35 0.30 0.23 0.15 0.10 0.08 0.06 0.03 0.02 0.01 0.01 0.01 0.01 0.00 0.00 0.01 0.01 0.01 0.01 0.01 0.01 0.01 0.02
0.35 0.36 0.25 0.13 0.09 0.08 0.10 0.12 0.12 0.12 0.13 0.16 0.20 0.20 0.19 0.19 0.22 0.28 0.34 0.36 0.32 0.26 0.20 0.12 0.07 0.05 0.04 0.02 0.01 0.01 0.01 0.01 0.01 0.01 0.00 0.00 0.00 0.00 0.01 0.01 0.01 0.01 0.02 0.02
0.31 0.29 0.22 0.15 0.10 0.07 0.08 0.12 0.15 0.18 0.21 0.26 0.31 0.32 0.30 0.30 0.31 0.32 0.30 0.24 0.17 0.11 0.08 0.05 0.03 0.02 0.01 0.01 0.00 0.01 0.01 0.01 0.02 0.01 0.01 0.00 0.00 0.00 0.01 0.01 0.01 0.02 0.02 0.03
0.51 0.44 0.34 0.20 0.14 0.15 0.16 0.19 0.26 0.32 0.33 0.36 0.35 0.32 0.29 0.28 0.25 0.21 0.14 0.09 0.06 0.05 0.03 0.02 0.01 0.01 0.00 0.00 0.01 0.01 0.01 0.01 0.01 0.01 0.01 0.01 0.00 0.00 0.01 0.01 0.01 0.02 0.03 0.04
0.81 0.58 0.46 0.36 0.32 0.34 0.35 0.33 0.34 0.33 0.31 0.29 0.25 0.21 0.18 0.16 0.13 0.09 0.07 0.05 0.04 0.03 0.01 0.01 0.00 0.00 0.00 0.00 0.00 0.01 0.01 0.01 0.01 0.00 0.00 0.00 0.01 0.01 0.01 0.00 0.00 0.01 0.02 0.04
0.70 0.55 0.50 0.50 0.48 0.47 0.41 0.30 0.24 0.21 0.17 0.18 0.16 0.13 0.10 0.08 0.06 0.05 0.04 0.03 0.02 0.01 0.00 0.00 0.00 0.00 0.00 0.00 0.00 0.00 0.00 0.01 0.00 0.00 0.00 0.00 0.01 0.02 0.04 0.03 0.02 0.01 0.01 0.03
0.49 0.47 0.48 0.39 0.28 0.22 0.14 0.10 0.10 0.12 0.11 0.08 0.07 0.06 0.05 0.03 0.03 0.02 0.02 0.01 0.00 0.00 0.00 0.00 0.00 0.00 0.00 0.00 0.00 0.00 0.00 0.00 0.00 0.00 0.00 0.01 0.01 0.02 0.03 0.05 0.06 0.06 0.03 0.02
0.28 0.23 0.17 0.11 0.07 0.06 0.05 0.05 0.06 0.08 0.07 0.05 0.03 0.03 0.02 0.02 0.02 0.01 0.01 0.00 0.00 0.00 0.00 0.00 0.00 0.00 0.00 0.00 0.00 0.00 0.00 0.00 0.00 0.00 0.00 0.00 0.01 0.02 0.03 0.04 0.05 0.05 0.04 0.02
0.10 0.07 0.05 0.04 0.04 0.04 0.04 0.04 0.04 0.04 0.04 0.03 0.03 0.03 0.02 0.01 0.01 0.00 0.00 0.00 0.00 0.00 0.00 0.00 0.00 0.00 0.00 0.00 0.01 0.01 0.00 0.00 0.00 0.00 0.00 0.00 0.01 0.01 0.02 0.04 0.04 0.05 0.05 0.04
0.04 0.03 0.02 0.03 0.03 0.03 0.03 0.02 0.02 0.02 0.02 0.03 0.02 0.01 0.01 0.00 0.00 0.00 0.00 0.00 0.00 0.00 0.00 0.00 0.00 0.00 0.00 0.00 0.00 0.01 0.01 0.00 0.00 0.00 0.00 0.00 0.00 0.01 0.01 0.02 0.03 0.04 0.04 0.06
0.02 0.01 0.01 0.01 0.01 0.01 0.01 0.01 0.01 0.01 0.01 0.01 0.00 0.00 0.00 0.00 0.00 0.00 0.00 0.00 0.00 0.00 0.00 0.00 0.00 0.00 0.00 0.00 0.00 0.00 0.01 0.01 0.00 0.00 0.00 0.00 0.00 0.00 0.00 0.01 0.02 0.02 0.03 0.05
0.01 0.01 0.01 0.00 0.00 0.00 0.00 0.00 0.00 0.00 0.00 0.00 0.00 0.00 0.00 0.00 0.00 0.00 0.00 0.00 0.00 0.00 0.00 0.00 0.00 0.00 0.00 0.00 0.00 0.00 0.00 0.01 0.00 0.00 0.00 0.00 0.00 0.00 0.00 0.00 0.01 0.01 0.02 0.04
0.01 0.01 0.01 0.00 0.00 0.00 0.00 0.00 0.00 0.00 0.00 0.00 0.00 0.00 0.00 0.00 0.00 0.00 0.00 0.00 0.00 0.00 0.00 0.00 0.00 0.00 0.00 0.00 0.00 0.00 0.00 0.00 0.00 0.00 0.00 0.00 0.00 0.00 0.00 0.00 0.00 0.00 0.01 0.03
0.02 0.02 0.02 0.00 0.00 0.00 0.00 0.00 0.01 0.01 0.00 0.00 0.00 0.00 0.00 0.00 0.00 0.00 0.00 0.00 0.00 0.00 0.00 0.00 0.00 0.00 0.00 0.00 0.00 0.00 0.00 0.00 0.00 0.00 0.00 0.00 0.00 0.00 0.00 0.00 0.00 0.00 0.01 0.02
0.03 0.04 0.02 0.01 0.00 0.00 0.00 0.01 0.00 0.00 0.00 0.00 0.00 0.00 0.00 0.00 0.00 0.00 0.00 0.00 0.00 0.00 0.00 0.00 0.00 0.00 0.00 0.00 0.00 0.00 0.00 0.00 0.00 0.00 0.00 0.00 0.00 0.00 0.00 0.00 0.00 0.00 0.00 0.01
0.06 0.04 0.03 0.02 0.01 0.01 0.01 0.01 0.00 0.00 0.00 0.00 0.00 0.00 0.00 0.00 0.00 0.00 0.00 0.00 0.00 0.00 0.00 0.00 0.00 0.00 0.00 0.00 0.00 0.00 0.00 0.00 0.00 0.00 0.00 0.00 0.00 0.00 0.00 0.00 0.00 0.00 0.00 0.00
0.10 0.07 0.05 0.03 0.02 0.01 0.01 0.01 0.00 0.00 0.00 0.00 0.00 0.00 0.00 0.00 0.00 0.00 0.00 0.00 0.00 0.00 0.00 0.00 0.00 0.00 0.00 0.00 0.00 0.00 0.00 0.00 0.00 0.00 0.00 0.00 0.00 0.00 0.00 0.00 0.00 0.00 0.00 0.00
0.13 0.10 0.06 0.04 0.04 0.03 0.02 0.01 0.00 0.00 0.00 0.00 0.00 0.00 0.00 0.00 0.00 0.00 0.00 0.00 0.00 0.00 0.00 0.00 0.00 0.00 0.00 0.00 0.00 0.00 0.00 0.00 0.00 0.00 0.00 0.00 0.00 0.00 0.00 0.00 0.00 0.00 0.00 0.00
0.18 0.15 0.11 0.09 0.05 0.02 0.00 0.00 0.00 0.00 0.00 0.00 0.00 0.00 0.00 0.00 0.00 0.00 0.00 0.00 0.00 0.00 0.00 0.00 0.00 0.00 0.00 0.00 0.00 0.00 0.00 0.00 0.00 0.00 0.00 0.00 0.00 0.00 0.00 0.00 0.00 0.00 0.00 0.00
0.22 0.18 0.14 0.09 0.04 0.01 0.00 0.00 0.00 0.00 0.00 0.00 0.00 0.00 0.00 0.00 0.00 0.00 0.00 0.00 0.00 0.00 0.00 0.00 0.00 0.00 0.00 0.00 0.00 0.00 0.00 0.00 0.00 0.00 0.00 0.00 0.00 0.00 0.00 0.00 0.00 0.00 0.00 0.00

GEFSNGP_prec_meanprecacc_048.txt.gz
Total_Precipitation_Accumulation
0.00 0.00 0.00 0.01 0.02 0.02 0.02 0.03 0.03 0.03 0.10 0.16 0.29 0.40 0.39 0.36 0.33 0.34 0.34 0.31 0.30 0.27 0.23 0.18 0.14 0.12 0.11 0.11 0.09 0.07 0.06 0.05 0.06 0.06 0.06 0.08 0.09 0.10 0.10 0.10 0.09 0.08 0.08 0.06
0.01 0.01 0.00 0.01 0.01 0.01 0.02 0.04 0.04 0.07 0.14 0.22 0.30 0.33 0.36 0.33 0.29 0.32 0.41 0.45 0.43 0.33 0.24 0.17 0.15 0.15 0.15 0.14 0.11 0.10 0.10 0.11 0.11 0.12 0.12 0.14 0.14 0.13 0.13 0.12 0.10 0.07 0.04 0.03
0.01 0.01 0.01 0.01 0.01 0.01 0.02 0.03 0.05 0.09 0.14 0.17 0.23 0.26 0.27 0.26 0.27 0.34 0.41 0.41 0.34 0.25 0.19 0.19 0.20 0.22 0.22 0.21 0.20 0.19 0.19 0.18 0.17 0.17 0.17 0.17 0.14 0.12 0.10 0.07 0.05 0.04 0.03 0.02
0.02 0.02 0.03 0.02 0.01 0.02 0.03 0.05 0.04 0.05 0.06 0.09 0.14 0.17 0.18 0.19 0.24 0.27 0.29 0.27 0.23 0.20 0.22 0.26 0.29 0.30 0.29 0.26 0.24 0.22 0.23 0.22 0.21 0.18 0.17 0.13 0.10 0.08 0.05 0.04 0.03 0.03 0.02 0.02
0.06 0.07 0.04 0.02 0.01 0.02 0.02 0.04 0.04 0.06 0.07 0.08 0.10 0.12 0.13 0.13 0.15 0.19 0.21 0.21 0.21 0.25 0.31 0.36 0.37 0.34 0.30 0.29 0.27 0.25 0.24 0.19 0.15 0.11 0.08 0.06 0.05 0.03 0.03 0.02 0.02 0.02 0.02 0.02
0.14 0.17 0.14 0.10 0.03 0.02 0.04 0.09 0.05 0.05 0.06 0.06 0.08 0.13 0.12 0.09 0.09 0.10 0.12 0.17 0.26 0.34 0.40 0.41 0.37 0.31 0.28 0.26 0.22 0.18 0.13 0.09 0.06 0.04 0.03 0.02 0.02 0.02 0.02 0.02 0.02 0.01 0.02 0.03
0.24 0.29 0.26 0.13 0.07 0.07 0.14 0.17 0.12 0.09 0.09 0.11 0.14 0.16 0.12 0.07 0.07 0.09 0.15 0.25 0.32 0.37 0.38 0.34 0.27 0.20 0.17 0.14 0.11 0.08 0.05 0.03 0.02 0.01 0.01 0.01 0.01 0.02 0.02 0.02 0.02 0.02 0.02 0.03
0.28 0.35 0.40 0.16 0.11 0.17 0.19 0.14 0.15 0.13 0.12 0.13 0.15 0.13 0.10 0.09 0.11 0.15 0.24 0.33 0.36 0.36 0.31 0.23 0.16 0.12 0.09 0.07 0.04 0.03 0.03 0.02 0.02 0.01 0.01 0.00 0.01 0.02 0.02 0.02 0.02 0.02 0.02 0.03
0.37 0.38 0.27 0.13 0.10 0.10 0.12 0.14 0.14 0.13 0.13 0.16 0.20 0.20 0.19 0.20 0.23 0.28 0.34 0.36 0.32 0.27 0.21 0.13 0.08 0.05 0.05 0.03 0.02 0.02 0.03 0.02 0.02 0.01 0.01 0.01 0.01 0.02 0.02 0.02 0.02 0.02 0.02 0.03
0.33 0.31 0.23 0.15 0.10 0.08 0.09 0.13 0.15 0.18 0.21 0.26 0.32 0.32 0.30 0.30 0.32 0.33 0.31 0.25 0.18 0.12 0.08 0.05 0.03 0.02 0.02 0.01 0.01 0.02 0.03 0.02 0.03 0.02 0.01 0.01 0.01 0.01 0.02 0.02 0.02 0.03 0.04 0.04
0.53 0.46 0.34 0.20 0.14 0.15 0.16 0.20 0.26 0.32 0.34 0.36 0.35 0.33 0.30 0.29 0.26 0.21 0.15 0.09 0.07 0.05 0.03 0.02 0.01 0.01 0.01 0.01 0.02 0.02 0.02 0.02 0.02 0.02 0.02 0.02 0.02 0.01 0.02 0.03 0.01 0.02 0.04 0.06
0.83 0.60 0.47 0.37 0.32 0.34 0.35 0.34 0.34 0.33 0.31 0.30 0.26 0.22 0.20 0.17 0.13 0.10 0.07 0.05 0.05 0.03 0.02 0.01 0.00 0.00 0.00 0.00 0.01 0.01 0.02 0.02 0.01 0.01 0.01 0.01 0.02 0.03 0.01 0.00 0.00 0.01 0.03 0.05
0.71 0.56 0.50 0.50 0.48 0.47 0.41 0.30 0.25 0.21 0.18 0.19 0.18 0.14 0.12 0.08 0.06 0.05 0.04 0.03 0.03 0.02 0.00 0.00 0.00 0.00 0.00 0.00 0.00 0.01 0.01 0.02 0.01 0.01 0.01 0.01 0.02 0.04 0.06 0.05 0.02 0.02 0.02 0.03
0.49 0.47 0.48 0.39 0.28 0.22 0.14 0.10 0.11 0.13 0.12 0.09 0.08 0.08 0.05 0.03 0.03 0.03 0.02 0.01 0.01 0.00 0.00 0.00 0.00 0.00 0.00 0.00 0.00 0.01 0.01 0.00 0.01 0.01 0.01 0.01 0.01 0.03 0.04 0.07 0.08 0.08 0.04 0.03
0.28 0.23 0.17 0.11 0.07 0.06 0.06 0.05 0.07 0.09 0.09 0.06 0.04 0.03 0.03 0.03 0.03 0.02 0.01 0.00 0.00 0.00 0.00 0.00 0.00 0.00 0.00 0.00 0.00 0.00 0.00 0.01 0.01 0.01 0.00 0.01 0.01 0.02 0.03 0.05 0.06 0.06 0.05 0.04
0.10 0.07 0.05 0.04 0.04 0.04 0.05 0.05 0.05 0.05 0.05 0.05 0.03 0.03 0.02 0.02 0.01 0.01 0.00 0.00 0.00 0.00 0.00 0.00 0.00 0.00 0.00 0.00 0.01 0.01 0.01 0.00 0.00 0.00 0.00 0.01 0.01 0.01 0.03 0.04 0.05 0.06 0.06 0.05
0.05 0.03 0.03 0.03 0.03 0.03 0.03 0.03 0.02 0.02 0.03 0.03 0.02 0.01 0.01 0.00 0.00 0.00 0.00 0.00 0.00 0.00 0.00 0.00 0.00 0.00 0.00 0.00 0.00 0.01 0.01 0.00 0.00 0.00 0.00 0.00 0.00 0.01 0.02 0.03 0.04 0.05 0.06 0.07
0.02 0.01 0.01 0.01 0.01 0.01 0.01 0.01 0.01 0.01 0.02 0.01 0.00 0.00 0.00 0.00 0.00 0.00 0.00 0.00 0.00 0.00 0.00 0.00 0.00 0.00 0.00 0.00 0.00 0.00 0.01 0.01 0.00 0.00 0.00 0.00 0.00 0.00 0.01 0.01 0.02 0.03 0.04 0.07
0.01 0.01 0.01 0.00 0.00 0.00 0.00 0.00 0.01 0.00 0.00 0.00 0.00 0.00 0.00 0.00 0.00 0.00 0.00 0.00 0.00 0.00 0.00 0.00 0.00 0.00 0.00 0.00 0.00 0.00 0.00 0.01 0.01 0.00 0.00 0.00 0.00 0.00 0.00 0.00 0.01 0.02 0.03 0.05
0.01 0.02 0.01 0.00 0.00 0.00 0.00 0.00 0.00 0.00 0.00 0.00 0.00 0.00 0.00 0.00 0.00 0.00 0.00 0.00 0.00 0.00 0.00 0.00 0.00 0.00 0.00 0.00 0.00 0.00 0.00 0.00 0.00 0.00 0.00 0.00 0.00 0.00 0.00 0.00 0.00 0.01 0.02 0.04
0.02 0.02 0.02 0.00 0.00 0.00 0.00 0.00 0.01 0.01 0.00 0.00 0.00 0.00 0.00 0.00 0.00 0.00 0.00 0.00 0.00 0.00 0.00 0.00 0.00 0.00 0.00 0.00 0.00 0.00 0.00 0.00 0.00 0.00 0.00 0.00 0.00 0.00 0.00 0.00 0.00 0.00 0.01 0.02
0.03 0.04 0.02 0.01 0.00 0.00 0.00 0.01 0.00 0.00 0.00 0.00 0.00 0.00 0.00 0.00 0.00 0.00 0.00 0.00 0.00 0.00 0.00 0.00 0.00 0.00 0.00 0.00 0.00 0.00 0.00 0.00 0.00 0.00 0.00 0.00 0.00 0.00 0.00 0.00 0.00 0.00 0.00 0.01
0.06 0.04 0.03 0.02 0.01 0.01 0.01 0.01 0.00 0.00 0.00 0.00 0.00 0.00 0.00 0.00 0.00 0.00 0.00 0.00 0.00 0.00 0.00 0.00 0.00 0.00 0.00 0.00 0.00 0.00 0.00 0.00 0.00 0.00 0.00 0.00 0.00 0.00 0.00 0.00 0.00 0.00 0.00 0.00
0.10 0.08 0.05 0.03 0.02 0.02 0.01 0.01 0.00 0.00 0.00 0.00 0.00 0.00 0.00 0.00 0.00 0.00 0.00 0.00 0.00 0.00 0.00 0.00 0.00 0.00 0.00 0.00 0.00 0.00 0.00 0.00 0.00 0.00 0.00 0.00 0.00 0.00 0.00 0.00 0.00 0.00 0.00 0.00
0.14 0.10 0.06 0.04 0.04 0.03 0.02 0.01 0.00 0.00 0.00 0.00 0.00 0.00 0.00 0.00 0.00 0.00 0.00 0.00 0.00 0.00 0.00 0.00 0.00 0.00 0.00 0.00 0.00 0.00 0.00 0.00 0.00 0.00 0.00 0.00 0.00 0.00 0.00 0.00 0.00 0.00 0.00 0.00
0.18 0.16 0.12 0.09 0.05 0.02 0.00 0.00 0.00 0.00 0.00 0.00 0.00 0.00 0.00 0.00 0.00 0.00 0.00 0.00 0.00 0.00 0.00 0.00 0.00 0.00 0.00 0.00 0.00 0.00 0.00 0.00 0.00 0.00 0.00 0.00 0.00 0.00 0.00 0.00 0.00 0.00 0.00 0.00
0.22 0.18 0.14 0.09 0.04 0.01 0.00 0.00 0.00 0.00 0.00 0.00 0.00 0.00 0.00 0.00 0.00 0.00 0.00 0.00 0.00 0.00 0.00 0.00 0.00 0.00 0.00 0.00 0.00 0.00 0.00 0.00 0.00 0.00 0.00 0.00 0.00 0.00 0.00 0.00 0.00 0.00 0.00 0.00

GEFSNGP_prec_meanprecacc_054.txt.gz
Total_Precipitation_Accumulation
0.03 0.02 0.02 0.03 0.03 0.03 0.03 0.04 0.04 0.09 0.24 0.33 0.50 0.61 0.54 0.43 0.37 0.37 0.36 0.33 0.31 0.29 0.25 0.19 0.15 0.13 0.11 0.11 0.09 0.07 0.06 0.06 0.06 0.06 0.07 0.08 0.10 0.10 0.10 0.10 0.09 0.09 0.08 0.07
0.03 0.02 0.02 0.03 0.03 0.04 0.04 0.05 0.07 0.17 0.37 0.50 0.52 0.51 0.50 0.43 0.36 0.38 0.45 0.48 0.45 0.35 0.26 0.19 0.17 0.17 0.16 0.15 0.13 0.11 0.10 0.11 0.12 0.12 0.13 0.14 0.14 0.14 0.14 0.12 0.11 0.07 0.05 0.03
0.04 0.03 0.04 0.07 0.06 0.05 0.06 0.07 0.10 0.20 0.33 0.34 0.39 0.41 0.40 0.38 0.39 0.44 0.49 0.47 0.40 0.31 0.25 0.24 0.25 0.25 0.25 0.23 0.21 0.20 0.19 0.18 0.18 0.17 0.17 0.17 0.15 0.13 0.11 0.09 0.06 0.05 0.04 0.03
0.04 0.05 0.09 0.10 0.05 0.05 0.06 0.08 0.09 0.13 0.15 0.19 0.25 0.28 0.29 0.30 0.35 0.39 0.42 0.40 0.37 0.32 0.30 0.32 0.33 0.32 0.30 0.27 0.24 0.23 0.23 0.22 0.21 0.19 0.17 0.14 0.11 0.09 0.07 0.05 0.05 0.04 0.03 0.03
0.09 0.12 0.13 0.12 0.06 0.04 0.07 0.10 0.09 0.11 0.13 0.15 0.16 0.20 0.22 0.23 0.24 0.27 0.31 0.30 0.29 0.30 0.35 0.39 0.38 0.35 0.31 0.29 0.27 0.26 0.24 0.20 0.16 0.12 0.09 0.07 0.06 0.05 0.04 0.04 0.04 0.03 0.02 0.03
0.17 0.25 0.29 0.28 0.10 0.04 0.08 0.17 0.11 0.10 0.11 0.13 0.17 0.24 0.21 0.17 0.16 0.16 0.17 0.21 0.28 0.36 0.41 0.42 0.38 0.32 0.29 0.27 0.23 0.19 0.14 0.10 0.07 0.04 0.04 0.03 0.03 0.03 0.04 0.04 0.03 0.03 0.03 0.04
0.28 0.36 0.39 0.18 0.08 0.08 0.22 0.31 0.25 0.19 0.18 0.21 0.25 0.26 0.20 0.13 0.12 0.12 0.17 0.26 0.33 0.38 0.39 0.35 0.28 0.22 0.19 0.16 0.13 0.10 0.07 0.04 0.03 0.02 0.01 0.02 0.02 0.04 0.05 0.05 0.05 0.04 0.05 0.05
0.34 0.44 0.51 0.18 0.12 0.21 0.26 0.22 0.24 0.22 0.19 0.19 0.19 0.16 0.13 0.11 0.12 0.16 0.25 0.34 0.37 0.37 0.33 0.25 0.18 0.15 0.13 0.11 0.07 0.05 0.05 0.04 0.03 0.02 0.01 0.01 0.04 0.06 0.06 0.07 0.06 0.05 0.05 0.05
0.43 0.46 0.32 0.14 0.11 0.12 0.15 0.19 0.19 0.18 0.17 0.18 0.21 0.21 0.20 0.20 0.24 0.30 0.35 0.37 0.34 0.28 0.22 0.15 0.10 0.09 0.08 0.06 0.04 0.04 0.06 0.05 0.03 0.03 0.02 0.02 0.05 0.07 0.07 0.08 0.06 0.05 0.05 0.05
0.38 0.36 0.25 0.16 0.11 0.09 0.11 0.16 0.18 0.20 0.24 0.28 0.32 0.33 0.31 0.31 0.33 0.34 0.32 0.26 0.19 0.14 0.10 0.06 0.04 0.03 0.03 0.03 0.02 0.04 0.05 0.04 0.04 0.04 0.05 0.05 0.06 0.06 0.07 0.07 0.05 0.04 0.06 0.06
0.59 0.53 0.39 0.23 0.16 0.16 0.17 0.21 0.27 0.33 0.35 0.38 0.36 0.33 0.31 0.30 0.28 0.22 0.16 0.11 0.08 0.06 0.04 0.02 0.01 0.01 0.01 0.01 0.02 0.04 0.04 0.03 0.04 0.04 0.04 0.07 0.07 0.04 0.03 0.04 0.01 0.03 0.05 0.06
0.91 0.68 0.55 0.42 0.33 0.35 0.35 0.34 0.35 0.34 0.33 0.32 0.28 0.23 0.21 0.19 0.15 0.11 0.08 0.06 0.06 0.04 0.02 0.01 0.00 0.00 0.00 0.00 0.01 0.03 0.06 0.05 0.03 0.02 0.03 0.04 0.07 0.08 0.03 0.01 0.00 0.01 0.03 0.05
0.73 0.58 0.52 0.51 0.48 0.47 0.41 0.31 0.26 0.22 0.19 0.20 0.19 0.15 0.13 0.10 0.07 0.06 0.04 0.04 0.04 0.02 0.01 0.00 0.00 0.00 0.00 0.00 0.00 0.01 0.04 0.04 0.02 0.01 0.02 0.02 0.04 0.09 0.12 0.07 0.02 0.02 0.02 0.03
0.49 0.47 0.49 0.39 0.29 0.22 0.15 0.11 0.12 0.15 0.13 0.10 0.09 0.09 0.07 0.04 0.03 0.03 0.02 0.02 0.01 0.01 0.00 0.00 0.00 0.00 0.00 0.00 0.01 0.01 0.02 0.02 0.02 0.02 0.01 0.02 0.03 0.04 0.08 0.12 0.12 0.10 0.06 0.03
0.28 0.24 0.18 0.11 0.07 0.07 0.06 0.06 0.08 0.11 0.10 0.07 0.05 0.05 0.03 0.03 0.03 0.02 0.01 0.00 0.00 0.00 0.00 0.00 0.00 0.00 0.00 0.00 0.01 0.01 0.01 0.02 0.02 0.01 0.01 0.01 0.02 0.02 0.04 0.08 0.10 0.10 0.08 0.05
0.10 0.07 0.05 0.05 0.05 0.05 0.06 0.06 0.06 0.07 0.06 0.06 0.05 0.04 0.03 0.02 0.01 0.01 0.00 0.00 0.00 0.00 0.00 0.00 0.00 0.00 0.00 0.00 0.01 0.01 0.01 0.00 0.00 0.01 0.01 0.01 0.01 0.02 0.04 0.07 0.08 0.08 0.08 0.06
0.05 0.04 0.03 0.03 0.04 0.04 0.04 0.04 0.03 0.03 0.04 0.05 0.03 0.02 0.01 0.00 0.01 0.01 0.00 0.00 0.00 0.00 0.00 0.00 0.00 0.00 0.00 0.00 0.01 0.01 0.01 0.01 0.00 0.00 0.00 0.00 0.01 0.01 0.02 0.05 0.06 0.07 0.07 0.08
0.02 0.02 0.02 0.01 0.02 0.02 0.02 0.02 0.02 0.02 0.02 0.01 0.01 0.00 0.00 0.00 0.01 0.00 0.00 0.00 0.00 0.00 0.00 0.00 0.00 0.00 0.00 0.00 0.00 0.00 0.01 0.01 0.00 0.00 0.00 0.00 0.00 0.00 0.01 0.02 0.03 0.05 0.07 0.08
0.01 0.01 0.01 0.01 0.01 0.01 0.01 0.01 0.01 0.00 0.00 0.00 0.00 0.00 0.00 0.00 0.00 0.00 0.00 0.00 0.00 0.00 0.00 0.00 0.00 0.00 0.00 0.00 0.00 0.00 0.00 0.01 0.01 0.00 0.00 0.00 0.00 0.01 0.01 0.01 0.02 0.03 0.05 0.07
0.01 0.02 0.01 0.00 0.00 0.00 0.00 0.00 0.00 0.00 0.00 0.00 0.00 0.00 0.00 0.00 0.00 0.00 0.00 0.00 0.00 0.00 0.00 0.00 0.00 0.00 0.00 0.00 0.00 0.00 0.00 0.00 0.00 0.00 0.00 0.00 0.00 0.00 0.00 0.01 0.01 0.01 0.03 0.05
0.02 0.02 0.02 0.00 0.00 0.00 0.00 0.00 0.01 0.01 0.00 0.00 0.00 0.00 0.00 0.00 0.00 0.00 0.00 0.00 0.00 0.00 0.00 0.00 0.00 0.00 0.00 0.00 0.00 0.00 0.00 0.00 0.00 0.00 0.00 0.00 0.00 0.00 0.00 0.01 0.01 0.01 0.02 0.03
0.03 0.04 0.02 0.01 0.01 0.01 0.01 0.01 0.00 0.00 0.00 0.00 0.00 0.00 0.00 0.00 0.00 0.00 0.00 0.00 0.00 0.00 0.00 0.00 0.00 0.00 0.00 0.00 0.00 0.00 0.00 0.00 0.00 0.00 0.00 0.00 0.00 0.00 0.00 0.00 0.01 0.01 0.01 0.02
0.06 0.04 0.03 0.02 0.02 0.01 0.01 0.01 0.00 0.00 0.00 0.00 0.00 0.00 0.00 0.00 0.00 0.00 0.00 0.00 0.00 0.00 0.00 0.00 0.00 0.00 0.00 0.00 0.00 0.00 0.00 0.00 0.00 0.00 0.00 0.00 0.00 0.00 0.00 0.00 0.00 0.01 0.01 0.01
0.10 0.08 0.05 0.03 0.02 0.02 0.02 0.01 0.00 0.00 0.00 0.00 0.00 0.00 0.00 0.00 0.00 0.00 0.00 0.00 0.00 0.00 0.00 0.00 0.00 0.00 0.00 0.00 0.00 0.00 0.00 0.00 0.00 0.00 0.00 0.00 0.00 0.00 0.00 0.00 0.00 0.00 0.00 0.00
0.14 0.10 0.06 0.05 0.05 0.04 0.02 0.01 0.00 0.00 0.00 0.00 0.00 0.00 0.00 0.00 0.00 0.00 0.00 0.00 0.00 0.00 0.00 0.00 0.00 0.00 0.00 0.00 0.00 0.00 0.00 0.00 0.00 0.00 0.00 0.00 0.00 0.00 0.00 0.00 0.00 0.00 0.00 0.00
0.20 0.17 0.13 0.09 0.05 0.02 0.01 0.00 0.00 0.00 0.00 0.00 0.00 0.00 0.00 0.00 0.00 0.00 0.00 0.00 0.00 0.00 0.00 0.00 0.00 0.00 0.00 0.00 0.00 0.00 0.00 0.00 0.00 0.00 0.00 0.00 0.00 0.00 0.00 0.00 0.00 0.00 0.00 0.00
0.25 0.21 0.16 0.10 0.04 0.01 0.00 0.00 0.00 0.00 0.00 0.00 0.00 0.00 0.00 0.00 0.00 0.00 0.00 0.00 0.00 0.00 0.00 0.00 0.00 0.00 0.00 0.00 0.00 0.00 0.00 0.00 0.00 0.00 0.00 0.00 0.00 0.00 0.00 0.00 0.00 0.00 0.00 0.00

GEFSNGP_prec_meanprecacc_060.txt.gz
Total_Precipitation_Accumulation
0.10 0.06 0.04 0.05 0.04 0.04 0.05 0.06 0.09 0.18 0.34 0.47 0.69 0.79 0.73 0.60 0.52 0.49 0.46 0.41 0.37 0.32 0.27 0.21 0.16 0.14 0.12 0.12 0.10 0.08 0.06 0.06 0.06 0.07 0.07 0.08 0.10 0.10 0.10 0.10 0.09 0.09 0.08 0.07
0.08 0.07 0.06 0.07 0.07 0.09 0.11 0.13 0.17 0.30 0.51 0.68 0.69 0.65 0.63 0.56 0.49 0.50 0.56 0.56 0.51 0.40 0.29 0.22 0.19 0.18 0.17 0.16 0.14 0.11 0.11 0.12 0.12 0.12 0.13 0.14 0.14 0.14 0.14 0.12 0.11 0.08 0.05 0.03
0.09 0.09 0.10 0.18 0.20 0.20 0.22 0.20 0.23 0.32 0.45 0.50 0.53 0.52 0.52 0.49 0.50 0.55 0.58 0.54 0.46 0.35 0.28 0.27 0.27 0.27 0.26 0.24 0.21 0.20 0.19 0.18 0.18 0.17 0.17 0.17 0.15 0.13 0.11 0.09 0.06 0.05 0.04 0.03
0.07 0.09 0.20 0.30 0.22 0.21 0.19 0.18 0.20 0.23 0.25 0.28 0.35 0.39 0.41 0.41 0.46 0.52 0.55 0.52 0.45 0.38 0.35 0.36 0.35 0.34 0.31 0.28 0.24 0.23 0.23 0.23 0.21 0.19 0.17 0.14 0.11 0.09 0.07 0.05 0.05 0.04 0.03 0.03
0.11 0.16 0.23 0.26 0.17 0.17 0.20 0.21 0.18 0.18 0.19 0.21 0.23 0.26 0.31 0.33 0.35 0.37 0.41 0.39 0.35 0.35 0.38 0.40 0.39 0.35 0.32 0.30 0.27 0.26 0.24 0.20 0.16 0.12 0.09 0.07 0.06 0.05 0.04 0.04 0.04 0.03 0.02 0.03
0.19 0.28 0.37 0.36 0.17 0.11 0.16 0.28 0.22 0.17 0.16 0.19 0.25 0.31 0.29 0.25 0.24 0.23 0.24 0.26 0.31 0.38 0.42 0.43 0.39 0.32 0.30 0.27 0.23 0.19 0.14 0.10 0.07 0.05 0.04 0.03 0.03 0.03 0.04 0.04 0.04 0.03 0.03 0.04
0.30 0.39 0.43 0.21 0.10 0.11 0.28 0.40 0.34 0.27 0.26 0.28 0.34 0.33 0.24 0.17 0.17 0.18 0.22 0.29 0.35 0.38 0.39 0.35 0.28 0.22 0.19 0.17 0.14 0.10 0.07 0.05 0.03 0.02 0.02 0.02 0.03 0.04 0.05 0.05 0.05 0.05 0.05 0.06
0.37 0.47 0.54 0.21 0.13 0.24 0.30 0.26 0.29 0.27 0.26 0.26 0.24 0.20 0.16 0.15 0.16 0.19 0.27 0.35 0.38 0.37 0.33 0.25 0.19 0.15 0.14 0.11 0.07 0.05 0.05 0.04 0.03 0.02 0.01 0.02 0.04 0.07 0.07 0.07 0.06 0.06 0.05 0.05
0.44 0.47 0.34 0.16 0.12 0.14 0.18 0.21 0.21 0.20 0.19 0.19 0.22 0.22 0.20 0.21 0.25 0.31 0.36 0.38 0.34 0.29 0.23 0.16 0.11 0.09 0.09 0.07 0.04 0.05 0.06 0.05 0.04 0.03 0.03 0.03 0.05 0.07 0.08 0.08 0.06 0.05 0.05 0.05
0.39 0.38 0.27 0.17 0.12 0.10 0.13 0.17 0.19 0.21 0.24 0.28 0.33 0.33 0.31 0.31 0.34 0.35 0.33 0.27 0.20 0.14 0.10 0.07 0.04 0.03 0.03 0.03 0.02 0.04 0.05 0.04 0.04 0.05 0.05 0.06 0.07 0.06 0.07 0.07 0.05 0.05 0.06 0.06
0.61 0.55 0.41 0.25 0.17 0.17 0.18 0.21 0.28 0.34 0.36 0.38 0.36 0.33 0.31 0.31 0.28 0.23 0.17 0.11 0.08 0.06 0.04 0.03 0.02 0.01 0.01 0.01 0.02 0.05 0.05 0.04 0.04 0.04 0.05 0.09 0.09 0.05 0.04 0.04 0.01 0.03 0.05 0.06
0.92 0.70 0.57 0.43 0.34 0.36 0.36 0.35 0.35 0.34 0.33 0.32 0.28 0.23 0.21 0.19 0.15 0.12 0.08 0.06 0.06 0.04 0.02 0.01 0.01 0.00 0.00 0.00 0.01 0.03 0.06 0.05 0.03 0.03 0.04 0.06 0.09 0.10 0.04 0.01 0.00 0.01 0.03 0.05
0.73 0.58 0.53 0.52 0.48 0.47 0.42 0.31 0.26 0.23 0.20 0.21 0.19 0.15 0.13 0.10 0.07 0.06 0.04 0.04 0.04 0.02 0.01 0.00 0.00 0.00 0.00 0.00 0.00 0.01 0.04 0.04 0.02 0.02 0.03 0.04 0.06 0.11 0.12 0.08 0.02 0.02 0.02 0.03
0.49 0.47 0.49 0.39 0.29 0.22 0.15 0.11 0.13 0.15 0.14 0.11 0.10 0.10 0.07 0.04 0.03 0.03 0.03 0.02 0.01 0.01 0.00 0.00 0.00 0.00 0.00 0.00 0.01 0.01 0.02 0.02 0.02 0.02 0.02 0.03 0.04 0.06 0.09 0.13 0.13 0.11 0.06 0.03
0.28 0.24 0.19 0.11 0.07 0.07 0.07 0.06 0.08 0.11 0.11 0.08 0.06 0.05 0.04 0.03 0.03 0.02 0.01 0.00 0.00 0.00 0.00 0.00 0.00 0.00 0.00 0.00 0.01 0.01 0.01 0.02 0.02 0.01 0.01 0.01 0.02 0.03 0.05 0.08 0.10 0.10 0.08 0.06
0.10 0.07 0.05 0.05 0.05 0.05 0.06 0.07 0.07 0.07 0.07 0.06 0.05 0.04 0.03 0.02 0.01 0.01 0.00 0.00 0.00 0.00 0.00 0.00 0.00 0.00 0.00 0.00 0.01 0.02 0.01 0.00 0.00 0.01 0.01 0.01 0.01 0.02 0.04 0.07 0.08 0.08 0.08 0.06
0.05 0.04 0.03 0.04 0.04 0.04 0.05 0.04 0.04 0.04 0.05 0.05 0.03 0.02 0.01 0.01 0.01 0.01 0.00 0.00 0.00 0.00 0.00 0.00 0.00 0.00 0.00 0.00 0.01 0.01 0.01 0.01 0.00 0.00 0.00 0.00 0.01 0.01 0.02 0.05 0.06 0.07 0.07 0.08
0.02 0.02 0.02 0.01 0.02 0.02 0.02 0.02 0.02 0.02 0.02 0.01 0.01 0.00 0.00 0.00 0.01 0.00 0.00 0.00 0.00 0.00 0.00 0.00 0.00 0.00 0.00 0.00 0.00 0.00 0.01 0.01 0.00 0.00 0.00 0.00 0.00 0.00 0.01 0.02 0.04 0.05 0.07 0.08
0.01 0.01 0.01 0.01 0.01 0.01 0.01 0.01 0.01 0.00 0.00 0.00 0.00 0.00 0.00 0.00 0.00 0.00 0.00 0.00 0.00 0.00 0.00 0.00 0.00 0.00 0.00 0.00 0.00 0.00 0.00 0.01 0.01 0.00 0.00 0.00 0.00 0.01 0.01 0.01 0.02 0.03 0.05 0.07
0.01 0.02 0.01 0.01 0.00 0.00 0.00 0.00 0.00 0.00 0.00 0.00 0.00 0.00 0.00 0.00 0.00 0.00 0.00 0.00 0.00 0.00 0.00 0.00 0.00 0.00 0.00 0.00 0.00 0.00 0.00 0.00 0.00 0.00 0.00 0.00 0.00 0.00 0.00 0.01 0.01 0.02 0.03 0.05
0.02 0.02 0.02 0.00 0.00 0.00 0.00 0.00 0.01 0.01 0.00 0.00 0.00 0.00 0.00 0.00 0.00 0.00 0.00 0.00 0.00 0.00 0.00 0.00 0.00 0.00 0.00 0.00 0.00 0.00 0.00 0.00 0.00 0.00 0.00 0.00 0.00 0.00 0.00 0.01 0.01 0.01 0.02 0.04
0.03 0.04 0.02 0.01 0.01 0.01 0.01 0.01 0.00 0.00 0.00 0.00 0.00 0.00 0.00 0.00 0.00 0.00 0.00 0.00 0.00 0.00 0.00 0.00 0.00 0.00 0.00 0.00 0.00 0.00 0.00 0.00 0.00 0.00 0.00 0.00 0.00 0.00 0.00 0.00 0.01 0.01 0.01 0.02
0.06 0.04 0.03 0.02 0.02 0.01 0.01 0.01 0.00 0.00 0.00 0.00 0.00 0.00 0.00 0.00 0.00 0.00 0.00 0.00 0.00 0.00 0.00 0.00 0.00 0.00 0.00 0.00 0.00 0.00 0.00 0.00 0.00 0.00 0.00 0.00 0.00 0.00 0.00 0.00 0.00 0.01 0.01 0.01
0.10 0.08 0.05 0.03 0.02 0.02 0.02 0.01 0.00 0.00 0.00 0.00 0.00 0.00 0.00 0.00 0.00 0.00 0.00 0.00 0.00 0.00 0.00 0.00 0.00 0.00 0.00 0.00 0.00 0.00 0.00 0.00 0.00 0.00 0.00 0.00 0.00 0.00 0.00 0.00 0.00 0.00 0.00 0.00
0.14 0.10 0.06 0.05 0.05 0.04 0.02 0.01 0.00 0.00 0.00 0.00 0.00 0.00 0.00 0.00 0.00 0.00 0.00 0.00 0.00 0.00 0.00 0.00 0.00 0.00 0.00 0.00 0.00 0.00 0.00 0.00 0.00 0.00 0.00 0.00 0.00 0.00 0.00 0.00 0.00 0.00 0.00 0.00
0.20 0.17 0.13 0.09 0.05 0.02 0.01 0.00 0.00 0.00 0.00 0.00 0.00 0.00 0.00 0.00 0.00 0.00 0.00 0.00 0.00 0.00 0.00 0.00 0.00 0.00 0.00 0.00 0.00 0.00 0.00 0.00 0.00 0.00 0.00 0.00 0.00 0.00 0.00 0.00 0.00 0.00 0.00 0.00
0.25 0.21 0.16 0.10 0.04 0.01 0.00 0.00 0.00 0.00 0.00 0.00 0.00 0.00 0.00 0.00 0.00 0.00 0.00 0.00 0.00 0.00 0.00 0.00 0.00 0.00 0.00 0.00 0.00 0.00 0.00 0.00 0.00 0.00 0.00 0.00 0.00 0.00 0.00 0.00 0.00 0.00 0.00 0.00

GEFSNGP_prec_meanprecacc_066.txt.gz
Total_Precipitation_Accumulation
0.11 0.07 0.05 0.07 0.06 0.05 0.06 0.07 0.10 0.21 0.37 0.50 0.73 0.84 0.78 0.64 0.58 0.57 0.54 0.49 0.45 0.39 0.32 0.24 0.19 0.16 0.13 0.12 0.11 0.08 0.07 0.06 0.07 0.07 0.07 0.09 0.10 0.11 0.11 0.10 0.09 0.09 0.08 0.07
0.09 0.09 0.07 0.09 0.09 0.11 0.14 0.16 0.21 0.35 0.56 0.74 0.75 0.71 0.69 0.61 0.55 0.58 0.65 0.66 0.60 0.47 0.36 0.26 0.21 0.20 0.19 0.17 0.14 0.12 0.11 0.12 0.12 0.12 0.13 0.14 0.14 0.14 0.14 0.12 0.11 0.08 0.05 0.03
0.10 0.10 0.11 0.19 0.21 0.23 0.25 0.25 0.30 0.39 0.51 0.57 0.60 0.60 0.61 0.58 0.59 0.64 0.68 0.64 0.55 0.44 0.36 0.32 0.31 0.29 0.27 0.25 0.22 0.20 0.19 0.19 0.18 0.17 0.17 0.17 0.15 0.13 0.11 0.09 0.06 0.05 0.04 0.03
0.08 0.10 0.20 0.32 0.25 0.24 0.22 0.21 0.23 0.27 0.31 0.37 0.45 0.50 0.52 0.53 0.58 0.64 0.67 0.65 0.58 0.49 0.43 0.41 0.39 0.36 0.32 0.28 0.25 0.23 0.24 0.23 0.21 0.19 0.17 0.14 0.11 0.09 0.07 0.05 0.05 0.04 0.03 0.03
0.12 0.16 0.24 0.27 0.19 0.20 0.23 0.22 0.19 0.21 0.24 0.28 0.31 0.36 0.45 0.49 0.51 0.56 0.59 0.55 0.49 0.44 0.43 0.43 0.41 0.36 0.32 0.30 0.28 0.26 0.24 0.20 0.16 0.12 0.09 0.07 0.06 0.05 0.04 0.04 0.04 0.03 0.02 0.03
0.19 0.28 0.37 0.36 0.18 0.12 0.19 0.30 0.25 0.21 0.20 0.25 0.32 0.41 0.41 0.36 0.35 0.37 0.37 0.36 0.39 0.43 0.45 0.44 0.39 0.33 0.30 0.27 0.23 0.19 0.14 0.10 0.07 0.05 0.04 0.03 0.03 0.03 0.04 0.04 0.04 0.03 0.03 0.04
0.30 0.39 0.44 0.21 0.10 0.12 0.30 0.42 0.40 0.34 0.32 0.34 0.40 0.41 0.31 0.24 0.24 0.26 0.29 0.35 0.38 0.40 0.40 0.36 0.28 0.22 0.20 0.17 0.14 0.10 0.07 0.05 0.03 0.02 0.02 0.02 0.03 0.04 0.05 0.05 0.05 0.05 0.05 0.06
0.37 0.47 0.54 0.21 0.13 0.25 0.31 0.27 0.34 0.34 0.34 0.35 0.33 0.28 0.24 0.22 0.24 0.26 0.32 0.38 0.40 0.38 0.33 0.25 0.19 0.15 0.14 0.12 0.07 0.05 0.05 0.04 0.03 0.02 0.01 0.02 0.04 0.07 0.07 0.07 0.06 0.06 0.05 0.05
0.44 0.48 0.34 0.16 0.13 0.14 0.18 0.22 0.23 0.23 0.23 0.28 0.31 0.28 0.26 0.27 0.30 0.36 0.40 0.40 0.35 0.29 0.23 0.16 0.11 0.09 0.09 0.07 0.04 0.05 0.06 0.05 0.04 0.03 0.03 0.03 0.05 0.07 0.08 0.08 0.06 0.05 0.05 0.05
0.39 0.38 0.27 0.18 0.13 0.11 0.14 0.19 0.20 0.22 0.26 0.31 0.38 0.37 0.34 0.33 0.36 0.37 0.34 0.27 0.20 0.14 0.10 0.07 0.04 0.03 0.03 0.03 0.02 0.04 0.05 0.04 0.04 0.05 0.05 0.06 0.07 0.06 0.07 0.07 0.05 0.05 0.06 0.06
0.61 0.55 0.41 0.25 0.18 0.18 0.18 0.22 0.29 0.35 0.37 0.39 0.37 0.35 0.33 0.32 0.29 0.24 0.17 0.11 0.08 0.06 0.04 0.03 0.02 0.01 0.01 0.01 0.02 0.05 0.05 0.04 0.04 0.04 0.05 0.09 0.09 0.05 0.04 0.04 0.01 0.03 0.05 0.06
0.92 0.70 0.57 0.43 0.34 0.36 0.36 0.35 0.35 0.35 0.34 0.32 0.28 0.24 0.22 0.19 0.15 0.12 0.08 0.06 0.06 0.04 0.02 0.01 0.01 0.00 0.00 0.00 0.01 0.03 0.06 0.05 0.03 0.03 0.04 0.06 0.09 0.10 0.04 0.01 0.00 0.01 0.03 0.05
0.73 0.58 0.53 0.52 0.48 0.47 0.42 0.31 0.26 0.23 0.20 0.21 0.19 0.15 0.13 0.10 0.07 0.06 0.04 0.04 0.04 0.02 0.01 0.00 0.00 0.00 0.00 0.00 0.00 0.01 0.04 0.04 0.02 0.02 0.03 0.04 0.06 0.11 0.12 0.08 0.02 0.02 0.02 0.03
0.49 0.47 0.49 0.39 0.29 0.22 0.15 0.11 0.13 0.16 0.15 0.12 0.10 0.10 0.07 0.04 0.03 0.03 0.03 0.02 0.01 0.01 0.00 0.00 0.00 0.00 0.00 0.00 0.01 0.01 0.02 0.02 0.02 0.02 0.02 0.03 0.04 0.06 0.09 0.13 0.13 0.11 0.06 0.04
0.28 0.24 0.19 0.11 0.07 0.07 0.07 0.06 0.09 0.11 0.11 0.09 0.06 0.05 0.04 0.03 0.03 0.02 0.01 0.00 0.00 0.00 0.00 0.00 0.00 0.00 0.00 0.00 0.01 0.01 0.01 0.02 0.02 0.01 0.01 0.01 0.02 0.03 0.05 0.08 0.10 0.10 0.08 0.06
0.10 0.07 0.05 0.05 0.05 0.05 0.06 0.07 0.07 0.07 0.07 0.06 0.05 0.04 0.03 0.02 0.01 0.01 0.00 0.00 0.00 0.00 0.00 0.00 0.00 0.00 0.00 0.00 0.01 0.02 0.01 0.00 0.00 0.01 0.01 0.01 0.01 0.02 0.04 0.07 0.08 0.08 0.08 0.07
0.05 0.04 0.03 0.04 0.04 0.05 0.05 0.04 0.04 0.04 0.05 0.05 0.03 0.02 0.01 0.01 0.01 0.01 0.00 0.00 0.00 0.00 0.00 0.00 0.00 0.00 0.00 0.00 0.01 0.01 0.01 0.01 0.00 0.00 0.00 0.00 0.01 0.01 0.02 0.05 0.06 0.07 0.07 0.08
0.02 0.02 0.02 0.02 0.02 0.02 0.02 0.02 0.02 0.02 0.02 0.01 0.01 0.00 0.00 0.00 0.01 0.00 0.00 0.00 0.00 0.00 0.00 0.00 0.00 0.00 0.00 0.00 0.00 0.00 0.01 0.01 0.00 0.00 0.00 0.00 0.00 0.00 0.01 0.02 0.04 0.05 0.07 0.08
0.01 0.01 0.01 0.01 0.01 0.01 0.01 0.01 0.01 0.00 0.00 0.00 0.00 0.00 0.00 0.00 0.00 0.00 0.00 0.00 0.00 0.00 0.00 0.00 0.00 0.00 0.00 0.00 0.00 0.00 0.00 0.01 0.01 0.00 0.00 0.00 0.00 0.01 0.01 0.01 0.02 0.03 0.05 0.07
0.01 0.02 0.01 0.01 0.00 0.00 0.00 0.00 0.00 0.00 0.00 0.00 0.00 0.00 0.00 0.00 0.00 0.00 0.00 0.00 0.00 0.00 0.00 0.00 0.00 0.00 0.00 0.00 0.00 0.00 0.00 0.00 0.00 0.00 0.00 0.00 0.00 0.00 0.00 0.01 0.01 0.02 0.03 0.05
0.02 0.02 0.02 0.00 0.00 0.00 0.00 0.00 0.01 0.01 0.00 0.00 0.00 0.00 0.00 0.00 0.00 0.00 0.00 0.00 0.00 0.00 0.00 0.00 0.00 0.00 0.00 0.00 0.00 0.00 0.00 0.00 0.00 0.00 0.00 0.00 0.00 0.00 0.00 0.01 0.01 0.02 0.02 0.04
0.03 0.04 0.02 0.01 0.01 0.01 0.01 0.01 0.00 0.00 0.00 0.00 0.00 0.00 0.00 0.00 0.00 0.00 0.00 0.00 0.00 0.00 0.00 0.00 0.00 0.00 0.00 0.00 0.00 0.00 0.00 0.00 0.00 0.00 0.00 0.00 0.00 0.00 0.00 0.00 0.01 0.01 0.01 0.02
0.06 0.04 0.03 0.02 0.02 0.01 0.01 0.01 0.00 0.00 0.00 0.00 0.00 0.00 0.00 0.00 0.00 0.00 0.00 0.00 0.00 0.00 0.00 0.00 0.00 0.00 0.00 0.00 0.00 0.00 0.00 0.00 0.00 0.00 0.00 0.00 0.00 0.00 0.00 0.00 0.00 0.01 0.01 0.01
0.10 0.08 0.05 0.03 0.02 0.02 0.02 0.01 0.00 0.00 0.00 0.00 0.00 0.00 0.00 0.00 0.00 0.00 0.00 0.00 0.00 0.00 0.00 0.00 0.00 0.00 0.00 0.00 0.00 0.00 0.00 0.00 0.00 0.00 0.00 0.00 0.00 0.00 0.00 0.00 0.00 0.00 0.00 0.00
0.14 0.10 0.06 0.05 0.05 0.04 0.02 0.01 0.00 0.00 0.00 0.00 0.00 0.00 0.00 0.00 0.00 0.00 0.00 0.00 0.00 0.00 0.00 0.00 0.00 0.00 0.00 0.00 0.00 0.00 0.00 0.00 0.00 0.00 0.00 0.00 0.00 0.00 0.00 0.00 0.00 0.00 0.00 0.00
0.20 0.17 0.13 0.09 0.05 0.02 0.01 0.00 0.00 0.00 0.00 0.00 0.00 0.00 0.00 0.00 0.00 0.00 0.00 0.00 0.00 0.00 0.00 0.00 0.00 0.00 0.00 0.00 0.00 0.00 0.00 0.00 0.00 0.00 0.00 0.00 0.00 0.00 0.00 0.00 0.00 0.00 0.00 0.00
0.25 0.21 0.16 0.10 0.04 0.01 0.00 0.00 0.00 0.00 0.00 0.00 0.00 0.00 0.00 0.00 0.00 0.00 0.00 0.00 0.00 0.00 0.00 0.00 0.00 0.00 0.00 0.00 0.00 0.00 0.00 0.00 0.00 0.00 0.00 0.00 0.00 0.00 0.00 0.00 0.00 0.00 0.00 0.00

GEFSNGP_prec_meanprecacc_072.txt.gz
Total_Precipitation_Accumulation
0.13 0.09 0.06 0.07 0.06 0.06 0.08 0.09 0.12 0.23 0.40 0.53 0.77 0.87 0.81 0.67 0.61 0.60 0.58 0.54 0.50 0.44 0.36 0.27 0.21 0.17 0.14 0.13 0.12 0.09 0.08 0.08 0.08 0.08 0.08 0.10 0.11 0.11 0.11 0.11 0.09 0.09 0.08 0.07
0.11 0.10 0.09 0.10 0.10 0.12 0.16 0.18 0.25 0.39 0.60 0.79 0.81 0.76 0.73 0.66 0.60 0.63 0.71 0.73 0.68 0.56 0.43 0.31 0.25 0.23 0.21 0.19 0.15 0.12 0.12 0.13 0.13 0.13 0.14 0.15 0.15 0.14 0.14 0.12 0.11 0.08 0.05 0.03
0.12 0.10 0.12 0.22 0.23 0.25 0.28 0.29 0.35 0.45 0.55 0.62 0.67 0.68 0.70 0.69 0.70 0.76 0.80 0.77 0.67 0.54 0.43 0.39 0.37 0.35 0.31 0.27 0.23 0.21 0.20 0.19 0.18 0.17 0.18 0.17 0.15 0.13 0.11 0.09 0.07 0.05 0.04 0.03
0.10 0.12 0.23 0.34 0.27 0.26 0.24 0.23 0.25 0.30 0.34 0.42 0.54 0.62 0.68 0.72 0.80 0.89 0.91 0.85 0.74 0.61 0.53 0.47 0.43 0.39 0.34 0.29 0.25 0.24 0.24 0.23 0.22 0.19 0.17 0.14 0.11 0.09 0.07 0.06 0.05 0.04 0.04 0.03
0.13 0.19 0.26 0.29 0.20 0.22 0.26 0.24 0.20 0.22 0.26 0.33 0.39 0.48 0.67 0.75 0.78 0.83 0.85 0.79 0.70 0.60 0.54 0.51 0.45 0.39 0.33 0.31 0.28 0.26 0.24 0.20 0.16 0.12 0.10 0.08 0.06 0.05 0.04 0.04 0.04 0.03 0.03 0.04
0.20 0.30 0.39 0.37 0.18 0.13 0.22 0.33 0.26 0.21 0.22 0.28 0.38 0.52 0.56 0.56 0.58 0.57 0.56 0.53 0.53 0.55 0.54 0.50 0.42 0.34 0.31 0.28 0.24 0.20 0.14 0.10 0.07 0.05 0.04 0.03 0.03 0.04 0.04 0.04 0.04 0.03 0.03 0.05
0.31 0.40 0.45 0.21 0.10 0.15 0.36 0.47 0.43 0.37 0.35 0.37 0.45 0.47 0.40 0.35 0.39 0.41 0.43 0.47 0.48 0.47 0.46 0.40 0.30 0.23 0.21 0.18 0.15 0.11 0.07 0.05 0.03 0.02 0.02 0.02 0.03 0.05 0.06 0.06 0.06 0.05 0.05 0.06
0.37 0.48 0.55 0.21 0.14 0.28 0.34 0.30 0.39 0.40 0.40 0.41 0.39 0.32 0.28 0.29 0.32 0.36 0.42 0.46 0.46 0.42 0.36 0.27 0.20 0.16 0.15 0.12 0.08 0.06 0.05 0.04 0.03 0.02 0.02 0.02 0.05 0.08 0.08 0.08 0.07 0.06 0.06 0.06
0.44 0.48 0.35 0.16 0.14 0.16 0.20 0.24 0.26 0.26 0.28 0.36 0.41 0.38 0.32 0.33 0.38 0.43 0.46 0.46 0.40 0.33 0.25 0.17 0.11 0.10 0.10 0.08 0.05 0.05 0.07 0.06 0.04 0.03 0.03 0.03 0.06 0.08 0.09 0.08 0.06 0.05 0.06 0.05
0.39 0.39 0.27 0.18 0.14 0.12 0.14 0.20 0.21 0.24 0.28 0.35 0.48 0.50 0.43 0.40 0.42 0.43 0.40 0.31 0.23 0.16 0.11 0.08 0.05 0.04 0.04 0.03 0.03 0.05 0.06 0.05 0.04 0.05 0.06 0.06 0.07 0.06 0.07 0.07 0.05 0.05 0.06 0.06
0.61 0.55 0.41 0.25 0.18 0.18 0.18 0.22 0.29 0.36 0.38 0.41 0.42 0.42 0.40 0.38 0.34 0.27 0.19 0.12 0.09 0.07 0.05 0.03 0.02 0.02 0.01 0.02 0.02 0.05 0.06 0.04 0.04 0.05 0.05 0.09 0.09 0.05 0.04 0.04 0.02 0.03 0.05 0.07
0.92 0.70 0.57 0.44 0.34 0.36 0.36 0.35 0.36 0.35 0.34 0.33 0.29 0.26 0.25 0.22 0.17 0.13 0.09 0.07 0.06 0.04 0.02 0.01 0.01 0.00 0.00 0.00 0.01 0.04 0.06 0.05 0.03 0.03 0.05 0.06 0.10 0.10 0.04 0.01 0.00 0.01 0.03 0.05
0.73 0.58 0.53 0.52 0.48 0.47 0.42 0.31 0.26 0.23 0.20 0.21 0.20 0.16 0.14 0.11 0.08 0.06 0.05 0.04 0.04 0.03 0.01 0.00 0.00 0.00 0.00 0.00 0.00 0.01 0.04 0.04 0.02 0.02 0.03 0.04 0.07 0.11 0.13 0.08 0.02 0.02 0.02 0.03
0.49 0.47 0.49 0.39 0.29 0.22 0.15 0.11 0.13 0.16 0.15 0.12 0.11 0.10 0.07 0.05 0.04 0.03 0.03 0.02 0.02 0.01 0.00 0.00 0.00 0.00 0.00 0.00 0.01 0.01 0.02 0.02 0.02 0.02 0.02 0.03 0.04 0.06 0.09 0.13 0.13 0.11 0.06 0.04
0.28 0.24 0.19 0.11 0.08 0.07 0.07 0.07 0.09 0.11 0.11 0.09 0.06 0.05 0.04 0.03 0.03 0.02 0.01 0.00 0.00 0.00 0.00 0.00 0.00 0.00 0.00 0.00 0.01 0.01 0.01 0.02 0.02 0.01 0.01 0.01 0.02 0.03 0.05 0.08 0.11 0.11 0.09 0.06
0.10 0.07 0.05 0.05 0.05 0.05 0.06 0.07 0.07 0.07 0.07 0.07 0.05 0.04 0.03 0.02 0.01 0.01 0.00 0.00 0.00 0.01 0.00 0.00 0.00 0.00 0.00 0.00 0.01 0.02 0.01 0.00 0.00 0.01 0.01 0.01 0.01 0.02 0.05 0.08 0.08 0.09 0.09 0.07
0.05 0.04 0.03 0.04 0.04 0.05 0.05 0.04 0.04 0.04 0.05 0.05 0.03 0.02 0.01 0.01 0.01 0.01 0.00 0.00 0.00 0.00 0.00 0.00 0.00 0.00 0.00 0.00 0.01 0.01 0.01 0.01 0.00 0.00 0.00 0.00 0.01 0.01 0.02 0.05 0.07 0.07 0.07 0.08
0.02 0.02 0.02 0.02 0.02 0.02 0.02 0.02 0.02 0.02 0.02 0.01 0.01 0.00 0.00 0.00 0.01 0.00 0.00 0.00 0.00 0.00 0.00 0.00 0.00 0.00 0.00 0.00 0.00 0.00 0.01 0.01 0.00 0.00 0.00 0.00 0.00 0.01 0.01 0.02 0.04 0.06 0.08 0.09
0.01 0.01 0.01 0.01 0.01 0.01 0.01 0.01 0.01 0.00 0.00 0.00 0.00 0.00 0.00 0.00 0.00 0.00 0.00 0.00 0.00 0.00 0.00 0.00 0.00 0.00 0.00 0.00 0.00 0.00 0.00 0.01 0.01 0.00 0.00 0.00 0.00 0.01 0.01 0.01 0.02 0.04 0.06 0.08
0.01 0.02 0.01 0.01 0.00 0.00 0.00 0.00 0.00 0.00 0.00 0.00 0.00 0.00 0.00 0.00 0.00 0.00 0.00 0.00 0.00 0.00 0.00 0.00 0.00 0.00 0.00 0.00 0.00 0.00 0.00 0.00 0.00 0.00 0.00 0.00 0.00 0.00 0.01 0.01 0.01 0.02 0.04 0.06
0.02 0.02 0.02 0.00 0.00 0.00 0.00 0.00 0.01 0.01 0.00 0.00 0.00 0.00 0.00 0.00 0.00 0.00 0.00 0.00 0.00 0.00 0.00 0.00 0.00 0.00 0.00 0.00 0.00 0.00 0.00 0.00 0.00 0.00 0.00 0.00 0.00 0.00 0.00 0.01 0.01 0.02 0.03 0.04
0.03 0.04 0.02 0.01 0.01 0.01 0.01 0.01 0.00 0.00 0.00 0.00 0.00 0.00 0.00 0.00 0.00 0.00 0.00 0.00 0.00 0.00 0.00 0.00 0.00 0.00 0.00 0.00 0.00 0.00 0.00 0.00 0.00 0.00 0.00 0.00 0.00 0.00 0.00 0.00 0.01 0.01 0.02 0.02
0.06 0.04 0.03 0.02 0.02 0.01 0.01 0.01 0.00 0.00 0.00 0.00 0.00 0.00 0.00 0.00 0.00 0.00 0.00 0.00 0.00 0.00 0.00 0.00 0.00 0.00 0.00 0.00 0.00 0.00 0.00 0.00 0.00 0.00 0.00 0.00 0.00 0.00 0.00 0.00 0.01 0.01 0.01 0.01
0.10 0.08 0.05 0.03 0.02 0.02 0.02 0.01 0.00 0.00 0.00 0.00 0.00 0.00 0.00 0.00 0.00 0.00 0.00 0.00 0.00 0.00 0.00 0.00 0.00 0.00 0.00 0.00 0.00 0.00 0.00 0.00 0.00 0.00 0.00 0.00 0.00 0.00 0.00 0.00 0.00 0.00 0.01 0.00
0.14 0.10 0.06 0.05 0.05 0.04 0.02 0.01 0.00 0.00 0.00 0.00 0.00 0.00 0.00 0.00 0.00 0.00 0.00 0.00 0.00 0.00 0.00 0.00 0.00 0.00 0.00 0.00 0.00 0.00 0.00 0.00 0.00 0.00 0.00 0.00 0.00 0.00 0.00 0.00 0.00 0.00 0.00 0.00
0.20 0.17 0.13 0.09 0.05 0.02 0.01 0.00 0.00 0.00 0.00 0.00 0.00 0.00 0.00 0.00 0.00 0.00 0.00 0.00 0.00 0.00 0.00 0.00 0.00 0.00 0.00 0.00 0.00 0.00 0.00 0.00 0.00 0.00 0.00 0.00 0.00 0.00 0.00 0.00 0.00 0.00 0.00 0.00
0.25 0.21 0.16 0.10 0.04 0.01 0.00 0.00 0.00 0.00 0.00 0.00 0.00 0.00 0.00 0.00 0.00 0.00 0.00 0.00 0.00 0.00 0.00 0.00 0.00 0.00 0.00 0.00 0.00 0.00 0.00 0.00 0.00 0.00 0.00 0.00 0.00 0.00 0.00 0.00 0.00 0.00 0.00 0.00

GEFSNGP_prec_meanprecacc_078.txt.gz
Total_Precipitation_Accumulation
0.28 0.13 0.09 0.09 0.07 0.07 0.08 0.11 0.19 0.38 0.60 0.73 0.98 1.05 0.90 0.74 0.66 0.64 0.62 0.58 0.54 0.48 0.40 0.31 0.24 0.20 0.17 0.16 0.13 0.11 0.09 0.09 0.09 0.09 0.09 0.10 0.11 0.12 0.11 0.11 0.09 0.09 0.08 0.07
0.19 0.15 0.13 0.13 0.12 0.13 0.17 0.22 0.33 0.53 0.83 1.01 1.01 0.93 0.85 0.75 0.67 0.69 0.78 0.80 0.75 0.63 0.51 0.38 0.31 0.28 0.24 0.21 0.17 0.13 0.13 0.14 0.14 0.14 0.15 0.16 0.16 0.15 0.15 0.13 0.11 0.08 0.05 0.04
0.18 0.13 0.16 0.29 0.26 0.26 0.30 0.32 0.40 0.54 0.67 0.73 0.79 0.82 0.84 0.82 0.82 0.88 0.93 0.89 0.80 0.67 0.56 0.50 0.46 0.41 0.36 0.31 0.26 0.23 0.22 0.21 0.20 0.19 0.19 0.18 0.16 0.14 0.12 0.10 0.08 0.07 0.05 0.04
0.15 0.16 0.34 0.43 0.28 0.27 0.26 0.25 0.29 0.35 0.41 0.50 0.61 0.73 0.83 0.90 0.98 1.08 1.12 1.07 0.94 0.78 0.67 0.59 0.52 0.46 0.39 0.33 0.28 0.26 0.26 0.25 0.23 0.20 0.18 0.15 0.12 0.10 0.08 0.07 0.07 0.06 0.05 0.05
0.19 0.28 0.38 0.35 0.22 0.23 0.30 0.31 0.26 0.26 0.30 0.37 0.45 0.57 0.83 0.96 1.01 1.05 1.07 1.00 0.89 0.76 0.67 0.61 0.53 0.45 0.38 0.33 0.30 0.28 0.26 0.21 0.16 0.12 0.10 0.08 0.07 0.06 0.06 0.06 0.06 0.05 0.04 0.05
0.24 0.40 0.50 0.44 0.19 0.14 0.25 0.42 0.34 0.26 0.25 0.33 0.45 0.60 0.66 0.71 0.76 0.77 0.74 0.69 0.65 0.62 0.60 0.55 0.46 0.38 0.34 0.31 0.26 0.22 0.15 0.11 0.07 0.05 0.05 0.05 0.05 0.06 0.06 0.06 0.06 0.05 0.05 0.06
0.34 0.46 0.52 0.23 0.11 0.17 0.43 0.58 0.51 0.41 0.40 0.44 0.54 0.56 0.46 0.42 0.48 0.52 0.54 0.58 0.56 0.53 0.51 0.45 0.34 0.27 0.24 0.20 0.16 0.12 0.08 0.05 0.03 0.02 0.02 0.03 0.05 0.07 0.08 0.08 0.08 0.07 0.08 0.09
0.40 0.52 0.60 0.22 0.16 0.32 0.40 0.36 0.44 0.44 0.46 0.47 0.45 0.37 0.32 0.32 0.36 0.42 0.48 0.53 0.52 0.48 0.41 0.31 0.23 0.19 0.18 0.14 0.08 0.06 0.06 0.05 0.03 0.02 0.02 0.02 0.07 0.10 0.10 0.10 0.10 0.10 0.09 0.08
0.46 0.51 0.36 0.17 0.17 0.20 0.23 0.28 0.29 0.30 0.33 0.40 0.44 0.40 0.34 0.36 0.41 0.46 0.49 0.50 0.45 0.37 0.29 0.19 0.14 0.13 0.13 0.10 0.06 0.06 0.07 0.07 0.05 0.04 0.03 0.03 0.07 0.10 0.11 0.11 0.08 0.07 0.07 0.07
0.39 0.39 0.28 0.18 0.15 0.14 0.17 0.23 0.24 0.27 0.30 0.39 0.55 0.58 0.51 0.46 0.47 0.48 0.44 0.36 0.27 0.20 0.15 0.11 0.08 0.06 0.06 0.05 0.04 0.06 0.08 0.06 0.05 0.07 0.07 0.07 0.09 0.07 0.08 0.08 0.06 0.06 0.08 0.08
0.62 0.55 0.41 0.26 0.18 0.19 0.19 0.24 0.30 0.38 0.40 0.43 0.47 0.50 0.51 0.49 0.42 0.34 0.25 0.18 0.14 0.11 0.09 0.05 0.04 0.02 0.02 0.02 0.03 0.06 0.07 0.05 0.05 0.06 0.07 0.12 0.12 0.06 0.04 0.05 0.02 0.03 0.06 0.08
0.93 0.70 0.58 0.44 0.35 0.37 0.37 0.36 0.36 0.35 0.35 0.35 0.32 0.30 0.32 0.32 0.27 0.19 0.13 0.10 0.09 0.07 0.04 0.02 0.01 0.01 0.00 0.00 0.01 0.04 0.07 0.06 0.04 0.04 0.05 0.07 0.12 0.13 0.04 0.01 0.00 0.01 0.03 0.05
0.73 0.58 0.53 0.52 0.48 0.48 0.42 0.32 0.27 0.24 0.21 0.23 0.21 0.18 0.16 0.13 0.11 0.09 0.07 0.06 0.06 0.03 0.01 0.00 0.00 0.00 0.00 0.00 0.00 0.02 0.04 0.05 0.03 0.02 0.03 0.05 0.08 0.15 0.17 0.10 0.03 0.02 0.02 0.03
0.49 0.47 0.49 0.39 0.29 0.23 0.15 0.12 0.13 0.16 0.15 0.13 0.11 0.11 0.08 0.05 0.04 0.04 0.04 0.03 0.02 0.01 0.00 0.00 0.00 0.00 0.00 0.00 0.01 0.01 0.02 0.02 0.02 0.02 0.02 0.03 0.05 0.07 0.11 0.16 0.16 0.13 0.07 0.04
0.28 0.24 0.19 0.11 0.08 0.07 0.07 0.07 0.09 0.12 0.12 0.10 0.07 0.06 0.04 0.04 0.04 0.02 0.01 0.01 0.01 0.01 0.00 0.00 0.00 0.00 0.00 0.00 0.01 0.01 0.01 0.02 0.02 0.01 0.01 0.01 0.02 0.04 0.06 0.10 0.13 0.14 0.13 0.08
0.10 0.07 0.06 0.05 0.05 0.05 0.07 0.07 0.07 0.08 0.07 0.07 0.06 0.04 0.03 0.02 0.01 0.01 0.00 0.00 0.01 0.01 0.00 0.00 0.00 0.00 0.00 0.00 0.01 0.02 0.01 0.00 0.00 0.01 0.01 0.01 0.01 0.03 0.05 0.09 0.10 0.11 0.11 0.09
0.05 0.04 0.03 0.04 0.04 0.05 0.05 0.05 0.04 0.04 0.05 0.05 0.04 0.02 0.01 0.01 0.01 0.01 0.00 0.00 0.00 0.00 0.00 0.00 0.00 0.00 0.00 0.00 0.01 0.01 0.01 0.01 0.00 0.00 0.00 0.00 0.01 0.01 0.03 0.06 0.08 0.10 0.09 0.08
0.02 0.02 0.02 0.02 0.02 0.02 0.02 0.02 0.02 0.02 0.02 0.01 0.01 0.00 0.00 0.00 0.01 0.00 0.00 0.00 0.00 0.00 0.00 0.00 0.00 0.00 0.00 0.00 0.00 0.00 0.01 0.01 0.00 0.00 0.00 0.00 0.00 0.01 0.01 0.03 0.05 0.08 0.09 0.09
0.01 0.01 0.01 0.01 0.01 0.01 0.01 0.01 0.01 0.00 0.00 0.00 0.00 0.00 0.00 0.00 0.00 0.00 0.00 0.00 0.00 0.00 0.00 0.00 0.00 0.00 0.00 0.00 0.00 0.00 0.00 0.01 0.01 0.00 0.00 0.00 0.01 0.01 0.01 0.02 0.03 0.05 0.07 0.10
0.01 0.02 0.01 0.01 0.00 0.00 0.00 0.00 0.00 0.00 0.00 0.00 0.00 0.00 0.00 0.00 0.00 0.00 0.00 0.00 0.00 0.00 0.00 0.00 0.00 0.00 0.00 0.00 0.00 0.00 0.00 0.00 0.00 0.00 0.00 0.00 0.01 0.01 0.01 0.01 0.01 0.03 0.05 0.07
0.02 0.02 0.02 0.00 0.00 0.00 0.00 0.00 0.01 0.01 0.00 0.00 0.00 0.00 0.00 0.00 0.00 0.00 0.00 0.00 0.00 0.00 0.00 0.00 0.00 0.00 0.00 0.00 0.00 0.00 0.00 0.00 0.00 0.00 0.00 0.00 0.00 0.00 0.00 0.01 0.01 0.02 0.03 0.05
0.03 0.04 0.02 0.01 0.01 0.01 0.01 0.01 0.00 0.00 0.00 0.00 0.00 0.00 0.00 0.00 0.00 0.00 0.00 0.00 0.00 0.00 0.00 0.00 0.00 0.00 0.00 0.00 0.00 0.00 0.00 0.00 0.00 0.00 0.00 0.00 0.00 0.00 0.00 0.01 0.01 0.01 0.02 0.03
0.06 0.04 0.03 0.02 0.02 0.01 0.01 0.01 0.00 0.00 0.00 0.00 0.00 0.00 0.00 0.00 0.00 0.00 0.00 0.00 0.00 0.00 0.00 0.00 0.00 0.00 0.00 0.00 0.00 0.00 0.00 0.00 0.00 0.00 0.00 0.00 0.00 0.00 0.00 0.00 0.01 0.01 0.02 0.02
0.10 0.08 0.05 0.03 0.02 0.02 0.02 0.01 0.00 0.00 0.00 0.00 0.00 0.00 0.00 0.00 0.00 0.00 0.00 0.00 0.00 0.00 0.00 0.00 0.00 0.00 0.00 0.00 0.00 0.00 0.00 0.00 0.00 0.00 0.00 0.00 0.00 0.00 0.00 0.00 0.00 0.01 0.01 0.01
0.14 0.10 0.06 0.05 0.05 0.04 0.02 0.01 0.00 0.00 0.00 0.00 0.00 0.00 0.00 0.00 0.00 0.00 0.00 0.00 0.00 0.00 0.00 0.00 0.00 0.00 0.00 0.00 0.00 0.00 0.00 0.00 0.00 0.00 0.00 0.00 0.00 0.00 0.00 0.00 0.00 0.00 0.00 0.00
0.20 0.17 0.13 0.09 0.05 0.02 0.01 0.00 0.00 0.00 0.00 0.00 0.00 0.00 0.00 0.00 0.00 0.00 0.00 0.00 0.00 0.00 0.00 0.00 0.00 0.00 0.00 0.00 0.00 0.00 0.00 0.00 0.00 0.00 0.00 0.00 0.00 0.00 0.00 0.00 0.00 0.00 0.00 0.00
0.25 0.21 0.16 0.10 0.04 0.01 0.00 0.00 0.00 0.00 0.00 0.00 0.00 0.00 0.00 0.00 0.00 0.00 0.00 0.00 0.00 0.00 0.00 0.00 0.00 0.00 0.00 0.00 0.00 0.00 0.00 0.00 0.00 0.00 0.00 0.00 0.00 0.00 0.00 0.00 0.00 0.00 0.00 0.00

GEFSNGP_prec_meanprecacc_084.txt.gz
Total_Precipitation_Accumulation
0.33 0.16 0.13 0.13 0.12 0.12 0.12 0.14 0.24 0.45 0.69 0.90 1.25 1.31 1.13 0.87 0.74 0.70 0.66 0.62 0.57 0.50 0.42 0.32 0.26 0.22 0.18 0.17 0.15 0.12 0.10 0.09 0.09 0.09 0.10 0.11 0.12 0.12 0.12 0.11 0.10 0.09 0.08 0.07
0.27 0.21 0.20 0.24 0.22 0.22 0.25 0.26 0.37 0.59 0.91 1.12 1.15 1.05 0.96 0.83 0.73 0.75 0.84 0.87 0.82 0.69 0.55 0.42 0.35 0.31 0.27 0.23 0.19 0.15 0.14 0.15 0.15 0.15 0.15 0.16 0.16 0.15 0.15 0.13 0.11 0.08 0.05 0.04
0.31 0.25 0.27 0.45 0.39 0.38 0.38 0.37 0.44 0.60 0.73 0.79 0.87 0.89 0.90 0.87 0.88 0.95 0.99 0.96 0.88 0.76 0.63 0.56 0.50 0.44 0.39 0.33 0.27 0.25 0.24 0.22 0.20 0.19 0.19 0.19 0.16 0.14 0.13 0.10 0.08 0.07 0.05 0.04
0.23 0.27 0.49 0.58 0.38 0.34 0.30 0.30 0.34 0.40 0.46 0.57 0.68 0.78 0.88 0.95 1.04 1.13 1.18 1.13 1.02 0.85 0.72 0.63 0.55 0.49 0.42 0.35 0.29 0.27 0.27 0.25 0.23 0.20 0.19 0.16 0.12 0.11 0.09 0.07 0.07 0.06 0.05 0.05
0.25 0.37 0.50 0.47 0.28 0.28 0.33 0.34 0.31 0.31 0.35 0.44 0.52 0.64 0.89 1.03 1.06 1.12 1.16 1.09 0.97 0.82 0.72 0.64 0.56 0.47 0.39 0.35 0.31 0.29 0.26 0.21 0.16 0.12 0.10 0.08 0.07 0.06 0.06 0.06 0.06 0.05 0.04 0.05
0.31 0.50 0.59 0.49 0.22 0.15 0.27 0.46 0.38 0.28 0.29 0.38 0.52 0.65 0.71 0.75 0.82 0.84 0.80 0.74 0.70 0.66 0.62 0.57 0.48 0.38 0.35 0.32 0.27 0.22 0.16 0.11 0.07 0.05 0.05 0.05 0.05 0.06 0.06 0.07 0.06 0.05 0.05 0.06
0.39 0.53 0.57 0.25 0.12 0.17 0.45 0.62 0.55 0.43 0.43 0.47 0.60 0.61 0.49 0.45 0.51 0.56 0.58 0.61 0.59 0.56 0.53 0.46 0.35 0.28 0.25 0.21 0.17 0.12 0.08 0.05 0.03 0.02 0.03 0.03 0.05 0.07 0.08 0.08 0.09 0.07 0.08 0.09
0.43 0.56 0.63 0.23 0.16 0.33 0.41 0.38 0.45 0.45 0.48 0.50 0.47 0.40 0.34 0.34 0.39 0.44 0.52 0.57 0.54 0.50 0.43 0.32 0.24 0.20 0.19 0.15 0.09 0.06 0.06 0.05 0.03 0.02 0.02 0.02 0.07 0.10 0.10 0.11 0.11 0.10 0.10 0.09
0.47 0.52 0.37 0.18 0.18 0.20 0.23 0.28 0.30 0.31 0.34 0.41 0.45 0.42 0.36 0.38 0.43 0.49 0.53 0.53 0.47 0.39 0.30 0.21 0.15 0.15 0.15 0.11 0.06 0.06 0.08 0.07 0.05 0.04 0.04 0.03 0.07 0.10 0.11 0.11 0.08 0.07 0.07 0.07
0.40 0.40 0.28 0.19 0.15 0.14 0.17 0.23 0.25 0.27 0.31 0.40 0.57 0.60 0.53 0.48 0.50 0.51 0.48 0.39 0.30 0.22 0.17 0.12 0.08 0.07 0.07 0.05 0.04 0.06 0.08 0.06 0.06 0.07 0.08 0.08 0.09 0.07 0.08 0.08 0.06 0.06 0.08 0.08
0.62 0.56 0.42 0.26 0.18 0.19 0.19 0.24 0.31 0.38 0.41 0.45 0.49 0.55 0.55 0.51 0.45 0.38 0.29 0.20 0.16 0.13 0.10 0.06 0.04 0.03 0.02 0.02 0.03 0.06 0.07 0.06 0.06 0.06 0.08 0.13 0.13 0.06 0.04 0.05 0.02 0.03 0.06 0.08
0.94 0.71 0.58 0.44 0.35 0.37 0.37 0.36 0.37 0.36 0.36 0.36 0.33 0.33 0.38 0.37 0.31 0.24 0.17 0.12 0.11 0.08 0.05 0.03 0.02 0.01 0.01 0.01 0.01 0.05 0.08 0.06 0.04 0.04 0.05 0.08 0.13 0.14 0.05 0.01 0.00 0.01 0.03 0.05
0.73 0.58 0.53 0.52 0.48 0.48 0.42 0.32 0.27 0.24 0.22 0.23 0.23 0.20 0.20 0.18 0.15 0.13 0.11 0.08 0.07 0.04 0.02 0.01 0.01 0.00 0.00 0.00 0.00 0.02 0.05 0.05 0.03 0.02 0.04 0.05 0.09 0.15 0.17 0.10 0.03 0.02 0.02 0.03
0.49 0.47 0.49 0.39 0.29 0.23 0.15 0.12 0.13 0.16 0.15 0.13 0.11 0.11 0.09 0.07 0.06 0.05 0.05 0.03 0.02 0.01 0.01 0.00 0.00 0.00 0.00 0.00 0.01 0.01 0.02 0.02 0.02 0.03 0.02 0.03 0.05 0.07 0.12 0.16 0.16 0.13 0.07 0.04
0.28 0.24 0.19 0.11 0.08 0.07 0.07 0.07 0.09 0.12 0.12 0.10 0.07 0.06 0.04 0.04 0.04 0.03 0.01 0.01 0.01 0.01 0.00 0.00 0.00 0.00 0.00 0.00 0.01 0.01 0.02 0.03 0.02 0.02 0.02 0.02 0.03 0.04 0.07 0.10 0.13 0.14 0.13 0.08
0.10 0.07 0.06 0.05 0.05 0.05 0.07 0.07 0.07 0.08 0.07 0.07 0.06 0.04 0.03 0.02 0.01 0.01 0.00 0.00 0.01 0.01 0.00 0.00 0.00 0.00 0.00 0.00 0.01 0.02 0.01 0.00 0.01 0.01 0.01 0.01 0.01 0.03 0.06 0.10 0.11 0.11 0.11 0.09
0.05 0.04 0.03 0.04 0.04 0.05 0.05 0.05 0.04 0.04 0.05 0.05 0.04 0.02 0.01 0.01 0.01 0.01 0.00 0.00 0.00 0.00 0.00 0.00 0.00 0.00 0.00 0.00 0.01 0.01 0.01 0.01 0.00 0.00 0.00 0.00 0.01 0.01 0.03 0.06 0.08 0.10 0.09 0.08
0.02 0.02 0.02 0.02 0.02 0.02 0.02 0.02 0.02 0.02 0.02 0.01 0.01 0.00 0.00 0.00 0.01 0.00 0.00 0.00 0.00 0.00 0.00 0.00 0.00 0.00 0.00 0.00 0.00 0.00 0.01 0.01 0.00 0.00 0.00 0.00 0.00 0.01 0.01 0.03 0.05 0.08 0.09 0.09
0.01 0.01 0.01 0.01 0.01 0.01 0.01 0.01 0.01 0.00 0.00 0.00 0.00 0.00 0.00 0.00 0.00 0.00 0.00 0.00 0.00 0.00 0.00 0.00 0.00 0.00 0.00 0.00 0.00 0.00 0.00 0.01 0.01 0.00 0.00 0.00 0.01 0.01 0.01 0.02 0.03 0.05 0.07 0.10
0.01 0.02 0.01 0.01 0.00 0.00 0.00 0.00 0.00 0.00 0.00 0.00 0.00 0.00 0.00 0.00 0.00 0.00 0.00 0.00 0.00 0.00 0.00 0.00 0.00 0.00 0.00 0.00 0.00 0.00 0.00 0.00 0.00 0.00 0.00 0.00 0.01 0.01 0.01 0.01 0.01 0.03 0.05 0.07
0.02 0.02 0.02 0.00 0.00 0.00 0.00 0.00 0.01 0.01 0.00 0.00 0.00 0.00 0.00 0.00 0.00 0.00 0.00 0.00 0.00 0.00 0.00 0.00 0.00 0.00 0.00 0.00 0.00 0.00 0.00 0.00 0.00 0.00 0.00 0.00 0.00 0.00 0.00 0.01 0.01 0.02 0.03 0.05
0.03 0.04 0.02 0.01 0.01 0.01 0.01 0.01 0.00 0.00 0.00 0.00 0.00 0.00 0.00 0.00 0.00 0.00 0.00 0.00 0.00 0.00 0.00 0.00 0.00 0.00 0.00 0.00 0.00 0.00 0.00 0.00 0.00 0.00 0.00 0.00 0.00 0.00 0.01 0.01 0.01 0.01 0.02 0.03
0.06 0.04 0.03 0.02 0.02 0.01 0.01 0.01 0.00 0.00 0.00 0.00 0.00 0.00 0.00 0.00 0.00 0.00 0.00 0.00 0.00 0.00 0.00 0.00 0.00 0.00 0.00 0.00 0.00 0.00 0.00 0.00 0.00 0.00 0.00 0.00 0.00 0.00 0.00 0.00 0.01 0.01 0.02 0.02
0.10 0.08 0.05 0.03 0.02 0.02 0.02 0.01 0.00 0.00 0.00 0.00 0.00 0.00 0.00 0.00 0.00 0.00 0.00 0.00 0.00 0.00 0.00 0.00 0.00 0.00 0.00 0.00 0.00 0.00 0.00 0.00 0.00 0.00 0.00 0.00 0.00 0.00 0.00 0.00 0.00 0.01 0.01 0.01
0.14 0.10 0.06 0.05 0.05 0.04 0.02 0.01 0.00 0.00 0.00 0.00 0.00 0.00 0.00 0.00 0.00 0.00 0.00 0.00 0.00 0.00 0.00 0.00 0.00 0.00 0.00 0.00 0.00 0.00 0.00 0.00 0.00 0.00 0.00 0.00 0.00 0.00 0.00 0.00 0.00 0.00 0.00 0.00
0.20 0.17 0.13 0.09 0.05 0.02 0.01 0.00 0.00 0.00 0.00 0.00 0.00 0.00 0.00 0.00 0.00 0.00 0.00 0.00 0.00 0.00 0.00 0.00 0.00 0.00 0.00 0.00 0.00 0.00 0.00 0.00 0.00 0.00 0.00 0.00 0.00 0.00 0.00 0.00 0.00 0.00 0.00 0.00
0.25 0.21 0.16 0.10 0.04 0.01 0.00 0.00 0.00 0.00 0.00 0.00 0.00 0.00 0.00 0.00 0.00 0.00 0.00 0.00 0.00 0.00 0.00 0.00 0.00 0.00 0.00 0.00 0.00 0.00 0.00 0.00 0.00 0.00 0.00 0.00 0.00 0.00 0.00 0.00 0.00 0.00 0.00 0.00

GEFSNGP_prec_meanprecacc_090.txt.gz
Total_Precipitation_Accumulation
0.34 0.17 0.13 0.14 0.14 0.13 0.13 0.16 0.26 0.46 0.71 0.91 1.27 1.34 1.20 0.96 0.83 0.79 0.76 0.74 0.70 0.60 0.49 0.37 0.30 0.26 0.22 0.20 0.19 0.16 0.13 0.12 0.11 0.11 0.10 0.11 0.12 0.12 0.12 0.11 0.10 0.09 0.08 0.07
0.28 0.23 0.21 0.25 0.23 0.24 0.26 0.28 0.39 0.60 0.93 1.13 1.17 1.07 1.00 0.89 0.80 0.83 0.91 0.94 0.90 0.76 0.62 0.50 0.41 0.36 0.31 0.28 0.23 0.18 0.16 0.17 0.16 0.15 0.16 0.16 0.16 0.15 0.15 0.13 0.11 0.08 0.05 0.04
0.33 0.27 0.29 0.47 0.41 0.39 0.40 0.40 0.46 0.61 0.74 0.80 0.88 0.91 0.93 0.92 0.94 1.03 1.08 1.03 0.94 0.82 0.69 0.62 0.56 0.49 0.42 0.36 0.30 0.26 0.25 0.23 0.21 0.19 0.20 0.19 0.16 0.14 0.13 0.10 0.08 0.07 0.05 0.04
0.25 0.28 0.51 0.60 0.40 0.35 0.32 0.31 0.35 0.41 0.47 0.58 0.70 0.81 0.90 0.99 1.10 1.21 1.26 1.22 1.10 0.92 0.79 0.68 0.59 0.52 0.45 0.37 0.32 0.29 0.28 0.26 0.23 0.20 0.19 0.16 0.12 0.11 0.09 0.07 0.07 0.06 0.05 0.05
0.26 0.38 0.51 0.51 0.30 0.29 0.33 0.35 0.31 0.32 0.36 0.45 0.54 0.66 0.92 1.06 1.12 1.18 1.23 1.17 1.04 0.87 0.76 0.68 0.58 0.49 0.42 0.37 0.33 0.30 0.27 0.22 0.17 0.12 0.11 0.08 0.07 0.06 0.06 0.06 0.06 0.05 0.04 0.05
0.32 0.51 0.60 0.52 0.25 0.16 0.28 0.47 0.39 0.29 0.29 0.39 0.54 0.68 0.74 0.78 0.86 0.88 0.84 0.78 0.74 0.70 0.65 0.59 0.49 0.40 0.37 0.34 0.28 0.23 0.16 0.11 0.07 0.05 0.05 0.05 0.05 0.06 0.06 0.07 0.06 0.05 0.05 0.06
0.39 0.54 0.58 0.26 0.13 0.19 0.46 0.62 0.55 0.44 0.43 0.48 0.62 0.64 0.51 0.46 0.53 0.59 0.61 0.63 0.61 0.58 0.55 0.49 0.38 0.30 0.27 0.24 0.19 0.12 0.08 0.05 0.03 0.02 0.03 0.03 0.05 0.07 0.08 0.08 0.09 0.08 0.08 0.09
0.43 0.56 0.63 0.24 0.16 0.33 0.42 0.38 0.45 0.46 0.48 0.50 0.48 0.42 0.38 0.36 0.41 0.47 0.55 0.59 0.56 0.51 0.44 0.34 0.25 0.22 0.21 0.17 0.10 0.07 0.06 0.05 0.03 0.02 0.02 0.03 0.07 0.10 0.10 0.11 0.11 0.10 0.10 0.09
0.47 0.52 0.37 0.18 0.18 0.20 0.24 0.28 0.30 0.31 0.34 0.41 0.45 0.43 0.39 0.41 0.47 0.52 0.55 0.57 0.50 0.40 0.31 0.22 0.16 0.16 0.17 0.13 0.08 0.07 0.08 0.07 0.05 0.04 0.04 0.03 0.07 0.10 0.11 0.11 0.08 0.07 0.07 0.07
0.40 0.40 0.28 0.19 0.16 0.15 0.18 0.24 0.25 0.28 0.31 0.40 0.57 0.61 0.54 0.50 0.55 0.55 0.50 0.41 0.32 0.24 0.19 0.13 0.09 0.08 0.09 0.07 0.06 0.07 0.08 0.06 0.06 0.07 0.08 0.08 0.09 0.07 0.08 0.08 0.06 0.06 0.08 0.08
0.63 0.56 0.42 0.26 0.19 0.19 0.20 0.25 0.32 0.39 0.42 0.45 0.50 0.55 0.55 0.53 0.47 0.40 0.32 0.23 0.17 0.15 0.12 0.08 0.05 0.04 0.03 0.03 0.04 0.06 0.07 0.06 0.06 0.06 0.08 0.13 0.13 0.06 0.04 0.05 0.02 0.03 0.06 0.08
0.94 0.71 0.58 0.44 0.35 0.37 0.37 0.37 0.38 0.37 0.37 0.38 0.34 0.34 0.39 0.39 0.33 0.25 0.20 0.16 0.13 0.10 0.06 0.04 0.03 0.02 0.01 0.01 0.01 0.05 0.08 0.06 0.04 0.04 0.06 0.08 0.13 0.14 0.05 0.01 0.00 0.01 0.03 0.05
0.73 0.58 0.53 0.52 0.48 0.48 0.42 0.32 0.27 0.25 0.23 0.25 0.24 0.21 0.22 0.20 0.17 0.14 0.12 0.10 0.08 0.06 0.03 0.01 0.01 0.01 0.01 0.00 0.00 0.02 0.05 0.05 0.03 0.02 0.04 0.05 0.09 0.15 0.17 0.10 0.03 0.02 0.02 0.03
0.49 0.47 0.49 0.39 0.29 0.23 0.15 0.12 0.13 0.16 0.16 0.13 0.12 0.12 0.10 0.08 0.07 0.06 0.06 0.04 0.03 0.02 0.01 0.01 0.00 0.00 0.00 0.00 0.01 0.01 0.03 0.02 0.02 0.03 0.02 0.03 0.05 0.07 0.12 0.16 0.16 0.13 0.07 0.04
0.28 0.24 0.19 0.11 0.08 0.07 0.07 0.07 0.09 0.12 0.12 0.10 0.07 0.06 0.05 0.04 0.04 0.03 0.02 0.01 0.01 0.01 0.01 0.00 0.00 0.00 0.00 0.00 0.01 0.01 0.02 0.03 0.02 0.02 0.02 0.02 0.03 0.04 0.07 0.10 0.13 0.14 0.13 0.08
0.10 0.07 0.06 0.05 0.05 0.05 0.07 0.07 0.07 0.08 0.07 0.07 0.06 0.05 0.03 0.02 0.01 0.01 0.00 0.00 0.01 0.01 0.01 0.00 0.00 0.00 0.00 0.00 0.01 0.02 0.02 0.01 0.01 0.01 0.01 0.01 0.01 0.03 0.06 0.10 0.11 0.11 0.11 0.09
0.05 0.04 0.03 0.04 0.04 0.05 0.05 0.05 0.04 0.04 0.05 0.05 0.04 0.02 0.01 0.01 0.01 0.01 0.00 0.00 0.00 0.00 0.00 0.00 0.00 0.00 0.00 0.00 0.01 0.01 0.01 0.01 0.00 0.00 0.00 0.00 0.01 0.01 0.03 0.06 0.08 0.10 0.09 0.08
0.02 0.02 0.02 0.02 0.02 0.02 0.02 0.02 0.02 0.02 0.02 0.01 0.01 0.00 0.00 0.00 0.01 0.00 0.00 0.00 0.00 0.00 0.00 0.00 0.00 0.00 0.00 0.00 0.00 0.00 0.01 0.01 0.00 0.00 0.00 0.00 0.00 0.01 0.01 0.03 0.05 0.08 0.09 0.09
0.01 0.01 0.01 0.01 0.01 0.01 0.01 0.01 0.01 0.00 0.00 0.00 0.00 0.00 0.00 0.00 0.00 0.00 0.00 0.00 0.00 0.00 0.00 0.00 0.00 0.00 0.00 0.00 0.00 0.00 0.00 0.01 0.01 0.00 0.00 0.00 0.01 0.01 0.01 0.02 0.03 0.05 0.07 0.10
0.01 0.02 0.01 0.01 0.00 0.00 0.00 0.00 0.00 0.00 0.00 0.00 0.00 0.00 0.00 0.00 0.00 0.00 0.00 0.00 0.00 0.00 0.00 0.00 0.00 0.00 0.00 0.00 0.00 0.00 0.00 0.00 0.00 0.00 0.00 0.00 0.01 0.01 0.01 0.01 0.01 0.03 0.05 0.07
0.02 0.02 0.02 0.00 0.00 0.00 0.00 0.00 0.01 0.01 0.00 0.00 0.00 0.00 0.00 0.00 0.00 0.00 0.00 0.00 0.00 0.00 0.00 0.00 0.00 0.00 0.00 0.00 0.00 0.00 0.00 0.00 0.00 0.00 0.00 0.00 0.00 0.00 0.00 0.01 0.01 0.02 0.03 0.05
0.03 0.04 0.02 0.01 0.01 0.01 0.01 0.01 0.00 0.00 0.00 0.00 0.00 0.00 0.00 0.00 0.00 0.00 0.00 0.00 0.00 0.00 0.00 0.00 0.00 0.00 0.00 0.00 0.00 0.00 0.00 0.00 0.00 0.00 0.00 0.00 0.00 0.00 0.01 0.01 0.01 0.01 0.02 0.03
0.06 0.04 0.03 0.02 0.02 0.01 0.01 0.01 0.00 0.00 0.00 0.00 0.00 0.00 0.00 0.00 0.00 0.00 0.00 0.00 0.00 0.00 0.00 0.00 0.00 0.00 0.00 0.00 0.00 0.00 0.00 0.00 0.00 0.00 0.00 0.00 0.00 0.00 0.00 0.00 0.01 0.01 0.02 0.02
0.10 0.08 0.05 0.03 0.02 0.02 0.02 0.01 0.00 0.00 0.00 0.00 0.00 0.00 0.00 0.00 0.00 0.00 0.00 0.00 0.00 0.00 0.00 0.00 0.00 0.00 0.00 0.00 0.00 0.00 0.00 0.00 0.00 0.00 0.00 0.00 0.00 0.00 0.00 0.00 0.00 0.01 0.01 0.01
0.14 0.10 0.06 0.05 0.05 0.04 0.02 0.01 0.00 0.00 0.00 0.00 0.00 0.00 0.00 0.00 0.00 0.00 0.00 0.00 0.00 0.00 0.00 0.00 0.00 0.00 0.00 0.00 0.00 0.00 0.00 0.00 0.00 0.00 0.00 0.00 0.00 0.00 0.00 0.00 0.00 0.00 0.00 0.00
0.20 0.17 0.13 0.09 0.05 0.02 0.01 0.00 0.00 0.00 0.00 0.00 0.00 0.00 0.00 0.00 0.00 0.00 0.00 0.00 0.00 0.00 0.00 0.00 0.00 0.00 0.00 0.00 0.00 0.00 0.00 0.00 0.00 0.00 0.00 0.00 0.00 0.00 0.00 0.00 0.00 0.00 0.00 0.00
0.25 0.21 0.16 0.10 0.04 0.01 0.00 0.00 0.00 0.00 0.00 0.00 0.00 0.00 0.00 0.00 0.00 0.00 0.00 0.00 0.00 0.00 0.00 0.00 0.00 0.00 0.00 0.00 0.00 0.00 0.00 0.00 0.00 0.00 0.00 0.00 0.00 0.00 0.00 0.00 0.00 0.00 0.00 0.00

GEFSNGP_prec_meanprecacc_096.txt.gz
Total_Precipitation_Accumulation
0.34 0.17 0.13 0.15 0.14 0.14 0.15 0.18 0.28 0.49 0.74 0.94 1.30 1.36 1.25 1.03 0.92 0.92 0.90 0.86 0.80 0.71 0.61 0.49 0.40 0.37 0.32 0.28 0.24 0.21 0.18 0.16 0.16 0.15 0.14 0.14 0.14 0.14 0.13 0.12 0.11 0.10 0.09 0.07
0.29 0.23 0.21 0.25 0.24 0.24 0.28 0.30 0.41 0.63 0.96 1.16 1.19 1.09 1.03 0.96 0.89 0.96 1.05 1.09 1.04 0.90 0.73 0.60 0.53 0.47 0.41 0.35 0.27 0.22 0.20 0.20 0.20 0.19 0.19 0.19 0.18 0.17 0.16 0.14 0.12 0.08 0.06 0.04
0.35 0.29 0.31 0.49 0.42 0.41 0.42 0.41 0.48 0.65 0.77 0.82 0.90 0.93 0.96 0.97 1.00 1.12 1.20 1.16 1.04 0.92 0.79 0.70 0.64 0.56 0.49 0.42 0.34 0.29 0.27 0.25 0.23 0.21 0.21 0.21 0.17 0.15 0.13 0.11 0.09 0.07 0.05 0.04
0.27 0.30 0.53 0.63 0.40 0.35 0.33 0.32 0.37 0.43 0.48 0.60 0.72 0.83 0.93 1.03 1.15 1.27 1.35 1.33 1.21 1.02 0.88 0.75 0.64 0.56 0.48 0.41 0.35 0.32 0.30 0.27 0.24 0.21 0.20 0.17 0.13 0.12 0.09 0.08 0.08 0.07 0.06 0.05
0.28 0.40 0.53 0.52 0.31 0.30 0.35 0.36 0.32 0.33 0.37 0.46 0.55 0.68 0.96 1.11 1.18 1.26 1.30 1.25 1.13 0.97 0.85 0.74 0.63 0.52 0.44 0.39 0.35 0.32 0.30 0.24 0.18 0.13 0.12 0.10 0.09 0.08 0.07 0.07 0.08 0.06 0.05 0.06
0.34 0.53 0.62 0.55 0.25 0.16 0.28 0.48 0.39 0.29 0.29 0.40 0.55 0.70 0.77 0.82 0.93 0.96 0.91 0.85 0.79 0.75 0.70 0.63 0.53 0.43 0.39 0.36 0.30 0.25 0.19 0.13 0.09 0.06 0.06 0.06 0.06 0.07 0.07 0.08 0.08 0.06 0.06 0.07
0.41 0.56 0.60 0.27 0.13 0.19 0.47 0.64 0.56 0.44 0.43 0.48 0.63 0.66 0.52 0.49 0.59 0.66 0.66 0.67 0.64 0.60 0.58 0.51 0.40 0.32 0.30 0.28 0.21 0.14 0.09 0.07 0.05 0.03 0.03 0.04 0.06 0.09 0.10 0.10 0.10 0.09 0.09 0.10
0.44 0.58 0.65 0.24 0.17 0.35 0.43 0.39 0.46 0.46 0.48 0.50 0.48 0.42 0.38 0.38 0.44 0.54 0.62 0.64 0.59 0.54 0.48 0.37 0.27 0.24 0.25 0.21 0.12 0.08 0.07 0.06 0.05 0.03 0.02 0.03 0.08 0.12 0.11 0.12 0.12 0.12 0.11 0.10
0.48 0.53 0.38 0.18 0.18 0.21 0.24 0.29 0.31 0.31 0.34 0.42 0.47 0.43 0.40 0.43 0.49 0.56 0.61 0.62 0.54 0.44 0.35 0.25 0.19 0.19 0.20 0.16 0.10 0.08 0.09 0.08 0.07 0.05 0.04 0.04 0.08 0.12 0.12 0.12 0.10 0.09 0.09 0.08
0.40 0.40 0.28 0.19 0.16 0.15 0.18 0.24 0.25 0.28 0.32 0.42 0.58 0.61 0.54 0.51 0.57 0.57 0.55 0.45 0.35 0.28 0.22 0.16 0.11 0.10 0.10 0.08 0.07 0.08 0.10 0.08 0.07 0.09 0.09 0.09 0.10 0.08 0.09 0.10 0.07 0.07 0.08 0.09
0.63 0.56 0.42 0.26 0.19 0.19 0.20 0.25 0.33 0.41 0.43 0.46 0.50 0.56 0.56 0.54 0.49 0.42 0.35 0.26 0.20 0.17 0.15 0.10 0.07 0.05 0.04 0.04 0.04 0.08 0.09 0.07 0.07 0.08 0.10 0.15 0.14 0.07 0.05 0.05 0.02 0.03 0.06 0.08
0.94 0.71 0.58 0.44 0.35 0.37 0.38 0.39 0.40 0.39 0.38 0.39 0.35 0.35 0.40 0.40 0.35 0.27 0.23 0.18 0.15 0.11 0.09 0.06 0.04 0.03 0.02 0.02 0.02 0.06 0.10 0.09 0.05 0.05 0.07 0.10 0.14 0.14 0.05 0.01 0.00 0.01 0.03 0.05
0.73 0.58 0.53 0.52 0.49 0.48 0.43 0.33 0.28 0.26 0.23 0.26 0.25 0.23 0.23 0.22 0.19 0.17 0.15 0.12 0.10 0.07 0.04 0.03 0.02 0.02 0.01 0.01 0.01 0.02 0.06 0.06 0.04 0.03 0.04 0.06 0.10 0.17 0.19 0.10 0.03 0.02 0.02 0.03
0.49 0.47 0.49 0.39 0.29 0.23 0.16 0.12 0.14 0.17 0.16 0.14 0.14 0.14 0.12 0.10 0.09 0.08 0.08 0.06 0.05 0.03 0.02 0.01 0.01 0.01 0.01 0.00 0.01 0.02 0.03 0.03 0.02 0.03 0.03 0.04 0.06 0.08 0.12 0.18 0.18 0.14 0.07 0.04
0.28 0.24 0.19 0.11 0.08 0.07 0.07 0.07 0.09 0.12 0.12 0.11 0.08 0.07 0.06 0.06 0.06 0.05 0.04 0.03 0.03 0.02 0.02 0.01 0.01 0.01 0.00 0.00 0.01 0.01 0.02 0.03 0.02 0.02 0.02 0.02 0.03 0.05 0.07 0.11 0.15 0.16 0.14 0.09
0.10 0.07 0.06 0.05 0.05 0.05 0.07 0.07 0.07 0.08 0.08 0.08 0.06 0.05 0.04 0.03 0.02 0.02 0.02 0.02 0.02 0.03 0.02 0.01 0.01 0.00 0.00 0.01 0.01 0.02 0.02 0.01 0.01 0.01 0.01 0.01 0.02 0.03 0.06 0.10 0.11 0.12 0.13 0.11
0.05 0.04 0.03 0.04 0.04 0.05 0.05 0.05 0.04 0.04 0.05 0.06 0.04 0.02 0.01 0.01 0.01 0.01 0.01 0.01 0.01 0.02 0.01 0.01 0.00 0.00 0.00 0.00 0.01 0.01 0.02 0.01 0.00 0.00 0.00 0.00 0.01 0.01 0.03 0.07 0.09 0.11 0.09 0.08
0.02 0.02 0.02 0.02 0.02 0.02 0.02 0.02 0.02 0.02 0.03 0.02 0.01 0.00 0.01 0.01 0.01 0.01 0.01 0.01 0.01 0.01 0.01 0.01 0.00 0.00 0.00 0.00 0.00 0.00 0.01 0.01 0.00 0.00 0.00 0.00 0.00 0.01 0.02 0.03 0.05 0.09 0.10 0.09
0.01 0.01 0.01 0.01 0.01 0.01 0.01 0.01 0.01 0.00 0.00 0.00 0.00 0.00 0.00 0.00 0.00 0.00 0.00 0.00 0.01 0.01 0.01 0.00 0.00 0.00 0.00 0.00 0.00 0.00 0.00 0.01 0.01 0.00 0.00 0.00 0.01 0.01 0.02 0.02 0.03 0.05 0.07 0.10
0.01 0.02 0.01 0.01 0.00 0.00 0.00 0.00 0.00 0.00 0.00 0.00 0.00 0.00 0.00 0.00 0.00 0.00 0.00 0.00 0.00 0.00 0.00 0.00 0.00 0.00 0.00 0.00 0.00 0.00 0.00 0.00 0.00 0.00 0.00 0.00 0.01 0.01 0.01 0.01 0.01 0.03 0.05 0.08
0.02 0.02 0.02 0.00 0.00 0.00 0.00 0.00 0.01 0.01 0.00 0.00 0.00 0.00 0.00 0.00 0.00 0.00 0.00 0.00 0.00 0.00 0.00 0.00 0.00 0.00 0.00 0.00 0.00 0.00 0.00 0.00 0.00 0.00 0.00 0.00 0.00 0.00 0.00 0.01 0.01 0.02 0.03 0.05
0.03 0.04 0.02 0.01 0.01 0.01 0.01 0.01 0.00 0.00 0.00 0.00 0.00 0.00 0.00 0.00 0.00 0.00 0.00 0.00 0.00 0.00 0.00 0.00 0.00 0.00 0.00 0.00 0.00 0.00 0.00 0.00 0.00 0.00 0.00 0.00 0.00 0.00 0.01 0.01 0.01 0.01 0.02 0.03
0.06 0.04 0.03 0.02 0.02 0.01 0.01 0.01 0.00 0.00 0.00 0.00 0.00 0.00 0.00 0.00 0.00 0.00 0.00 0.00 0.00 0.00 0.00 0.00 0.00 0.00 0.00 0.00 0.00 0.00 0.00 0.00 0.00 0.00 0.00 0.00 0.00 0.00 0.00 0.00 0.01 0.01 0.02 0.02
0.10 0.08 0.05 0.03 0.02 0.02 0.02 0.01 0.00 0.00 0.00 0.00 0.00 0.00 0.00 0.00 0.00 0.00 0.00 0.00 0.00 0.00 0.00 0.00 0.00 0.00 0.00 0.00 0.00 0.00 0.00 0.00 0.00 0.00 0.00 0.00 0.00 0.00 0.00 0.00 0.00 0.01 0.01 0.01
0.14 0.10 0.06 0.05 0.05 0.04 0.02 0.01 0.00 0.00 0.00 0.00 0.00 0.00 0.00 0.00 0.00 0.00 0.00 0.00 0.00 0.00 0.00 0.00 0.00 0.00 0.00 0.00 0.00 0.00 0.00 0.00 0.00 0.00 0.00 0.00 0.00 0.00 0.00 0.00 0.00 0.00 0.00 0.00
0.20 0.17 0.13 0.09 0.05 0.02 0.01 0.00 0.00 0.00 0.00 0.00 0.00 0.00 0.00 0.00 0.00 0.00 0.00 0.00 0.00 0.00 0.00 0.00 0.00 0.00 0.00 0.00 0.00 0.00 0.00 0.00 0.00 0.00 0.00 0.00 0.00 0.00 0.00 0.00 0.00 0.00 0.00 0.00
0.25 0.21 0.16 0.10 0.04 0.01 0.00 0.00 0.00 0.00 0.00 0.00 0.00 0.00 0.00 0.00 0.00 0.00 0.00 0.00 0.00 0.00 0.00 0.00 0.00 0.00 0.00 0.00 0.00 0.00 0.00 0.00 0.00 0.00 0.00 0.00 0.00 0.00 0.00 0.00 0.00 0.00 0.00 0.00

GEFSNGP_prec_meanprecacc_102.txt.gz
Total_Precipitation_Accumulation
0.35 0.18 0.15 0.15 0.15 0.14 0.15 0.20 0.37 0.60 0.85 1.07 1.38 1.41 1.29 1.08 0.98 1.00 0.98 0.94 0.86 0.77 0.67 0.56 0.48 0.45 0.43 0.39 0.33 0.28 0.25 0.22 0.21 0.19 0.19 0.19 0.19 0.19 0.18 0.17 0.15 0.14 0.13 0.12
0.30 0.23 0.22 0.26 0.24 0.25 0.28 0.31 0.44 0.70 1.04 1.24 1.23 1.12 1.07 1.00 0.95 1.04 1.14 1.19 1.15 0.99 0.80 0.67 0.60 0.54 0.49 0.44 0.36 0.28 0.26 0.27 0.26 0.25 0.24 0.24 0.23 0.21 0.20 0.17 0.15 0.12 0.09 0.07
0.40 0.30 0.34 0.54 0.43 0.41 0.42 0.42 0.51 0.71 0.83 0.87 0.93 0.95 0.99 1.00 1.04 1.18 1.28 1.25 1.12 1.00 0.86 0.76 0.71 0.63 0.56 0.51 0.42 0.36 0.35 0.32 0.29 0.27 0.27 0.26 0.22 0.19 0.16 0.13 0.11 0.10 0.07 0.06
0.33 0.36 0.64 0.70 0.41 0.36 0.34 0.33 0.38 0.46 0.51 0.62 0.74 0.87 0.98 1.07 1.19 1.32 1.40 1.39 1.27 1.08 0.95 0.82 0.71 0.61 0.53 0.47 0.43 0.40 0.39 0.36 0.31 0.27 0.25 0.22 0.18 0.16 0.13 0.11 0.10 0.10 0.08 0.07
0.36 0.50 0.62 0.58 0.34 0.31 0.38 0.39 0.34 0.35 0.38 0.46 0.56 0.70 1.01 1.16 1.22 1.30 1.34 1.28 1.17 1.01 0.91 0.80 0.68 0.57 0.48 0.44 0.41 0.39 0.37 0.30 0.24 0.18 0.16 0.14 0.13 0.12 0.12 0.12 0.11 0.09 0.08 0.09
0.42 0.64 0.75 0.63 0.28 0.17 0.31 0.55 0.42 0.31 0.30 0.40 0.56 0.72 0.81 0.87 0.96 1.00 0.95 0.88 0.83 0.79 0.74 0.66 0.57 0.47 0.44 0.42 0.36 0.30 0.23 0.18 0.13 0.09 0.09 0.09 0.10 0.11 0.11 0.12 0.11 0.08 0.08 0.10
0.48 0.66 0.71 0.31 0.14 0.20 0.54 0.75 0.60 0.46 0.44 0.50 0.67 0.69 0.54 0.51 0.61 0.68 0.69 0.71 0.68 0.64 0.62 0.55 0.44 0.37 0.35 0.32 0.27 0.18 0.13 0.10 0.07 0.05 0.06 0.07 0.10 0.13 0.14 0.14 0.14 0.12 0.13 0.13
0.51 0.69 0.76 0.26 0.17 0.38 0.49 0.43 0.48 0.48 0.52 0.54 0.51 0.43 0.39 0.38 0.46 0.57 0.67 0.70 0.64 0.58 0.51 0.41 0.32 0.29 0.30 0.26 0.16 0.11 0.09 0.08 0.07 0.05 0.03 0.05 0.12 0.16 0.15 0.16 0.17 0.17 0.17 0.15
0.55 0.61 0.42 0.19 0.19 0.21 0.25 0.30 0.32 0.33 0.36 0.42 0.47 0.44 0.40 0.44 0.51 0.58 0.67 0.69 0.60 0.48 0.39 0.30 0.24 0.24 0.25 0.20 0.12 0.10 0.12 0.12 0.10 0.07 0.06 0.07 0.12 0.16 0.16 0.16 0.15 0.13 0.13 0.14
0.44 0.43 0.30 0.20 0.16 0.15 0.18 0.25 0.26 0.29 0.32 0.42 0.59 0.61 0.55 0.52 0.59 0.60 0.59 0.51 0.42 0.34 0.27 0.21 0.16 0.14 0.14 0.10 0.08 0.10 0.13 0.12 0.10 0.11 0.12 0.12 0.13 0.10 0.11 0.12 0.10 0.09 0.11 0.13
0.67 0.59 0.43 0.27 0.19 0.20 0.21 0.26 0.34 0.42 0.44 0.47 0.52 0.57 0.57 0.55 0.50 0.44 0.38 0.31 0.27 0.24 0.20 0.14 0.10 0.08 0.06 0.05 0.06 0.11 0.13 0.12 0.10 0.10 0.12 0.18 0.15 0.07 0.05 0.06 0.02 0.05 0.08 0.11
0.99 0.73 0.59 0.44 0.35 0.38 0.39 0.39 0.41 0.40 0.39 0.40 0.36 0.36 0.40 0.41 0.36 0.30 0.26 0.23 0.20 0.17 0.13 0.08 0.06 0.05 0.04 0.03 0.04 0.11 0.15 0.12 0.07 0.06 0.09 0.12 0.15 0.14 0.05 0.01 0.00 0.01 0.03 0.05
0.77 0.59 0.53 0.52 0.49 0.49 0.44 0.34 0.30 0.27 0.24 0.27 0.26 0.23 0.24 0.23 0.20 0.18 0.17 0.15 0.14 0.10 0.06 0.05 0.04 0.03 0.02 0.01 0.02 0.05 0.10 0.09 0.04 0.03 0.06 0.08 0.11 0.19 0.20 0.11 0.03 0.02 0.02 0.03
0.50 0.47 0.49 0.39 0.29 0.23 0.16 0.13 0.15 0.18 0.17 0.15 0.14 0.15 0.13 0.11 0.10 0.10 0.10 0.09 0.07 0.05 0.03 0.03 0.03 0.03 0.01 0.01 0.01 0.03 0.04 0.03 0.03 0.04 0.03 0.04 0.06 0.09 0.14 0.21 0.21 0.16 0.07 0.04
0.29 0.24 0.19 0.11 0.08 0.08 0.07 0.07 0.10 0.13 0.13 0.12 0.09 0.08 0.07 0.07 0.07 0.07 0.06 0.05 0.05 0.04 0.03 0.02 0.02 0.01 0.00 0.00 0.01 0.02 0.03 0.04 0.03 0.02 0.02 0.02 0.03 0.05 0.08 0.12 0.17 0.19 0.17 0.10
0.11 0.07 0.06 0.05 0.05 0.06 0.07 0.07 0.08 0.08 0.09 0.09 0.08 0.06 0.06 0.05 0.04 0.05 0.04 0.04 0.04 0.05 0.03 0.02 0.02 0.01 0.00 0.01 0.01 0.02 0.02 0.01 0.01 0.01 0.01 0.01 0.02 0.03 0.06 0.11 0.12 0.14 0.16 0.13
0.06 0.04 0.03 0.04 0.04 0.05 0.05 0.05 0.04 0.04 0.06 0.07 0.05 0.03 0.03 0.02 0.03 0.03 0.03 0.02 0.02 0.03 0.02 0.01 0.01 0.00 0.00 0.00 0.01 0.02 0.02 0.01 0.00 0.01 0.00 0.00 0.01 0.01 0.03 0.07 0.10 0.12 0.10 0.09
0.03 0.02 0.02 0.02 0.02 0.02 0.03 0.02 0.02 0.02 0.03 0.02 0.01 0.01 0.01 0.02 0.02 0.02 0.01 0.01 0.01 0.01 0.01 0.01 0.01 0.00 0.00 0.00 0.00 0.00 0.01 0.01 0.00 0.00 0.00 0.00 0.00 0.01 0.02 0.03 0.05 0.09 0.10 0.10
0.01 0.01 0.01 0.01 0.01 0.01 0.01 0.01 0.01 0.01 0.00 0.01 0.01 0.01 0.01 0.01 0.01 0.01 0.01 0.01 0.01 0.01 0.01 0.01 0.00 0.00 0.00 0.00 0.00 0.00 0.00 0.01 0.01 0.00 0.00 0.00 0.01 0.01 0.02 0.02 0.03 0.05 0.07 0.11
0.01 0.02 0.01 0.01 0.00 0.00 0.00 0.00 0.00 0.00 0.00 0.00 0.00 0.01 0.01 0.01 0.00 0.00 0.00 0.01 0.01 0.01 0.01 0.00 0.00 0.00 0.00 0.00 0.00 0.00 0.00 0.00 0.00 0.00 0.00 0.00 0.01 0.01 0.01 0.01 0.01 0.03 0.05 0.08
0.02 0.02 0.02 0.00 0.00 0.00 0.00 0.00 0.01 0.01 0.00 0.00 0.00 0.00 0.00 0.00 0.00 0.00 0.00 0.00 0.00 0.00 0.00 0.00 0.00 0.00 0.00 0.00 0.00 0.00 0.00 0.00 0.00 0.00 0.00 0.00 0.00 0.00 0.00 0.01 0.01 0.02 0.03 0.05
0.03 0.04 0.02 0.01 0.01 0.01 0.01 0.01 0.00 0.00 0.00 0.00 0.00 0.00 0.00 0.00 0.00 0.00 0.00 0.00 0.00 0.00 0.00 0.00 0.00 0.00 0.00 0.00 0.00 0.00 0.00 0.00 0.00 0.00 0.00 0.00 0.00 0.00 0.01 0.01 0.01 0.01 0.02 0.03
0.06 0.04 0.03 0.02 0.02 0.01 0.01 0.01 0.00 0.00 0.00 0.00 0.00 0.00 0.00 0.00 0.00 0.00 0.00 0.00 0.00 0.00 0.00 0.00 0.00 0.00 0.00 0.00 0.00 0.00 0.00 0.00 0.00 0.00 0.00 0.00 0.00 0.00 0.00 0.00 0.01 0.01 0.02 0.02
0.10 0.08 0.05 0.03 0.02 0.02 0.02 0.01 0.00 0.00 0.00 0.00 0.00 0.00 0.00 0.00 0.00 0.00 0.00 0.00 0.00 0.00 0.00 0.00 0.00 0.00 0.00 0.00 0.00 0.00 0.00 0.00 0.00 0.00 0.00 0.00 0.00 0.00 0.00 0.00 0.00 0.01 0.01 0.01
0.14 0.10 0.06 0.05 0.05 0.04 0.02 0.01 0.00 0.00 0.00 0.00 0.00 0.00 0.00 0.00 0.00 0.00 0.00 0.00 0.00 0.00 0.00 0.00 0.00 0.00 0.00 0.00 0.00 0.00 0.00 0.00 0.00 0.00 0.00 0.00 0.00 0.00 0.00 0.00 0.00 0.00 0.00 0.00
0.20 0.17 0.13 0.09 0.05 0.02 0.01 0.00 0.00 0.00 0.00 0.00 0.00 0.00 0.00 0.00 0.00 0.00 0.00 0.00 0.00 0.00 0.00 0.00 0.00 0.00 0.00 0.00 0.00 0.00 0.00 0.00 0.00 0.00 0.00 0.00 0.00 0.00 0.00 0.00 0.00 0.00 0.00 0.00
0.25 0.21 0.16 0.10 0.04 0.01 0.00 0.00 0.00 0.00 0.00 0.00 0.00 0.00 0.00 0.00 0.00 0.00 0.00 0.00 0.00 0.00 0.00 0.00 0.00 0.00 0.00 0.00 0.00 0.00 0.00 0.00 0.00 0.00 0.00 0.00 0.00 0.00 0.00 0.00 0.00 0.00 0.00 0.00

GEFSNGP_prec_meanprecacc_108.txt.gz
Total_Precipitation_Accumulation
0.37 0.21 0.17 0.17 0.16 0.16 0.18 0.22 0.39 0.63 0.90 1.13 1.43 1.46 1.33 1.10 1.00 1.02 1.02 0.97 0.89 0.80 0.70 0.58 0.50 0.47 0.45 0.43 0.38 0.33 0.29 0.27 0.26 0.24 0.24 0.23 0.23 0.23 0.21 0.19 0.16 0.16 0.15 0.13
0.32 0.25 0.23 0.27 0.26 0.27 0.31 0.34 0.46 0.73 1.07 1.28 1.27 1.16 1.09 1.01 0.96 1.06 1.18 1.23 1.19 1.04 0.85 0.70 0.62 0.56 0.51 0.47 0.39 0.33 0.31 0.32 0.31 0.29 0.29 0.28 0.26 0.24 0.22 0.19 0.17 0.13 0.10 0.08
0.42 0.31 0.36 0.58 0.46 0.44 0.46 0.46 0.54 0.74 0.86 0.89 0.95 0.97 1.00 1.00 1.04 1.20 1.32 1.28 1.16 1.04 0.90 0.79 0.73 0.65 0.58 0.54 0.46 0.40 0.39 0.37 0.34 0.32 0.32 0.29 0.25 0.22 0.19 0.16 0.13 0.11 0.08 0.06
0.37 0.41 0.69 0.74 0.45 0.41 0.39 0.37 0.40 0.47 0.52 0.63 0.76 0.88 0.99 1.08 1.20 1.33 1.41 1.41 1.30 1.11 0.98 0.84 0.72 0.63 0.55 0.50 0.46 0.43 0.42 0.39 0.36 0.33 0.31 0.27 0.22 0.20 0.17 0.14 0.13 0.11 0.09 0.07
0.44 0.59 0.70 0.63 0.37 0.36 0.41 0.43 0.36 0.37 0.39 0.48 0.57 0.71 1.02 1.18 1.23 1.31 1.35 1.30 1.19 1.04 0.93 0.82 0.71 0.59 0.50 0.46 0.43 0.41 0.39 0.33 0.28 0.24 0.22 0.20 0.18 0.17 0.15 0.14 0.13 0.10 0.09 0.10
0.52 0.75 0.87 0.73 0.32 0.20 0.34 0.59 0.46 0.32 0.31 0.40 0.56 0.73 0.82 0.88 0.98 1.01 0.96 0.89 0.84 0.81 0.76 0.68 0.59 0.49 0.45 0.44 0.38 0.33 0.27 0.21 0.16 0.13 0.12 0.13 0.14 0.14 0.14 0.13 0.12 0.09 0.09 0.11
0.59 0.75 0.80 0.38 0.17 0.23 0.58 0.80 0.64 0.49 0.45 0.51 0.68 0.70 0.54 0.51 0.62 0.70 0.71 0.72 0.69 0.65 0.63 0.56 0.45 0.38 0.36 0.35 0.29 0.21 0.16 0.13 0.10 0.08 0.08 0.09 0.12 0.15 0.16 0.15 0.15 0.13 0.13 0.14
0.61 0.78 0.84 0.30 0.20 0.43 0.53 0.45 0.50 0.50 0.53 0.55 0.52 0.45 0.40 0.39 0.47 0.58 0.68 0.72 0.66 0.60 0.53 0.42 0.33 0.30 0.32 0.28 0.19 0.14 0.12 0.11 0.10 0.07 0.05 0.06 0.14 0.18 0.16 0.17 0.17 0.17 0.17 0.15
0.65 0.71 0.49 0.22 0.22 0.24 0.27 0.31 0.33 0.34 0.36 0.43 0.49 0.47 0.42 0.44 0.52 0.60 0.68 0.70 0.62 0.50 0.41 0.31 0.25 0.26 0.27 0.23 0.15 0.13 0.15 0.15 0.13 0.10 0.08 0.08 0.13 0.16 0.16 0.17 0.15 0.13 0.14 0.14
0.57 0.53 0.37 0.25 0.19 0.17 0.20 0.26 0.27 0.30 0.33 0.43 0.60 0.63 0.56 0.53 0.59 0.61 0.61 0.53 0.44 0.35 0.29 0.22 0.18 0.17 0.16 0.13 0.10 0.12 0.15 0.13 0.12 0.12 0.13 0.13 0.14 0.10 0.11 0.12 0.10 0.10 0.11 0.14
0.78 0.69 0.51 0.32 0.23 0.22 0.22 0.27 0.34 0.42 0.45 0.48 0.52 0.58 0.58 0.55 0.51 0.45 0.39 0.32 0.28 0.25 0.21 0.16 0.12 0.10 0.09 0.08 0.08 0.13 0.14 0.12 0.11 0.11 0.13 0.18 0.15 0.07 0.05 0.06 0.02 0.05 0.08 0.11
1.08 0.83 0.69 0.52 0.39 0.40 0.40 0.40 0.42 0.41 0.40 0.40 0.37 0.36 0.41 0.42 0.37 0.30 0.26 0.23 0.21 0.18 0.14 0.10 0.08 0.07 0.05 0.04 0.05 0.12 0.16 0.13 0.08 0.07 0.10 0.12 0.16 0.14 0.05 0.01 0.00 0.01 0.03 0.05
0.88 0.68 0.61 0.60 0.54 0.51 0.45 0.35 0.31 0.28 0.24 0.27 0.27 0.24 0.25 0.23 0.21 0.19 0.18 0.16 0.15 0.11 0.08 0.06 0.05 0.04 0.03 0.02 0.02 0.06 0.11 0.09 0.05 0.04 0.06 0.08 0.12 0.19 0.20 0.11 0.03 0.02 0.02 0.03
0.61 0.57 0.56 0.44 0.32 0.25 0.18 0.14 0.16 0.19 0.18 0.16 0.15 0.16 0.13 0.11 0.10 0.11 0.11 0.09 0.08 0.06 0.04 0.03 0.04 0.03 0.01 0.01 0.02 0.03 0.05 0.03 0.03 0.04 0.03 0.04 0.06 0.09 0.14 0.21 0.21 0.16 0.07 0.04
0.35 0.34 0.28 0.16 0.10 0.10 0.08 0.08 0.10 0.13 0.14 0.13 0.10 0.09 0.07 0.07 0.07 0.07 0.07 0.06 0.05 0.04 0.03 0.02 0.02 0.02 0.01 0.00 0.01 0.03 0.04 0.04 0.03 0.02 0.02 0.02 0.03 0.05 0.08 0.12 0.17 0.19 0.17 0.10
0.16 0.14 0.13 0.08 0.07 0.07 0.08 0.08 0.08 0.08 0.09 0.09 0.08 0.07 0.06 0.05 0.05 0.05 0.05 0.05 0.05 0.05 0.04 0.02 0.02 0.01 0.00 0.01 0.02 0.03 0.03 0.01 0.01 0.02 0.01 0.01 0.02 0.03 0.06 0.11 0.12 0.14 0.16 0.14
0.12 0.09 0.07 0.07 0.06 0.06 0.06 0.05 0.04 0.04 0.06 0.07 0.05 0.04 0.03 0.03 0.03 0.04 0.04 0.03 0.03 0.03 0.02 0.02 0.01 0.00 0.00 0.00 0.01 0.02 0.02 0.01 0.00 0.01 0.01 0.01 0.01 0.01 0.04 0.07 0.10 0.12 0.10 0.09
0.10 0.07 0.05 0.05 0.04 0.04 0.04 0.03 0.02 0.02 0.03 0.02 0.01 0.01 0.02 0.02 0.02 0.02 0.02 0.01 0.01 0.02 0.01 0.01 0.01 0.00 0.00 0.00 0.00 0.00 0.01 0.01 0.01 0.01 0.00 0.00 0.01 0.01 0.02 0.03 0.05 0.09 0.10 0.10
0.09 0.08 0.04 0.04 0.04 0.03 0.02 0.01 0.01 0.01 0.00 0.01 0.01 0.01 0.01 0.01 0.01 0.01 0.01 0.01 0.01 0.01 0.01 0.01 0.00 0.00 0.00 0.00 0.00 0.00 0.01 0.01 0.01 0.00 0.00 0.00 0.01 0.01 0.02 0.02 0.03 0.05 0.07 0.11
0.07 0.08 0.05 0.03 0.02 0.01 0.01 0.01 0.00 0.00 0.00 0.00 0.00 0.01 0.01 0.01 0.00 0.00 0.00 0.01 0.01 0.01 0.01 0.00 0.00 0.00 0.00 0.00 0.00 0.00 0.00 0.00 0.00 0.00 0.00 0.00 0.01 0.01 0.01 0.01 0.01 0.03 0.05 0.08
0.06 0.07 0.04 0.01 0.01 0.01 0.01 0.01 0.01 0.01 0.00 0.00 0.00 0.00 0.00 0.00 0.00 0.00 0.00 0.01 0.01 0.00 0.00 0.00 0.00 0.00 0.00 0.00 0.00 0.00 0.00 0.00 0.00 0.00 0.00 0.00 0.00 0.01 0.01 0.01 0.01 0.02 0.03 0.05
0.06 0.08 0.05 0.02 0.01 0.01 0.01 0.01 0.00 0.00 0.00 0.00 0.00 0.00 0.00 0.00 0.00 0.00 0.00 0.00 0.00 0.00 0.00 0.00 0.00 0.00 0.00 0.00 0.00 0.00 0.00 0.00 0.00 0.00 0.00 0.00 0.00 0.00 0.01 0.01 0.01 0.01 0.02 0.03
0.08 0.07 0.05 0.03 0.02 0.02 0.01 0.01 0.00 0.00 0.00 0.00 0.00 0.00 0.00 0.00 0.00 0.00 0.00 0.00 0.00 0.00 0.00 0.00 0.00 0.00 0.00 0.00 0.00 0.00 0.00 0.00 0.00 0.00 0.00 0.00 0.00 0.00 0.00 0.00 0.01 0.01 0.02 0.02
0.12 0.09 0.06 0.03 0.02 0.02 0.02 0.01 0.00 0.00 0.00 0.00 0.00 0.00 0.00 0.00 0.00 0.00 0.00 0.00 0.00 0.00 0.00 0.00 0.00 0.00 0.00 0.00 0.00 0.00 0.00 0.00 0.00 0.00 0.00 0.00 0.00 0.00 0.00 0.00 0.00 0.01 0.01 0.01
0.17 0.12 0.07 0.05 0.05 0.04 0.02 0.01 0.00 0.00 0.00 0.00 0.00 0.00 0.00 0.00 0.00 0.00 0.00 0.00 0.00 0.00 0.00 0.00 0.00 0.00 0.00 0.00 0.00 0.00 0.00 0.00 0.00 0.00 0.00 0.00 0.00 0.00 0.00 0.00 0.00 0.00 0.00 0.00
0.22 0.18 0.13 0.10 0.06 0.02 0.01 0.00 0.00 0.00 0.00 0.00 0.00 0.00 0.00 0.00 0.00 0.00 0.00 0.00 0.00 0.00 0.00 0.00 0.00 0.00 0.00 0.00 0.00 0.00 0.00 0.00 0.00 0.00 0.00 0.00 0.00 0.00 0.00 0.00 0.00 0.00 0.00 0.00
0.28 0.22 0.17 0.11 0.05 0.01 0.00 0.00 0.00 0.00 0.00 0.00 0.00 0.00 0.00 0.00 0.00 0.00 0.00 0.00 0.00 0.00 0.00 0.00 0.00 0.00 0.00 0.00 0.00 0.00 0.00 0.00 0.00 0.00 0.00 0.00 0.00 0.00 0.00 0.00 0.00 0.00 0.00 0.00

GEFSNGP_prec_meanprecacc_114.txt.gz
Total_Precipitation_Accumulation
0.38 0.22 0.17 0.18 0.17 0.17 0.19 0.23 0.39 0.64 0.90 1.14 1.43 1.47 1.33 1.11 1.01 1.03 1.03 0.98 0.90 0.80 0.71 0.59 0.52 0.49 0.47 0.45 0.41 0.36 0.34 0.31 0.30 0.29 0.28 0.28 0.29 0.28 0.26 0.23 0.20 0.18 0.17 0.15
0.33 0.25 0.24 0.28 0.26 0.27 0.32 0.35 0.47 0.73 1.08 1.29 1.28 1.16 1.10 1.02 0.97 1.06 1.19 1.25 1.20 1.05 0.87 0.72 0.64 0.58 0.54 0.50 0.42 0.36 0.35 0.36 0.34 0.32 0.33 0.32 0.30 0.29 0.27 0.23 0.19 0.15 0.12 0.10
0.42 0.31 0.37 0.58 0.47 0.45 0.47 0.47 0.55 0.74 0.87 0.90 0.96 0.98 1.00 1.01 1.05 1.21 1.33 1.30 1.17 1.06 0.93 0.81 0.75 0.67 0.61 0.56 0.48 0.43 0.42 0.40 0.37 0.35 0.35 0.32 0.29 0.27 0.25 0.20 0.16 0.13 0.09 0.08
0.37 0.41 0.70 0.75 0.46 0.42 0.41 0.38 0.40 0.47 0.52 0.63 0.76 0.88 0.99 1.08 1.21 1.34 1.43 1.43 1.32 1.13 0.99 0.85 0.75 0.66 0.59 0.53 0.48 0.45 0.45 0.42 0.39 0.35 0.34 0.31 0.27 0.26 0.22 0.18 0.15 0.13 0.10 0.08
0.45 0.59 0.71 0.64 0.39 0.37 0.42 0.44 0.37 0.37 0.39 0.48 0.57 0.71 1.03 1.18 1.25 1.33 1.36 1.32 1.21 1.06 0.95 0.84 0.73 0.61 0.53 0.49 0.46 0.44 0.42 0.36 0.30 0.27 0.25 0.24 0.25 0.23 0.20 0.18 0.15 0.12 0.10 0.10
0.53 0.75 0.89 0.74 0.33 0.21 0.35 0.60 0.46 0.33 0.31 0.41 0.56 0.73 0.82 0.88 0.98 1.03 0.98 0.91 0.86 0.83 0.78 0.70 0.61 0.51 0.48 0.46 0.41 0.36 0.30 0.24 0.19 0.16 0.16 0.17 0.18 0.19 0.17 0.16 0.15 0.11 0.10 0.12
0.60 0.76 0.81 0.39 0.18 0.24 0.59 0.81 0.65 0.50 0.46 0.51 0.69 0.71 0.55 0.51 0.63 0.70 0.72 0.73 0.70 0.66 0.64 0.58 0.47 0.40 0.38 0.37 0.32 0.24 0.19 0.16 0.13 0.11 0.11 0.13 0.15 0.17 0.18 0.17 0.17 0.14 0.14 0.14
0.62 0.79 0.85 0.31 0.22 0.45 0.54 0.46 0.51 0.51 0.53 0.56 0.53 0.46 0.40 0.39 0.47 0.59 0.69 0.73 0.67 0.61 0.55 0.44 0.35 0.32 0.33 0.30 0.21 0.17 0.15 0.14 0.13 0.10 0.08 0.09 0.17 0.20 0.18 0.19 0.19 0.19 0.18 0.16
0.67 0.73 0.50 0.24 0.23 0.26 0.29 0.33 0.34 0.35 0.37 0.44 0.50 0.47 0.43 0.45 0.52 0.60 0.69 0.71 0.63 0.51 0.42 0.33 0.27 0.27 0.28 0.24 0.17 0.15 0.17 0.17 0.15 0.13 0.11 0.11 0.16 0.19 0.18 0.18 0.17 0.14 0.15 0.14
0.60 0.55 0.38 0.26 0.20 0.18 0.22 0.27 0.28 0.30 0.34 0.43 0.60 0.64 0.58 0.54 0.60 0.62 0.61 0.54 0.45 0.36 0.30 0.23 0.19 0.18 0.17 0.14 0.13 0.15 0.17 0.15 0.14 0.15 0.16 0.16 0.15 0.11 0.12 0.13 0.11 0.10 0.12 0.14
0.81 0.71 0.52 0.33 0.24 0.24 0.23 0.28 0.35 0.43 0.45 0.48 0.53 0.58 0.59 0.57 0.52 0.46 0.40 0.33 0.28 0.26 0.23 0.16 0.13 0.11 0.09 0.09 0.09 0.14 0.15 0.14 0.13 0.12 0.14 0.19 0.16 0.07 0.05 0.06 0.03 0.05 0.08 0.11
1.10 0.84 0.70 0.53 0.41 0.41 0.40 0.41 0.42 0.41 0.40 0.41 0.37 0.37 0.43 0.43 0.37 0.30 0.27 0.24 0.22 0.19 0.15 0.11 0.09 0.08 0.06 0.05 0.06 0.13 0.17 0.14 0.09 0.08 0.10 0.12 0.16 0.15 0.05 0.01 0.00 0.01 0.03 0.05
0.89 0.69 0.62 0.60 0.54 0.52 0.46 0.36 0.31 0.28 0.24 0.28 0.28 0.25 0.26 0.24 0.21 0.19 0.18 0.16 0.15 0.12 0.08 0.07 0.05 0.05 0.03 0.03 0.03 0.06 0.11 0.10 0.05 0.04 0.06 0.08 0.12 0.19 0.20 0.11 0.03 0.02 0.02 0.03
0.61 0.57 0.56 0.45 0.32 0.25 0.18 0.14 0.16 0.19 0.19 0.17 0.17 0.16 0.13 0.11 0.11 0.11 0.11 0.10 0.09 0.06 0.04 0.04 0.04 0.04 0.02 0.01 0.02 0.03 0.05 0.03 0.03 0.04 0.03 0.04 0.06 0.09 0.14 0.21 0.21 0.16 0.07 0.04
0.36 0.34 0.28 0.16 0.10 0.10 0.09 0.09 0.11 0.14 0.14 0.14 0.11 0.09 0.08 0.07 0.08 0.08 0.07 0.06 0.06 0.05 0.04 0.03 0.03 0.02 0.01 0.01 0.01 0.03 0.04 0.04 0.03 0.02 0.02 0.02 0.03 0.05 0.08 0.12 0.17 0.19 0.17 0.10
0.17 0.15 0.13 0.09 0.07 0.08 0.08 0.08 0.08 0.09 0.09 0.10 0.09 0.08 0.06 0.05 0.05 0.05 0.06 0.05 0.05 0.05 0.04 0.03 0.02 0.01 0.00 0.01 0.02 0.03 0.03 0.01 0.01 0.02 0.01 0.01 0.02 0.03 0.06 0.11 0.12 0.14 0.16 0.14
0.12 0.09 0.07 0.07 0.06 0.07 0.07 0.06 0.04 0.04 0.06 0.07 0.06 0.04 0.03 0.03 0.03 0.04 0.04 0.04 0.03 0.03 0.03 0.02 0.01 0.00 0.00 0.00 0.01 0.02 0.02 0.01 0.00 0.01 0.01 0.01 0.01 0.01 0.04 0.07 0.10 0.12 0.10 0.09
0.11 0.07 0.05 0.05 0.05 0.05 0.04 0.03 0.02 0.02 0.03 0.02 0.01 0.01 0.02 0.02 0.02 0.02 0.02 0.02 0.01 0.02 0.01 0.01 0.01 0.00 0.00 0.00 0.00 0.00 0.01 0.01 0.01 0.01 0.00 0.00 0.01 0.01 0.02 0.03 0.05 0.09 0.10 0.10
0.09 0.08 0.04 0.04 0.04 0.03 0.02 0.02 0.01 0.01 0.00 0.01 0.01 0.01 0.01 0.01 0.01 0.01 0.01 0.01 0.01 0.01 0.01 0.01 0.00 0.00 0.00 0.00 0.00 0.00 0.01 0.01 0.01 0.00 0.00 0.00 0.01 0.01 0.02 0.02 0.03 0.05 0.07 0.11
0.07 0.08 0.05 0.03 0.03 0.02 0.01 0.01 0.00 0.00 0.00 0.00 0.00 0.01 0.01 0.01 0.00 0.00 0.00 0.01 0.01 0.01 0.01 0.00 0.00 0.00 0.00 0.00 0.00 0.00 0.00 0.00 0.00 0.00 0.00 0.00 0.01 0.01 0.01 0.01 0.01 0.03 0.05 0.08
0.06 0.07 0.04 0.02 0.01 0.01 0.01 0.01 0.01 0.01 0.00 0.00 0.00 0.00 0.00 0.00 0.00 0.00 0.00 0.01 0.01 0.00 0.00 0.00 0.00 0.00 0.00 0.00 0.00 0.00 0.00 0.00 0.00 0.00 0.00 0.00 0.00 0.01 0.01 0.01 0.01 0.02 0.03 0.05
0.06 0.08 0.05 0.02 0.02 0.01 0.01 0.01 0.00 0.00 0.00 0.00 0.00 0.00 0.00 0.00 0.00 0.00 0.00 0.00 0.00 0.00 0.00 0.00 0.00 0.00 0.00 0.00 0.00 0.00 0.00 0.00 0.00 0.00 0.00 0.00 0.00 0.00 0.01 0.01 0.01 0.01 0.02 0.03
0.08 0.07 0.05 0.03 0.02 0.02 0.01 0.01 0.00 0.00 0.00 0.00 0.00 0.00 0.00 0.00 0.00 0.00 0.00 0.00 0.00 0.00 0.00 0.00 0.00 0.00 0.00 0.00 0.00 0.00 0.00 0.00 0.00 0.00 0.00 0.00 0.00 0.00 0.00 0.00 0.01 0.01 0.02 0.02
0.12 0.09 0.07 0.03 0.02 0.02 0.02 0.01 0.00 0.00 0.00 0.00 0.00 0.00 0.00 0.00 0.00 0.00 0.00 0.00 0.00 0.00 0.00 0.00 0.00 0.00 0.00 0.00 0.00 0.00 0.00 0.00 0.00 0.00 0.00 0.00 0.00 0.00 0.00 0.00 0.00 0.01 0.01 0.01
0.17 0.13 0.07 0.05 0.05 0.04 0.02 0.01 0.00 0.00 0.00 0.00 0.00 0.00 0.00 0.00 0.00 0.00 0.00 0.00 0.00 0.00 0.00 0.00 0.00 0.00 0.00 0.00 0.00 0.00 0.00 0.00 0.00 0.00 0.00 0.00 0.00 0.00 0.00 0.00 0.00 0.00 0.00 0.00
0.23 0.19 0.14 0.10 0.06 0.02 0.01 0.00 0.00 0.00 0.00 0.00 0.00 0.00 0.00 0.00 0.00 0.00 0.00 0.00 0.00 0.00 0.00 0.00 0.00 0.00 0.00 0.00 0.00 0.00 0.00 0.00 0.00 0.00 0.00 0.00 0.00 0.00 0.00 0.00 0.00 0.00 0.00 0.00
0.28 0.23 0.17 0.11 0.05 0.01 0.00 0.00 0.00 0.00 0.00 0.00 0.00 0.00 0.00 0.00 0.00 0.00 0.00 0.00 0.00 0.00 0.00 0.00 0.00 0.00 0.00 0.00 0.00 0.00 0.00 0.00 0.00 0.00 0.00 0.00 0.00 0.00 0.00 0.00 0.00 0.00 0.00 0.00

GEFSNGP_prec_meanprecacc_120.txt.gz
Total_Precipitation_Accumulation
0.39 0.22 0.18 0.18 0.17 0.17 0.19 0.24 0.40 0.65 0.92 1.15 1.44 1.47 1.34 1.11 1.02 1.04 1.04 0.99 0.91 0.81 0.72 0.60 0.52 0.50 0.49 0.47 0.42 0.39 0.37 0.34 0.34 0.34 0.34 0.33 0.34 0.32 0.28 0.26 0.23 0.22 0.20 0.17
0.33 0.26 0.24 0.28 0.26 0.28 0.32 0.36 0.49 0.75 1.10 1.30 1.28 1.17 1.11 1.02 0.97 1.07 1.20 1.26 1.22 1.06 0.88 0.73 0.65 0.59 0.55 0.51 0.44 0.38 0.37 0.38 0.38 0.38 0.38 0.36 0.33 0.32 0.30 0.26 0.23 0.19 0.14 0.13
0.43 0.32 0.38 0.60 0.49 0.46 0.48 0.48 0.57 0.78 0.90 0.91 0.96 0.99 1.00 1.01 1.05 1.22 1.34 1.31 1.18 1.07 0.94 0.82 0.76 0.69 0.62 0.58 0.50 0.45 0.44 0.43 0.42 0.40 0.39 0.35 0.31 0.30 0.28 0.24 0.21 0.18 0.12 0.10
0.38 0.42 0.72 0.77 0.47 0.43 0.42 0.39 0.41 0.49 0.53 0.63 0.76 0.89 1.00 1.09 1.21 1.35 1.44 1.44 1.33 1.15 1.01 0.87 0.76 0.67 0.61 0.54 0.50 0.48 0.47 0.45 0.42 0.38 0.37 0.33 0.30 0.28 0.26 0.22 0.20 0.18 0.14 0.11
0.46 0.61 0.73 0.66 0.40 0.38 0.45 0.47 0.38 0.38 0.40 0.48 0.57 0.71 1.04 1.19 1.26 1.35 1.40 1.35 1.25 1.09 0.97 0.86 0.75 0.63 0.56 0.51 0.48 0.46 0.45 0.40 0.34 0.30 0.30 0.28 0.29 0.27 0.24 0.22 0.20 0.17 0.14 0.13
0.56 0.77 0.91 0.76 0.34 0.21 0.37 0.65 0.47 0.33 0.32 0.41 0.57 0.75 0.85 0.90 1.00 1.05 1.00 0.92 0.88 0.84 0.79 0.71 0.63 0.53 0.51 0.50 0.45 0.39 0.33 0.27 0.22 0.20 0.21 0.21 0.22 0.24 0.22 0.21 0.20 0.16 0.14 0.14
0.63 0.78 0.83 0.40 0.18 0.25 0.64 0.85 0.66 0.51 0.47 0.52 0.70 0.72 0.56 0.52 0.64 0.71 0.73 0.75 0.71 0.67 0.65 0.59 0.49 0.41 0.41 0.40 0.35 0.27 0.21 0.19 0.16 0.15 0.15 0.16 0.19 0.22 0.22 0.21 0.20 0.18 0.17 0.16
0.65 0.82 0.88 0.32 0.23 0.48 0.58 0.48 0.52 0.53 0.54 0.57 0.54 0.47 0.41 0.40 0.48 0.60 0.70 0.74 0.68 0.62 0.56 0.45 0.37 0.35 0.37 0.34 0.24 0.19 0.17 0.16 0.15 0.13 0.10 0.11 0.19 0.24 0.22 0.22 0.23 0.22 0.21 0.17
0.70 0.76 0.52 0.25 0.25 0.27 0.29 0.33 0.34 0.36 0.38 0.45 0.50 0.47 0.43 0.46 0.53 0.61 0.70 0.73 0.65 0.53 0.45 0.35 0.29 0.30 0.32 0.27 0.20 0.18 0.20 0.20 0.18 0.15 0.14 0.13 0.18 0.22 0.21 0.21 0.19 0.16 0.16 0.15
0.62 0.58 0.40 0.27 0.22 0.19 0.22 0.28 0.29 0.31 0.34 0.44 0.61 0.64 0.58 0.55 0.61 0.63 0.62 0.55 0.47 0.39 0.32 0.26 0.22 0.21 0.20 0.16 0.15 0.17 0.20 0.18 0.17 0.17 0.19 0.18 0.18 0.13 0.15 0.16 0.14 0.12 0.13 0.14
0.85 0.74 0.55 0.34 0.26 0.25 0.23 0.28 0.35 0.43 0.46 0.49 0.54 0.59 0.60 0.58 0.53 0.47 0.41 0.35 0.30 0.29 0.26 0.19 0.16 0.13 0.11 0.10 0.11 0.17 0.17 0.16 0.16 0.14 0.16 0.21 0.18 0.09 0.07 0.07 0.04 0.06 0.10 0.11
1.14 0.86 0.72 0.55 0.42 0.42 0.41 0.41 0.43 0.42 0.41 0.42 0.39 0.38 0.44 0.45 0.39 0.33 0.29 0.26 0.24 0.21 0.19 0.14 0.11 0.09 0.07 0.06 0.08 0.15 0.19 0.15 0.10 0.09 0.11 0.13 0.16 0.15 0.06 0.01 0.01 0.01 0.03 0.05
0.90 0.70 0.63 0.61 0.55 0.52 0.46 0.36 0.32 0.29 0.25 0.29 0.30 0.27 0.27 0.25 0.22 0.21 0.20 0.18 0.17 0.13 0.10 0.09 0.08 0.06 0.05 0.03 0.04 0.09 0.13 0.12 0.07 0.04 0.06 0.09 0.12 0.20 0.21 0.11 0.03 0.02 0.02 0.03
0.62 0.57 0.56 0.45 0.32 0.26 0.18 0.15 0.16 0.19 0.19 0.18 0.18 0.17 0.15 0.12 0.12 0.12 0.13 0.11 0.10 0.08 0.05 0.05 0.06 0.05 0.03 0.02 0.03 0.05 0.06 0.04 0.04 0.05 0.04 0.05 0.07 0.10 0.15 0.22 0.22 0.16 0.07 0.04
0.36 0.35 0.29 0.17 0.10 0.10 0.09 0.09 0.11 0.14 0.15 0.15 0.12 0.10 0.08 0.08 0.09 0.10 0.08 0.07 0.07 0.06 0.05 0.04 0.04 0.03 0.01 0.01 0.02 0.04 0.05 0.05 0.04 0.03 0.03 0.02 0.03 0.05 0.08 0.12 0.17 0.19 0.17 0.10
0.17 0.15 0.13 0.09 0.07 0.08 0.09 0.09 0.08 0.09 0.09 0.11 0.10 0.09 0.07 0.06 0.06 0.06 0.06 0.06 0.06 0.06 0.05 0.03 0.03 0.02 0.01 0.01 0.02 0.03 0.03 0.02 0.02 0.02 0.02 0.01 0.02 0.03 0.06 0.11 0.12 0.14 0.16 0.14
0.12 0.09 0.07 0.07 0.06 0.07 0.07 0.06 0.05 0.04 0.06 0.07 0.06 0.05 0.04 0.03 0.04 0.05 0.05 0.05 0.04 0.04 0.04 0.02 0.01 0.01 0.00 0.01 0.01 0.02 0.02 0.01 0.00 0.01 0.01 0.01 0.01 0.01 0.04 0.07 0.10 0.12 0.10 0.09
0.11 0.07 0.05 0.05 0.05 0.05 0.04 0.04 0.03 0.02 0.03 0.02 0.02 0.01 0.02 0.02 0.03 0.03 0.03 0.02 0.02 0.03 0.02 0.01 0.01 0.00 0.00 0.00 0.00 0.00 0.01 0.01 0.01 0.01 0.00 0.00 0.01 0.01 0.02 0.03 0.05 0.09 0.10 0.10
0.09 0.08 0.04 0.04 0.04 0.03 0.02 0.02 0.02 0.01 0.01 0.01 0.01 0.01 0.01 0.02 0.02 0.01 0.01 0.02 0.02 0.02 0.02 0.01 0.01 0.00 0.00 0.00 0.01 0.00 0.01 0.01 0.01 0.00 0.00 0.00 0.01 0.02 0.02 0.02 0.03 0.05 0.07 0.11
0.07 0.08 0.05 0.03 0.03 0.02 0.01 0.01 0.01 0.01 0.01 0.00 0.00 0.01 0.01 0.01 0.01 0.01 0.01 0.02 0.02 0.01 0.01 0.00 0.00 0.00 0.00 0.00 0.00 0.00 0.00 0.00 0.00 0.00 0.00 0.00 0.01 0.01 0.01 0.01 0.01 0.03 0.05 0.08
0.06 0.07 0.04 0.02 0.02 0.01 0.01 0.01 0.01 0.01 0.00 0.00 0.00 0.00 0.01 0.01 0.00 0.00 0.01 0.02 0.01 0.01 0.00 0.00 0.00 0.00 0.00 0.00 0.00 0.00 0.00 0.00 0.00 0.00 0.00 0.00 0.00 0.01 0.01 0.01 0.01 0.02 0.03 0.05
0.06 0.08 0.05 0.02 0.02 0.01 0.01 0.01 0.00 0.00 0.00 0.00 0.00 0.00 0.00 0.01 0.00 0.01 0.01 0.01 0.01 0.00 0.00 0.00 0.00 0.00 0.00 0.00 0.00 0.00 0.00 0.00 0.00 0.00 0.00 0.00 0.00 0.00 0.01 0.01 0.01 0.01 0.02 0.03
0.08 0.07 0.05 0.03 0.02 0.02 0.01 0.01 0.00 0.00 0.00 0.00 0.00 0.00 0.00 0.00 0.00 0.01 0.00 0.00 0.00 0.00 0.00 0.00 0.00 0.00 0.00 0.00 0.00 0.00 0.00 0.00 0.00 0.00 0.00 0.00 0.00 0.00 0.00 0.00 0.01 0.01 0.02 0.02
0.12 0.10 0.07 0.03 0.03 0.03 0.02 0.01 0.00 0.00 0.00 0.00 0.00 0.00 0.00 0.00 0.00 0.00 0.00 0.00 0.00 0.00 0.00 0.00 0.00 0.00 0.00 0.00 0.00 0.00 0.00 0.00 0.00 0.00 0.00 0.00 0.00 0.00 0.00 0.00 0.00 0.01 0.01 0.01
0.17 0.13 0.07 0.05 0.06 0.05 0.03 0.01 0.00 0.00 0.00 0.00 0.00 0.00 0.00 0.00 0.00 0.00 0.00 0.00 0.00 0.00 0.00 0.00 0.00 0.00 0.00 0.00 0.00 0.00 0.00 0.00 0.00 0.00 0.00 0.00 0.00 0.00 0.00 0.00 0.00 0.00 0.00 0.00
0.23 0.19 0.14 0.10 0.06 0.03 0.01 0.01 0.00 0.00 0.00 0.00 0.00 0.00 0.00 0.00 0.00 0.00 0.00 0.00 0.00 0.00 0.00 0.00 0.00 0.00 0.00 0.00 0.00 0.00 0.00 0.00 0.00 0.00 0.00 0.00 0.00 0.00 0.00 0.00 0.00 0.00 0.00 0.00
0.29 0.23 0.18 0.11 0.05 0.01 0.01 0.01 0.01 0.00 0.00 0.00 0.00 0.00 0.00 0.00 0.00 0.00 0.00 0.00 0.00 0.00 0.00 0.00 0.00 0.00 0.00 0.00 0.00 0.00 0.00 0.00 0.00 0.00 0.00 0.00 0.00 0.00 0.00 0.00 0.00 0.00 0.00 0.00

GEFSNGP_prec_meanprecacc_126.txt.gz
Total_Precipitation_Accumulation
0.43 0.26 0.20 0.19 0.17 0.17 0.19 0.24 0.43 0.69 1.00 1.26 1.54 1.53 1.39 1.16 1.03 1.04 1.05 1.00 0.91 0.82 0.73 0.61 0.54 0.51 0.50 0.48 0.44 0.41 0.40 0.39 0.41 0.38 0.38 0.38 0.39 0.36 0.33 0.30 0.26 0.24 0.21 0.19
0.35 0.27 0.25 0.29 0.27 0.28 0.33 0.36 0.50 0.79 1.17 1.36 1.34 1.22 1.17 1.08 0.99 1.08 1.20 1.27 1.23 1.08 0.89 0.75 0.67 0.61 0.57 0.54 0.46 0.40 0.40 0.43 0.45 0.43 0.43 0.42 0.40 0.39 0.36 0.31 0.27 0.21 0.16 0.15
0.46 0.33 0.39 0.64 0.51 0.47 0.49 0.49 0.59 0.83 0.96 0.94 1.01 1.04 1.05 1.04 1.08 1.24 1.35 1.31 1.19 1.08 0.95 0.84 0.78 0.71 0.65 0.60 0.52 0.47 0.47 0.45 0.45 0.44 0.44 0.41 0.36 0.36 0.35 0.30 0.26 0.22 0.17 0.14
0.43 0.48 0.80 0.83 0.49 0.44 0.44 0.42 0.43 0.52 0.55 0.65 0.79 0.92 1.04 1.12 1.24 1.38 1.46 1.47 1.36 1.17 1.04 0.90 0.78 0.70 0.65 0.57 0.51 0.50 0.49 0.48 0.44 0.41 0.40 0.37 0.35 0.34 0.32 0.29 0.26 0.24 0.20 0.15
0.53 0.71 0.85 0.75 0.43 0.40 0.49 0.53 0.40 0.40 0.41 0.49 0.59 0.73 1.07 1.21 1.29 1.39 1.43 1.39 1.28 1.12 1.00 0.91 0.79 0.67 0.60 0.54 0.50 0.48 0.48 0.44 0.37 0.33 0.33 0.32 0.34 0.33 0.29 0.28 0.26 0.22 0.19 0.17
0.62 0.87 1.06 0.88 0.36 0.23 0.42 0.78 0.53 0.35 0.33 0.43 0.60 0.80 0.90 0.93 1.03 1.07 1.03 0.96 0.90 0.86 0.81 0.73 0.65 0.55 0.54 0.53 0.47 0.41 0.35 0.30 0.25 0.24 0.26 0.27 0.28 0.30 0.27 0.26 0.25 0.21 0.18 0.17
0.68 0.88 0.96 0.46 0.19 0.26 0.73 0.99 0.72 0.54 0.49 0.54 0.74 0.77 0.59 0.54 0.66 0.73 0.75 0.77 0.74 0.69 0.68 0.62 0.51 0.44 0.44 0.44 0.38 0.29 0.23 0.20 0.18 0.18 0.20 0.21 0.24 0.28 0.28 0.26 0.26 0.24 0.22 0.19
0.74 0.94 1.02 0.36 0.25 0.53 0.66 0.51 0.55 0.55 0.56 0.58 0.57 0.49 0.43 0.42 0.49 0.61 0.72 0.76 0.70 0.65 0.60 0.48 0.40 0.39 0.41 0.38 0.27 0.21 0.19 0.19 0.18 0.15 0.12 0.14 0.23 0.29 0.27 0.29 0.30 0.29 0.26 0.21
0.80 0.88 0.62 0.28 0.28 0.29 0.30 0.34 0.36 0.37 0.39 0.46 0.52 0.50 0.45 0.48 0.55 0.63 0.72 0.75 0.68 0.57 0.49 0.39 0.34 0.34 0.36 0.31 0.22 0.19 0.21 0.23 0.21 0.18 0.17 0.16 0.22 0.26 0.27 0.28 0.26 0.22 0.21 0.19
0.69 0.67 0.45 0.30 0.24 0.20 0.23 0.29 0.30 0.32 0.35 0.45 0.62 0.66 0.60 0.57 0.62 0.64 0.64 0.58 0.50 0.43 0.36 0.30 0.25 0.24 0.23 0.18 0.17 0.20 0.23 0.22 0.20 0.20 0.22 0.22 0.22 0.18 0.19 0.21 0.19 0.16 0.17 0.18
0.91 0.81 0.61 0.39 0.27 0.26 0.24 0.29 0.36 0.44 0.46 0.51 0.55 0.61 0.62 0.60 0.54 0.49 0.43 0.37 0.34 0.33 0.29 0.22 0.18 0.16 0.13 0.12 0.14 0.20 0.20 0.19 0.18 0.16 0.19 0.25 0.20 0.11 0.09 0.10 0.07 0.10 0.13 0.14
1.21 0.92 0.78 0.59 0.43 0.43 0.41 0.42 0.43 0.42 0.41 0.43 0.40 0.39 0.46 0.47 0.41 0.34 0.31 0.29 0.28 0.25 0.21 0.16 0.13 0.11 0.09 0.08 0.10 0.19 0.21 0.17 0.11 0.10 0.12 0.15 0.17 0.16 0.07 0.02 0.02 0.03 0.04 0.06
0.92 0.72 0.64 0.62 0.55 0.53 0.46 0.36 0.32 0.29 0.25 0.29 0.31 0.29 0.30 0.28 0.25 0.23 0.22 0.21 0.20 0.16 0.12 0.12 0.10 0.08 0.06 0.05 0.06 0.11 0.15 0.13 0.08 0.05 0.08 0.10 0.13 0.21 0.22 0.12 0.03 0.02 0.02 0.03
0.62 0.59 0.58 0.45 0.33 0.26 0.19 0.15 0.16 0.19 0.19 0.18 0.19 0.19 0.17 0.15 0.14 0.14 0.15 0.14 0.12 0.10 0.07 0.07 0.08 0.07 0.04 0.03 0.05 0.06 0.07 0.05 0.05 0.06 0.05 0.06 0.08 0.11 0.16 0.23 0.22 0.16 0.07 0.04
0.37 0.36 0.31 0.18 0.11 0.10 0.09 0.09 0.11 0.14 0.15 0.16 0.13 0.12 0.10 0.10 0.12 0.12 0.11 0.10 0.09 0.08 0.06 0.05 0.05 0.05 0.02 0.02 0.03 0.05 0.06 0.06 0.05 0.04 0.03 0.03 0.04 0.06 0.08 0.13 0.17 0.19 0.17 0.10
0.17 0.15 0.14 0.10 0.07 0.08 0.09 0.09 0.09 0.09 0.10 0.11 0.11 0.10 0.09 0.08 0.08 0.09 0.09 0.08 0.08 0.08 0.06 0.04 0.04 0.02 0.01 0.01 0.03 0.04 0.03 0.02 0.02 0.03 0.02 0.02 0.02 0.04 0.06 0.11 0.12 0.14 0.16 0.14
0.13 0.10 0.08 0.08 0.07 0.07 0.07 0.06 0.05 0.05 0.07 0.08 0.07 0.06 0.05 0.05 0.06 0.08 0.07 0.06 0.06 0.05 0.04 0.03 0.02 0.01 0.00 0.01 0.02 0.02 0.02 0.01 0.00 0.01 0.01 0.01 0.01 0.01 0.04 0.07 0.10 0.12 0.10 0.09
0.11 0.08 0.06 0.06 0.05 0.05 0.05 0.04 0.03 0.03 0.03 0.02 0.02 0.02 0.03 0.04 0.05 0.05 0.04 0.04 0.03 0.03 0.03 0.02 0.01 0.00 0.00 0.01 0.00 0.00 0.01 0.01 0.01 0.01 0.00 0.00 0.01 0.01 0.02 0.03 0.05 0.09 0.10 0.10
0.10 0.08 0.05 0.05 0.04 0.03 0.02 0.02 0.02 0.01 0.01 0.01 0.01 0.02 0.02 0.03 0.03 0.02 0.02 0.03 0.03 0.03 0.03 0.01 0.01 0.01 0.01 0.00 0.01 0.00 0.01 0.01 0.01 0.00 0.00 0.00 0.01 0.02 0.02 0.02 0.03 0.05 0.07 0.11
0.07 0.08 0.05 0.04 0.03 0.02 0.01 0.01 0.01 0.01 0.01 0.01 0.01 0.01 0.02 0.02 0.02 0.02 0.02 0.04 0.03 0.02 0.01 0.00 0.00 0.00 0.00 0.00 0.00 0.00 0.00 0.00 0.00 0.00 0.00 0.00 0.01 0.01 0.01 0.01 0.01 0.03 0.05 0.08
0.06 0.08 0.04 0.02 0.02 0.01 0.01 0.01 0.01 0.01 0.01 0.00 0.00 0.01 0.02 0.02 0.01 0.01 0.02 0.04 0.03 0.01 0.00 0.00 0.00 0.00 0.00 0.00 0.00 0.00 0.00 0.00 0.00 0.00 0.00 0.00 0.00 0.01 0.01 0.01 0.01 0.02 0.03 0.05
0.06 0.09 0.05 0.02 0.02 0.02 0.01 0.01 0.00 0.00 0.00 0.00 0.00 0.00 0.01 0.01 0.01 0.01 0.01 0.02 0.01 0.00 0.00 0.00 0.00 0.00 0.00 0.00 0.00 0.00 0.00 0.00 0.00 0.00 0.00 0.00 0.00 0.00 0.01 0.01 0.01 0.01 0.02 0.03
0.09 0.08 0.06 0.03 0.03 0.02 0.02 0.01 0.00 0.00 0.00 0.00 0.00 0.00 0.01 0.01 0.01 0.01 0.01 0.00 0.00 0.00 0.00 0.00 0.00 0.00 0.00 0.00 0.00 0.00 0.00 0.00 0.00 0.00 0.00 0.00 0.00 0.00 0.00 0.00 0.01 0.01 0.02 0.02
0.13 0.11 0.07 0.04 0.03 0.03 0.03 0.01 0.00 0.00 0.00 0.00 0.00 0.00 0.00 0.01 0.01 0.01 0.00 0.00 0.00 0.00 0.00 0.00 0.00 0.00 0.00 0.00 0.00 0.00 0.00 0.00 0.00 0.00 0.00 0.00 0.00 0.00 0.00 0.00 0.00 0.01 0.01 0.01
0.18 0.14 0.08 0.06 0.06 0.05 0.03 0.02 0.01 0.00 0.00 0.00 0.00 0.00 0.00 0.00 0.00 0.00 0.00 0.00 0.00 0.00 0.00 0.00 0.00 0.00 0.00 0.00 0.00 0.00 0.00 0.00 0.00 0.00 0.00 0.00 0.00 0.00 0.00 0.00 0.00 0.00 0.00 0.00
0.25 0.21 0.15 0.11 0.07 0.03 0.02 0.02 0.01 0.01 0.01 0.01 0.00 0.00 0.00 0.00 0.00 0.00 0.00 0.00 0.00 0.00 0.00 0.00 0.00 0.00 0.00 0.00 0.00 0.00 0.00 0.00 0.00 0.00 0.00 0.00 0.00 0.00 0.00 0.00 0.00 0.00 0.00 0.00
0.31 0.26 0.20 0.12 0.06 0.01 0.01 0.02 0.02 0.01 0.01 0.01 0.01 0.00 0.00 0.00 0.00 0.00 0.00 0.00 0.00 0.00 0.00 0.00 0.00 0.00 0.00 0.00 0.00 0.00 0.00 0.00 0.00 0.00 0.00 0.00 0.00 0.00 0.00 0.00 0.00 0.00 0.00 0.00

GEFSNGP_prec_meanprecacc_132.txt.gz
Total_Precipitation_Accumulation
0.45 0.28 0.20 0.20 0.19 0.18 0.20 0.26 0.45 0.75 1.08 1.34 1.64 1.66 1.50 1.26 1.10 1.11 1.09 1.03 0.93 0.83 0.74 0.62 0.54 0.51 0.50 0.49 0.44 0.41 0.40 0.40 0.42 0.40 0.39 0.40 0.41 0.38 0.35 0.32 0.28 0.25 0.22 0.19
0.36 0.29 0.27 0.32 0.30 0.31 0.34 0.39 0.53 0.84 1.24 1.44 1.43 1.29 1.25 1.17 1.05 1.14 1.27 1.31 1.25 1.09 0.90 0.76 0.67 0.61 0.58 0.55 0.47 0.41 0.41 0.44 0.46 0.44 0.44 0.44 0.42 0.41 0.38 0.33 0.28 0.23 0.17 0.15
0.48 0.35 0.43 0.71 0.59 0.53 0.54 0.54 0.65 0.90 1.03 1.00 1.07 1.09 1.12 1.10 1.12 1.29 1.40 1.35 1.23 1.11 0.97 0.85 0.78 0.71 0.66 0.61 0.53 0.48 0.47 0.46 0.47 0.45 0.45 0.42 0.38 0.39 0.37 0.32 0.28 0.24 0.18 0.15
0.45 0.52 0.88 0.93 0.58 0.51 0.51 0.48 0.47 0.56 0.60 0.69 0.83 0.97 1.08 1.16 1.28 1.42 1.50 1.52 1.41 1.22 1.07 0.92 0.79 0.71 0.65 0.57 0.52 0.50 0.50 0.49 0.45 0.41 0.41 0.38 0.37 0.38 0.35 0.31 0.28 0.25 0.21 0.17
0.56 0.77 0.95 0.86 0.52 0.45 0.54 0.59 0.45 0.43 0.45 0.53 0.63 0.79 1.13 1.28 1.35 1.44 1.48 1.44 1.33 1.17 1.04 0.93 0.80 0.69 0.61 0.55 0.51 0.49 0.49 0.45 0.38 0.34 0.34 0.33 0.36 0.37 0.34 0.32 0.30 0.26 0.22 0.19
0.65 0.93 1.18 1.02 0.44 0.27 0.47 0.85 0.59 0.39 0.36 0.46 0.64 0.87 0.98 1.03 1.12 1.14 1.07 1.00 0.95 0.90 0.84 0.76 0.67 0.56 0.54 0.53 0.47 0.42 0.36 0.31 0.26 0.25 0.27 0.28 0.30 0.31 0.30 0.30 0.28 0.24 0.21 0.20
0.72 0.96 1.10 0.53 0.23 0.30 0.79 1.06 0.76 0.57 0.52 0.56 0.76 0.81 0.64 0.59 0.73 0.80 0.79 0.80 0.77 0.72 0.71 0.65 0.53 0.45 0.45 0.44 0.39 0.30 0.24 0.20 0.19 0.19 0.21 0.22 0.25 0.29 0.29 0.28 0.29 0.26 0.24 0.22
0.80 1.03 1.12 0.40 0.27 0.56 0.69 0.55 0.57 0.57 0.58 0.60 0.59 0.51 0.46 0.44 0.52 0.65 0.75 0.78 0.72 0.67 0.62 0.50 0.42 0.40 0.42 0.38 0.28 0.21 0.19 0.19 0.19 0.16 0.13 0.14 0.24 0.30 0.28 0.30 0.31 0.30 0.28 0.23
0.85 0.95 0.66 0.31 0.32 0.32 0.32 0.36 0.37 0.38 0.41 0.47 0.54 0.52 0.47 0.49 0.57 0.64 0.73 0.76 0.69 0.58 0.50 0.40 0.35 0.35 0.37 0.32 0.22 0.20 0.22 0.24 0.23 0.19 0.17 0.17 0.22 0.27 0.28 0.29 0.26 0.23 0.22 0.20
0.73 0.72 0.49 0.34 0.26 0.22 0.24 0.30 0.30 0.32 0.35 0.45 0.63 0.67 0.61 0.58 0.63 0.65 0.65 0.58 0.51 0.44 0.37 0.30 0.26 0.25 0.24 0.19 0.18 0.21 0.24 0.22 0.20 0.21 0.23 0.23 0.22 0.18 0.20 0.22 0.19 0.17 0.18 0.19
0.94 0.85 0.64 0.41 0.29 0.27 0.25 0.30 0.36 0.44 0.46 0.51 0.56 0.62 0.63 0.61 0.55 0.49 0.44 0.38 0.35 0.34 0.30 0.22 0.19 0.16 0.13 0.12 0.14 0.21 0.21 0.20 0.19 0.16 0.19 0.25 0.21 0.12 0.10 0.10 0.07 0.10 0.14 0.15
1.24 0.94 0.80 0.61 0.45 0.44 0.42 0.42 0.43 0.42 0.41 0.43 0.40 0.40 0.47 0.48 0.42 0.35 0.32 0.29 0.29 0.26 0.22 0.17 0.14 0.11 0.09 0.08 0.10 0.19 0.21 0.17 0.12 0.10 0.13 0.15 0.18 0.16 0.07 0.03 0.02 0.03 0.05 0.06
0.93 0.73 0.65 0.62 0.56 0.53 0.46 0.36 0.33 0.29 0.25 0.29 0.31 0.29 0.30 0.29 0.26 0.24 0.23 0.22 0.21 0.16 0.12 0.12 0.10 0.08 0.06 0.05 0.06 0.11 0.15 0.13 0.08 0.06 0.08 0.11 0.14 0.21 0.22 0.12 0.03 0.02 0.02 0.04
0.63 0.60 0.58 0.46 0.33 0.26 0.19 0.15 0.17 0.20 0.19 0.19 0.20 0.19 0.18 0.16 0.15 0.16 0.16 0.15 0.13 0.10 0.08 0.08 0.09 0.08 0.05 0.04 0.05 0.07 0.07 0.05 0.05 0.07 0.06 0.07 0.08 0.11 0.16 0.23 0.22 0.17 0.07 0.04
0.37 0.37 0.31 0.18 0.11 0.10 0.09 0.10 0.11 0.14 0.16 0.17 0.14 0.12 0.11 0.11 0.13 0.13 0.12 0.10 0.10 0.09 0.07 0.05 0.06 0.06 0.03 0.02 0.04 0.06 0.06 0.06 0.05 0.04 0.04 0.03 0.04 0.06 0.08 0.13 0.18 0.19 0.17 0.10
0.18 0.16 0.14 0.10 0.08 0.08 0.09 0.09 0.09 0.09 0.10 0.12 0.12 0.11 0.09 0.08 0.08 0.10 0.10 0.08 0.08 0.08 0.07 0.04 0.04 0.03 0.01 0.02 0.03 0.04 0.04 0.02 0.03 0.03 0.03 0.02 0.02 0.04 0.06 0.11 0.12 0.14 0.16 0.14
0.15 0.11 0.09 0.08 0.07 0.07 0.07 0.06 0.05 0.05 0.07 0.08 0.07 0.06 0.05 0.05 0.06 0.08 0.08 0.07 0.06 0.05 0.04 0.03 0.02 0.01 0.01 0.01 0.02 0.02 0.02 0.01 0.01 0.01 0.01 0.01 0.01 0.02 0.04 0.07 0.10 0.12 0.10 0.09
0.12 0.08 0.06 0.06 0.05 0.05 0.05 0.04 0.03 0.03 0.03 0.03 0.02 0.02 0.03 0.04 0.05 0.06 0.05 0.04 0.03 0.03 0.03 0.02 0.01 0.00 0.01 0.01 0.01 0.01 0.01 0.01 0.01 0.01 0.00 0.00 0.01 0.01 0.02 0.03 0.05 0.09 0.10 0.10
0.10 0.08 0.05 0.05 0.04 0.03 0.02 0.02 0.02 0.01 0.01 0.01 0.01 0.02 0.03 0.04 0.04 0.03 0.02 0.03 0.03 0.04 0.03 0.02 0.01 0.01 0.01 0.00 0.01 0.00 0.01 0.01 0.01 0.00 0.00 0.00 0.01 0.02 0.02 0.02 0.03 0.05 0.07 0.11
0.08 0.08 0.05 0.04 0.03 0.02 0.01 0.01 0.01 0.01 0.01 0.01 0.01 0.01 0.02 0.02 0.02 0.02 0.02 0.04 0.04 0.02 0.02 0.01 0.00 0.00 0.00 0.00 0.00 0.00 0.00 0.01 0.01 0.00 0.00 0.01 0.01 0.01 0.01 0.01 0.01 0.03 0.05 0.08
0.07 0.08 0.04 0.02 0.02 0.01 0.01 0.01 0.01 0.01 0.01 0.00 0.00 0.01 0.02 0.02 0.02 0.01 0.02 0.04 0.03 0.01 0.01 0.00 0.00 0.00 0.00 0.00 0.00 0.00 0.00 0.00 0.00 0.00 0.00 0.00 0.00 0.01 0.01 0.01 0.01 0.02 0.03 0.05
0.07 0.09 0.05 0.03 0.02 0.02 0.01 0.01 0.01 0.01 0.01 0.00 0.00 0.01 0.01 0.02 0.01 0.02 0.02 0.02 0.01 0.00 0.00 0.00 0.00 0.00 0.00 0.00 0.00 0.00 0.00 0.00 0.00 0.00 0.00 0.00 0.00 0.00 0.01 0.01 0.01 0.01 0.02 0.03
0.10 0.09 0.06 0.03 0.03 0.02 0.02 0.01 0.01 0.02 0.01 0.01 0.01 0.01 0.01 0.01 0.01 0.01 0.01 0.00 0.00 0.00 0.00 0.00 0.00 0.00 0.00 0.00 0.00 0.00 0.00 0.00 0.00 0.00 0.00 0.00 0.00 0.00 0.00 0.00 0.01 0.01 0.02 0.02
0.13 0.11 0.08 0.04 0.03 0.03 0.03 0.02 0.01 0.01 0.02 0.01 0.01 0.01 0.01 0.01 0.01 0.01 0.00 0.00 0.00 0.00 0.00 0.00 0.00 0.00 0.00 0.00 0.00 0.00 0.00 0.00 0.00 0.00 0.00 0.00 0.00 0.00 0.00 0.00 0.00 0.01 0.01 0.01
0.19 0.14 0.08 0.07 0.07 0.06 0.04 0.02 0.01 0.01 0.01 0.01 0.01 0.01 0.00 0.00 0.00 0.00 0.00 0.00 0.00 0.00 0.00 0.00 0.00 0.00 0.00 0.00 0.00 0.00 0.00 0.00 0.00 0.00 0.00 0.00 0.00 0.00 0.00 0.00 0.00 0.00 0.00 0.00
0.25 0.21 0.15 0.11 0.08 0.05 0.04 0.03 0.02 0.01 0.02 0.02 0.01 0.01 0.01 0.00 0.00 0.00 0.00 0.00 0.01 0.00 0.00 0.00 0.00 0.00 0.00 0.00 0.00 0.00 0.00 0.00 0.00 0.00 0.00 0.00 0.00 0.00 0.00 0.00 0.00 0.00 0.00 0.00
0.31 0.27 0.21 0.13 0.07 0.04 0.06 0.07 0.05 0.03 0.02 0.02 0.02 0.02 0.01 0.01 0.00 0.00 0.00 0.00 0.00 0.01 0.01 0.00 0.00 0.00 0.00 0.00 0.00 0.00 0.00 0.00 0.00 0.00 0.00 0.00 0.00 0.00 0.00 0.00 0.00 0.00 0.00 0.00

GEFSNGP_prec_meanprecacc_138.txt.gz
Total_Precipitation_Accumulation
0.45 0.28 0.21 0.21 0.20 0.19 0.21 0.26 0.47 0.77 1.09 1.37 1.68 1.68 1.53 1.30 1.15 1.15 1.14 1.07 0.97 0.86 0.76 0.64 0.56 0.52 0.51 0.49 0.44 0.41 0.41 0.40 0.42 0.40 0.40 0.41 0.41 0.39 0.35 0.32 0.29 0.26 0.23 0.20
0.36 0.29 0.28 0.33 0.31 0.32 0.35 0.41 0.56 0.86 1.26 1.47 1.47 1.31 1.27 1.19 1.08 1.17 1.31 1.35 1.28 1.12 0.93 0.80 0.71 0.64 0.60 0.56 0.48 0.41 0.41 0.45 0.47 0.45 0.45 0.45 0.43 0.41 0.38 0.33 0.29 0.23 0.18 0.16
0.48 0.36 0.44 0.73 0.61 0.54 0.55 0.57 0.67 0.92 1.05 1.03 1.10 1.12 1.15 1.14 1.16 1.33 1.45 1.40 1.27 1.15 1.02 0.89 0.82 0.74 0.68 0.63 0.54 0.48 0.47 0.46 0.47 0.45 0.45 0.42 0.38 0.39 0.37 0.32 0.28 0.25 0.19 0.16
0.45 0.52 0.90 0.94 0.60 0.54 0.54 0.50 0.49 0.58 0.61 0.71 0.86 1.00 1.12 1.19 1.32 1.46 1.56 1.57 1.46 1.27 1.13 0.96 0.82 0.73 0.66 0.58 0.52 0.51 0.50 0.49 0.45 0.42 0.41 0.38 0.38 0.39 0.36 0.32 0.28 0.26 0.22 0.18
0.56 0.78 0.97 0.89 0.54 0.48 0.57 0.61 0.46 0.44 0.46 0.54 0.65 0.81 1.15 1.30 1.37 1.47 1.52 1.49 1.39 1.23 1.09 0.97 0.83 0.71 0.62 0.56 0.51 0.49 0.49 0.45 0.38 0.34 0.34 0.33 0.36 0.38 0.35 0.33 0.31 0.27 0.23 0.21
0.66 0.95 1.22 1.07 0.48 0.29 0.49 0.86 0.59 0.40 0.37 0.47 0.66 0.90 1.02 1.07 1.15 1.17 1.11 1.04 1.00 0.94 0.87 0.79 0.68 0.58 0.55 0.54 0.48 0.42 0.37 0.31 0.26 0.25 0.27 0.28 0.30 0.32 0.31 0.31 0.30 0.26 0.24 0.23
0.73 0.97 1.12 0.60 0.30 0.34 0.83 1.09 0.77 0.58 0.52 0.57 0.77 0.83 0.69 0.66 0.79 0.86 0.87 0.86 0.81 0.76 0.74 0.67 0.56 0.47 0.47 0.46 0.40 0.30 0.24 0.21 0.20 0.20 0.21 0.22 0.25 0.29 0.30 0.29 0.30 0.28 0.27 0.25
0.81 1.05 1.14 0.44 0.33 0.62 0.74 0.57 0.58 0.58 0.60 0.62 0.60 0.52 0.47 0.47 0.59 0.74 0.86 0.88 0.79 0.71 0.64 0.54 0.48 0.47 0.46 0.40 0.28 0.22 0.20 0.20 0.19 0.16 0.14 0.15 0.24 0.30 0.29 0.30 0.32 0.32 0.31 0.26
0.86 0.96 0.68 0.33 0.34 0.34 0.34 0.37 0.39 0.39 0.42 0.48 0.54 0.52 0.48 0.50 0.59 0.69 0.78 0.80 0.73 0.61 0.52 0.42 0.38 0.39 0.40 0.33 0.23 0.21 0.22 0.24 0.23 0.19 0.18 0.18 0.23 0.27 0.28 0.29 0.28 0.25 0.25 0.23
0.74 0.73 0.50 0.35 0.27 0.23 0.25 0.30 0.31 0.33 0.36 0.46 0.64 0.68 0.62 0.59 0.66 0.67 0.67 0.60 0.52 0.45 0.38 0.31 0.27 0.25 0.24 0.19 0.18 0.21 0.24 0.23 0.21 0.22 0.24 0.23 0.23 0.18 0.20 0.22 0.20 0.19 0.20 0.22
0.95 0.86 0.65 0.42 0.29 0.27 0.26 0.30 0.37 0.44 0.47 0.51 0.57 0.63 0.64 0.62 0.57 0.51 0.45 0.39 0.35 0.35 0.30 0.23 0.19 0.16 0.13 0.12 0.15 0.21 0.21 0.20 0.19 0.17 0.20 0.25 0.21 0.12 0.10 0.11 0.08 0.11 0.14 0.16
1.24 0.94 0.80 0.62 0.46 0.44 0.42 0.42 0.44 0.43 0.42 0.43 0.41 0.41 0.48 0.49 0.43 0.36 0.32 0.30 0.29 0.26 0.22 0.17 0.14 0.12 0.09 0.08 0.10 0.19 0.22 0.18 0.12 0.10 0.13 0.15 0.18 0.17 0.08 0.03 0.03 0.03 0.05 0.06
0.94 0.73 0.65 0.63 0.56 0.54 0.47 0.37 0.33 0.29 0.25 0.30 0.31 0.29 0.30 0.29 0.26 0.24 0.24 0.22 0.22 0.17 0.12 0.13 0.11 0.08 0.06 0.05 0.06 0.11 0.16 0.14 0.08 0.06 0.08 0.11 0.14 0.22 0.22 0.12 0.04 0.02 0.02 0.04
0.63 0.60 0.59 0.46 0.33 0.26 0.19 0.15 0.17 0.20 0.19 0.19 0.20 0.19 0.18 0.16 0.16 0.16 0.17 0.15 0.14 0.11 0.08 0.08 0.09 0.08 0.05 0.04 0.05 0.07 0.08 0.05 0.05 0.07 0.06 0.07 0.08 0.11 0.16 0.23 0.22 0.17 0.07 0.04
0.38 0.37 0.31 0.18 0.11 0.11 0.10 0.10 0.12 0.15 0.16 0.17 0.14 0.13 0.11 0.12 0.13 0.13 0.12 0.10 0.10 0.09 0.07 0.05 0.06 0.06 0.03 0.02 0.04 0.06 0.06 0.06 0.05 0.04 0.04 0.04 0.05 0.06 0.08 0.13 0.18 0.20 0.17 0.10
0.18 0.16 0.14 0.10 0.08 0.08 0.09 0.09 0.09 0.09 0.11 0.12 0.13 0.11 0.09 0.09 0.08 0.10 0.10 0.08 0.08 0.09 0.07 0.05 0.04 0.03 0.01 0.02 0.04 0.04 0.04 0.03 0.03 0.03 0.03 0.02 0.03 0.04 0.07 0.11 0.13 0.14 0.16 0.15
0.15 0.11 0.09 0.08 0.07 0.07 0.08 0.06 0.05 0.05 0.07 0.08 0.07 0.06 0.05 0.06 0.06 0.08 0.08 0.07 0.06 0.05 0.04 0.03 0.02 0.01 0.01 0.01 0.02 0.02 0.02 0.01 0.01 0.01 0.01 0.01 0.01 0.02 0.04 0.07 0.10 0.12 0.10 0.09
0.12 0.08 0.06 0.06 0.05 0.05 0.05 0.04 0.03 0.03 0.03 0.03 0.02 0.02 0.03 0.04 0.06 0.06 0.05 0.04 0.04 0.03 0.03 0.02 0.01 0.00 0.01 0.01 0.01 0.01 0.01 0.01 0.01 0.01 0.01 0.01 0.01 0.01 0.02 0.03 0.05 0.09 0.10 0.10
0.10 0.09 0.05 0.05 0.04 0.03 0.02 0.02 0.02 0.01 0.01 0.01 0.01 0.02 0.03 0.04 0.04 0.03 0.03 0.03 0.03 0.04 0.03 0.02 0.01 0.01 0.01 0.01 0.01 0.01 0.01 0.01 0.01 0.00 0.00 0.00 0.01 0.02 0.02 0.02 0.03 0.05 0.07 0.11
0.08 0.09 0.05 0.04 0.03 0.02 0.01 0.01 0.01 0.01 0.01 0.01 0.01 0.01 0.02 0.02 0.02 0.02 0.03 0.04 0.04 0.02 0.02 0.01 0.01 0.00 0.00 0.00 0.00 0.00 0.00 0.01 0.01 0.00 0.00 0.01 0.01 0.01 0.01 0.01 0.01 0.03 0.05 0.08
0.07 0.08 0.05 0.02 0.02 0.01 0.01 0.01 0.01 0.01 0.01 0.00 0.00 0.01 0.02 0.02 0.02 0.02 0.03 0.04 0.03 0.01 0.01 0.00 0.00 0.00 0.00 0.00 0.00 0.00 0.00 0.00 0.00 0.00 0.00 0.00 0.00 0.01 0.01 0.01 0.01 0.02 0.03 0.05
0.07 0.09 0.06 0.03 0.02 0.02 0.01 0.01 0.01 0.01 0.01 0.00 0.00 0.01 0.01 0.02 0.01 0.02 0.02 0.02 0.01 0.01 0.00 0.00 0.00 0.00 0.00 0.00 0.00 0.00 0.00 0.00 0.00 0.00 0.00 0.00 0.00 0.00 0.01 0.01 0.01 0.01 0.02 0.03
0.10 0.09 0.06 0.03 0.03 0.02 0.02 0.01 0.01 0.02 0.01 0.01 0.01 0.01 0.01 0.01 0.01 0.01 0.01 0.00 0.00 0.00 0.00 0.00 0.00 0.00 0.00 0.00 0.00 0.00 0.00 0.00 0.00 0.00 0.00 0.00 0.00 0.00 0.00 0.00 0.01 0.01 0.02 0.02
0.13 0.11 0.08 0.04 0.03 0.03 0.03 0.02 0.01 0.01 0.02 0.01 0.01 0.01 0.01 0.01 0.01 0.01 0.00 0.00 0.00 0.00 0.00 0.00 0.00 0.00 0.00 0.00 0.00 0.00 0.00 0.00 0.00 0.00 0.00 0.00 0.00 0.00 0.00 0.00 0.00 0.01 0.01 0.01
0.19 0.14 0.08 0.07 0.07 0.06 0.04 0.02 0.01 0.01 0.01 0.01 0.01 0.01 0.01 0.00 0.00 0.00 0.00 0.00 0.00 0.00 0.00 0.00 0.00 0.00 0.00 0.00 0.00 0.00 0.00 0.00 0.00 0.00 0.00 0.00 0.00 0.00 0.00 0.00 0.00 0.00 0.00 0.00
0.25 0.21 0.15 0.11 0.08 0.05 0.04 0.03 0.02 0.02 0.02 0.02 0.02 0.01 0.01 0.01 0.00 0.00 0.00 0.00 0.01 0.00 0.00 0.00 0.00 0.00 0.00 0.00 0.00 0.00 0.00 0.00 0.00 0.00 0.00 0.00 0.00 0.00 0.00 0.00 0.00 0.00 0.00 0.00
0.31 0.27 0.21 0.13 0.07 0.04 0.06 0.07 0.05 0.03 0.02 0.02 0.03 0.02 0.01 0.01 0.00 0.00 0.00 0.00 0.00 0.01 0.01 0.00 0.00 0.00 0.00 0.00 0.00 0.00 0.00 0.00 0.00 0.00 0.00 0.00 0.00 0.00 0.00 0.00 0.00 0.00 0.00 0.00

GEFSNGP_prec_meanprecacc_144.txt.gz
Total_Precipitation_Accumulation
0.46 0.28 0.22 0.21 0.20 0.20 0.22 0.27 0.49 0.80 1.13 1.40 1.70 1.71 1.56 1.33 1.17 1.17 1.18 1.13 1.02 0.92 0.81 0.67 0.57 0.54 0.53 0.51 0.46 0.43 0.42 0.42 0.44 0.42 0.41 0.41 0.42 0.39 0.36 0.33 0.29 0.27 0.23 0.20
0.36 0.29 0.28 0.34 0.32 0.33 0.36 0.42 0.58 0.88 1.29 1.49 1.49 1.33 1.29 1.23 1.12 1.20 1.35 1.41 1.34 1.19 1.00 0.84 0.73 0.66 0.62 0.59 0.49 0.43 0.42 0.46 0.48 0.46 0.46 0.45 0.43 0.42 0.39 0.34 0.30 0.24 0.18 0.16
0.49 0.37 0.45 0.74 0.62 0.55 0.57 0.58 0.70 0.96 1.08 1.04 1.11 1.14 1.17 1.17 1.20 1.38 1.51 1.47 1.34 1.21 1.08 0.95 0.86 0.77 0.70 0.64 0.56 0.50 0.49 0.48 0.48 0.47 0.47 0.43 0.39 0.40 0.38 0.33 0.29 0.25 0.20 0.17
0.46 0.54 0.93 0.97 0.61 0.55 0.56 0.52 0.51 0.60 0.62 0.72 0.87 1.02 1.15 1.23 1.37 1.53 1.63 1.65 1.55 1.35 1.18 1.01 0.86 0.76 0.69 0.60 0.54 0.53 0.53 0.51 0.47 0.43 0.42 0.39 0.39 0.40 0.37 0.33 0.29 0.27 0.23 0.19
0.57 0.79 0.98 0.91 0.57 0.49 0.60 0.64 0.47 0.46 0.47 0.55 0.66 0.83 1.18 1.33 1.41 1.51 1.58 1.56 1.48 1.32 1.18 1.04 0.88 0.74 0.65 0.58 0.54 0.53 0.53 0.48 0.40 0.36 0.35 0.34 0.37 0.39 0.36 0.34 0.32 0.28 0.24 0.21
0.66 0.96 1.24 1.10 0.52 0.31 0.50 0.89 0.60 0.40 0.38 0.48 0.67 0.92 1.04 1.08 1.17 1.20 1.14 1.09 1.07 1.02 0.97 0.88 0.75 0.63 0.59 0.58 0.52 0.45 0.39 0.33 0.28 0.27 0.29 0.30 0.31 0.33 0.33 0.32 0.30 0.26 0.24 0.24
0.73 0.98 1.15 0.62 0.33 0.36 0.85 1.11 0.78 0.58 0.53 0.58 0.79 0.86 0.71 0.68 0.82 0.90 0.90 0.90 0.85 0.80 0.80 0.74 0.63 0.56 0.54 0.51 0.44 0.32 0.26 0.23 0.21 0.22 0.23 0.24 0.26 0.30 0.31 0.30 0.30 0.28 0.28 0.27
0.82 1.07 1.18 0.46 0.35 0.65 0.76 0.58 0.59 0.59 0.61 0.64 0.63 0.54 0.48 0.49 0.62 0.78 0.90 0.93 0.85 0.76 0.68 0.57 0.53 0.56 0.55 0.48 0.33 0.25 0.22 0.21 0.22 0.19 0.15 0.16 0.25 0.31 0.30 0.32 0.33 0.34 0.33 0.28
0.87 0.98 0.71 0.36 0.36 0.36 0.35 0.38 0.39 0.40 0.42 0.49 0.55 0.53 0.48 0.52 0.62 0.71 0.81 0.84 0.78 0.68 0.58 0.45 0.40 0.44 0.45 0.36 0.24 0.22 0.24 0.26 0.25 0.20 0.19 0.18 0.23 0.28 0.29 0.31 0.29 0.27 0.27 0.26
0.75 0.74 0.51 0.36 0.28 0.23 0.25 0.31 0.31 0.33 0.37 0.47 0.65 0.68 0.62 0.60 0.68 0.70 0.70 0.63 0.56 0.51 0.44 0.34 0.29 0.27 0.26 0.20 0.19 0.22 0.26 0.25 0.22 0.23 0.24 0.24 0.23 0.19 0.21 0.23 0.21 0.20 0.23 0.24
0.96 0.87 0.66 0.43 0.30 0.28 0.26 0.31 0.37 0.45 0.48 0.52 0.57 0.64 0.65 0.63 0.59 0.53 0.47 0.41 0.38 0.39 0.34 0.25 0.20 0.18 0.14 0.13 0.16 0.22 0.23 0.22 0.20 0.18 0.21 0.26 0.22 0.13 0.11 0.12 0.08 0.12 0.16 0.18
1.25 0.95 0.81 0.63 0.48 0.45 0.43 0.43 0.44 0.44 0.42 0.44 0.41 0.42 0.49 0.50 0.44 0.37 0.34 0.31 0.31 0.28 0.24 0.19 0.15 0.13 0.10 0.08 0.11 0.21 0.23 0.19 0.13 0.10 0.13 0.16 0.19 0.18 0.08 0.04 0.03 0.04 0.05 0.07
0.94 0.73 0.66 0.63 0.57 0.55 0.48 0.38 0.34 0.30 0.26 0.30 0.32 0.30 0.32 0.31 0.27 0.26 0.25 0.23 0.23 0.18 0.14 0.14 0.12 0.09 0.07 0.06 0.07 0.12 0.17 0.15 0.09 0.06 0.08 0.11 0.15 0.22 0.23 0.12 0.04 0.03 0.03 0.04
0.63 0.60 0.59 0.46 0.34 0.27 0.20 0.17 0.18 0.20 0.20 0.19 0.20 0.20 0.19 0.18 0.17 0.17 0.17 0.16 0.15 0.11 0.09 0.09 0.10 0.09 0.05 0.05 0.06 0.07 0.08 0.06 0.06 0.07 0.06 0.07 0.09 0.12 0.17 0.24 0.23 0.17 0.08 0.04
0.38 0.37 0.31 0.19 0.12 0.11 0.10 0.10 0.12 0.15 0.16 0.18 0.15 0.14 0.12 0.13 0.14 0.14 0.12 0.11 0.11 0.09 0.07 0.06 0.07 0.07 0.03 0.03 0.05 0.06 0.07 0.07 0.06 0.05 0.04 0.04 0.05 0.06 0.09 0.14 0.18 0.20 0.17 0.10
0.19 0.16 0.14 0.10 0.08 0.08 0.09 0.09 0.09 0.10 0.11 0.13 0.14 0.12 0.10 0.10 0.09 0.10 0.10 0.08 0.09 0.10 0.08 0.05 0.05 0.03 0.02 0.02 0.04 0.05 0.04 0.03 0.03 0.04 0.03 0.03 0.03 0.04 0.07 0.12 0.13 0.14 0.17 0.15
0.15 0.11 0.09 0.08 0.07 0.07 0.08 0.07 0.05 0.05 0.07 0.08 0.08 0.06 0.06 0.06 0.07 0.09 0.08 0.07 0.07 0.07 0.06 0.04 0.02 0.01 0.01 0.01 0.02 0.02 0.02 0.01 0.01 0.02 0.02 0.02 0.02 0.02 0.04 0.07 0.10 0.12 0.10 0.09
0.12 0.08 0.06 0.06 0.05 0.05 0.05 0.04 0.03 0.03 0.04 0.03 0.02 0.02 0.04 0.05 0.06 0.06 0.05 0.05 0.04 0.04 0.04 0.02 0.01 0.01 0.01 0.01 0.01 0.01 0.01 0.01 0.01 0.01 0.01 0.01 0.01 0.01 0.02 0.03 0.05 0.09 0.10 0.10
0.10 0.09 0.05 0.05 0.04 0.03 0.02 0.02 0.02 0.01 0.01 0.01 0.01 0.02 0.03 0.05 0.05 0.04 0.03 0.04 0.05 0.05 0.04 0.02 0.01 0.01 0.01 0.01 0.01 0.01 0.01 0.01 0.01 0.00 0.00 0.00 0.01 0.02 0.02 0.02 0.03 0.05 0.07 0.11
0.08 0.09 0.06 0.04 0.03 0.02 0.01 0.01 0.01 0.01 0.01 0.01 0.01 0.02 0.02 0.03 0.03 0.02 0.03 0.05 0.05 0.03 0.02 0.01 0.01 0.01 0.00 0.00 0.00 0.00 0.00 0.01 0.01 0.00 0.00 0.01 0.01 0.01 0.01 0.01 0.01 0.03 0.05 0.08
0.07 0.08 0.05 0.02 0.02 0.01 0.01 0.01 0.01 0.01 0.01 0.00 0.00 0.01 0.02 0.02 0.02 0.02 0.03 0.04 0.03 0.01 0.01 0.01 0.00 0.00 0.00 0.00 0.00 0.00 0.00 0.00 0.00 0.00 0.00 0.00 0.00 0.01 0.01 0.01 0.01 0.02 0.03 0.05
0.07 0.09 0.06 0.03 0.02 0.02 0.01 0.01 0.01 0.01 0.01 0.00 0.00 0.01 0.01 0.02 0.02 0.02 0.02 0.02 0.01 0.01 0.00 0.00 0.00 0.00 0.00 0.00 0.00 0.00 0.00 0.00 0.00 0.00 0.00 0.00 0.00 0.00 0.01 0.01 0.01 0.01 0.02 0.03
0.10 0.09 0.06 0.03 0.03 0.02 0.02 0.01 0.01 0.02 0.01 0.01 0.01 0.01 0.01 0.01 0.01 0.01 0.01 0.00 0.00 0.00 0.00 0.00 0.00 0.00 0.00 0.00 0.00 0.00 0.00 0.00 0.00 0.00 0.00 0.00 0.00 0.00 0.00 0.00 0.01 0.01 0.02 0.02
0.13 0.11 0.08 0.04 0.03 0.03 0.03 0.02 0.01 0.01 0.02 0.01 0.01 0.01 0.01 0.01 0.01 0.01 0.00 0.00 0.00 0.00 0.00 0.00 0.00 0.00 0.00 0.00 0.00 0.00 0.00 0.00 0.00 0.00 0.00 0.00 0.00 0.00 0.00 0.00 0.00 0.01 0.01 0.01
0.19 0.14 0.08 0.07 0.07 0.06 0.04 0.02 0.01 0.01 0.01 0.01 0.01 0.01 0.01 0.00 0.00 0.00 0.00 0.00 0.00 0.00 0.00 0.00 0.00 0.00 0.00 0.00 0.00 0.00 0.00 0.00 0.00 0.00 0.00 0.00 0.00 0.00 0.00 0.00 0.00 0.00 0.00 0.00
0.25 0.21 0.15 0.11 0.08 0.05 0.04 0.03 0.02 0.02 0.02 0.02 0.02 0.01 0.01 0.01 0.00 0.00 0.00 0.00 0.01 0.00 0.00 0.00 0.00 0.00 0.00 0.00 0.00 0.00 0.00 0.00 0.00 0.00 0.00 0.00 0.00 0.00 0.00 0.00 0.00 0.00 0.00 0.00
0.31 0.27 0.21 0.13 0.07 0.04 0.06 0.07 0.05 0.03 0.02 0.02 0.03 0.02 0.02 0.01 0.00 0.00 0.00 0.00 0.01 0.01 0.01 0.00 0.00 0.00 0.00 0.00 0.00 0.00 0.00 0.00 0.00 0.00 0.00 0.00 0.00 0.00 0.00 0.00 0.00 0.00 0.00 0.00

GEFSNGP_prec_meanprecacc_150.txt.gz
Total_Precipitation_Accumulation
0.47 0.30 0.23 0.22 0.21 0.21 0.23 0.29 0.55 0.86 1.19 1.46 1.74 1.77 1.59 1.36 1.20 1.20 1.22 1.21 1.13 0.99 0.88 0.73 0.64 0.60 0.57 0.54 0.49 0.45 0.45 0.45 0.47 0.44 0.42 0.43 0.45 0.41 0.37 0.34 0.30 0.28 0.25 0.21
0.38 0.31 0.29 0.36 0.33 0.34 0.37 0.43 0.59 0.91 1.34 1.53 1.52 1.35 1.31 1.25 1.16 1.24 1.39 1.45 1.40 1.23 1.04 0.89 0.79 0.72 0.67 0.62 0.53 0.46 0.45 0.49 0.50 0.48 0.48 0.47 0.45 0.44 0.41 0.36 0.32 0.25 0.21 0.18
0.51 0.39 0.48 0.78 0.64 0.57 0.58 0.59 0.70 0.99 1.13 1.06 1.13 1.15 1.19 1.19 1.24 1.42 1.55 1.52 1.38 1.25 1.12 1.00 0.94 0.85 0.78 0.71 0.62 0.54 0.53 0.52 0.52 0.49 0.49 0.46 0.41 0.42 0.40 0.35 0.31 0.28 0.23 0.20
0.48 0.57 0.98 1.01 0.63 0.56 0.58 0.54 0.53 0.63 0.65 0.73 0.89 1.03 1.17 1.26 1.41 1.59 1.69 1.71 1.62 1.41 1.25 1.08 0.93 0.84 0.75 0.65 0.61 0.58 0.57 0.55 0.52 0.48 0.45 0.42 0.41 0.42 0.39 0.35 0.32 0.31 0.26 0.22
0.60 0.83 1.03 0.94 0.58 0.50 0.63 0.68 0.49 0.48 0.49 0.56 0.67 0.85 1.22 1.37 1.46 1.57 1.63 1.63 1.56 1.41 1.27 1.13 0.96 0.81 0.70 0.64 0.60 0.58 0.57 0.51 0.43 0.38 0.38 0.37 0.40 0.42 0.39 0.37 0.35 0.31 0.27 0.24
0.69 1.01 1.32 1.15 0.53 0.31 0.53 0.97 0.62 0.42 0.39 0.49 0.69 0.98 1.11 1.12 1.22 1.24 1.19 1.14 1.13 1.08 1.03 0.96 0.84 0.71 0.65 0.62 0.56 0.48 0.42 0.36 0.30 0.29 0.31 0.33 0.34 0.36 0.35 0.34 0.32 0.28 0.27 0.27
0.75 1.02 1.22 0.63 0.33 0.37 0.92 1.20 0.81 0.60 0.55 0.61 0.82 0.89 0.75 0.71 0.86 0.94 0.94 0.93 0.88 0.84 0.84 0.80 0.69 0.64 0.61 0.57 0.49 0.36 0.29 0.27 0.25 0.25 0.26 0.26 0.28 0.32 0.33 0.31 0.32 0.31 0.31 0.30
0.84 1.11 1.25 0.48 0.35 0.68 0.81 0.61 0.61 0.61 0.62 0.66 0.64 0.56 0.50 0.51 0.65 0.83 0.94 0.96 0.88 0.79 0.72 0.62 0.58 0.63 0.64 0.55 0.39 0.29 0.27 0.27 0.26 0.21 0.17 0.17 0.27 0.34 0.32 0.34 0.36 0.36 0.35 0.31
0.90 1.03 0.75 0.37 0.36 0.37 0.36 0.39 0.40 0.41 0.43 0.50 0.56 0.54 0.50 0.54 0.65 0.75 0.85 0.89 0.83 0.72 0.62 0.50 0.45 0.49 0.51 0.40 0.26 0.24 0.27 0.30 0.28 0.23 0.21 0.20 0.26 0.31 0.31 0.32 0.30 0.29 0.29 0.27
0.76 0.76 0.52 0.37 0.28 0.24 0.26 0.32 0.32 0.34 0.37 0.49 0.67 0.69 0.64 0.62 0.71 0.74 0.74 0.67 0.60 0.56 0.50 0.40 0.33 0.30 0.29 0.22 0.20 0.24 0.28 0.28 0.25 0.25 0.27 0.25 0.24 0.20 0.22 0.24 0.22 0.22 0.24 0.26
0.98 0.88 0.67 0.43 0.31 0.29 0.27 0.31 0.38 0.45 0.48 0.53 0.58 0.64 0.66 0.65 0.62 0.56 0.51 0.45 0.42 0.44 0.39 0.29 0.23 0.20 0.16 0.14 0.18 0.24 0.26 0.24 0.22 0.20 0.23 0.27 0.22 0.13 0.11 0.12 0.09 0.13 0.17 0.19
1.29 0.98 0.82 0.63 0.48 0.46 0.43 0.43 0.45 0.44 0.43 0.44 0.42 0.43 0.49 0.51 0.47 0.40 0.36 0.34 0.34 0.32 0.29 0.23 0.18 0.16 0.12 0.11 0.14 0.24 0.26 0.21 0.15 0.12 0.14 0.16 0.19 0.18 0.08 0.04 0.03 0.04 0.06 0.08
0.95 0.74 0.66 0.63 0.58 0.55 0.49 0.38 0.34 0.31 0.27 0.31 0.33 0.31 0.33 0.32 0.30 0.28 0.27 0.25 0.26 0.21 0.18 0.18 0.14 0.12 0.09 0.08 0.09 0.15 0.19 0.16 0.10 0.06 0.09 0.12 0.15 0.23 0.24 0.13 0.04 0.03 0.03 0.05
0.63 0.60 0.59 0.46 0.34 0.27 0.20 0.17 0.19 0.21 0.21 0.20 0.21 0.21 0.20 0.20 0.19 0.19 0.19 0.18 0.17 0.13 0.11 0.13 0.13 0.11 0.07 0.06 0.07 0.09 0.10 0.07 0.06 0.08 0.06 0.08 0.09 0.13 0.18 0.25 0.24 0.18 0.08 0.05
0.38 0.37 0.31 0.19 0.12 0.11 0.10 0.10 0.12 0.16 0.17 0.19 0.16 0.15 0.13 0.15 0.16 0.16 0.13 0.12 0.12 0.11 0.09 0.08 0.09 0.09 0.05 0.04 0.05 0.08 0.08 0.08 0.07 0.05 0.05 0.04 0.05 0.07 0.10 0.16 0.20 0.21 0.18 0.11
0.19 0.16 0.14 0.10 0.08 0.08 0.09 0.09 0.09 0.10 0.11 0.13 0.15 0.13 0.11 0.11 0.10 0.11 0.10 0.09 0.11 0.12 0.09 0.06 0.06 0.04 0.03 0.03 0.05 0.06 0.05 0.03 0.04 0.04 0.04 0.03 0.03 0.05 0.08 0.13 0.14 0.16 0.18 0.16
0.15 0.11 0.09 0.08 0.07 0.08 0.08 0.07 0.05 0.05 0.07 0.09 0.09 0.07 0.07 0.07 0.09 0.11 0.09 0.09 0.09 0.09 0.07 0.05 0.04 0.02 0.01 0.01 0.03 0.03 0.02 0.01 0.01 0.02 0.02 0.02 0.02 0.02 0.04 0.08 0.11 0.13 0.11 0.10
0.12 0.08 0.06 0.06 0.05 0.05 0.05 0.04 0.03 0.03 0.04 0.03 0.02 0.03 0.04 0.06 0.08 0.08 0.06 0.06 0.06 0.05 0.04 0.03 0.02 0.01 0.01 0.01 0.01 0.01 0.01 0.01 0.01 0.01 0.01 0.01 0.01 0.02 0.02 0.03 0.05 0.09 0.10 0.10
0.10 0.09 0.05 0.05 0.04 0.03 0.02 0.02 0.02 0.01 0.01 0.01 0.01 0.02 0.03 0.05 0.05 0.04 0.04 0.06 0.07 0.07 0.05 0.02 0.01 0.01 0.01 0.01 0.01 0.01 0.01 0.01 0.01 0.01 0.00 0.01 0.01 0.02 0.02 0.02 0.03 0.05 0.07 0.11
0.08 0.09 0.06 0.04 0.03 0.02 0.01 0.01 0.01 0.01 0.01 0.01 0.01 0.02 0.03 0.03 0.03 0.03 0.04 0.06 0.07 0.04 0.03 0.01 0.01 0.01 0.00 0.00 0.00 0.00 0.00 0.01 0.01 0.00 0.00 0.01 0.01 0.01 0.01 0.01 0.01 0.03 0.05 0.08
0.07 0.08 0.05 0.02 0.02 0.01 0.01 0.01 0.01 0.01 0.01 0.00 0.01 0.01 0.02 0.02 0.02 0.02 0.03 0.05 0.04 0.02 0.01 0.01 0.00 0.00 0.00 0.00 0.00 0.00 0.00 0.00 0.00 0.00 0.00 0.00 0.00 0.01 0.01 0.01 0.01 0.02 0.03 0.05
0.07 0.09 0.06 0.03 0.02 0.02 0.01 0.01 0.01 0.01 0.01 0.00 0.00 0.01 0.01 0.02 0.02 0.02 0.02 0.02 0.02 0.01 0.01 0.00 0.00 0.00 0.00 0.00 0.00 0.00 0.00 0.00 0.00 0.00 0.00 0.00 0.00 0.00 0.01 0.01 0.01 0.01 0.02 0.03
0.10 0.09 0.06 0.03 0.03 0.02 0.02 0.01 0.01 0.02 0.01 0.01 0.01 0.01 0.01 0.01 0.01 0.02 0.02 0.00 0.00 0.00 0.00 0.00 0.00 0.00 0.00 0.00 0.00 0.00 0.00 0.00 0.00 0.00 0.00 0.00 0.00 0.00 0.00 0.00 0.01 0.01 0.02 0.02
0.13 0.11 0.08 0.04 0.03 0.03 0.03 0.02 0.01 0.01 0.02 0.01 0.01 0.01 0.01 0.01 0.01 0.01 0.00 0.00 0.00 0.00 0.00 0.00 0.00 0.00 0.00 0.00 0.00 0.00 0.00 0.00 0.00 0.00 0.00 0.00 0.00 0.00 0.00 0.00 0.00 0.01 0.01 0.01
0.19 0.14 0.08 0.07 0.07 0.06 0.04 0.02 0.01 0.01 0.01 0.01 0.01 0.01 0.01 0.00 0.00 0.00 0.00 0.00 0.00 0.00 0.00 0.00 0.00 0.00 0.00 0.00 0.00 0.00 0.00 0.00 0.00 0.00 0.00 0.00 0.00 0.00 0.00 0.00 0.00 0.00 0.00 0.00
0.25 0.21 0.15 0.11 0.08 0.05 0.04 0.03 0.02 0.02 0.02 0.02 0.02 0.01 0.01 0.01 0.00 0.00 0.00 0.00 0.01 0.01 0.00 0.00 0.00 0.00 0.00 0.00 0.00 0.00 0.00 0.00 0.00 0.00 0.00 0.00 0.00 0.00 0.00 0.00 0.00 0.00 0.00 0.00
0.31 0.27 0.21 0.13 0.07 0.04 0.06 0.07 0.05 0.03 0.02 0.02 0.03 0.02 0.02 0.01 0.00 0.00 0.00 0.00 0.01 0.01 0.01 0.00 0.00 0.00 0.00 0.00 0.00 0.00 0.00 0.00 0.00 0.00 0.00 0.00 0.00 0.00 0.00 0.00 0.00 0.00 0.00 0.00

GEFSNGP_prec_meanprecacc_156.txt.gz
Total_Precipitation_Accumulation
0.49 0.32 0.24 0.23 0.23 0.22 0.24 0.31 0.56 0.88 1.22 1.49 1.78 1.83 1.66 1.41 1.24 1.24 1.26 1.25 1.18 1.06 0.94 0.77 0.67 0.64 0.62 0.59 0.52 0.48 0.47 0.47 0.49 0.45 0.43 0.44 0.45 0.41 0.37 0.35 0.31 0.29 0.26 0.22
0.39 0.32 0.30 0.37 0.35 0.36 0.38 0.44 0.61 0.93 1.37 1.57 1.55 1.38 1.34 1.29 1.20 1.29 1.42 1.49 1.43 1.26 1.08 0.93 0.82 0.76 0.71 0.66 0.56 0.48 0.47 0.50 0.52 0.50 0.49 0.49 0.47 0.46 0.42 0.37 0.32 0.26 0.22 0.19
0.53 0.41 0.50 0.80 0.65 0.58 0.59 0.60 0.72 1.01 1.15 1.08 1.15 1.17 1.20 1.21 1.26 1.44 1.58 1.55 1.42 1.29 1.16 1.05 0.98 0.88 0.81 0.74 0.63 0.56 0.55 0.54 0.55 0.53 0.53 0.49 0.44 0.44 0.42 0.37 0.32 0.29 0.23 0.20
0.50 0.60 1.03 1.06 0.66 0.58 0.60 0.55 0.53 0.63 0.66 0.75 0.90 1.04 1.17 1.27 1.42 1.60 1.71 1.73 1.65 1.44 1.29 1.13 0.98 0.88 0.78 0.68 0.64 0.62 0.60 0.57 0.55 0.51 0.48 0.44 0.43 0.44 0.41 0.36 0.32 0.31 0.27 0.22
0.63 0.87 1.09 0.99 0.61 0.52 0.64 0.70 0.49 0.48 0.50 0.57 0.68 0.87 1.24 1.38 1.46 1.58 1.65 1.64 1.58 1.43 1.30 1.17 1.02 0.88 0.79 0.72 0.66 0.62 0.58 0.52 0.45 0.41 0.40 0.39 0.41 0.43 0.40 0.38 0.35 0.31 0.27 0.25
0.72 1.05 1.40 1.22 0.55 0.32 0.54 0.99 0.63 0.42 0.39 0.50 0.71 1.00 1.12 1.13 1.22 1.25 1.20 1.16 1.14 1.10 1.05 0.98 0.87 0.76 0.72 0.70 0.62 0.53 0.45 0.37 0.32 0.30 0.33 0.34 0.35 0.37 0.36 0.35 0.32 0.28 0.27 0.27
0.77 1.06 1.29 0.67 0.35 0.39 0.94 1.22 0.82 0.61 0.55 0.62 0.84 0.91 0.75 0.72 0.87 0.96 0.97 0.95 0.90 0.86 0.86 0.81 0.72 0.68 0.67 0.63 0.56 0.42 0.33 0.29 0.28 0.27 0.27 0.27 0.29 0.33 0.34 0.32 0.32 0.31 0.31 0.31
0.86 1.15 1.29 0.50 0.36 0.69 0.82 0.61 0.61 0.61 0.63 0.67 0.65 0.57 0.52 0.52 0.67 0.86 0.98 0.99 0.90 0.81 0.74 0.63 0.59 0.65 0.68 0.58 0.42 0.32 0.30 0.31 0.30 0.24 0.18 0.19 0.28 0.34 0.32 0.34 0.36 0.37 0.36 0.31
0.91 1.04 0.76 0.39 0.37 0.37 0.37 0.40 0.40 0.41 0.44 0.51 0.57 0.55 0.51 0.56 0.67 0.78 0.88 0.92 0.86 0.73 0.63 0.51 0.46 0.51 0.53 0.42 0.28 0.26 0.30 0.34 0.32 0.25 0.23 0.22 0.27 0.31 0.32 0.33 0.31 0.29 0.29 0.28
0.77 0.76 0.53 0.38 0.28 0.24 0.26 0.32 0.33 0.35 0.39 0.49 0.68 0.71 0.65 0.64 0.73 0.77 0.76 0.69 0.62 0.58 0.51 0.41 0.35 0.32 0.30 0.23 0.21 0.25 0.29 0.29 0.26 0.26 0.28 0.27 0.26 0.21 0.22 0.25 0.23 0.22 0.24 0.26
0.99 0.89 0.67 0.44 0.31 0.29 0.27 0.32 0.39 0.47 0.49 0.54 0.59 0.65 0.67 0.66 0.64 0.59 0.53 0.47 0.43 0.45 0.41 0.30 0.24 0.21 0.17 0.15 0.19 0.26 0.27 0.26 0.24 0.22 0.24 0.28 0.23 0.14 0.12 0.13 0.10 0.14 0.18 0.20
1.30 0.99 0.83 0.65 0.48 0.46 0.44 0.44 0.46 0.45 0.43 0.45 0.43 0.43 0.50 0.53 0.50 0.43 0.38 0.35 0.35 0.34 0.31 0.24 0.19 0.17 0.13 0.11 0.15 0.25 0.27 0.23 0.16 0.13 0.15 0.17 0.19 0.18 0.09 0.04 0.04 0.04 0.06 0.09
0.97 0.75 0.67 0.64 0.58 0.55 0.49 0.39 0.35 0.31 0.27 0.31 0.33 0.32 0.34 0.34 0.32 0.29 0.27 0.26 0.27 0.22 0.19 0.19 0.16 0.12 0.10 0.09 0.10 0.15 0.20 0.17 0.10 0.07 0.09 0.12 0.15 0.23 0.24 0.13 0.04 0.04 0.03 0.05
0.64 0.61 0.60 0.47 0.34 0.28 0.20 0.17 0.19 0.22 0.21 0.21 0.22 0.22 0.21 0.21 0.20 0.20 0.19 0.19 0.17 0.14 0.11 0.13 0.13 0.12 0.08 0.06 0.07 0.09 0.10 0.07 0.06 0.08 0.07 0.08 0.09 0.13 0.18 0.25 0.24 0.18 0.08 0.05
0.39 0.37 0.32 0.19 0.12 0.11 0.10 0.11 0.13 0.16 0.18 0.20 0.17 0.16 0.14 0.16 0.17 0.16 0.13 0.12 0.12 0.11 0.09 0.09 0.10 0.09 0.06 0.04 0.06 0.08 0.09 0.08 0.07 0.05 0.05 0.04 0.05 0.07 0.11 0.16 0.20 0.21 0.18 0.12
0.20 0.17 0.15 0.11 0.09 0.09 0.10 0.09 0.09 0.10 0.11 0.14 0.15 0.14 0.12 0.12 0.11 0.11 0.10 0.09 0.11 0.13 0.09 0.07 0.07 0.04 0.03 0.03 0.05 0.06 0.05 0.03 0.04 0.04 0.04 0.04 0.04 0.05 0.08 0.13 0.15 0.17 0.19 0.17
0.15 0.12 0.09 0.09 0.08 0.08 0.08 0.07 0.05 0.05 0.07 0.09 0.09 0.08 0.07 0.08 0.09 0.11 0.09 0.09 0.09 0.09 0.07 0.05 0.04 0.02 0.01 0.02 0.03 0.03 0.03 0.02 0.01 0.02 0.02 0.02 0.03 0.03 0.04 0.08 0.11 0.14 0.12 0.11
0.12 0.08 0.06 0.06 0.05 0.05 0.05 0.04 0.03 0.03 0.04 0.03 0.02 0.03 0.04 0.06 0.08 0.08 0.06 0.06 0.06 0.06 0.05 0.03 0.02 0.01 0.01 0.01 0.01 0.01 0.02 0.02 0.01 0.02 0.01 0.01 0.02 0.02 0.02 0.03 0.06 0.10 0.11 0.10
0.10 0.09 0.05 0.05 0.04 0.03 0.02 0.02 0.02 0.01 0.01 0.01 0.01 0.02 0.03 0.05 0.05 0.04 0.04 0.06 0.08 0.07 0.05 0.02 0.01 0.01 0.01 0.01 0.01 0.01 0.01 0.01 0.01 0.01 0.01 0.02 0.02 0.02 0.02 0.02 0.03 0.05 0.08 0.11
0.08 0.09 0.06 0.04 0.03 0.02 0.01 0.01 0.01 0.01 0.01 0.01 0.01 0.02 0.03 0.03 0.03 0.03 0.04 0.06 0.07 0.05 0.03 0.01 0.01 0.01 0.00 0.00 0.00 0.00 0.01 0.01 0.01 0.01 0.01 0.02 0.01 0.02 0.01 0.01 0.01 0.03 0.05 0.08
0.07 0.08 0.05 0.02 0.02 0.01 0.01 0.01 0.01 0.01 0.01 0.00 0.01 0.01 0.02 0.02 0.02 0.02 0.03 0.05 0.04 0.02 0.01 0.01 0.01 0.00 0.00 0.00 0.00 0.00 0.00 0.01 0.01 0.00 0.00 0.01 0.01 0.01 0.01 0.01 0.01 0.02 0.03 0.05
0.07 0.09 0.06 0.03 0.02 0.02 0.01 0.01 0.01 0.01 0.01 0.00 0.00 0.01 0.02 0.02 0.02 0.02 0.02 0.02 0.02 0.01 0.01 0.00 0.00 0.00 0.00 0.00 0.00 0.00 0.00 0.00 0.00 0.00 0.00 0.00 0.00 0.00 0.01 0.01 0.01 0.01 0.02 0.03
0.10 0.09 0.06 0.03 0.03 0.02 0.02 0.01 0.01 0.02 0.01 0.01 0.01 0.01 0.01 0.01 0.02 0.02 0.02 0.01 0.00 0.00 0.00 0.00 0.00 0.00 0.00 0.00 0.00 0.00 0.00 0.00 0.00 0.00 0.00 0.00 0.00 0.00 0.00 0.00 0.01 0.01 0.02 0.02
0.13 0.11 0.08 0.04 0.03 0.03 0.03 0.02 0.01 0.01 0.02 0.01 0.01 0.01 0.01 0.01 0.01 0.01 0.00 0.00 0.00 0.00 0.00 0.00 0.00 0.00 0.00 0.00 0.00 0.00 0.00 0.00 0.00 0.00 0.00 0.00 0.00 0.00 0.00 0.00 0.00 0.01 0.02 0.01
0.19 0.14 0.08 0.07 0.07 0.06 0.04 0.02 0.01 0.01 0.01 0.01 0.01 0.01 0.01 0.00 0.00 0.00 0.00 0.00 0.01 0.01 0.00 0.00 0.00 0.00 0.00 0.00 0.00 0.00 0.00 0.00 0.00 0.00 0.00 0.00 0.00 0.00 0.00 0.00 0.00 0.00 0.01 0.01
0.25 0.21 0.15 0.11 0.08 0.06 0.04 0.03 0.02 0.02 0.02 0.02 0.02 0.02 0.01 0.01 0.00 0.00 0.00 0.00 0.01 0.01 0.01 0.00 0.00 0.00 0.00 0.00 0.00 0.00 0.00 0.00 0.00 0.00 0.00 0.00 0.00 0.00 0.00 0.01 0.01 0.01 0.01 0.01
0.31 0.27 0.21 0.13 0.07 0.04 0.06 0.07 0.05 0.03 0.02 0.03 0.03 0.03 0.02 0.01 0.00 0.00 0.00 0.01 0.01 0.01 0.01 0.00 0.00 0.00 0.00 0.00 0.00 0.00 0.00 0.00 0.01 0.01 0.01 0.00 0.00 0.01 0.01 0.01 0.02 0.02 0.02 0.02

GEFSNGP_prec_meanprecacc_162.txt.gz
Total_Precipitation_Accumulation
0.49 0.32 0.24 0.23 0.23 0.23 0.25 0.31 0.57 0.88 1.22 1.50 1.79 1.84 1.67 1.41 1.24 1.24 1.28 1.26 1.20 1.09 0.97 0.82 0.72 0.70 0.70 0.68 0.61 0.55 0.54 0.52 0.52 0.48 0.46 0.46 0.47 0.43 0.39 0.36 0.33 0.31 0.28 0.24
0.39 0.32 0.31 0.37 0.35 0.36 0.38 0.44 0.61 0.93 1.38 1.58 1.56 1.39 1.35 1.29 1.21 1.29 1.44 1.51 1.45 1.28 1.10 0.95 0.84 0.78 0.75 0.72 0.61 0.52 0.52 0.56 0.57 0.53 0.53 0.52 0.50 0.49 0.45 0.40 0.36 0.30 0.26 0.24
0.53 0.41 0.50 0.80 0.66 0.59 0.60 0.60 0.72 1.01 1.15 1.09 1.15 1.18 1.21 1.21 1.27 1.45 1.59 1.56 1.42 1.30 1.18 1.07 1.00 0.91 0.85 0.79 0.67 0.60 0.58 0.58 0.59 0.56 0.56 0.53 0.48 0.49 0.47 0.41 0.35 0.31 0.26 0.25
0.50 0.60 1.03 1.06 0.66 0.60 0.61 0.56 0.54 0.64 0.66 0.75 0.90 1.05 1.18 1.27 1.43 1.61 1.71 1.74 1.65 1.45 1.29 1.13 0.99 0.90 0.82 0.72 0.69 0.67 0.64 0.59 0.56 0.52 0.49 0.46 0.45 0.46 0.42 0.37 0.33 0.32 0.27 0.24
0.63 0.87 1.10 1.00 0.62 0.54 0.65 0.71 0.49 0.48 0.50 0.57 0.69 0.87 1.24 1.39 1.47 1.59 1.65 1.65 1.59 1.44 1.31 1.18 1.04 0.90 0.81 0.75 0.71 0.68 0.63 0.55 0.46 0.42 0.41 0.39 0.42 0.44 0.40 0.38 0.36 0.32 0.28 0.26
0.72 1.06 1.40 1.23 0.56 0.33 0.55 1.00 0.63 0.42 0.40 0.51 0.72 1.01 1.13 1.14 1.23 1.26 1.21 1.16 1.15 1.10 1.06 0.99 0.88 0.77 0.74 0.73 0.66 0.60 0.53 0.43 0.35 0.33 0.35 0.36 0.36 0.37 0.36 0.36 0.33 0.29 0.28 0.29
0.77 1.06 1.29 0.68 0.35 0.39 0.95 1.22 0.82 0.61 0.56 0.62 0.84 0.92 0.76 0.72 0.87 0.96 0.97 0.96 0.91 0.86 0.87 0.82 0.72 0.69 0.69 0.67 0.61 0.47 0.39 0.35 0.32 0.31 0.31 0.30 0.31 0.34 0.34 0.32 0.33 0.31 0.32 0.32
0.86 1.15 1.29 0.51 0.37 0.70 0.82 0.61 0.62 0.62 0.63 0.67 0.66 0.57 0.52 0.53 0.68 0.87 0.99 1.00 0.91 0.82 0.75 0.64 0.60 0.66 0.70 0.63 0.46 0.36 0.35 0.36 0.34 0.28 0.23 0.22 0.30 0.35 0.33 0.34 0.36 0.37 0.36 0.32
0.91 1.05 0.76 0.39 0.37 0.38 0.37 0.40 0.41 0.42 0.44 0.51 0.57 0.56 0.51 0.57 0.68 0.80 0.90 0.93 0.87 0.75 0.65 0.53 0.47 0.52 0.56 0.45 0.31 0.29 0.34 0.39 0.37 0.28 0.27 0.26 0.29 0.32 0.32 0.33 0.31 0.29 0.30 0.28
0.77 0.76 0.53 0.38 0.29 0.24 0.26 0.33 0.33 0.36 0.39 0.50 0.68 0.71 0.65 0.65 0.74 0.79 0.79 0.72 0.64 0.60 0.53 0.43 0.35 0.33 0.31 0.24 0.24 0.28 0.33 0.34 0.32 0.31 0.32 0.32 0.29 0.22 0.23 0.25 0.23 0.22 0.25 0.27
0.99 0.89 0.68 0.45 0.31 0.29 0.28 0.32 0.39 0.47 0.50 0.55 0.60 0.65 0.68 0.67 0.66 0.62 0.56 0.50 0.47 0.48 0.43 0.31 0.25 0.22 0.17 0.16 0.20 0.27 0.29 0.29 0.28 0.26 0.27 0.32 0.28 0.17 0.13 0.13 0.11 0.14 0.18 0.20
1.30 0.99 0.83 0.65 0.49 0.47 0.45 0.44 0.46 0.45 0.43 0.46 0.44 0.44 0.51 0.54 0.51 0.45 0.41 0.38 0.38 0.36 0.32 0.25 0.20 0.17 0.13 0.11 0.16 0.26 0.28 0.24 0.17 0.14 0.16 0.19 0.22 0.20 0.10 0.05 0.04 0.04 0.06 0.09
0.97 0.75 0.67 0.64 0.59 0.56 0.49 0.39 0.35 0.32 0.28 0.32 0.34 0.32 0.35 0.35 0.33 0.31 0.29 0.28 0.29 0.23 0.19 0.19 0.16 0.13 0.10 0.10 0.10 0.16 0.21 0.19 0.11 0.07 0.10 0.12 0.16 0.24 0.24 0.13 0.05 0.04 0.03 0.05
0.64 0.61 0.60 0.47 0.35 0.28 0.21 0.17 0.19 0.22 0.22 0.21 0.22 0.22 0.22 0.22 0.21 0.21 0.21 0.20 0.18 0.14 0.12 0.13 0.13 0.12 0.08 0.07 0.08 0.10 0.10 0.07 0.07 0.08 0.07 0.08 0.10 0.13 0.18 0.25 0.24 0.18 0.09 0.05
0.39 0.37 0.32 0.19 0.12 0.11 0.10 0.11 0.13 0.16 0.18 0.20 0.17 0.16 0.15 0.17 0.17 0.16 0.14 0.13 0.12 0.11 0.09 0.09 0.10 0.09 0.06 0.04 0.06 0.08 0.09 0.08 0.07 0.05 0.05 0.04 0.05 0.07 0.11 0.16 0.20 0.22 0.19 0.12
0.20 0.17 0.15 0.11 0.09 0.10 0.10 0.09 0.09 0.10 0.12 0.14 0.15 0.14 0.12 0.12 0.11 0.11 0.11 0.09 0.11 0.13 0.10 0.07 0.07 0.04 0.03 0.03 0.05 0.06 0.05 0.03 0.04 0.04 0.04 0.04 0.04 0.05 0.08 0.14 0.16 0.17 0.20 0.18
0.16 0.12 0.10 0.10 0.08 0.08 0.08 0.07 0.05 0.05 0.07 0.09 0.09 0.08 0.07 0.08 0.09 0.11 0.09 0.09 0.09 0.09 0.07 0.05 0.04 0.02 0.01 0.02 0.03 0.03 0.03 0.02 0.01 0.02 0.03 0.03 0.03 0.03 0.04 0.08 0.12 0.15 0.13 0.12
0.12 0.09 0.07 0.07 0.06 0.05 0.05 0.04 0.03 0.03 0.04 0.03 0.03 0.03 0.04 0.06 0.08 0.08 0.06 0.06 0.06 0.06 0.05 0.03 0.02 0.01 0.01 0.01 0.01 0.01 0.02 0.02 0.01 0.02 0.02 0.02 0.02 0.02 0.02 0.04 0.06 0.11 0.11 0.11
0.11 0.09 0.06 0.05 0.04 0.03 0.02 0.02 0.02 0.01 0.01 0.01 0.02 0.02 0.04 0.05 0.05 0.04 0.04 0.06 0.08 0.07 0.05 0.02 0.01 0.01 0.01 0.01 0.01 0.01 0.01 0.02 0.02 0.01 0.01 0.02 0.02 0.03 0.02 0.02 0.03 0.06 0.08 0.12
0.08 0.09 0.06 0.04 0.03 0.02 0.02 0.01 0.01 0.01 0.01 0.01 0.01 0.02 0.03 0.03 0.03 0.03 0.04 0.06 0.07 0.05 0.03 0.01 0.01 0.01 0.00 0.00 0.01 0.00 0.01 0.01 0.01 0.01 0.01 0.02 0.02 0.02 0.01 0.01 0.01 0.03 0.06 0.08
0.07 0.08 0.05 0.02 0.02 0.01 0.01 0.01 0.01 0.01 0.01 0.00 0.01 0.01 0.02 0.02 0.02 0.02 0.03 0.05 0.04 0.02 0.01 0.01 0.01 0.00 0.00 0.01 0.00 0.00 0.00 0.01 0.01 0.01 0.00 0.01 0.01 0.01 0.01 0.01 0.01 0.02 0.03 0.06
0.07 0.10 0.06 0.03 0.02 0.02 0.01 0.01 0.01 0.01 0.01 0.00 0.00 0.01 0.02 0.02 0.02 0.02 0.02 0.02 0.02 0.01 0.01 0.00 0.00 0.00 0.00 0.00 0.00 0.00 0.00 0.01 0.00 0.00 0.00 0.00 0.00 0.01 0.01 0.01 0.02 0.02 0.02 0.04
0.10 0.09 0.06 0.03 0.03 0.02 0.02 0.01 0.01 0.02 0.01 0.01 0.01 0.01 0.01 0.01 0.02 0.02 0.02 0.01 0.00 0.00 0.00 0.00 0.00 0.00 0.00 0.00 0.00 0.00 0.00 0.00 0.01 0.00 0.01 0.01 0.01 0.01 0.01 0.01 0.01 0.02 0.02 0.03
0.13 0.11 0.08 0.04 0.03 0.03 0.03 0.02 0.01 0.01 0.02 0.01 0.01 0.01 0.01 0.01 0.01 0.01 0.00 0.00 0.00 0.00 0.00 0.00 0.00 0.00 0.00 0.00 0.00 0.00 0.00 0.00 0.00 0.00 0.00 0.01 0.01 0.01 0.01 0.01 0.01 0.02 0.03 0.02
0.19 0.15 0.08 0.07 0.07 0.06 0.04 0.02 0.01 0.01 0.01 0.01 0.01 0.01 0.01 0.01 0.01 0.00 0.00 0.00 0.01 0.01 0.01 0.00 0.00 0.00 0.00 0.00 0.00 0.00 0.00 0.00 0.00 0.00 0.00 0.00 0.00 0.00 0.00 0.01 0.02 0.02 0.02 0.02
0.26 0.22 0.15 0.11 0.08 0.06 0.04 0.03 0.02 0.02 0.02 0.02 0.02 0.02 0.01 0.01 0.00 0.00 0.00 0.01 0.01 0.01 0.01 0.00 0.00 0.00 0.00 0.00 0.00 0.00 0.00 0.00 0.00 0.00 0.00 0.00 0.00 0.00 0.01 0.01 0.02 0.02 0.02 0.02
0.32 0.27 0.21 0.13 0.07 0.04 0.06 0.07 0.05 0.03 0.02 0.03 0.03 0.03 0.02 0.01 0.00 0.00 0.00 0.01 0.01 0.01 0.01 0.00 0.00 0.00 0.00 0.00 0.00 0.00 0.00 0.00 0.01 0.01 0.01 0.00 0.00 0.01 0.01 0.02 0.03 0.03 0.03 0.03

GEFSNGP_prec_meanprecacc_168.txt.gz
Total_Precipitation_Accumulation
0.49 0.32 0.24 0.23 0.23 0.23 0.25 0.31 0.58 0.90 1.23 1.51 1.80 1.85 1.67 1.42 1.25 1.25 1.29 1.28 1.22 1.10 0.99 0.85 0.76 0.76 0.76 0.76 0.70 0.63 0.61 0.61 0.61 0.53 0.50 0.50 0.50 0.46 0.41 0.38 0.34 0.33 0.30 0.26
0.39 0.32 0.31 0.37 0.35 0.36 0.39 0.45 0.62 0.94 1.38 1.58 1.57 1.40 1.35 1.30 1.21 1.30 1.44 1.52 1.47 1.29 1.11 0.96 0.85 0.80 0.77 0.76 0.67 0.59 0.59 0.66 0.68 0.63 0.60 0.58 0.55 0.53 0.48 0.42 0.37 0.31 0.27 0.26
0.53 0.41 0.50 0.81 0.66 0.60 0.60 0.61 0.73 1.03 1.16 1.09 1.16 1.18 1.21 1.22 1.27 1.45 1.60 1.58 1.45 1.31 1.19 1.08 1.01 0.91 0.86 0.80 0.71 0.65 0.67 0.66 0.69 0.68 0.67 0.62 0.55 0.54 0.51 0.44 0.38 0.34 0.28 0.27
0.51 0.61 1.05 1.08 0.66 0.60 0.61 0.57 0.54 0.64 0.66 0.76 0.91 1.06 1.19 1.28 1.43 1.62 1.72 1.74 1.66 1.47 1.31 1.14 1.00 0.92 0.83 0.74 0.71 0.72 0.72 0.69 0.63 0.59 0.56 0.52 0.50 0.51 0.46 0.41 0.36 0.34 0.30 0.27
0.65 0.89 1.11 1.01 0.63 0.54 0.66 0.71 0.50 0.49 0.50 0.58 0.69 0.88 1.25 1.39 1.48 1.59 1.66 1.66 1.60 1.45 1.33 1.20 1.05 0.92 0.83 0.77 0.73 0.72 0.70 0.63 0.53 0.47 0.46 0.44 0.46 0.46 0.42 0.40 0.37 0.33 0.30 0.30
0.73 1.07 1.41 1.24 0.57 0.34 0.55 1.01 0.64 0.42 0.40 0.51 0.72 1.01 1.14 1.14 1.24 1.26 1.21 1.17 1.16 1.13 1.08 1.01 0.90 0.78 0.77 0.75 0.68 0.63 0.58 0.50 0.42 0.38 0.40 0.41 0.41 0.41 0.39 0.37 0.34 0.30 0.30 0.31
0.78 1.07 1.30 0.68 0.36 0.40 0.96 1.23 0.82 0.61 0.56 0.63 0.85 0.92 0.76 0.72 0.88 0.97 0.97 0.96 0.91 0.87 0.88 0.83 0.73 0.70 0.71 0.68 0.63 0.51 0.43 0.42 0.41 0.38 0.39 0.38 0.39 0.40 0.38 0.34 0.34 0.32 0.33 0.32
0.87 1.16 1.30 0.51 0.38 0.71 0.83 0.61 0.62 0.62 0.64 0.67 0.66 0.58 0.53 0.53 0.68 0.88 0.99 1.00 0.92 0.84 0.76 0.65 0.61 0.67 0.71 0.64 0.48 0.39 0.38 0.41 0.42 0.37 0.30 0.28 0.36 0.40 0.36 0.37 0.38 0.38 0.38 0.33
0.92 1.06 0.77 0.40 0.38 0.38 0.37 0.40 0.41 0.42 0.45 0.51 0.58 0.56 0.52 0.57 0.68 0.80 0.90 0.94 0.88 0.76 0.66 0.54 0.48 0.53 0.57 0.46 0.32 0.31 0.38 0.43 0.42 0.35 0.34 0.30 0.32 0.35 0.34 0.35 0.32 0.30 0.31 0.30
0.78 0.77 0.53 0.39 0.29 0.24 0.27 0.33 0.33 0.36 0.40 0.50 0.69 0.71 0.66 0.65 0.75 0.79 0.79 0.72 0.65 0.61 0.55 0.44 0.37 0.35 0.33 0.25 0.25 0.30 0.36 0.39 0.38 0.37 0.38 0.38 0.33 0.24 0.24 0.26 0.24 0.23 0.26 0.28
1.00 0.89 0.68 0.45 0.32 0.30 0.28 0.32 0.39 0.48 0.50 0.55 0.60 0.66 0.68 0.67 0.66 0.62 0.56 0.51 0.48 0.49 0.45 0.33 0.26 0.23 0.18 0.17 0.21 0.28 0.31 0.32 0.33 0.33 0.33 0.39 0.33 0.20 0.14 0.14 0.11 0.14 0.19 0.21
1.31 0.99 0.83 0.65 0.49 0.47 0.45 0.44 0.47 0.46 0.44 0.46 0.44 0.44 0.51 0.54 0.52 0.45 0.41 0.40 0.41 0.39 0.35 0.27 0.22 0.19 0.15 0.12 0.16 0.27 0.29 0.26 0.20 0.18 0.21 0.24 0.27 0.24 0.12 0.05 0.04 0.04 0.06 0.09
0.97 0.75 0.67 0.64 0.59 0.56 0.50 0.39 0.36 0.32 0.28 0.32 0.34 0.33 0.35 0.35 0.34 0.31 0.30 0.30 0.31 0.26 0.21 0.21 0.18 0.14 0.11 0.11 0.11 0.17 0.23 0.21 0.12 0.09 0.12 0.16 0.19 0.27 0.26 0.14 0.05 0.04 0.03 0.05
0.64 0.61 0.60 0.47 0.35 0.28 0.21 0.18 0.20 0.23 0.22 0.21 0.23 0.23 0.22 0.22 0.22 0.22 0.22 0.22 0.20 0.16 0.13 0.15 0.15 0.12 0.08 0.08 0.09 0.11 0.12 0.09 0.08 0.09 0.08 0.10 0.11 0.14 0.19 0.26 0.25 0.19 0.09 0.05
0.39 0.38 0.32 0.19 0.12 0.12 0.11 0.11 0.13 0.17 0.18 0.20 0.18 0.16 0.15 0.17 0.18 0.17 0.15 0.14 0.14 0.13 0.10 0.10 0.11 0.10 0.06 0.05 0.06 0.09 0.10 0.10 0.08 0.06 0.05 0.05 0.06 0.08 0.11 0.17 0.21 0.23 0.20 0.13
0.20 0.17 0.15 0.11 0.10 0.10 0.10 0.10 0.09 0.11 0.12 0.14 0.15 0.14 0.13 0.12 0.11 0.12 0.11 0.10 0.12 0.14 0.10 0.07 0.07 0.05 0.03 0.04 0.05 0.07 0.06 0.04 0.04 0.05 0.04 0.04 0.04 0.06 0.08 0.14 0.17 0.18 0.20 0.19
0.16 0.13 0.10 0.10 0.08 0.09 0.08 0.07 0.06 0.05 0.08 0.09 0.09 0.08 0.07 0.08 0.10 0.11 0.10 0.09 0.10 0.10 0.07 0.05 0.04 0.02 0.01 0.02 0.03 0.03 0.03 0.02 0.02 0.03 0.03 0.03 0.03 0.03 0.05 0.09 0.13 0.16 0.14 0.13
0.13 0.09 0.07 0.07 0.06 0.06 0.05 0.04 0.03 0.03 0.04 0.03 0.03 0.03 0.05 0.06 0.08 0.08 0.07 0.07 0.06 0.06 0.05 0.03 0.02 0.01 0.01 0.01 0.01 0.01 0.02 0.02 0.02 0.02 0.02 0.03 0.03 0.03 0.03 0.04 0.07 0.12 0.12 0.12
0.11 0.10 0.06 0.06 0.05 0.04 0.03 0.02 0.02 0.01 0.01 0.01 0.02 0.02 0.04 0.05 0.05 0.05 0.05 0.06 0.08 0.08 0.06 0.02 0.01 0.01 0.02 0.01 0.01 0.01 0.01 0.02 0.03 0.02 0.02 0.02 0.03 0.03 0.03 0.03 0.04 0.07 0.10 0.13
0.08 0.09 0.06 0.05 0.04 0.02 0.02 0.01 0.01 0.01 0.01 0.01 0.01 0.02 0.03 0.03 0.03 0.03 0.04 0.06 0.07 0.05 0.03 0.01 0.01 0.01 0.01 0.01 0.01 0.01 0.01 0.01 0.02 0.01 0.01 0.02 0.02 0.02 0.02 0.01 0.02 0.04 0.07 0.10
0.07 0.09 0.05 0.03 0.02 0.02 0.01 0.01 0.01 0.01 0.01 0.00 0.01 0.01 0.02 0.02 0.02 0.02 0.03 0.05 0.04 0.02 0.01 0.01 0.01 0.00 0.00 0.01 0.00 0.00 0.01 0.01 0.02 0.01 0.01 0.01 0.01 0.02 0.02 0.02 0.02 0.03 0.04 0.07
0.08 0.10 0.06 0.03 0.03 0.02 0.01 0.01 0.01 0.01 0.01 0.00 0.01 0.01 0.02 0.02 0.02 0.02 0.02 0.02 0.02 0.01 0.01 0.00 0.00 0.00 0.00 0.00 0.00 0.00 0.01 0.01 0.01 0.01 0.01 0.01 0.01 0.01 0.01 0.02 0.03 0.03 0.04 0.06
0.12 0.10 0.07 0.04 0.03 0.03 0.02 0.01 0.01 0.02 0.02 0.01 0.01 0.01 0.01 0.01 0.02 0.02 0.02 0.01 0.00 0.00 0.00 0.00 0.00 0.00 0.00 0.00 0.00 0.00 0.01 0.01 0.01 0.01 0.01 0.01 0.01 0.01 0.02 0.02 0.02 0.03 0.03 0.04
0.15 0.13 0.09 0.05 0.04 0.03 0.03 0.02 0.01 0.01 0.02 0.01 0.01 0.01 0.01 0.01 0.01 0.01 0.00 0.00 0.00 0.00 0.00 0.00 0.00 0.00 0.00 0.00 0.00 0.00 0.00 0.00 0.00 0.00 0.01 0.01 0.01 0.01 0.01 0.01 0.01 0.03 0.03 0.03
0.20 0.16 0.10 0.08 0.08 0.06 0.04 0.02 0.01 0.01 0.01 0.01 0.01 0.01 0.01 0.01 0.01 0.00 0.00 0.00 0.01 0.01 0.01 0.00 0.00 0.00 0.00 0.00 0.00 0.00 0.00 0.00 0.00 0.00 0.00 0.00 0.00 0.00 0.01 0.01 0.02 0.03 0.03 0.03
0.27 0.23 0.17 0.13 0.09 0.06 0.04 0.03 0.02 0.02 0.02 0.02 0.02 0.02 0.01 0.01 0.00 0.00 0.00 0.01 0.01 0.01 0.01 0.00 0.00 0.00 0.00 0.00 0.00 0.00 0.00 0.00 0.00 0.00 0.00 0.00 0.00 0.00 0.01 0.01 0.02 0.02 0.02 0.03
0.32 0.28 0.23 0.14 0.08 0.05 0.06 0.07 0.05 0.03 0.02 0.03 0.03 0.03 0.02 0.01 0.01 0.00 0.00 0.01 0.01 0.01 0.01 0.00 0.00 0.00 0.00 0.00 0.00 0.00 0.01 0.01 0.01 0.01 0.01 0.01 0.01 0.01 0.01 0.02 0.03 0.03 0.04 0.03

GEFSNGP_prec_meanprecacc_174.txt.gz
Total_Precipitation_Accumulation
0.51 0.35 0.26 0.24 0.24 0.23 0.25 0.32 0.61 0.93 1.28 1.57 1.84 1.87 1.69 1.43 1.25 1.25 1.29 1.29 1.24 1.13 1.01 0.86 0.78 0.77 0.77 0.78 0.72 0.66 0.66 0.68 0.68 0.61 0.58 0.61 0.62 0.55 0.49 0.44 0.38 0.36 0.32 0.27
0.40 0.34 0.32 0.38 0.36 0.37 0.39 0.45 0.63 0.97 1.41 1.62 1.59 1.40 1.36 1.31 1.22 1.32 1.45 1.53 1.49 1.33 1.15 0.99 0.87 0.82 0.79 0.78 0.70 0.62 0.62 0.70 0.74 0.70 0.66 0.67 0.69 0.65 0.56 0.49 0.43 0.34 0.29 0.27
0.54 0.42 0.53 0.84 0.67 0.60 0.61 0.62 0.74 1.05 1.19 1.12 1.17 1.19 1.22 1.23 1.29 1.47 1.61 1.59 1.47 1.35 1.22 1.10 1.03 0.93 0.88 0.82 0.73 0.69 0.70 0.69 0.73 0.74 0.75 0.71 0.65 0.65 0.60 0.52 0.44 0.38 0.31 0.29
0.51 0.64 1.11 1.11 0.67 0.60 0.62 0.58 0.55 0.65 0.68 0.77 0.93 1.07 1.19 1.29 1.44 1.62 1.73 1.75 1.68 1.49 1.34 1.18 1.03 0.94 0.85 0.76 0.73 0.74 0.76 0.73 0.67 0.64 0.61 0.58 0.58 0.60 0.57 0.51 0.44 0.41 0.34 0.29
0.67 0.94 1.17 1.04 0.64 0.54 0.67 0.74 0.52 0.50 0.52 0.59 0.71 0.89 1.27 1.41 1.49 1.60 1.67 1.67 1.61 1.48 1.37 1.25 1.08 0.94 0.85 0.79 0.74 0.73 0.72 0.67 0.59 0.51 0.49 0.49 0.52 0.54 0.50 0.47 0.44 0.39 0.34 0.32
0.78 1.14 1.47 1.27 0.59 0.34 0.57 1.05 0.67 0.44 0.41 0.51 0.73 1.03 1.18 1.17 1.25 1.28 1.22 1.18 1.17 1.15 1.12 1.06 0.93 0.81 0.78 0.77 0.70 0.64 0.60 0.54 0.47 0.43 0.42 0.44 0.45 0.46 0.44 0.42 0.38 0.34 0.32 0.33
0.84 1.14 1.34 0.69 0.36 0.40 0.99 1.26 0.84 0.63 0.57 0.63 0.86 0.94 0.80 0.77 0.90 0.99 0.99 0.97 0.92 0.89 0.91 0.88 0.77 0.72 0.73 0.70 0.65 0.52 0.44 0.44 0.44 0.43 0.42 0.40 0.41 0.43 0.41 0.37 0.37 0.35 0.36 0.35
0.92 1.23 1.35 0.53 0.39 0.72 0.85 0.62 0.62 0.63 0.65 0.68 0.67 0.59 0.54 0.56 0.71 0.90 1.01 1.02 0.94 0.86 0.78 0.69 0.65 0.70 0.73 0.66 0.49 0.40 0.39 0.42 0.44 0.41 0.35 0.32 0.39 0.43 0.38 0.40 0.41 0.42 0.41 0.36
0.96 1.10 0.79 0.42 0.40 0.39 0.37 0.40 0.41 0.42 0.46 0.53 0.59 0.58 0.54 0.60 0.71 0.82 0.92 0.96 0.91 0.78 0.68 0.56 0.52 0.56 0.59 0.48 0.34 0.32 0.39 0.45 0.44 0.38 0.39 0.36 0.37 0.38 0.37 0.38 0.35 0.33 0.34 0.32
0.81 0.79 0.55 0.41 0.31 0.26 0.27 0.33 0.34 0.36 0.40 0.52 0.70 0.73 0.68 0.69 0.78 0.82 0.81 0.74 0.67 0.63 0.57 0.47 0.39 0.37 0.35 0.27 0.26 0.31 0.39 0.41 0.40 0.41 0.42 0.42 0.38 0.28 0.26 0.28 0.26 0.25 0.28 0.30
1.07 0.96 0.71 0.48 0.34 0.32 0.30 0.33 0.40 0.48 0.51 0.56 0.62 0.68 0.70 0.69 0.68 0.63 0.58 0.53 0.50 0.51 0.48 0.35 0.28 0.25 0.20 0.18 0.22 0.30 0.33 0.35 0.35 0.36 0.37 0.43 0.38 0.23 0.16 0.14 0.11 0.15 0.20 0.22
1.37 1.05 0.89 0.69 0.51 0.49 0.47 0.46 0.47 0.46 0.45 0.48 0.46 0.46 0.53 0.55 0.53 0.46 0.42 0.42 0.43 0.41 0.37 0.29 0.25 0.22 0.17 0.14 0.18 0.28 0.31 0.28 0.22 0.21 0.25 0.27 0.31 0.27 0.14 0.06 0.04 0.05 0.07 0.10
1.03 0.79 0.70 0.67 0.61 0.58 0.51 0.40 0.36 0.33 0.29 0.34 0.36 0.35 0.37 0.37 0.35 0.32 0.31 0.31 0.33 0.28 0.23 0.23 0.20 0.17 0.15 0.14 0.14 0.19 0.25 0.22 0.14 0.11 0.15 0.19 0.22 0.29 0.28 0.15 0.06 0.04 0.03 0.05
0.68 0.64 0.62 0.49 0.36 0.29 0.22 0.19 0.20 0.23 0.23 0.22 0.24 0.24 0.24 0.24 0.23 0.23 0.23 0.23 0.21 0.17 0.14 0.16 0.17 0.14 0.11 0.10 0.11 0.13 0.13 0.10 0.10 0.12 0.12 0.13 0.14 0.17 0.21 0.27 0.26 0.19 0.09 0.05
0.41 0.39 0.34 0.21 0.13 0.13 0.13 0.13 0.15 0.17 0.19 0.21 0.19 0.18 0.17 0.18 0.19 0.18 0.16 0.14 0.14 0.13 0.11 0.11 0.13 0.12 0.08 0.07 0.09 0.12 0.13 0.12 0.10 0.08 0.07 0.07 0.08 0.09 0.13 0.18 0.22 0.24 0.21 0.13
0.22 0.19 0.17 0.13 0.11 0.12 0.13 0.12 0.12 0.11 0.13 0.15 0.16 0.16 0.14 0.14 0.12 0.12 0.12 0.10 0.13 0.14 0.11 0.08 0.08 0.06 0.05 0.05 0.07 0.08 0.07 0.05 0.05 0.06 0.05 0.05 0.05 0.07 0.10 0.15 0.18 0.19 0.22 0.21
0.18 0.14 0.12 0.12 0.11 0.12 0.11 0.09 0.07 0.06 0.08 0.10 0.10 0.09 0.08 0.09 0.10 0.11 0.10 0.10 0.10 0.10 0.08 0.06 0.04 0.03 0.02 0.03 0.05 0.04 0.04 0.03 0.02 0.03 0.04 0.05 0.04 0.04 0.06 0.10 0.14 0.18 0.15 0.15
0.15 0.11 0.09 0.10 0.09 0.10 0.08 0.06 0.04 0.04 0.04 0.04 0.04 0.04 0.05 0.07 0.08 0.08 0.07 0.07 0.07 0.06 0.05 0.04 0.02 0.02 0.02 0.03 0.02 0.01 0.03 0.02 0.03 0.03 0.04 0.04 0.04 0.03 0.04 0.05 0.08 0.13 0.14 0.13
0.12 0.12 0.08 0.07 0.07 0.07 0.06 0.04 0.03 0.02 0.02 0.02 0.03 0.03 0.04 0.06 0.06 0.05 0.05 0.07 0.08 0.08 0.06 0.02 0.01 0.02 0.03 0.02 0.02 0.02 0.02 0.02 0.03 0.03 0.03 0.03 0.03 0.04 0.04 0.03 0.05 0.09 0.11 0.14
0.10 0.11 0.09 0.06 0.05 0.04 0.04 0.02 0.02 0.02 0.02 0.02 0.02 0.02 0.03 0.04 0.03 0.03 0.04 0.07 0.09 0.06 0.04 0.01 0.01 0.01 0.01 0.01 0.01 0.01 0.01 0.01 0.02 0.03 0.03 0.03 0.04 0.04 0.03 0.03 0.03 0.05 0.08 0.11
0.09 0.11 0.07 0.05 0.05 0.05 0.03 0.02 0.02 0.02 0.02 0.01 0.01 0.02 0.02 0.02 0.02 0.02 0.03 0.05 0.05 0.03 0.02 0.01 0.01 0.00 0.00 0.01 0.00 0.00 0.01 0.02 0.03 0.02 0.02 0.02 0.03 0.03 0.03 0.03 0.03 0.04 0.05 0.08
0.09 0.11 0.08 0.05 0.06 0.04 0.03 0.03 0.02 0.02 0.02 0.01 0.01 0.01 0.02 0.02 0.02 0.02 0.02 0.02 0.02 0.02 0.02 0.01 0.00 0.00 0.00 0.00 0.00 0.00 0.01 0.01 0.02 0.02 0.01 0.01 0.02 0.02 0.02 0.03 0.04 0.04 0.04 0.07
0.12 0.11 0.08 0.06 0.05 0.04 0.04 0.03 0.02 0.03 0.02 0.02 0.02 0.01 0.01 0.01 0.02 0.02 0.02 0.01 0.00 0.01 0.01 0.01 0.00 0.00 0.00 0.00 0.00 0.00 0.01 0.01 0.01 0.01 0.01 0.01 0.01 0.01 0.02 0.02 0.03 0.03 0.04 0.05
0.16 0.13 0.10 0.06 0.06 0.06 0.05 0.03 0.02 0.02 0.03 0.02 0.01 0.01 0.01 0.01 0.01 0.01 0.00 0.00 0.00 0.01 0.01 0.00 0.00 0.00 0.00 0.00 0.00 0.00 0.00 0.00 0.00 0.00 0.01 0.01 0.01 0.01 0.01 0.01 0.02 0.03 0.04 0.03
0.21 0.17 0.11 0.10 0.10 0.09 0.07 0.04 0.03 0.02 0.02 0.02 0.01 0.01 0.01 0.01 0.01 0.00 0.00 0.00 0.01 0.01 0.01 0.01 0.01 0.01 0.01 0.00 0.00 0.00 0.00 0.00 0.00 0.00 0.00 0.00 0.00 0.01 0.01 0.02 0.02 0.03 0.03 0.03
0.27 0.23 0.18 0.14 0.11 0.08 0.05 0.05 0.04 0.04 0.03 0.03 0.02 0.02 0.02 0.01 0.00 0.00 0.00 0.01 0.01 0.02 0.01 0.00 0.01 0.01 0.01 0.00 0.00 0.00 0.00 0.00 0.00 0.00 0.00 0.00 0.00 0.01 0.01 0.02 0.03 0.03 0.03 0.03
0.33 0.29 0.24 0.16 0.09 0.06 0.07 0.08 0.06 0.05 0.04 0.04 0.04 0.03 0.02 0.01 0.01 0.01 0.01 0.01 0.01 0.01 0.01 0.00 0.01 0.01 0.01 0.00 0.00 0.00 0.01 0.01 0.01 0.01 0.01 0.01 0.01 0.01 0.01 0.02 0.03 0.04 0.04 0.03

GEFSNGP_prec_meanprecacc_180.txt.gz
Total_Precipitation_Accumulation
0.51 0.36 0.27 0.26 0.26 0.24 0.26 0.34 0.63 0.97 1.33 1.63 1.89 1.91 1.73 1.46 1.28 1.30 1.34 1.33 1.28 1.16 1.03 0.88 0.80 0.79 0.78 0.79 0.73 0.67 0.68 0.70 0.72 0.67 0.63 0.67 0.67 0.60 0.52 0.48 0.43 0.44 0.41 0.35
0.41 0.35 0.34 0.39 0.37 0.38 0.41 0.47 0.65 1.00 1.46 1.65 1.61 1.42 1.39 1.34 1.26 1.37 1.52 1.59 1.53 1.35 1.17 1.00 0.88 0.82 0.80 0.78 0.70 0.63 0.64 0.72 0.77 0.75 0.72 0.73 0.76 0.72 0.64 0.57 0.50 0.43 0.39 0.36
0.56 0.43 0.55 0.86 0.68 0.62 0.63 0.64 0.76 1.08 1.22 1.16 1.20 1.21 1.24 1.26 1.34 1.54 1.67 1.64 1.51 1.37 1.23 1.11 1.04 0.94 0.89 0.83 0.74 0.71 0.72 0.72 0.75 0.78 0.80 0.78 0.74 0.73 0.70 0.62 0.55 0.48 0.39 0.36
0.55 0.67 1.15 1.12 0.68 0.61 0.64 0.60 0.58 0.68 0.70 0.79 0.95 1.09 1.22 1.31 1.47 1.65 1.75 1.77 1.69 1.50 1.35 1.19 1.04 0.95 0.87 0.77 0.74 0.76 0.78 0.75 0.69 0.67 0.68 0.64 0.63 0.66 0.64 0.59 0.54 0.49 0.39 0.32
0.71 0.99 1.22 1.06 0.65 0.56 0.70 0.77 0.53 0.51 0.53 0.60 0.73 0.91 1.30 1.44 1.54 1.67 1.71 1.69 1.62 1.49 1.39 1.26 1.10 0.95 0.86 0.80 0.75 0.74 0.73 0.68 0.60 0.53 0.54 0.54 0.56 0.57 0.54 0.52 0.50 0.42 0.36 0.33
0.81 1.18 1.52 1.30 0.60 0.36 0.59 1.07 0.68 0.45 0.42 0.53 0.75 1.05 1.21 1.24 1.33 1.35 1.29 1.22 1.20 1.17 1.14 1.08 0.95 0.82 0.80 0.78 0.71 0.65 0.61 0.54 0.48 0.45 0.47 0.48 0.48 0.48 0.47 0.46 0.42 0.35 0.33 0.33
0.88 1.19 1.38 0.73 0.39 0.42 1.02 1.31 0.87 0.65 0.59 0.65 0.87 0.96 0.83 0.82 0.96 1.04 1.05 1.01 0.95 0.91 0.93 0.90 0.79 0.73 0.74 0.71 0.66 0.53 0.45 0.44 0.44 0.44 0.46 0.44 0.43 0.45 0.43 0.39 0.38 0.36 0.36 0.35
1.00 1.31 1.43 0.57 0.42 0.75 0.89 0.67 0.66 0.66 0.67 0.70 0.69 0.62 0.58 0.61 0.78 0.98 1.11 1.07 0.97 0.88 0.80 0.70 0.68 0.72 0.74 0.66 0.50 0.41 0.40 0.42 0.45 0.43 0.39 0.36 0.41 0.45 0.40 0.41 0.42 0.42 0.41 0.36
1.03 1.19 0.88 0.46 0.44 0.44 0.42 0.43 0.44 0.45 0.48 0.55 0.62 0.61 0.57 0.63 0.76 0.92 1.01 1.01 0.94 0.81 0.69 0.57 0.55 0.59 0.62 0.49 0.34 0.33 0.40 0.46 0.46 0.40 0.44 0.41 0.38 0.39 0.38 0.40 0.37 0.34 0.35 0.32
0.85 0.86 0.62 0.45 0.36 0.30 0.32 0.36 0.36 0.39 0.42 0.54 0.73 0.75 0.70 0.71 0.82 0.89 0.89 0.80 0.71 0.66 0.59 0.48 0.42 0.39 0.37 0.28 0.26 0.32 0.40 0.43 0.42 0.43 0.47 0.47 0.40 0.29 0.27 0.29 0.27 0.26 0.28 0.30
1.10 1.01 0.77 0.51 0.37 0.35 0.33 0.37 0.43 0.50 0.53 0.59 0.64 0.70 0.73 0.72 0.72 0.69 0.65 0.60 0.55 0.55 0.49 0.37 0.30 0.26 0.21 0.19 0.22 0.30 0.34 0.36 0.37 0.39 0.41 0.45 0.39 0.24 0.16 0.14 0.11 0.15 0.20 0.22
1.40 1.11 0.97 0.74 0.55 0.53 0.51 0.50 0.52 0.49 0.48 0.51 0.49 0.49 0.56 0.58 0.57 0.52 0.50 0.49 0.49 0.45 0.39 0.32 0.27 0.23 0.17 0.14 0.19 0.29 0.32 0.29 0.23 0.23 0.27 0.29 0.31 0.27 0.14 0.06 0.04 0.05 0.07 0.10
1.08 0.85 0.76 0.72 0.64 0.61 0.56 0.45 0.40 0.37 0.32 0.37 0.40 0.38 0.40 0.40 0.39 0.37 0.37 0.38 0.38 0.33 0.27 0.26 0.23 0.19 0.16 0.14 0.14 0.20 0.26 0.23 0.15 0.12 0.16 0.20 0.22 0.30 0.28 0.15 0.06 0.04 0.03 0.06
0.73 0.70 0.67 0.53 0.39 0.32 0.26 0.24 0.26 0.27 0.26 0.24 0.26 0.27 0.27 0.26 0.26 0.27 0.28 0.29 0.27 0.22 0.18 0.18 0.18 0.16 0.12 0.12 0.12 0.14 0.14 0.11 0.11 0.13 0.13 0.14 0.15 0.17 0.22 0.28 0.26 0.20 0.09 0.06
0.45 0.46 0.38 0.25 0.17 0.16 0.16 0.18 0.23 0.24 0.23 0.24 0.22 0.20 0.19 0.21 0.22 0.22 0.21 0.21 0.21 0.19 0.16 0.14 0.15 0.13 0.09 0.08 0.10 0.13 0.14 0.13 0.10 0.09 0.08 0.08 0.09 0.10 0.14 0.19 0.22 0.24 0.21 0.14
0.26 0.24 0.21 0.17 0.16 0.15 0.16 0.17 0.21 0.20 0.18 0.19 0.20 0.19 0.17 0.16 0.15 0.16 0.16 0.15 0.17 0.20 0.19 0.15 0.13 0.09 0.07 0.07 0.09 0.09 0.08 0.05 0.05 0.06 0.06 0.06 0.06 0.08 0.10 0.16 0.19 0.21 0.23 0.22
0.22 0.18 0.15 0.15 0.15 0.16 0.16 0.16 0.16 0.14 0.14 0.14 0.14 0.12 0.11 0.11 0.13 0.14 0.13 0.12 0.12 0.14 0.14 0.14 0.10 0.06 0.05 0.05 0.07 0.05 0.04 0.03 0.02 0.04 0.05 0.05 0.05 0.04 0.06 0.11 0.15 0.19 0.16 0.16
0.19 0.16 0.13 0.13 0.13 0.14 0.13 0.12 0.13 0.10 0.09 0.07 0.07 0.06 0.07 0.08 0.10 0.11 0.10 0.09 0.08 0.09 0.09 0.08 0.07 0.05 0.04 0.04 0.04 0.03 0.03 0.03 0.03 0.03 0.04 0.04 0.04 0.04 0.04 0.05 0.08 0.14 0.14 0.14
0.17 0.16 0.11 0.10 0.10 0.11 0.10 0.09 0.09 0.06 0.05 0.05 0.05 0.05 0.05 0.07 0.08 0.07 0.07 0.08 0.10 0.10 0.09 0.06 0.05 0.05 0.05 0.04 0.04 0.03 0.02 0.03 0.03 0.03 0.03 0.03 0.04 0.05 0.04 0.04 0.05 0.10 0.11 0.14
0.13 0.15 0.11 0.08 0.07 0.08 0.09 0.08 0.06 0.05 0.04 0.04 0.04 0.04 0.04 0.05 0.06 0.05 0.06 0.08 0.09 0.06 0.05 0.05 0.06 0.05 0.04 0.03 0.03 0.02 0.02 0.02 0.03 0.03 0.03 0.04 0.05 0.05 0.04 0.03 0.04 0.06 0.09 0.12
0.11 0.13 0.09 0.06 0.07 0.08 0.07 0.06 0.05 0.05 0.04 0.03 0.03 0.03 0.04 0.04 0.04 0.03 0.04 0.06 0.05 0.04 0.04 0.03 0.04 0.04 0.03 0.03 0.02 0.02 0.02 0.02 0.03 0.03 0.02 0.02 0.03 0.04 0.03 0.03 0.04 0.05 0.06 0.09
0.11 0.13 0.09 0.07 0.09 0.09 0.06 0.06 0.05 0.04 0.04 0.03 0.03 0.04 0.04 0.04 0.03 0.03 0.02 0.03 0.02 0.02 0.04 0.04 0.03 0.02 0.02 0.03 0.03 0.02 0.01 0.02 0.02 0.02 0.02 0.01 0.02 0.02 0.02 0.03 0.04 0.04 0.05 0.07
0.15 0.12 0.09 0.08 0.09 0.09 0.07 0.06 0.05 0.05 0.05 0.04 0.05 0.05 0.04 0.03 0.02 0.02 0.02 0.01 0.01 0.01 0.02 0.04 0.04 0.03 0.02 0.02 0.02 0.02 0.01 0.01 0.01 0.01 0.01 0.01 0.01 0.01 0.02 0.02 0.03 0.03 0.05 0.06
0.18 0.15 0.12 0.08 0.09 0.10 0.09 0.07 0.05 0.05 0.05 0.05 0.05 0.03 0.03 0.02 0.02 0.01 0.01 0.00 0.00 0.01 0.01 0.01 0.04 0.03 0.03 0.02 0.01 0.02 0.01 0.01 0.01 0.01 0.01 0.01 0.01 0.01 0.01 0.01 0.02 0.03 0.04 0.04
0.24 0.19 0.13 0.12 0.14 0.13 0.10 0.07 0.06 0.05 0.05 0.05 0.04 0.02 0.02 0.01 0.01 0.01 0.00 0.01 0.01 0.01 0.01 0.01 0.02 0.03 0.03 0.02 0.01 0.01 0.01 0.01 0.01 0.01 0.00 0.00 0.00 0.01 0.01 0.02 0.02 0.03 0.03 0.03
0.32 0.27 0.21 0.17 0.15 0.12 0.09 0.09 0.08 0.07 0.07 0.06 0.04 0.02 0.02 0.01 0.01 0.01 0.00 0.01 0.01 0.02 0.01 0.00 0.01 0.02 0.03 0.02 0.01 0.01 0.01 0.01 0.01 0.01 0.01 0.01 0.01 0.01 0.01 0.02 0.03 0.03 0.03 0.03
0.38 0.33 0.28 0.19 0.12 0.10 0.11 0.11 0.09 0.07 0.06 0.06 0.06 0.04 0.02 0.01 0.01 0.01 0.01 0.01 0.01 0.02 0.01 0.01 0.01 0.01 0.01 0.01 0.02 0.01 0.01 0.01 0.02 0.02 0.01 0.01 0.01 0.01 0.02 0.02 0.03 0.04 0.04 0.03

GEFSNGP_prec_meanprecacc_186.txt.gz
Total_Precipitation_Accumulation
0.52 0.37 0.28 0.27 0.26 0.25 0.27 0.34 0.64 0.97 1.34 1.64 1.90 1.92 1.75 1.50 1.32 1.33 1.37 1.36 1.30 1.18 1.06 0.90 0.81 0.80 0.80 0.81 0.76 0.71 0.73 0.76 0.81 0.75 0.70 0.73 0.73 0.65 0.56 0.51 0.46 0.46 0.43 0.39
0.41 0.35 0.34 0.40 0.38 0.38 0.41 0.48 0.66 1.00 1.46 1.65 1.62 1.42 1.39 1.36 1.29 1.40 1.54 1.61 1.56 1.38 1.20 1.02 0.89 0.83 0.81 0.80 0.72 0.65 0.69 0.80 0.84 0.83 0.80 0.81 0.83 0.78 0.69 0.60 0.54 0.46 0.42 0.39
0.57 0.44 0.56 0.87 0.69 0.62 0.63 0.64 0.77 1.08 1.23 1.17 1.21 1.22 1.25 1.27 1.36 1.56 1.70 1.67 1.54 1.40 1.26 1.13 1.06 0.95 0.89 0.84 0.75 0.72 0.74 0.77 0.81 0.83 0.87 0.85 0.81 0.78 0.73 0.66 0.59 0.52 0.43 0.42
0.56 0.67 1.15 1.13 0.69 0.61 0.65 0.61 0.58 0.68 0.71 0.80 0.96 1.11 1.24 1.33 1.49 1.68 1.78 1.80 1.72 1.53 1.38 1.22 1.06 0.96 0.87 0.78 0.75 0.78 0.80 0.77 0.72 0.70 0.71 0.67 0.66 0.70 0.68 0.65 0.60 0.54 0.46 0.41
0.72 0.99 1.22 1.07 0.65 0.57 0.70 0.79 0.54 0.52 0.53 0.61 0.74 0.92 1.31 1.46 1.56 1.71 1.76 1.72 1.64 1.51 1.42 1.30 1.13 0.98 0.88 0.82 0.76 0.76 0.75 0.70 0.61 0.55 0.56 0.55 0.58 0.60 0.58 0.59 0.55 0.48 0.42 0.40
0.82 1.19 1.53 1.31 0.61 0.37 0.61 1.09 0.69 0.45 0.42 0.54 0.76 1.06 1.23 1.26 1.35 1.37 1.33 1.25 1.23 1.20 1.17 1.11 0.99 0.86 0.84 0.81 0.72 0.66 0.62 0.56 0.49 0.46 0.48 0.50 0.50 0.54 0.52 0.50 0.43 0.37 0.35 0.36
0.90 1.20 1.40 0.73 0.40 0.43 1.04 1.32 0.88 0.65 0.59 0.66 0.89 0.98 0.85 0.84 0.99 1.06 1.09 1.05 0.99 0.95 0.97 0.94 0.83 0.78 0.78 0.73 0.67 0.54 0.46 0.45 0.45 0.45 0.48 0.46 0.46 0.49 0.48 0.41 0.39 0.37 0.37 0.36
1.02 1.34 1.46 0.58 0.43 0.77 0.90 0.68 0.67 0.66 0.68 0.71 0.71 0.63 0.59 0.63 0.80 1.01 1.14 1.11 1.01 0.93 0.85 0.76 0.73 0.77 0.78 0.69 0.51 0.42 0.40 0.43 0.45 0.44 0.41 0.39 0.44 0.48 0.42 0.42 0.42 0.43 0.43 0.37
1.05 1.21 0.91 0.48 0.46 0.45 0.43 0.44 0.45 0.46 0.49 0.56 0.63 0.62 0.58 0.65 0.78 0.95 1.04 1.04 0.98 0.85 0.74 0.62 0.60 0.66 0.67 0.53 0.35 0.33 0.41 0.46 0.46 0.41 0.47 0.45 0.42 0.41 0.39 0.40 0.37 0.35 0.35 0.33
0.88 0.88 0.64 0.46 0.37 0.31 0.32 0.37 0.37 0.40 0.44 0.56 0.75 0.78 0.72 0.73 0.83 0.90 0.91 0.83 0.74 0.70 0.63 0.53 0.47 0.45 0.42 0.31 0.28 0.32 0.41 0.44 0.43 0.45 0.52 0.51 0.43 0.30 0.27 0.29 0.27 0.26 0.29 0.31
1.12 1.02 0.78 0.52 0.38 0.35 0.33 0.38 0.44 0.51 0.55 0.61 0.67 0.74 0.75 0.74 0.74 0.71 0.66 0.62 0.57 0.58 0.54 0.42 0.36 0.33 0.26 0.22 0.25 0.32 0.35 0.38 0.39 0.43 0.46 0.48 0.40 0.24 0.17 0.15 0.12 0.15 0.20 0.22
1.43 1.13 1.00 0.75 0.56 0.54 0.51 0.51 0.52 0.51 0.49 0.53 0.52 0.52 0.58 0.60 0.58 0.53 0.51 0.51 0.51 0.48 0.44 0.37 0.33 0.30 0.23 0.18 0.21 0.31 0.34 0.31 0.27 0.29 0.31 0.30 0.32 0.27 0.15 0.06 0.05 0.05 0.07 0.10
1.11 0.88 0.79 0.74 0.65 0.61 0.56 0.46 0.41 0.38 0.34 0.39 0.42 0.41 0.41 0.41 0.40 0.39 0.38 0.39 0.40 0.36 0.31 0.32 0.28 0.24 0.21 0.18 0.17 0.23 0.29 0.27 0.20 0.17 0.19 0.21 0.23 0.30 0.28 0.16 0.06 0.04 0.04 0.06
0.75 0.71 0.68 0.54 0.40 0.32 0.26 0.24 0.26 0.28 0.27 0.25 0.27 0.28 0.28 0.27 0.28 0.29 0.30 0.31 0.29 0.25 0.22 0.23 0.23 0.19 0.16 0.14 0.15 0.18 0.18 0.15 0.15 0.16 0.15 0.15 0.15 0.18 0.22 0.28 0.26 0.20 0.10 0.07
0.46 0.46 0.39 0.26 0.17 0.16 0.16 0.18 0.24 0.25 0.24 0.25 0.22 0.21 0.20 0.22 0.23 0.23 0.23 0.22 0.22 0.22 0.20 0.18 0.18 0.15 0.11 0.10 0.12 0.15 0.16 0.15 0.12 0.10 0.09 0.09 0.09 0.10 0.14 0.19 0.23 0.25 0.22 0.15
0.26 0.24 0.21 0.18 0.17 0.16 0.17 0.18 0.22 0.21 0.20 0.20 0.21 0.20 0.18 0.17 0.16 0.17 0.17 0.17 0.20 0.23 0.22 0.19 0.16 0.11 0.08 0.08 0.10 0.10 0.08 0.06 0.07 0.07 0.07 0.06 0.06 0.08 0.11 0.16 0.19 0.21 0.24 0.22
0.24 0.20 0.17 0.17 0.16 0.17 0.16 0.17 0.18 0.16 0.15 0.15 0.15 0.13 0.12 0.12 0.14 0.15 0.15 0.14 0.15 0.16 0.16 0.16 0.12 0.07 0.06 0.06 0.08 0.06 0.05 0.04 0.04 0.04 0.05 0.05 0.05 0.05 0.07 0.11 0.16 0.20 0.17 0.16
0.21 0.19 0.16 0.16 0.15 0.15 0.14 0.13 0.14 0.12 0.10 0.08 0.08 0.07 0.08 0.09 0.11 0.11 0.11 0.11 0.10 0.10 0.10 0.10 0.08 0.06 0.05 0.05 0.05 0.04 0.04 0.03 0.03 0.04 0.05 0.04 0.04 0.04 0.04 0.06 0.09 0.14 0.15 0.15
0.20 0.19 0.14 0.13 0.12 0.13 0.12 0.11 0.10 0.08 0.06 0.06 0.05 0.06 0.06 0.08 0.08 0.08 0.08 0.10 0.12 0.11 0.10 0.07 0.06 0.06 0.05 0.05 0.04 0.04 0.03 0.03 0.04 0.04 0.03 0.03 0.04 0.05 0.05 0.04 0.06 0.10 0.12 0.15
0.16 0.17 0.14 0.10 0.09 0.10 0.10 0.09 0.07 0.06 0.05 0.05 0.04 0.04 0.05 0.06 0.06 0.06 0.07 0.10 0.11 0.07 0.06 0.06 0.06 0.05 0.04 0.04 0.04 0.04 0.03 0.02 0.03 0.03 0.03 0.04 0.05 0.05 0.04 0.03 0.04 0.06 0.09 0.12
0.13 0.14 0.11 0.08 0.10 0.11 0.10 0.09 0.07 0.06 0.05 0.04 0.03 0.04 0.05 0.05 0.05 0.05 0.06 0.07 0.06 0.05 0.05 0.04 0.04 0.04 0.04 0.04 0.04 0.04 0.04 0.04 0.04 0.03 0.03 0.03 0.03 0.04 0.03 0.03 0.04 0.05 0.07 0.10
0.13 0.15 0.11 0.09 0.11 0.11 0.09 0.09 0.07 0.05 0.05 0.04 0.04 0.04 0.05 0.04 0.03 0.04 0.04 0.03 0.03 0.03 0.04 0.04 0.03 0.03 0.03 0.04 0.04 0.04 0.04 0.04 0.03 0.03 0.02 0.02 0.02 0.02 0.02 0.03 0.04 0.05 0.06 0.08
0.16 0.14 0.12 0.11 0.11 0.10 0.09 0.07 0.06 0.06 0.06 0.05 0.05 0.05 0.05 0.04 0.03 0.03 0.03 0.01 0.01 0.01 0.02 0.04 0.04 0.03 0.03 0.03 0.03 0.04 0.04 0.04 0.03 0.02 0.02 0.02 0.01 0.01 0.02 0.02 0.03 0.04 0.05 0.06
0.20 0.17 0.14 0.11 0.10 0.11 0.10 0.08 0.06 0.06 0.06 0.06 0.05 0.05 0.04 0.03 0.03 0.02 0.01 0.01 0.01 0.01 0.01 0.02 0.04 0.03 0.03 0.02 0.02 0.03 0.03 0.03 0.02 0.02 0.02 0.01 0.01 0.01 0.01 0.01 0.02 0.03 0.04 0.04
0.26 0.21 0.15 0.14 0.15 0.14 0.11 0.08 0.07 0.06 0.06 0.06 0.05 0.04 0.03 0.02 0.02 0.01 0.01 0.01 0.01 0.01 0.01 0.01 0.02 0.03 0.03 0.02 0.02 0.02 0.02 0.02 0.01 0.01 0.01 0.01 0.01 0.01 0.01 0.02 0.02 0.03 0.03 0.04
0.33 0.29 0.23 0.19 0.16 0.13 0.10 0.09 0.08 0.08 0.08 0.07 0.05 0.03 0.03 0.02 0.01 0.01 0.01 0.01 0.02 0.02 0.01 0.01 0.01 0.02 0.03 0.02 0.02 0.02 0.02 0.01 0.01 0.02 0.02 0.01 0.01 0.01 0.01 0.02 0.03 0.03 0.03 0.03
0.39 0.35 0.30 0.20 0.13 0.11 0.12 0.12 0.11 0.09 0.07 0.07 0.06 0.04 0.03 0.02 0.01 0.01 0.02 0.01 0.01 0.02 0.01 0.01 0.01 0.01 0.01 0.01 0.02 0.02 0.01 0.01 0.02 0.02 0.02 0.01 0.01 0.02 0.02 0.03 0.03 0.04 0.04 0.03

GEFSNGP_prec_meanprecacc_192.txt.gz
Total_Precipitation_Accumulation
0.52 0.37 0.28 0.28 0.27 0.26 0.29 0.36 0.66 0.99 1.35 1.65 1.91 1.93 1.76 1.51 1.33 1.34 1.40 1.40 1.32 1.20 1.09 0.93 0.84 0.84 0.83 0.83 0.78 0.73 0.75 0.79 0.85 0.79 0.74 0.78 0.79 0.69 0.59 0.53 0.47 0.47 0.45 0.41
0.42 0.36 0.35 0.41 0.39 0.41 0.44 0.50 0.67 1.02 1.47 1.66 1.63 1.44 1.40 1.36 1.29 1.43 1.58 1.64 1.57 1.40 1.22 1.05 0.92 0.86 0.84 0.83 0.74 0.67 0.70 0.81 0.87 0.85 0.82 0.83 0.86 0.81 0.71 0.63 0.55 0.48 0.44 0.41
0.59 0.45 0.57 0.88 0.70 0.64 0.65 0.66 0.78 1.10 1.24 1.18 1.22 1.23 1.26 1.28 1.37 1.58 1.73 1.69 1.55 1.41 1.27 1.15 1.08 0.98 0.92 0.86 0.77 0.74 0.76 0.79 0.83 0.85 0.88 0.86 0.83 0.80 0.75 0.68 0.61 0.54 0.45 0.44
0.58 0.70 1.18 1.14 0.70 0.62 0.66 0.65 0.62 0.71 0.72 0.81 0.97 1.12 1.25 1.35 1.50 1.69 1.79 1.81 1.73 1.54 1.39 1.23 1.08 0.99 0.90 0.80 0.77 0.80 0.82 0.79 0.75 0.73 0.74 0.69 0.68 0.72 0.70 0.67 0.61 0.56 0.48 0.44
0.75 1.02 1.24 1.08 0.66 0.57 0.72 0.83 0.58 0.54 0.55 0.62 0.75 0.94 1.33 1.48 1.58 1.72 1.77 1.72 1.65 1.52 1.43 1.32 1.16 1.02 0.92 0.85 0.79 0.78 0.77 0.72 0.64 0.57 0.58 0.57 0.60 0.62 0.60 0.60 0.57 0.51 0.44 0.42
0.84 1.21 1.57 1.33 0.62 0.38 0.62 1.14 0.73 0.47 0.43 0.55 0.77 1.08 1.25 1.27 1.36 1.39 1.35 1.26 1.23 1.20 1.18 1.12 1.02 0.90 0.89 0.86 0.76 0.70 0.66 0.58 0.53 0.48 0.50 0.51 0.53 0.58 0.56 0.52 0.46 0.40 0.38 0.38
0.91 1.23 1.43 0.75 0.41 0.45 1.07 1.35 0.91 0.67 0.60 0.67 0.90 0.99 0.87 0.85 1.00 1.08 1.12 1.06 1.00 0.97 0.99 0.97 0.87 0.83 0.84 0.79 0.72 0.58 0.50 0.49 0.49 0.50 0.51 0.49 0.50 0.54 0.50 0.43 0.41 0.39 0.39 0.38
1.04 1.37 1.50 0.60 0.45 0.80 0.94 0.69 0.67 0.67 0.69 0.73 0.72 0.64 0.61 0.65 0.83 1.04 1.16 1.12 1.03 0.95 0.87 0.79 0.77 0.82 0.84 0.75 0.56 0.46 0.45 0.48 0.51 0.48 0.44 0.43 0.49 0.51 0.44 0.43 0.43 0.45 0.44 0.38
1.07 1.24 0.93 0.50 0.48 0.47 0.44 0.45 0.45 0.47 0.50 0.57 0.64 0.63 0.60 0.68 0.81 0.97 1.05 1.06 1.00 0.87 0.76 0.64 0.63 0.70 0.73 0.59 0.41 0.38 0.43 0.51 0.51 0.45 0.51 0.49 0.45 0.43 0.40 0.41 0.38 0.36 0.37 0.34
0.90 0.89 0.65 0.47 0.38 0.32 0.33 0.37 0.38 0.41 0.45 0.56 0.75 0.78 0.74 0.75 0.85 0.92 0.94 0.85 0.77 0.72 0.65 0.55 0.50 0.48 0.46 0.37 0.34 0.39 0.46 0.48 0.47 0.48 0.57 0.55 0.45 0.31 0.29 0.30 0.28 0.28 0.30 0.32
1.13 1.03 0.79 0.52 0.38 0.36 0.34 0.38 0.45 0.52 0.55 0.62 0.68 0.74 0.77 0.76 0.75 0.74 0.70 0.65 0.60 0.60 0.56 0.44 0.39 0.36 0.30 0.26 0.30 0.38 0.41 0.44 0.44 0.48 0.50 0.50 0.41 0.26 0.18 0.16 0.13 0.16 0.21 0.23
1.43 1.14 1.01 0.76 0.57 0.54 0.52 0.52 0.53 0.52 0.50 0.54 0.53 0.53 0.59 0.61 0.60 0.55 0.53 0.53 0.53 0.50 0.46 0.39 0.35 0.33 0.28 0.22 0.25 0.35 0.40 0.37 0.33 0.34 0.34 0.32 0.34 0.28 0.15 0.07 0.05 0.05 0.07 0.11
1.11 0.89 0.80 0.74 0.65 0.62 0.57 0.46 0.41 0.38 0.34 0.39 0.43 0.41 0.42 0.42 0.42 0.41 0.40 0.41 0.42 0.37 0.33 0.34 0.31 0.28 0.25 0.23 0.21 0.26 0.34 0.34 0.26 0.21 0.22 0.22 0.25 0.31 0.29 0.16 0.07 0.05 0.05 0.07
0.76 0.72 0.69 0.54 0.40 0.33 0.26 0.25 0.26 0.28 0.27 0.26 0.28 0.29 0.29 0.28 0.29 0.30 0.32 0.33 0.30 0.26 0.24 0.25 0.26 0.23 0.20 0.20 0.19 0.21 0.23 0.20 0.18 0.19 0.17 0.17 0.17 0.19 0.23 0.29 0.27 0.21 0.11 0.08
0.46 0.47 0.40 0.26 0.18 0.17 0.16 0.18 0.24 0.26 0.24 0.25 0.23 0.22 0.21 0.22 0.24 0.25 0.26 0.25 0.24 0.23 0.22 0.21 0.22 0.19 0.15 0.14 0.14 0.18 0.19 0.18 0.15 0.13 0.11 0.10 0.10 0.11 0.15 0.20 0.24 0.25 0.22 0.15
0.27 0.25 0.22 0.18 0.17 0.16 0.17 0.18 0.23 0.22 0.20 0.21 0.22 0.20 0.18 0.18 0.17 0.19 0.21 0.20 0.22 0.24 0.24 0.20 0.18 0.14 0.10 0.10 0.12 0.12 0.10 0.08 0.08 0.09 0.08 0.07 0.07 0.10 0.13 0.18 0.21 0.22 0.24 0.23
0.25 0.22 0.18 0.18 0.17 0.17 0.17 0.17 0.18 0.16 0.16 0.16 0.16 0.14 0.12 0.13 0.15 0.18 0.17 0.16 0.17 0.19 0.18 0.17 0.13 0.09 0.08 0.07 0.09 0.08 0.07 0.05 0.05 0.07 0.06 0.06 0.06 0.07 0.08 0.12 0.17 0.21 0.17 0.17
0.23 0.21 0.17 0.18 0.16 0.17 0.15 0.14 0.15 0.13 0.11 0.09 0.08 0.08 0.09 0.11 0.14 0.15 0.13 0.13 0.12 0.12 0.12 0.11 0.09 0.07 0.06 0.06 0.06 0.05 0.06 0.05 0.06 0.06 0.06 0.05 0.05 0.06 0.06 0.07 0.10 0.16 0.16 0.15
0.21 0.20 0.15 0.14 0.13 0.14 0.13 0.12 0.11 0.09 0.08 0.07 0.06 0.06 0.07 0.10 0.11 0.11 0.10 0.12 0.14 0.13 0.11 0.08 0.07 0.07 0.06 0.05 0.05 0.05 0.04 0.05 0.06 0.05 0.05 0.04 0.05 0.06 0.06 0.06 0.07 0.11 0.13 0.15
0.16 0.18 0.15 0.11 0.10 0.11 0.11 0.10 0.08 0.07 0.07 0.06 0.05 0.06 0.07 0.08 0.08 0.08 0.09 0.11 0.12 0.09 0.08 0.08 0.08 0.06 0.05 0.04 0.04 0.04 0.04 0.03 0.05 0.06 0.05 0.05 0.05 0.05 0.04 0.04 0.04 0.07 0.10 0.12
0.13 0.15 0.11 0.09 0.11 0.12 0.12 0.10 0.09 0.07 0.06 0.05 0.05 0.06 0.07 0.07 0.06 0.06 0.06 0.08 0.08 0.06 0.06 0.05 0.05 0.05 0.04 0.04 0.04 0.04 0.04 0.04 0.04 0.04 0.05 0.05 0.04 0.04 0.04 0.04 0.05 0.06 0.07 0.10
0.14 0.16 0.12 0.10 0.14 0.14 0.13 0.12 0.09 0.07 0.06 0.06 0.05 0.05 0.06 0.06 0.05 0.05 0.04 0.04 0.04 0.05 0.07 0.06 0.04 0.03 0.03 0.04 0.04 0.04 0.04 0.04 0.03 0.03 0.03 0.03 0.03 0.03 0.03 0.04 0.05 0.05 0.06 0.08
0.19 0.16 0.12 0.12 0.13 0.15 0.13 0.10 0.08 0.08 0.07 0.06 0.06 0.06 0.06 0.04 0.04 0.04 0.04 0.02 0.02 0.03 0.05 0.06 0.05 0.04 0.03 0.03 0.03 0.04 0.04 0.04 0.03 0.03 0.03 0.03 0.03 0.03 0.03 0.03 0.04 0.04 0.05 0.06
0.23 0.19 0.15 0.12 0.13 0.15 0.13 0.09 0.07 0.07 0.07 0.06 0.06 0.06 0.05 0.04 0.04 0.03 0.02 0.03 0.03 0.02 0.02 0.03 0.05 0.04 0.03 0.02 0.02 0.03 0.04 0.03 0.02 0.02 0.02 0.02 0.02 0.03 0.02 0.02 0.02 0.03 0.04 0.04
0.28 0.23 0.17 0.15 0.17 0.17 0.13 0.09 0.07 0.07 0.06 0.07 0.05 0.05 0.04 0.03 0.03 0.02 0.03 0.03 0.04 0.04 0.03 0.02 0.02 0.04 0.04 0.02 0.02 0.03 0.03 0.02 0.02 0.02 0.02 0.02 0.02 0.01 0.02 0.02 0.03 0.03 0.03 0.04
0.35 0.31 0.24 0.20 0.18 0.15 0.11 0.10 0.09 0.08 0.09 0.08 0.06 0.04 0.04 0.03 0.02 0.02 0.03 0.03 0.04 0.04 0.03 0.02 0.01 0.02 0.03 0.02 0.02 0.02 0.02 0.02 0.02 0.02 0.02 0.02 0.02 0.01 0.01 0.02 0.03 0.03 0.03 0.03
0.41 0.36 0.31 0.21 0.15 0.12 0.12 0.13 0.11 0.09 0.08 0.08 0.08 0.06 0.04 0.03 0.02 0.02 0.03 0.03 0.03 0.03 0.03 0.02 0.02 0.02 0.01 0.01 0.02 0.02 0.02 0.02 0.02 0.02 0.02 0.01 0.01 0.02 0.03 0.03 0.04 0.04 0.04 0.04

GEFSNGP_prec_meanprecacc_198.txt.gz
Total_Precipitation_Accumulation
0.54 0.37 0.29 0.29 0.28 0.27 0.29 0.39 0.70 1.06 1.44 1.73 1.98 2.01 1.87 1.56 1.35 1.36 1.42 1.42 1.35 1.23 1.12 0.96 0.87 0.88 0.88 0.86 0.81 0.78 0.80 0.83 0.90 0.85 0.82 0.87 0.90 0.80 0.68 0.59 0.52 0.51 0.48 0.43
0.44 0.36 0.35 0.43 0.40 0.42 0.45 0.52 0.70 1.05 1.53 1.72 1.69 1.49 1.47 1.43 1.32 1.44 1.59 1.66 1.59 1.42 1.25 1.07 0.96 0.92 0.90 0.86 0.77 0.71 0.74 0.85 0.91 0.90 0.88 0.89 0.94 0.89 0.79 0.69 0.61 0.52 0.47 0.44
0.62 0.46 0.59 0.93 0.72 0.66 0.66 0.68 0.80 1.13 1.28 1.22 1.27 1.26 1.30 1.33 1.40 1.60 1.76 1.72 1.57 1.43 1.29 1.17 1.11 1.02 0.99 0.92 0.81 0.78 0.80 0.83 0.88 0.90 0.95 0.95 0.92 0.88 0.84 0.74 0.66 0.58 0.48 0.48
0.62 0.74 1.26 1.20 0.72 0.65 0.69 0.69 0.65 0.75 0.77 0.85 1.01 1.15 1.29 1.38 1.53 1.72 1.83 1.85 1.77 1.57 1.42 1.26 1.11 1.02 0.94 0.87 0.82 0.84 0.85 0.83 0.78 0.77 0.79 0.77 0.81 0.86 0.81 0.74 0.66 0.59 0.51 0.48
0.81 1.07 1.30 1.13 0.70 0.61 0.76 0.88 0.63 0.57 0.57 0.65 0.77 0.96 1.37 1.51 1.60 1.75 1.81 1.75 1.68 1.55 1.46 1.34 1.18 1.04 0.95 0.89 0.83 0.81 0.80 0.75 0.67 0.62 0.64 0.63 0.68 0.75 0.73 0.70 0.62 0.54 0.47 0.47
0.89 1.28 1.65 1.40 0.64 0.39 0.66 1.20 0.78 0.51 0.45 0.56 0.80 1.12 1.29 1.30 1.38 1.41 1.38 1.29 1.27 1.24 1.21 1.15 1.04 0.93 0.92 0.90 0.80 0.73 0.68 0.61 0.56 0.53 0.56 0.58 0.61 0.67 0.66 0.64 0.53 0.44 0.41 0.42
0.95 1.29 1.51 0.79 0.42 0.46 1.12 1.43 0.95 0.70 0.62 0.69 0.93 1.02 0.89 0.87 1.01 1.10 1.14 1.09 1.03 1.00 1.02 1.00 0.89 0.86 0.88 0.85 0.77 0.62 0.52 0.51 0.52 0.55 0.57 0.56 0.61 0.65 0.60 0.53 0.49 0.44 0.43 0.42
1.09 1.44 1.56 0.62 0.46 0.85 1.01 0.74 0.70 0.69 0.71 0.74 0.73 0.66 0.63 0.66 0.84 1.05 1.18 1.14 1.05 0.98 0.92 0.84 0.80 0.85 0.88 0.79 0.61 0.49 0.47 0.51 0.54 0.54 0.51 0.50 0.58 0.63 0.55 0.52 0.50 0.50 0.49 0.43
1.13 1.31 0.98 0.52 0.50 0.52 0.51 0.49 0.49 0.49 0.52 0.58 0.65 0.65 0.62 0.69 0.83 0.98 1.07 1.08 1.03 0.90 0.80 0.69 0.67 0.74 0.76 0.63 0.45 0.41 0.46 0.55 0.56 0.52 0.59 0.58 0.55 0.53 0.51 0.50 0.44 0.41 0.41 0.38
0.92 0.91 0.67 0.50 0.42 0.38 0.39 0.41 0.41 0.43 0.46 0.58 0.77 0.80 0.75 0.76 0.87 0.95 0.97 0.89 0.81 0.76 0.69 0.59 0.55 0.53 0.50 0.40 0.38 0.43 0.52 0.54 0.53 0.56 0.66 0.64 0.53 0.42 0.38 0.37 0.33 0.32 0.34 0.35
1.15 1.04 0.79 0.55 0.43 0.43 0.40 0.41 0.46 0.54 0.57 0.63 0.70 0.76 0.78 0.77 0.77 0.76 0.73 0.69 0.63 0.63 0.59 0.48 0.42 0.39 0.32 0.29 0.34 0.44 0.48 0.51 0.52 0.54 0.58 0.59 0.48 0.33 0.27 0.21 0.17 0.20 0.24 0.26
1.45 1.15 1.02 0.77 0.58 0.57 0.54 0.53 0.54 0.53 0.51 0.55 0.54 0.55 0.61 0.64 0.63 0.58 0.58 0.56 0.55 0.53 0.49 0.41 0.37 0.36 0.30 0.25 0.30 0.42 0.46 0.43 0.39 0.40 0.40 0.39 0.38 0.33 0.20 0.10 0.07 0.07 0.09 0.13
1.13 0.90 0.81 0.75 0.66 0.64 0.59 0.47 0.42 0.39 0.35 0.40 0.44 0.43 0.45 0.45 0.45 0.43 0.44 0.44 0.45 0.40 0.36 0.36 0.33 0.30 0.28 0.26 0.26 0.32 0.40 0.40 0.31 0.27 0.27 0.26 0.28 0.34 0.31 0.18 0.08 0.06 0.06 0.08
0.76 0.73 0.70 0.55 0.41 0.34 0.28 0.26 0.27 0.29 0.27 0.26 0.29 0.31 0.31 0.31 0.31 0.33 0.36 0.37 0.33 0.28 0.26 0.27 0.28 0.26 0.23 0.23 0.25 0.28 0.28 0.24 0.24 0.26 0.22 0.20 0.20 0.21 0.25 0.31 0.29 0.21 0.12 0.09
0.47 0.48 0.41 0.27 0.19 0.18 0.17 0.19 0.24 0.26 0.25 0.26 0.23 0.23 0.22 0.24 0.26 0.27 0.30 0.29 0.27 0.26 0.24 0.23 0.24 0.22 0.18 0.17 0.20 0.25 0.25 0.22 0.20 0.18 0.15 0.13 0.13 0.14 0.18 0.23 0.26 0.26 0.23 0.16
0.27 0.26 0.22 0.18 0.18 0.17 0.18 0.18 0.23 0.22 0.21 0.21 0.22 0.21 0.19 0.18 0.18 0.21 0.24 0.24 0.25 0.27 0.26 0.22 0.21 0.17 0.14 0.13 0.15 0.17 0.15 0.12 0.13 0.13 0.10 0.09 0.10 0.13 0.17 0.21 0.24 0.24 0.26 0.24
0.25 0.22 0.18 0.18 0.18 0.18 0.18 0.18 0.19 0.17 0.16 0.16 0.16 0.14 0.13 0.14 0.16 0.20 0.20 0.19 0.20 0.21 0.20 0.19 0.16 0.12 0.11 0.11 0.12 0.11 0.10 0.10 0.09 0.08 0.07 0.07 0.08 0.09 0.11 0.15 0.19 0.22 0.18 0.17
0.23 0.21 0.18 0.19 0.17 0.18 0.16 0.15 0.15 0.13 0.12 0.10 0.09 0.09 0.10 0.12 0.15 0.17 0.15 0.15 0.14 0.14 0.15 0.14 0.12 0.10 0.09 0.09 0.09 0.07 0.08 0.09 0.08 0.07 0.08 0.08 0.08 0.08 0.09 0.10 0.13 0.18 0.17 0.16
0.21 0.21 0.16 0.15 0.14 0.14 0.13 0.12 0.11 0.10 0.09 0.08 0.07 0.07 0.08 0.11 0.13 0.13 0.13 0.14 0.16 0.16 0.14 0.10 0.09 0.10 0.09 0.08 0.09 0.08 0.07 0.08 0.08 0.06 0.06 0.06 0.08 0.08 0.09 0.09 0.10 0.13 0.14 0.17
0.17 0.18 0.15 0.12 0.11 0.11 0.12 0.10 0.08 0.08 0.08 0.07 0.06 0.07 0.08 0.09 0.09 0.10 0.11 0.14 0.14 0.11 0.10 0.09 0.09 0.08 0.08 0.07 0.07 0.07 0.06 0.06 0.07 0.07 0.06 0.06 0.07 0.07 0.06 0.06 0.07 0.09 0.11 0.13
0.14 0.16 0.12 0.09 0.11 0.13 0.12 0.11 0.10 0.09 0.09 0.08 0.07 0.08 0.08 0.08 0.08 0.07 0.08 0.10 0.09 0.08 0.08 0.06 0.07 0.08 0.07 0.07 0.06 0.06 0.06 0.05 0.05 0.05 0.05 0.06 0.06 0.06 0.05 0.05 0.06 0.08 0.09 0.11
0.15 0.17 0.13 0.11 0.14 0.15 0.14 0.13 0.11 0.09 0.08 0.08 0.08 0.08 0.08 0.08 0.07 0.06 0.06 0.06 0.06 0.06 0.08 0.08 0.07 0.06 0.06 0.06 0.05 0.05 0.05 0.05 0.04 0.04 0.04 0.04 0.04 0.04 0.03 0.05 0.06 0.07 0.08 0.10
0.19 0.17 0.13 0.12 0.14 0.16 0.15 0.12 0.11 0.10 0.10 0.09 0.08 0.08 0.08 0.06 0.07 0.07 0.06 0.04 0.04 0.04 0.07 0.09 0.08 0.06 0.05 0.04 0.04 0.04 0.05 0.04 0.04 0.03 0.03 0.03 0.03 0.03 0.03 0.03 0.04 0.06 0.08 0.08
0.23 0.20 0.16 0.12 0.14 0.17 0.17 0.14 0.11 0.10 0.10 0.09 0.08 0.07 0.08 0.08 0.07 0.06 0.04 0.03 0.03 0.03 0.04 0.05 0.06 0.05 0.04 0.03 0.03 0.04 0.04 0.03 0.03 0.02 0.03 0.03 0.02 0.03 0.02 0.02 0.03 0.04 0.05 0.05
0.29 0.24 0.17 0.16 0.19 0.20 0.19 0.15 0.12 0.10 0.10 0.10 0.08 0.08 0.08 0.08 0.07 0.05 0.03 0.03 0.04 0.05 0.03 0.03 0.03 0.04 0.04 0.02 0.02 0.03 0.03 0.02 0.02 0.02 0.02 0.02 0.02 0.02 0.02 0.03 0.03 0.03 0.04 0.04
0.36 0.32 0.25 0.21 0.19 0.19 0.17 0.16 0.12 0.11 0.12 0.12 0.10 0.09 0.08 0.06 0.05 0.03 0.03 0.03 0.05 0.05 0.03 0.03 0.03 0.03 0.03 0.03 0.02 0.03 0.03 0.03 0.02 0.02 0.02 0.02 0.02 0.02 0.02 0.02 0.03 0.04 0.04 0.03
0.42 0.38 0.33 0.23 0.17 0.16 0.17 0.17 0.13 0.11 0.10 0.11 0.10 0.08 0.06 0.04 0.04 0.03 0.03 0.04 0.04 0.04 0.03 0.03 0.03 0.03 0.03 0.02 0.03 0.03 0.03 0.03 0.03 0.02 0.02 0.01 0.02 0.02 0.03 0.03 0.04 0.05 0.05 0.04

GEFSNGP_prec_meanprecacc_204.txt.gz
Total_Precipitation_Accumulation
0.56 0.40 0.31 0.32 0.31 0.29 0.31 0.40 0.72 1.09 1.47 1.76 2.01 2.05 1.90 1.59 1.38 1.38 1.45 1.45 1.39 1.28 1.16 1.01 0.92 0.92 0.92 0.89 0.85 0.80 0.82 0.85 0.93 0.88 0.84 0.90 0.93 0.84 0.74 0.69 0.64 0.62 0.56 0.51
0.46 0.38 0.37 0.45 0.42 0.45 0.47 0.53 0.71 1.07 1.57 1.76 1.72 1.53 1.50 1.45 1.34 1.45 1.61 1.68 1.62 1.46 1.29 1.12 1.01 0.96 0.94 0.90 0.80 0.72 0.75 0.87 0.94 0.93 0.91 0.93 0.96 0.91 0.83 0.75 0.70 0.65 0.59 0.55
0.64 0.48 0.61 0.95 0.75 0.70 0.70 0.71 0.83 1.17 1.35 1.28 1.31 1.30 1.35 1.37 1.42 1.61 1.77 1.74 1.60 1.46 1.33 1.22 1.16 1.05 1.02 0.97 0.84 0.79 0.81 0.84 0.90 0.93 0.97 0.98 0.96 0.93 0.89 0.83 0.78 0.67 0.58 0.56
0.63 0.76 1.28 1.23 0.75 0.69 0.73 0.73 0.70 0.79 0.83 0.91 1.05 1.19 1.35 1.43 1.56 1.74 1.84 1.87 1.79 1.59 1.43 1.28 1.13 1.04 0.97 0.91 0.84 0.85 0.87 0.84 0.80 0.80 0.81 0.80 0.86 0.91 0.88 0.82 0.75 0.67 0.58 0.55
0.83 1.09 1.33 1.16 0.73 0.68 0.83 0.94 0.71 0.64 0.62 0.71 0.84 1.01 1.42 1.56 1.63 1.76 1.82 1.77 1.71 1.57 1.48 1.36 1.20 1.06 0.97 0.92 0.87 0.83 0.81 0.76 0.68 0.64 0.66 0.67 0.73 0.83 0.87 0.81 0.70 0.62 0.56 0.53
0.92 1.33 1.75 1.48 0.68 0.43 0.69 1.27 0.87 0.57 0.49 0.61 0.85 1.16 1.33 1.34 1.39 1.42 1.40 1.32 1.29 1.26 1.23 1.16 1.06 0.95 0.94 0.92 0.83 0.76 0.69 0.62 0.57 0.55 0.58 0.61 0.65 0.74 0.79 0.78 0.65 0.53 0.48 0.47
0.99 1.35 1.59 0.86 0.46 0.49 1.16 1.48 1.00 0.75 0.65 0.72 0.96 1.04 0.92 0.90 1.03 1.11 1.16 1.10 1.04 1.01 1.03 1.01 0.92 0.88 0.90 0.86 0.79 0.64 0.53 0.52 0.54 0.57 0.60 0.58 0.65 0.72 0.69 0.63 0.58 0.51 0.48 0.46
1.13 1.50 1.63 0.66 0.49 0.89 1.05 0.77 0.73 0.73 0.75 0.78 0.76 0.67 0.65 0.69 0.87 1.07 1.19 1.15 1.06 0.99 0.93 0.87 0.84 0.88 0.90 0.81 0.63 0.51 0.49 0.53 0.57 0.57 0.55 0.53 0.63 0.70 0.62 0.58 0.55 0.55 0.52 0.45
1.18 1.36 1.01 0.54 0.52 0.54 0.54 0.53 0.53 0.55 0.58 0.62 0.67 0.66 0.63 0.71 0.85 1.00 1.08 1.08 1.03 0.91 0.82 0.74 0.71 0.76 0.78 0.65 0.47 0.43 0.49 0.58 0.60 0.56 0.63 0.62 0.58 0.57 0.55 0.56 0.48 0.44 0.43 0.39
0.94 0.93 0.67 0.51 0.43 0.40 0.42 0.45 0.48 0.54 0.56 0.61 0.79 0.81 0.76 0.77 0.89 0.98 0.98 0.90 0.82 0.76 0.70 0.64 0.58 0.55 0.52 0.42 0.40 0.46 0.55 0.57 0.56 0.59 0.70 0.68 0.56 0.45 0.41 0.40 0.37 0.35 0.36 0.36
1.17 1.06 0.80 0.55 0.44 0.45 0.44 0.48 0.55 0.63 0.63 0.65 0.71 0.77 0.79 0.78 0.79 0.80 0.75 0.70 0.63 0.63 0.60 0.51 0.46 0.41 0.34 0.30 0.36 0.47 0.50 0.53 0.53 0.56 0.61 0.63 0.51 0.36 0.31 0.26 0.21 0.23 0.26 0.27
1.48 1.16 1.03 0.78 0.60 0.61 0.61 0.61 0.61 0.58 0.54 0.56 0.55 0.56 0.61 0.64 0.64 0.61 0.60 0.57 0.56 0.53 0.50 0.44 0.41 0.37 0.31 0.27 0.32 0.44 0.48 0.45 0.41 0.43 0.44 0.44 0.42 0.37 0.24 0.13 0.10 0.10 0.11 0.14
1.16 0.92 0.82 0.77 0.70 0.70 0.64 0.51 0.45 0.42 0.37 0.42 0.46 0.44 0.45 0.46 0.46 0.46 0.46 0.45 0.45 0.41 0.37 0.38 0.36 0.31 0.29 0.27 0.28 0.34 0.43 0.43 0.34 0.31 0.33 0.33 0.33 0.39 0.35 0.20 0.09 0.07 0.06 0.08
0.78 0.74 0.72 0.57 0.43 0.36 0.29 0.27 0.28 0.29 0.28 0.27 0.30 0.32 0.32 0.32 0.32 0.34 0.38 0.39 0.35 0.30 0.27 0.29 0.30 0.27 0.24 0.24 0.26 0.29 0.30 0.27 0.27 0.31 0.29 0.27 0.25 0.26 0.29 0.33 0.30 0.22 0.12 0.09
0.48 0.49 0.42 0.28 0.19 0.18 0.18 0.19 0.25 0.27 0.25 0.26 0.24 0.24 0.23 0.25 0.27 0.28 0.31 0.32 0.28 0.26 0.25 0.25 0.26 0.23 0.19 0.17 0.20 0.26 0.27 0.24 0.23 0.24 0.23 0.20 0.18 0.18 0.21 0.25 0.27 0.27 0.24 0.17
0.29 0.26 0.23 0.19 0.19 0.17 0.18 0.19 0.24 0.23 0.22 0.22 0.23 0.22 0.20 0.19 0.19 0.23 0.26 0.27 0.26 0.28 0.27 0.24 0.22 0.18 0.14 0.14 0.16 0.17 0.16 0.15 0.18 0.20 0.18 0.15 0.14 0.15 0.18 0.22 0.25 0.25 0.26 0.24
0.26 0.23 0.19 0.19 0.18 0.18 0.18 0.18 0.19 0.18 0.18 0.17 0.17 0.15 0.14 0.15 0.18 0.22 0.23 0.22 0.22 0.22 0.22 0.20 0.16 0.13 0.11 0.11 0.12 0.11 0.12 0.13 0.14 0.14 0.12 0.11 0.10 0.10 0.12 0.16 0.20 0.23 0.19 0.18
0.24 0.22 0.20 0.19 0.18 0.18 0.16 0.15 0.16 0.14 0.13 0.11 0.10 0.10 0.11 0.13 0.17 0.19 0.18 0.17 0.16 0.16 0.16 0.14 0.12 0.11 0.10 0.10 0.09 0.08 0.10 0.12 0.13 0.11 0.11 0.10 0.09 0.09 0.09 0.10 0.13 0.18 0.18 0.16
0.22 0.21 0.17 0.16 0.15 0.15 0.13 0.12 0.12 0.11 0.10 0.09 0.08 0.09 0.10 0.13 0.14 0.14 0.15 0.16 0.17 0.17 0.15 0.11 0.09 0.10 0.10 0.08 0.10 0.10 0.10 0.11 0.12 0.11 0.10 0.09 0.09 0.09 0.09 0.09 0.10 0.14 0.15 0.17
0.17 0.19 0.16 0.12 0.11 0.12 0.12 0.11 0.09 0.09 0.09 0.08 0.08 0.09 0.11 0.11 0.11 0.11 0.12 0.15 0.15 0.12 0.11 0.10 0.10 0.09 0.08 0.07 0.08 0.10 0.09 0.09 0.10 0.11 0.10 0.09 0.08 0.07 0.06 0.06 0.07 0.09 0.13 0.15
0.14 0.16 0.13 0.10 0.11 0.13 0.13 0.11 0.10 0.10 0.10 0.09 0.08 0.09 0.11 0.10 0.10 0.09 0.09 0.11 0.10 0.08 0.08 0.07 0.08 0.08 0.08 0.08 0.07 0.08 0.08 0.09 0.08 0.08 0.08 0.08 0.07 0.06 0.05 0.05 0.07 0.08 0.10 0.13
0.16 0.18 0.14 0.11 0.14 0.15 0.15 0.14 0.11 0.10 0.09 0.09 0.09 0.10 0.11 0.10 0.09 0.08 0.07 0.07 0.07 0.06 0.09 0.09 0.08 0.07 0.07 0.07 0.06 0.06 0.06 0.06 0.06 0.05 0.05 0.06 0.05 0.04 0.04 0.05 0.07 0.08 0.09 0.11
0.20 0.17 0.14 0.13 0.14 0.16 0.15 0.13 0.11 0.11 0.10 0.10 0.10 0.10 0.10 0.08 0.08 0.08 0.07 0.05 0.04 0.04 0.07 0.09 0.08 0.06 0.05 0.04 0.04 0.05 0.05 0.05 0.04 0.04 0.04 0.04 0.04 0.04 0.04 0.05 0.06 0.06 0.08 0.09
0.24 0.20 0.16 0.12 0.14 0.17 0.17 0.15 0.12 0.11 0.11 0.11 0.10 0.09 0.10 0.09 0.08 0.07 0.05 0.04 0.03 0.03 0.04 0.05 0.06 0.05 0.04 0.03 0.03 0.04 0.04 0.04 0.03 0.03 0.03 0.03 0.04 0.05 0.05 0.04 0.03 0.04 0.05 0.06
0.29 0.24 0.18 0.16 0.19 0.20 0.19 0.17 0.14 0.12 0.12 0.13 0.11 0.09 0.09 0.09 0.09 0.07 0.05 0.05 0.05 0.05 0.04 0.03 0.04 0.05 0.04 0.03 0.03 0.03 0.03 0.03 0.03 0.03 0.03 0.04 0.05 0.04 0.03 0.03 0.03 0.04 0.05 0.05
0.37 0.33 0.26 0.22 0.20 0.19 0.19 0.19 0.16 0.14 0.15 0.15 0.12 0.10 0.09 0.08 0.06 0.05 0.05 0.04 0.05 0.05 0.03 0.03 0.03 0.04 0.04 0.03 0.03 0.03 0.03 0.03 0.03 0.04 0.05 0.05 0.04 0.02 0.02 0.02 0.04 0.04 0.04 0.04
0.44 0.39 0.34 0.24 0.18 0.18 0.20 0.21 0.18 0.15 0.13 0.13 0.12 0.10 0.08 0.07 0.06 0.05 0.05 0.05 0.05 0.05 0.04 0.03 0.03 0.03 0.03 0.03 0.03 0.03 0.03 0.03 0.04 0.05 0.04 0.02 0.02 0.03 0.03 0.03 0.04 0.05 0.05 0.04

GEFSNGP_prec_meanprecacc_210.txt.gz
Total_Precipitation_Accumulation
0.58 0.41 0.33 0.32 0.31 0.29 0.31 0.40 0.73 1.10 1.49 1.77 2.02 2.07 1.92 1.61 1.40 1.40 1.46 1.46 1.40 1.29 1.19 1.04 0.95 0.95 0.94 0.90 0.85 0.81 0.82 0.87 0.95 0.90 0.87 0.93 0.96 0.87 0.78 0.73 0.69 0.68 0.61 0.55
0.48 0.39 0.38 0.45 0.43 0.45 0.48 0.54 0.71 1.07 1.58 1.77 1.73 1.54 1.51 1.46 1.35 1.46 1.62 1.69 1.63 1.47 1.30 1.13 1.02 0.98 0.96 0.91 0.81 0.74 0.77 0.89 0.96 0.95 0.93 0.95 0.98 0.94 0.87 0.80 0.77 0.72 0.66 0.60
0.65 0.48 0.61 0.96 0.76 0.70 0.71 0.71 0.84 1.17 1.36 1.29 1.32 1.30 1.36 1.38 1.43 1.62 1.77 1.75 1.61 1.47 1.34 1.23 1.17 1.07 1.04 0.99 0.86 0.81 0.82 0.86 0.92 0.95 0.99 0.99 0.97 0.95 0.92 0.91 0.88 0.77 0.66 0.62
0.63 0.76 1.29 1.24 0.76 0.70 0.74 0.74 0.71 0.80 0.84 0.93 1.06 1.20 1.36 1.44 1.57 1.75 1.85 1.88 1.80 1.61 1.45 1.29 1.14 1.04 0.99 0.94 0.86 0.86 0.88 0.85 0.82 0.82 0.84 0.82 0.87 0.93 0.92 0.88 0.81 0.75 0.66 0.61
0.83 1.09 1.33 1.17 0.74 0.68 0.84 0.94 0.72 0.65 0.63 0.73 0.85 1.02 1.44 1.57 1.64 1.77 1.84 1.79 1.73 1.60 1.49 1.37 1.20 1.07 0.99 0.94 0.88 0.84 0.82 0.77 0.70 0.65 0.68 0.68 0.76 0.86 0.92 0.86 0.76 0.68 0.63 0.60
0.93 1.33 1.76 1.49 0.68 0.44 0.70 1.28 0.88 0.59 0.50 0.62 0.86 1.18 1.35 1.36 1.41 1.43 1.41 1.34 1.33 1.28 1.24 1.17 1.07 0.98 0.96 0.95 0.85 0.76 0.70 0.64 0.59 0.57 0.60 0.63 0.68 0.78 0.83 0.83 0.71 0.58 0.52 0.52
0.99 1.35 1.59 0.87 0.47 0.50 1.17 1.49 1.01 0.76 0.66 0.73 0.97 1.06 0.93 0.91 1.04 1.12 1.17 1.13 1.07 1.03 1.04 1.02 0.93 0.91 0.94 0.90 0.81 0.65 0.54 0.53 0.55 0.58 0.61 0.60 0.68 0.76 0.73 0.67 0.64 0.56 0.51 0.48
1.14 1.50 1.64 0.67 0.49 0.90 1.06 0.78 0.74 0.73 0.75 0.79 0.77 0.69 0.65 0.70 0.87 1.08 1.21 1.18 1.09 1.02 0.96 0.89 0.85 0.90 0.93 0.84 0.65 0.53 0.50 0.54 0.58 0.58 0.56 0.55 0.65 0.72 0.64 0.61 0.59 0.57 0.55 0.48
1.18 1.36 1.02 0.55 0.53 0.55 0.54 0.53 0.53 0.55 0.59 0.63 0.68 0.67 0.64 0.71 0.85 1.02 1.10 1.10 1.05 0.94 0.85 0.77 0.73 0.77 0.80 0.67 0.48 0.44 0.49 0.58 0.60 0.57 0.64 0.64 0.60 0.59 0.58 0.59 0.50 0.46 0.46 0.43
0.94 0.93 0.68 0.51 0.44 0.40 0.42 0.46 0.48 0.54 0.57 0.62 0.79 0.82 0.76 0.78 0.90 0.99 1.00 0.91 0.83 0.77 0.71 0.65 0.59 0.57 0.54 0.43 0.41 0.47 0.55 0.57 0.56 0.60 0.70 0.69 0.58 0.47 0.44 0.43 0.39 0.37 0.39 0.38
1.18 1.06 0.80 0.56 0.44 0.45 0.44 0.49 0.55 0.63 0.64 0.66 0.72 0.77 0.79 0.78 0.80 0.81 0.77 0.71 0.64 0.64 0.60 0.51 0.47 0.43 0.36 0.33 0.38 0.47 0.50 0.53 0.53 0.56 0.61 0.63 0.52 0.38 0.33 0.28 0.23 0.25 0.28 0.29
1.48 1.17 1.04 0.79 0.60 0.61 0.61 0.61 0.61 0.59 0.55 0.57 0.56 0.57 0.62 0.65 0.65 0.63 0.62 0.58 0.56 0.54 0.51 0.44 0.42 0.39 0.34 0.29 0.33 0.44 0.49 0.46 0.41 0.44 0.45 0.44 0.43 0.39 0.26 0.15 0.12 0.11 0.12 0.15
1.17 0.94 0.85 0.79 0.71 0.71 0.65 0.51 0.45 0.42 0.38 0.42 0.46 0.45 0.46 0.47 0.47 0.48 0.48 0.46 0.46 0.42 0.38 0.39 0.37 0.33 0.31 0.29 0.29 0.35 0.43 0.43 0.35 0.32 0.34 0.33 0.34 0.41 0.37 0.23 0.11 0.08 0.07 0.09
0.78 0.75 0.73 0.58 0.44 0.37 0.30 0.27 0.28 0.30 0.28 0.27 0.30 0.32 0.33 0.33 0.34 0.36 0.39 0.40 0.35 0.31 0.28 0.30 0.31 0.28 0.25 0.25 0.27 0.30 0.30 0.27 0.27 0.32 0.30 0.28 0.27 0.28 0.31 0.36 0.32 0.23 0.13 0.09
0.48 0.49 0.42 0.28 0.20 0.19 0.18 0.19 0.25 0.27 0.26 0.27 0.24 0.25 0.24 0.26 0.28 0.29 0.32 0.33 0.29 0.27 0.26 0.26 0.27 0.24 0.19 0.18 0.21 0.27 0.27 0.24 0.24 0.26 0.25 0.22 0.20 0.20 0.23 0.27 0.29 0.29 0.25 0.18
0.29 0.27 0.23 0.19 0.19 0.17 0.18 0.19 0.24 0.24 0.22 0.23 0.24 0.22 0.20 0.20 0.20 0.24 0.27 0.27 0.27 0.29 0.28 0.26 0.23 0.19 0.15 0.14 0.16 0.18 0.16 0.15 0.18 0.21 0.19 0.17 0.17 0.19 0.20 0.25 0.26 0.26 0.27 0.25
0.27 0.23 0.20 0.19 0.18 0.18 0.18 0.18 0.19 0.18 0.18 0.18 0.17 0.16 0.14 0.15 0.18 0.23 0.24 0.23 0.23 0.23 0.23 0.21 0.18 0.14 0.12 0.12 0.13 0.12 0.12 0.13 0.15 0.15 0.13 0.13 0.13 0.13 0.14 0.18 0.21 0.24 0.19 0.18
0.24 0.23 0.20 0.20 0.18 0.18 0.17 0.15 0.16 0.14 0.13 0.11 0.10 0.11 0.12 0.14 0.17 0.20 0.20 0.18 0.16 0.17 0.17 0.16 0.14 0.11 0.10 0.11 0.10 0.09 0.11 0.13 0.13 0.12 0.12 0.12 0.11 0.11 0.11 0.12 0.14 0.19 0.18 0.17
0.22 0.22 0.17 0.16 0.16 0.15 0.14 0.13 0.12 0.11 0.10 0.09 0.09 0.10 0.11 0.14 0.15 0.15 0.16 0.17 0.18 0.18 0.16 0.13 0.11 0.11 0.11 0.10 0.10 0.11 0.11 0.12 0.13 0.12 0.10 0.10 0.10 0.11 0.11 0.11 0.12 0.15 0.16 0.18
0.18 0.19 0.16 0.12 0.11 0.12 0.13 0.11 0.09 0.09 0.10 0.09 0.09 0.10 0.11 0.12 0.12 0.12 0.14 0.16 0.16 0.12 0.11 0.11 0.10 0.10 0.10 0.10 0.10 0.11 0.10 0.10 0.11 0.13 0.12 0.10 0.10 0.10 0.09 0.09 0.10 0.10 0.13 0.16
0.15 0.16 0.13 0.10 0.11 0.13 0.13 0.12 0.11 0.10 0.11 0.10 0.10 0.11 0.12 0.11 0.11 0.10 0.11 0.12 0.11 0.08 0.09 0.08 0.08 0.09 0.09 0.09 0.09 0.10 0.10 0.10 0.10 0.10 0.09 0.09 0.09 0.09 0.08 0.09 0.09 0.09 0.10 0.13
0.16 0.18 0.14 0.11 0.14 0.15 0.15 0.14 0.12 0.10 0.10 0.09 0.10 0.11 0.12 0.11 0.10 0.09 0.08 0.08 0.07 0.07 0.09 0.09 0.08 0.07 0.08 0.08 0.08 0.08 0.07 0.07 0.07 0.06 0.06 0.06 0.07 0.07 0.07 0.08 0.09 0.09 0.09 0.12
0.21 0.18 0.14 0.13 0.15 0.16 0.15 0.13 0.11 0.11 0.11 0.10 0.10 0.11 0.11 0.10 0.09 0.09 0.08 0.06 0.05 0.05 0.07 0.10 0.08 0.07 0.06 0.06 0.05 0.06 0.06 0.06 0.06 0.06 0.05 0.05 0.06 0.07 0.07 0.07 0.07 0.07 0.08 0.09
0.25 0.21 0.17 0.13 0.14 0.17 0.17 0.15 0.12 0.11 0.11 0.12 0.11 0.10 0.10 0.10 0.10 0.08 0.06 0.05 0.04 0.04 0.04 0.06 0.07 0.06 0.05 0.03 0.03 0.05 0.05 0.05 0.04 0.04 0.04 0.04 0.05 0.07 0.06 0.05 0.04 0.04 0.05 0.06
0.30 0.25 0.18 0.17 0.19 0.21 0.20 0.17 0.15 0.13 0.12 0.14 0.12 0.11 0.11 0.11 0.10 0.08 0.07 0.06 0.06 0.06 0.04 0.03 0.04 0.05 0.05 0.03 0.03 0.04 0.04 0.04 0.03 0.03 0.04 0.05 0.06 0.05 0.04 0.04 0.03 0.04 0.05 0.06
0.38 0.33 0.26 0.22 0.20 0.20 0.19 0.19 0.17 0.15 0.16 0.16 0.13 0.11 0.11 0.10 0.08 0.06 0.06 0.05 0.06 0.06 0.04 0.03 0.03 0.04 0.04 0.04 0.03 0.03 0.04 0.03 0.03 0.04 0.05 0.05 0.04 0.03 0.02 0.03 0.04 0.04 0.04 0.04
0.45 0.40 0.34 0.24 0.18 0.18 0.21 0.22 0.19 0.16 0.14 0.15 0.14 0.12 0.10 0.09 0.07 0.07 0.06 0.06 0.05 0.06 0.04 0.03 0.04 0.04 0.03 0.03 0.04 0.04 0.03 0.04 0.05 0.05 0.04 0.03 0.03 0.03 0.03 0.03 0.04 0.05 0.05 0.04

GEFSNGP_prec_meanprecacc_216.txt.gz
Total_Precipitation_Accumulation
0.58 0.41 0.33 0.32 0.31 0.30 0.31 0.41 0.74 1.11 1.50 1.79 2.03 2.07 1.93 1.62 1.41 1.41 1.48 1.49 1.42 1.31 1.19 1.04 0.96 0.96 0.95 0.93 0.87 0.83 0.84 0.88 0.96 0.91 0.88 0.95 0.98 0.88 0.79 0.75 0.71 0.71 0.65 0.60
0.49 0.39 0.38 0.46 0.43 0.46 0.48 0.55 0.72 1.08 1.60 1.78 1.74 1.54 1.53 1.47 1.36 1.47 1.64 1.72 1.64 1.48 1.31 1.14 1.02 0.98 0.96 0.93 0.82 0.76 0.79 0.89 0.97 0.97 0.95 0.96 1.00 0.96 0.89 0.82 0.79 0.75 0.69 0.64
0.66 0.49 0.62 0.97 0.77 0.71 0.71 0.73 0.85 1.18 1.38 1.30 1.33 1.31 1.37 1.39 1.44 1.63 1.79 1.77 1.62 1.49 1.35 1.23 1.17 1.07 1.05 1.00 0.87 0.84 0.84 0.86 0.93 0.96 1.01 1.01 0.99 0.97 0.95 0.92 0.90 0.80 0.70 0.66
0.64 0.77 1.30 1.26 0.77 0.71 0.74 0.75 0.72 0.81 0.85 0.93 1.07 1.20 1.37 1.45 1.58 1.76 1.87 1.91 1.82 1.62 1.47 1.30 1.15 1.05 1.00 0.95 0.87 0.89 0.89 0.86 0.82 0.82 0.85 0.84 0.89 0.96 0.94 0.90 0.84 0.78 0.70 0.64
0.85 1.11 1.35 1.18 0.75 0.70 0.85 0.96 0.73 0.65 0.64 0.73 0.85 1.03 1.45 1.58 1.65 1.79 1.86 1.82 1.76 1.62 1.51 1.39 1.22 1.08 1.00 0.95 0.90 0.85 0.83 0.78 0.70 0.66 0.69 0.70 0.77 0.87 0.94 0.89 0.79 0.72 0.66 0.63
0.95 1.35 1.77 1.51 0.69 0.45 0.71 1.30 0.89 0.59 0.51 0.63 0.87 1.18 1.37 1.37 1.42 1.44 1.43 1.36 1.35 1.31 1.27 1.20 1.09 0.99 0.98 0.96 0.86 0.78 0.71 0.64 0.59 0.58 0.61 0.64 0.69 0.79 0.85 0.85 0.74 0.62 0.55 0.55
1.01 1.36 1.61 0.88 0.47 0.50 1.18 1.51 1.02 0.76 0.67 0.73 0.98 1.07 0.95 0.93 1.06 1.13 1.18 1.15 1.09 1.06 1.08 1.05 0.96 0.94 0.96 0.91 0.83 0.66 0.55 0.54 0.56 0.59 0.62 0.61 0.69 0.77 0.74 0.68 0.67 0.60 0.55 0.52
1.15 1.52 1.66 0.67 0.50 0.91 1.08 0.79 0.74 0.73 0.75 0.79 0.78 0.70 0.67 0.72 0.89 1.10 1.22 1.19 1.10 1.04 0.99 0.91 0.87 0.92 0.95 0.86 0.68 0.55 0.52 0.56 0.60 0.60 0.58 0.56 0.67 0.74 0.66 0.64 0.63 0.61 0.59 0.52
1.19 1.38 1.03 0.55 0.55 0.56 0.55 0.54 0.54 0.55 0.59 0.64 0.70 0.68 0.65 0.73 0.86 1.03 1.11 1.12 1.07 0.98 0.89 0.79 0.74 0.78 0.81 0.68 0.50 0.46 0.52 0.60 0.62 0.59 0.66 0.65 0.61 0.60 0.59 0.62 0.54 0.49 0.49 0.46
0.94 0.93 0.68 0.51 0.44 0.41 0.42 0.46 0.49 0.54 0.57 0.63 0.80 0.82 0.77 0.79 0.91 1.01 1.02 0.93 0.84 0.80 0.75 0.67 0.60 0.57 0.54 0.44 0.43 0.48 0.56 0.58 0.56 0.60 0.71 0.70 0.59 0.48 0.46 0.47 0.44 0.40 0.42 0.40
1.18 1.06 0.81 0.56 0.44 0.45 0.44 0.49 0.55 0.63 0.64 0.67 0.72 0.78 0.80 0.80 0.82 0.83 0.80 0.73 0.66 0.65 0.61 0.52 0.47 0.43 0.37 0.34 0.38 0.48 0.51 0.54 0.54 0.57 0.62 0.64 0.53 0.40 0.38 0.33 0.27 0.27 0.29 0.31
1.49 1.17 1.05 0.80 0.60 0.61 0.61 0.61 0.61 0.59 0.55 0.58 0.57 0.57 0.63 0.65 0.66 0.65 0.64 0.60 0.58 0.54 0.51 0.45 0.43 0.39 0.35 0.31 0.34 0.45 0.49 0.46 0.41 0.44 0.46 0.45 0.45 0.42 0.28 0.17 0.13 0.12 0.13 0.17
1.18 0.94 0.85 0.79 0.71 0.71 0.65 0.51 0.45 0.43 0.38 0.43 0.47 0.46 0.47 0.47 0.49 0.49 0.50 0.48 0.47 0.43 0.38 0.40 0.38 0.33 0.33 0.30 0.29 0.36 0.44 0.43 0.35 0.33 0.35 0.35 0.37 0.43 0.39 0.24 0.12 0.09 0.08 0.11
0.79 0.76 0.73 0.58 0.44 0.37 0.30 0.27 0.28 0.30 0.29 0.28 0.30 0.33 0.34 0.34 0.36 0.37 0.41 0.41 0.37 0.31 0.29 0.31 0.32 0.28 0.26 0.26 0.27 0.31 0.31 0.28 0.28 0.33 0.32 0.30 0.29 0.29 0.32 0.37 0.33 0.25 0.16 0.12
0.48 0.50 0.42 0.28 0.20 0.19 0.18 0.19 0.25 0.27 0.26 0.27 0.24 0.25 0.24 0.27 0.30 0.30 0.33 0.35 0.31 0.28 0.27 0.28 0.27 0.25 0.20 0.19 0.22 0.28 0.28 0.25 0.25 0.27 0.27 0.24 0.22 0.22 0.24 0.29 0.31 0.32 0.28 0.21
0.29 0.27 0.23 0.19 0.19 0.17 0.18 0.19 0.24 0.24 0.22 0.23 0.24 0.23 0.21 0.21 0.21 0.25 0.29 0.29 0.29 0.31 0.30 0.27 0.24 0.19 0.15 0.15 0.17 0.19 0.17 0.16 0.19 0.23 0.21 0.19 0.18 0.20 0.21 0.26 0.29 0.29 0.31 0.28
0.27 0.24 0.20 0.20 0.19 0.19 0.18 0.18 0.20 0.18 0.18 0.18 0.17 0.16 0.15 0.16 0.19 0.24 0.26 0.24 0.24 0.25 0.25 0.24 0.19 0.14 0.12 0.12 0.14 0.13 0.13 0.15 0.17 0.17 0.16 0.15 0.15 0.14 0.15 0.20 0.24 0.27 0.24 0.21
0.24 0.23 0.20 0.20 0.19 0.19 0.17 0.15 0.16 0.14 0.13 0.11 0.11 0.12 0.13 0.15 0.19 0.21 0.21 0.20 0.19 0.19 0.20 0.18 0.15 0.12 0.11 0.11 0.11 0.10 0.13 0.15 0.16 0.14 0.14 0.13 0.13 0.13 0.13 0.15 0.18 0.23 0.22 0.19
0.23 0.22 0.17 0.16 0.16 0.15 0.14 0.13 0.12 0.11 0.10 0.09 0.10 0.11 0.12 0.15 0.16 0.17 0.17 0.18 0.19 0.20 0.18 0.14 0.12 0.12 0.11 0.10 0.11 0.12 0.13 0.14 0.14 0.13 0.11 0.11 0.11 0.12 0.12 0.14 0.15 0.18 0.19 0.21
0.18 0.19 0.16 0.12 0.11 0.12 0.13 0.11 0.09 0.10 0.10 0.09 0.10 0.10 0.12 0.13 0.13 0.14 0.15 0.17 0.17 0.13 0.12 0.12 0.11 0.11 0.11 0.11 0.11 0.12 0.12 0.12 0.13 0.14 0.13 0.11 0.11 0.10 0.09 0.10 0.12 0.13 0.16 0.18
0.15 0.16 0.13 0.10 0.11 0.13 0.13 0.12 0.11 0.10 0.11 0.10 0.10 0.11 0.12 0.12 0.12 0.13 0.12 0.13 0.12 0.10 0.09 0.09 0.09 0.10 0.11 0.11 0.10 0.10 0.11 0.11 0.11 0.11 0.11 0.11 0.10 0.09 0.08 0.09 0.10 0.11 0.12 0.14
0.16 0.18 0.14 0.11 0.14 0.16 0.15 0.14 0.12 0.10 0.10 0.10 0.10 0.11 0.13 0.13 0.13 0.11 0.09 0.09 0.08 0.08 0.11 0.11 0.10 0.09 0.09 0.09 0.08 0.09 0.08 0.08 0.09 0.08 0.07 0.07 0.08 0.08 0.08 0.08 0.10 0.10 0.10 0.13
0.21 0.18 0.14 0.13 0.15 0.17 0.15 0.13 0.12 0.12 0.11 0.11 0.11 0.12 0.13 0.12 0.12 0.11 0.09 0.07 0.07 0.07 0.09 0.11 0.10 0.09 0.08 0.06 0.06 0.06 0.07 0.08 0.08 0.08 0.06 0.06 0.07 0.08 0.08 0.07 0.08 0.08 0.09 0.10
0.25 0.21 0.17 0.13 0.15 0.18 0.18 0.15 0.12 0.12 0.12 0.13 0.12 0.12 0.13 0.13 0.11 0.09 0.07 0.06 0.05 0.05 0.05 0.07 0.08 0.06 0.05 0.04 0.04 0.05 0.06 0.06 0.05 0.04 0.05 0.05 0.06 0.08 0.07 0.05 0.05 0.05 0.07 0.08
0.31 0.25 0.19 0.17 0.20 0.21 0.21 0.18 0.16 0.14 0.14 0.16 0.14 0.13 0.13 0.13 0.11 0.09 0.08 0.07 0.07 0.07 0.05 0.04 0.04 0.05 0.05 0.04 0.04 0.05 0.05 0.05 0.04 0.04 0.04 0.06 0.07 0.06 0.05 0.04 0.04 0.05 0.06 0.07
0.39 0.34 0.27 0.23 0.21 0.21 0.20 0.20 0.19 0.17 0.18 0.19 0.16 0.14 0.13 0.12 0.09 0.08 0.07 0.06 0.07 0.07 0.04 0.03 0.03 0.04 0.05 0.04 0.04 0.04 0.04 0.04 0.04 0.05 0.06 0.06 0.05 0.03 0.03 0.04 0.04 0.05 0.05 0.05
0.46 0.41 0.36 0.26 0.20 0.19 0.21 0.23 0.21 0.18 0.16 0.17 0.16 0.14 0.12 0.11 0.10 0.08 0.07 0.06 0.07 0.07 0.04 0.04 0.04 0.04 0.04 0.04 0.04 0.05 0.04 0.05 0.05 0.05 0.04 0.03 0.03 0.03 0.03 0.04 0.05 0.05 0.06 0.05